<?xml version="1.0" encoding="UTF-8" standalone="no" ?>
<gpx xmlns="http://www.topografix.com/GPX/1/1" xmlns:xsi="http://www.w3.org/2001/XMLSchema-instance" xsi:schemaLocation="http://www.topografix.com/GPX/1/1 http://www.topografix.com/GPX/1/1/gpx.xsd" version="1.1" creator="VisuGPX - https://www.visugpx.com">
  <metadata>
    <name>Randonnée Fresne le Plan</name>
    <desc><![CDATA[Circuit au départ de Fresne le Plan avec retour par Letteguives et le Thil]]></desc>
  </metadata>
  <trk>
    <name><![CDATA[Randonnée Fresne le Plan_1]]></name>
    <trkseg>
      <trkpt lat="49.41287" lon="1.29647">
        <ele>151</ele>
        <time>2017-10-17T13:58:26Z</time>
      </trkpt>
      <trkpt lat="49.41285" lon="1.29648">
        <ele>151</ele>
        <time>2017-10-17T13:58:26Z</time>
      </trkpt>
      <trkpt lat="49.41284" lon="1.29648">
        <ele>151</ele>
        <time>2017-10-17T13:58:26Z</time>
      </trkpt>
      <trkpt lat="49.4128" lon="1.29644">
        <ele>151</ele>
        <time>2017-10-17T13:58:26Z</time>
      </trkpt>
      <trkpt lat="49.41277" lon="1.29644">
        <ele>151</ele>
        <time>2017-10-17T13:58:26Z</time>
      </trkpt>
      <trkpt lat="49.41273" lon="1.29643">
        <ele>151</ele>
        <time>2017-10-17T13:59:50Z</time>
      </trkpt>
      <trkpt lat="49.41273" lon="1.29645">
        <ele>151</ele>
        <time>2017-10-17T13:59:50Z</time>
      </trkpt>
      <trkpt lat="49.41273" lon="1.29652">
        <ele>151</ele>
        <time>2017-10-17T13:59:50Z</time>
      </trkpt>
      <trkpt lat="49.41276" lon="1.29656">
        <ele>151</ele>
        <time>2017-10-17T13:59:50Z</time>
      </trkpt>
      <trkpt lat="49.4128" lon="1.29659">
        <ele>151</ele>
        <time>2017-10-17T13:59:50Z</time>
      </trkpt>
      <trkpt lat="49.41284" lon="1.29663">
        <ele>151</ele>
        <time>2017-10-17T14:00:06Z</time>
      </trkpt>
      <trkpt lat="49.41286" lon="1.2967">
        <ele>151</ele>
        <time>2017-10-17T14:00:06Z</time>
      </trkpt>
      <trkpt lat="49.41289" lon="1.29677">
        <ele>151</ele>
        <time>2017-10-17T14:00:06Z</time>
      </trkpt>
      <trkpt lat="49.41291" lon="1.29684">
        <ele>151</ele>
        <time>2017-10-17T14:00:06Z</time>
      </trkpt>
      <trkpt lat="49.41294" lon="1.2969">
        <ele>151</ele>
        <time>2017-10-17T14:00:22Z</time>
      </trkpt>
      <trkpt lat="49.41297" lon="1.29697">
        <ele>151</ele>
        <time>2017-10-17T14:00:22Z</time>
      </trkpt>
      <trkpt lat="49.413" lon="1.29703">
        <ele>151</ele>
        <time>2017-10-17T14:00:22Z</time>
      </trkpt>
      <trkpt lat="49.41304" lon="1.29709">
        <ele>151</ele>
        <time>2017-10-17T14:00:22Z</time>
      </trkpt>
      <trkpt lat="49.41307" lon="1.29716">
        <ele>151</ele>
        <time>2017-10-17T14:00:38Z</time>
      </trkpt>
      <trkpt lat="49.4131" lon="1.29722">
        <ele>151</ele>
        <time>2017-10-17T14:00:38Z</time>
      </trkpt>
      <trkpt lat="49.41314" lon="1.29728">
        <ele>151</ele>
        <time>2017-10-17T14:00:38Z</time>
      </trkpt>
      <trkpt lat="49.41318" lon="1.29734">
        <ele>151</ele>
        <time>2017-10-17T14:00:38Z</time>
      </trkpt>
      <trkpt lat="49.41321" lon="1.29741">
        <ele>151</ele>
        <time>2017-10-17T14:00:54Z</time>
      </trkpt>
      <trkpt lat="49.41324" lon="1.29748">
        <ele>151</ele>
        <time>2017-10-17T14:00:54Z</time>
      </trkpt>
      <trkpt lat="49.41328" lon="1.29754">
        <ele>151</ele>
        <time>2017-10-17T14:00:54Z</time>
      </trkpt>
      <trkpt lat="49.41331" lon="1.2976">
        <ele>151</ele>
        <time>2017-10-17T14:00:54Z</time>
      </trkpt>
      <trkpt lat="49.41333" lon="1.29767">
        <ele>151</ele>
        <time>2017-10-17T14:01:10Z</time>
      </trkpt>
      <trkpt lat="49.41336" lon="1.29775">
        <ele>151</ele>
        <time>2017-10-17T14:01:10Z</time>
      </trkpt>
      <trkpt lat="49.41339" lon="1.29782">
        <ele>151</ele>
        <time>2017-10-17T14:01:10Z</time>
      </trkpt>
      <trkpt lat="49.41341" lon="1.29789">
        <ele>151</ele>
        <time>2017-10-17T14:01:10Z</time>
      </trkpt>
      <trkpt lat="49.41343" lon="1.29796">
        <ele>150</ele>
        <time>2017-10-17T14:01:26Z</time>
      </trkpt>
      <trkpt lat="49.41345" lon="1.29804">
        <ele>150</ele>
        <time>2017-10-17T14:01:26Z</time>
      </trkpt>
      <trkpt lat="49.41347" lon="1.29812">
        <ele>150</ele>
        <time>2017-10-17T14:01:26Z</time>
      </trkpt>
      <trkpt lat="49.41348" lon="1.29819">
        <ele>150</ele>
        <time>2017-10-17T14:01:26Z</time>
      </trkpt>
      <trkpt lat="49.4135" lon="1.29827">
        <ele>150</ele>
        <time>2017-10-17T14:01:42Z</time>
      </trkpt>
      <trkpt lat="49.41352" lon="1.29833">
        <ele>150</ele>
        <time>2017-10-17T14:01:42Z</time>
      </trkpt>
      <trkpt lat="49.41354" lon="1.29839">
        <ele>150</ele>
        <time>2017-10-17T14:01:42Z</time>
      </trkpt>
      <trkpt lat="49.41356" lon="1.29846">
        <ele>150</ele>
        <time>2017-10-17T14:01:42Z</time>
      </trkpt>
      <trkpt lat="49.41359" lon="1.29852">
        <ele>150</ele>
        <time>2017-10-17T14:01:58Z</time>
      </trkpt>
      <trkpt lat="49.41362" lon="1.29858">
        <ele>150</ele>
        <time>2017-10-17T14:01:58Z</time>
      </trkpt>
      <trkpt lat="49.41365" lon="1.29865">
        <ele>150</ele>
        <time>2017-10-17T14:01:58Z</time>
      </trkpt>
      <trkpt lat="49.41368" lon="1.29871">
        <ele>150</ele>
        <time>2017-10-17T14:01:58Z</time>
      </trkpt>
      <trkpt lat="49.4137" lon="1.29878">
        <ele>149</ele>
        <time>2017-10-17T14:02:14Z</time>
      </trkpt>
      <trkpt lat="49.41372" lon="1.29885">
        <ele>149</ele>
        <time>2017-10-17T14:02:14Z</time>
      </trkpt>
      <trkpt lat="49.41375" lon="1.2989">
        <ele>149</ele>
        <time>2017-10-17T14:02:14Z</time>
      </trkpt>
      <trkpt lat="49.41378" lon="1.29896">
        <ele>147</ele>
        <time>2017-10-17T14:02:14Z</time>
      </trkpt>
      <trkpt lat="49.41381" lon="1.29902">
        <ele>147</ele>
        <time>2017-10-17T14:02:30Z</time>
      </trkpt>
      <trkpt lat="49.41384" lon="1.29908">
        <ele>147</ele>
        <time>2017-10-17T14:02:30Z</time>
      </trkpt>
      <trkpt lat="49.41388" lon="1.29913">
        <ele>147</ele>
        <time>2017-10-17T14:02:30Z</time>
      </trkpt>
      <trkpt lat="49.41391" lon="1.29919">
        <ele>147</ele>
        <time>2017-10-17T14:02:30Z</time>
      </trkpt>
      <trkpt lat="49.41394" lon="1.29925">
        <ele>147</ele>
        <time>2017-10-17T14:02:46Z</time>
      </trkpt>
      <trkpt lat="49.41397" lon="1.29931">
        <ele>147</ele>
        <time>2017-10-17T14:02:46Z</time>
      </trkpt>
      <trkpt lat="49.414" lon="1.29938">
        <ele>147</ele>
        <time>2017-10-17T14:02:46Z</time>
      </trkpt>
      <trkpt lat="49.41403" lon="1.29944">
        <ele>147</ele>
        <time>2017-10-17T14:02:46Z</time>
      </trkpt>
      <trkpt lat="49.41405" lon="1.29952">
        <ele>147</ele>
        <time>2017-10-17T14:03:02Z</time>
      </trkpt>
      <trkpt lat="49.41407" lon="1.2996">
        <ele>147</ele>
        <time>2017-10-17T14:03:02Z</time>
      </trkpt>
      <trkpt lat="49.41409" lon="1.29967">
        <ele>147</ele>
        <time>2017-10-17T14:03:02Z</time>
      </trkpt>
      <trkpt lat="49.41411" lon="1.29976">
        <ele>147</ele>
        <time>2017-10-17T14:03:02Z</time>
      </trkpt>
      <trkpt lat="49.41411" lon="1.29984">
        <ele>147</ele>
        <time>2017-10-17T14:03:18Z</time>
      </trkpt>
      <trkpt lat="49.41412" lon="1.29992">
        <ele>147</ele>
        <time>2017-10-17T14:03:18Z</time>
      </trkpt>
      <trkpt lat="49.41414" lon="1.3">
        <ele>147</ele>
        <time>2017-10-17T14:03:18Z</time>
      </trkpt>
      <trkpt lat="49.41415" lon="1.30008">
        <ele>147</ele>
        <time>2017-10-17T14:03:18Z</time>
      </trkpt>
      <trkpt lat="49.41415" lon="1.30016">
        <ele>147</ele>
        <time>2017-10-17T14:03:34Z</time>
      </trkpt>
      <trkpt lat="49.41416" lon="1.30024">
        <ele>147</ele>
        <time>2017-10-17T14:03:34Z</time>
      </trkpt>
      <trkpt lat="49.41417" lon="1.30032">
        <ele>147</ele>
        <time>2017-10-17T14:03:34Z</time>
      </trkpt>
      <trkpt lat="49.41418" lon="1.30039">
        <ele>147</ele>
        <time>2017-10-17T14:03:34Z</time>
      </trkpt>
      <trkpt lat="49.41419" lon="1.30047">
        <ele>148</ele>
        <time>2017-10-17T14:03:50Z</time>
      </trkpt>
      <trkpt lat="49.4142" lon="1.30054">
        <ele>148</ele>
        <time>2017-10-17T14:03:50Z</time>
      </trkpt>
      <trkpt lat="49.41421" lon="1.30061">
        <ele>148</ele>
        <time>2017-10-17T14:03:50Z</time>
      </trkpt>
      <trkpt lat="49.41422" lon="1.30069">
        <ele>148</ele>
        <time>2017-10-17T14:03:50Z</time>
      </trkpt>
      <trkpt lat="49.41423" lon="1.30077">
        <ele>148</ele>
        <time>2017-10-17T14:04:06Z</time>
      </trkpt>
      <trkpt lat="49.41424" lon="1.30085">
        <ele>148</ele>
        <time>2017-10-17T14:04:06Z</time>
      </trkpt>
      <trkpt lat="49.41424" lon="1.30093">
        <ele>148</ele>
        <time>2017-10-17T14:04:06Z</time>
      </trkpt>
      <trkpt lat="49.41425" lon="1.30101">
        <ele>148</ele>
        <time>2017-10-17T14:04:06Z</time>
      </trkpt>
      <trkpt lat="49.41427" lon="1.30109">
        <ele>148</ele>
        <time>2017-10-17T14:04:22Z</time>
      </trkpt>
      <trkpt lat="49.41428" lon="1.30116">
        <ele>148</ele>
        <time>2017-10-17T14:04:22Z</time>
      </trkpt>
      <trkpt lat="49.41429" lon="1.30124">
        <ele>148</ele>
        <time>2017-10-17T14:04:22Z</time>
      </trkpt>
      <trkpt lat="49.41429" lon="1.30131">
        <ele>147</ele>
        <time>2017-10-17T14:04:22Z</time>
      </trkpt>
      <trkpt lat="49.4143" lon="1.30138">
        <ele>147</ele>
        <time>2017-10-17T14:04:38Z</time>
      </trkpt>
      <trkpt lat="49.41431" lon="1.30146">
        <ele>147</ele>
        <time>2017-10-17T14:04:38Z</time>
      </trkpt>
      <trkpt lat="49.41434" lon="1.30152">
        <ele>147</ele>
        <time>2017-10-17T14:04:38Z</time>
      </trkpt>
      <trkpt lat="49.41436" lon="1.30159">
        <ele>147</ele>
        <time>2017-10-17T14:04:38Z</time>
      </trkpt>
      <trkpt lat="49.41437" lon="1.30167">
        <ele>147</ele>
        <time>2017-10-17T14:04:54Z</time>
      </trkpt>
      <trkpt lat="49.41439" lon="1.30174">
        <ele>147</ele>
        <time>2017-10-17T14:04:54Z</time>
      </trkpt>
      <trkpt lat="49.41442" lon="1.30181">
        <ele>147</ele>
        <time>2017-10-17T14:04:54Z</time>
      </trkpt>
      <trkpt lat="49.41446" lon="1.30187">
        <ele>147</ele>
        <time>2017-10-17T14:04:54Z</time>
      </trkpt>
      <trkpt lat="49.41449" lon="1.30195">
        <ele>147</ele>
        <time>2017-10-17T14:05:10Z</time>
      </trkpt>
      <trkpt lat="49.41451" lon="1.30203">
        <ele>147</ele>
        <time>2017-10-17T14:05:10Z</time>
      </trkpt>
      <trkpt lat="49.41454" lon="1.3021">
        <ele>147</ele>
        <time>2017-10-17T14:05:10Z</time>
      </trkpt>
      <trkpt lat="49.41457" lon="1.30217">
        <ele>147</ele>
        <time>2017-10-17T14:05:10Z</time>
      </trkpt>
      <trkpt lat="49.41459" lon="1.30224">
        <ele>146</ele>
        <time>2017-10-17T14:05:26Z</time>
      </trkpt>
      <trkpt lat="49.41462" lon="1.30231">
        <ele>146</ele>
        <time>2017-10-17T14:05:26Z</time>
      </trkpt>
      <trkpt lat="49.41464" lon="1.30237">
        <ele>146</ele>
        <time>2017-10-17T14:05:26Z</time>
      </trkpt>
      <trkpt lat="49.41467" lon="1.30244">
        <ele>146</ele>
        <time>2017-10-17T14:05:26Z</time>
      </trkpt>
      <trkpt lat="49.4147" lon="1.30251">
        <ele>146</ele>
        <time>2017-10-17T14:05:42Z</time>
      </trkpt>
      <trkpt lat="49.41472" lon="1.30258">
        <ele>146</ele>
        <time>2017-10-17T14:05:42Z</time>
      </trkpt>
      <trkpt lat="49.41475" lon="1.30265">
        <ele>146</ele>
        <time>2017-10-17T14:05:42Z</time>
      </trkpt>
      <trkpt lat="49.41478" lon="1.30272">
        <ele>146</ele>
        <time>2017-10-17T14:05:42Z</time>
      </trkpt>
      <trkpt lat="49.4148" lon="1.30278">
        <ele>146</ele>
        <time>2017-10-17T14:05:58Z</time>
      </trkpt>
      <trkpt lat="49.41483" lon="1.30285">
        <ele>146</ele>
        <time>2017-10-17T14:05:58Z</time>
      </trkpt>
      <trkpt lat="49.41485" lon="1.30292">
        <ele>145</ele>
        <time>2017-10-17T14:05:58Z</time>
      </trkpt>
      <trkpt lat="49.41487" lon="1.30299">
        <ele>145</ele>
        <time>2017-10-17T14:05:58Z</time>
      </trkpt>
      <trkpt lat="49.4149" lon="1.30307">
        <ele>145</ele>
        <time>2017-10-17T14:06:14Z</time>
      </trkpt>
      <trkpt lat="49.41491" lon="1.30314">
        <ele>145</ele>
        <time>2017-10-17T14:06:14Z</time>
      </trkpt>
      <trkpt lat="49.41493" lon="1.30322">
        <ele>145</ele>
        <time>2017-10-17T14:06:14Z</time>
      </trkpt>
      <trkpt lat="49.41495" lon="1.30329">
        <ele>145</ele>
        <time>2017-10-17T14:06:14Z</time>
      </trkpt>
      <trkpt lat="49.41497" lon="1.30335">
        <ele>145</ele>
        <time>2017-10-17T14:06:30Z</time>
      </trkpt>
      <trkpt lat="49.41498" lon="1.30343">
        <ele>145</ele>
        <time>2017-10-17T14:06:30Z</time>
      </trkpt>
      <trkpt lat="49.41498" lon="1.30351">
        <ele>145</ele>
        <time>2017-10-17T14:06:30Z</time>
      </trkpt>
      <trkpt lat="49.415" lon="1.30358">
        <ele>145</ele>
        <time>2017-10-17T14:06:30Z</time>
      </trkpt>
      <trkpt lat="49.41501" lon="1.30366">
        <ele>145</ele>
        <time>2017-10-17T14:06:46Z</time>
      </trkpt>
      <trkpt lat="49.41502" lon="1.30373">
        <ele>145</ele>
        <time>2017-10-17T14:06:46Z</time>
      </trkpt>
      <trkpt lat="49.41503" lon="1.30381">
        <ele>147</ele>
        <time>2017-10-17T14:06:46Z</time>
      </trkpt>
      <trkpt lat="49.41503" lon="1.30389">
        <ele>147</ele>
        <time>2017-10-17T14:06:46Z</time>
      </trkpt>
      <trkpt lat="49.41505" lon="1.30396">
        <ele>147</ele>
        <time>2017-10-17T14:07:02Z</time>
      </trkpt>
      <trkpt lat="49.41506" lon="1.30403">
        <ele>147</ele>
        <time>2017-10-17T14:07:02Z</time>
      </trkpt>
      <trkpt lat="49.41507" lon="1.30411">
        <ele>147</ele>
        <time>2017-10-17T14:07:02Z</time>
      </trkpt>
      <trkpt lat="49.41508" lon="1.30419">
        <ele>147</ele>
        <time>2017-10-17T14:07:02Z</time>
      </trkpt>
      <trkpt lat="49.41509" lon="1.30427">
        <ele>147</ele>
        <time>2017-10-17T14:07:18Z</time>
      </trkpt>
      <trkpt lat="49.4151" lon="1.30435">
        <ele>147</ele>
        <time>2017-10-17T14:07:18Z</time>
      </trkpt>
      <trkpt lat="49.41511" lon="1.30442">
        <ele>147</ele>
        <time>2017-10-17T14:07:18Z</time>
      </trkpt>
      <trkpt lat="49.41512" lon="1.30451">
        <ele>147</ele>
        <time>2017-10-17T14:07:18Z</time>
      </trkpt>
      <trkpt lat="49.41513" lon="1.30458">
        <ele>147</ele>
        <time>2017-10-17T14:07:34Z</time>
      </trkpt>
      <trkpt lat="49.41514" lon="1.30467">
        <ele>147</ele>
        <time>2017-10-17T14:07:34Z</time>
      </trkpt>
      <trkpt lat="49.41514" lon="1.30474">
        <ele>147</ele>
        <time>2017-10-17T14:07:34Z</time>
      </trkpt>
      <trkpt lat="49.41514" lon="1.30482">
        <ele>147</ele>
        <time>2017-10-17T14:07:34Z</time>
      </trkpt>
      <trkpt lat="49.41514" lon="1.30489">
        <ele>147</ele>
        <time>2017-10-17T14:07:50Z</time>
      </trkpt>
      <trkpt lat="49.41515" lon="1.30498">
        <ele>147</ele>
        <time>2017-10-17T14:07:50Z</time>
      </trkpt>
      <trkpt lat="49.41515" lon="1.30506">
        <ele>147</ele>
        <time>2017-10-17T14:07:50Z</time>
      </trkpt>
      <trkpt lat="49.41515" lon="1.30514">
        <ele>147</ele>
        <time>2017-10-17T14:07:50Z</time>
      </trkpt>
      <trkpt lat="49.41516" lon="1.30521">
        <ele>147</ele>
        <time>2017-10-17T14:08:06Z</time>
      </trkpt>
      <trkpt lat="49.41516" lon="1.30529">
        <ele>147</ele>
        <time>2017-10-17T14:08:06Z</time>
      </trkpt>
      <trkpt lat="49.41516" lon="1.30536">
        <ele>147</ele>
        <time>2017-10-17T14:08:06Z</time>
      </trkpt>
      <trkpt lat="49.41516" lon="1.30545">
        <ele>146</ele>
        <time>2017-10-17T14:08:06Z</time>
      </trkpt>
      <trkpt lat="49.41516" lon="1.30553">
        <ele>146</ele>
        <time>2017-10-17T14:08:22Z</time>
      </trkpt>
      <trkpt lat="49.41516" lon="1.3056">
        <ele>146</ele>
        <time>2017-10-17T14:08:22Z</time>
      </trkpt>
      <trkpt lat="49.41517" lon="1.30568">
        <ele>146</ele>
        <time>2017-10-17T14:08:22Z</time>
      </trkpt>
      <trkpt lat="49.41517" lon="1.30576">
        <ele>146</ele>
        <time>2017-10-17T14:08:22Z</time>
      </trkpt>
      <trkpt lat="49.41517" lon="1.30584">
        <ele>146</ele>
        <time>2017-10-17T14:08:38Z</time>
      </trkpt>
      <trkpt lat="49.41517" lon="1.30592">
        <ele>146</ele>
        <time>2017-10-17T14:08:38Z</time>
      </trkpt>
      <trkpt lat="49.41517" lon="1.306">
        <ele>146</ele>
        <time>2017-10-17T14:08:38Z</time>
      </trkpt>
      <trkpt lat="49.41517" lon="1.30608">
        <ele>146</ele>
        <time>2017-10-17T14:08:38Z</time>
      </trkpt>
      <trkpt lat="49.41517" lon="1.30615">
        <ele>146</ele>
        <time>2017-10-17T14:08:54Z</time>
      </trkpt>
      <trkpt lat="49.41518" lon="1.30623">
        <ele>146</ele>
        <time>2017-10-17T14:08:54Z</time>
      </trkpt>
      <trkpt lat="49.41518" lon="1.30631">
        <ele>146</ele>
        <time>2017-10-17T14:08:54Z</time>
      </trkpt>
      <trkpt lat="49.41518" lon="1.30639">
        <ele>146</ele>
        <time>2017-10-17T14:08:54Z</time>
      </trkpt>
      <trkpt lat="49.41518" lon="1.30647">
        <ele>146</ele>
        <time>2017-10-17T14:09:10Z</time>
      </trkpt>
      <trkpt lat="49.41518" lon="1.30655">
        <ele>146</ele>
        <time>2017-10-17T14:09:10Z</time>
      </trkpt>
      <trkpt lat="49.41518" lon="1.30663">
        <ele>146</ele>
        <time>2017-10-17T14:09:10Z</time>
      </trkpt>
      <trkpt lat="49.41518" lon="1.30671">
        <ele>146</ele>
        <time>2017-10-17T14:09:10Z</time>
      </trkpt>
      <trkpt lat="49.41518" lon="1.30679">
        <ele>146</ele>
        <time>2017-10-17T14:09:26Z</time>
      </trkpt>
      <trkpt lat="49.41519" lon="1.30686">
        <ele>146</ele>
        <time>2017-10-17T14:09:26Z</time>
      </trkpt>
      <trkpt lat="49.41519" lon="1.30694">
        <ele>146</ele>
        <time>2017-10-17T14:09:26Z</time>
      </trkpt>
      <trkpt lat="49.41521" lon="1.30701">
        <ele>146</ele>
        <time>2017-10-17T14:09:26Z</time>
      </trkpt>
      <trkpt lat="49.41522" lon="1.30709">
        <ele>145</ele>
        <time>2017-10-17T14:09:42Z</time>
      </trkpt>
      <trkpt lat="49.41524" lon="1.30716">
        <ele>145</ele>
        <time>2017-10-17T14:09:42Z</time>
      </trkpt>
      <trkpt lat="49.41526" lon="1.30723">
        <ele>145</ele>
        <time>2017-10-17T14:09:42Z</time>
      </trkpt>
      <trkpt lat="49.41528" lon="1.30731">
        <ele>145</ele>
        <time>2017-10-17T14:09:42Z</time>
      </trkpt>
      <trkpt lat="49.41529" lon="1.30739">
        <ele>145</ele>
        <time>2017-10-17T14:09:58Z</time>
      </trkpt>
      <trkpt lat="49.4153" lon="1.30746">
        <ele>145</ele>
        <time>2017-10-17T14:09:58Z</time>
      </trkpt>
      <trkpt lat="49.4153" lon="1.30755">
        <ele>145</ele>
        <time>2017-10-17T14:09:58Z</time>
      </trkpt>
      <trkpt lat="49.4153" lon="1.30763">
        <ele>145</ele>
        <time>2017-10-17T14:09:58Z</time>
      </trkpt>
      <trkpt lat="49.41529" lon="1.30772">
        <ele>145</ele>
        <time>2017-10-17T14:10:14Z</time>
      </trkpt>
      <trkpt lat="49.41527" lon="1.30779">
        <ele>145</ele>
        <time>2017-10-17T14:10:14Z</time>
      </trkpt>
      <trkpt lat="49.41526" lon="1.30787">
        <ele>145</ele>
        <time>2017-10-17T14:10:14Z</time>
      </trkpt>
      <trkpt lat="49.41523" lon="1.30795">
        <ele>145</ele>
        <time>2017-10-17T14:10:14Z</time>
      </trkpt>
      <trkpt lat="49.41522" lon="1.30803">
        <ele>145</ele>
        <time>2017-10-17T14:10:30Z</time>
      </trkpt>
      <trkpt lat="49.41519" lon="1.30811">
        <ele>145</ele>
        <time>2017-10-17T14:10:30Z</time>
      </trkpt>
      <trkpt lat="49.41517" lon="1.30818">
        <ele>145</ele>
        <time>2017-10-17T14:10:30Z</time>
      </trkpt>
      <trkpt lat="49.41515" lon="1.30825">
        <ele>145</ele>
        <time>2017-10-17T14:10:30Z</time>
      </trkpt>
      <trkpt lat="49.41512" lon="1.30832">
        <ele>145</ele>
        <time>2017-10-17T14:10:46Z</time>
      </trkpt>
      <trkpt lat="49.41509" lon="1.30839">
        <ele>145</ele>
        <time>2017-10-17T14:10:46Z</time>
      </trkpt>
      <trkpt lat="49.41508" lon="1.30847">
        <ele>145</ele>
        <time>2017-10-17T14:10:46Z</time>
      </trkpt>
      <trkpt lat="49.41506" lon="1.30854">
        <ele>145</ele>
        <time>2017-10-17T14:10:46Z</time>
      </trkpt>
      <trkpt lat="49.41504" lon="1.30862">
        <ele>145</ele>
        <time>2017-10-17T14:11:02Z</time>
      </trkpt>
      <trkpt lat="49.41503" lon="1.3087">
        <ele>145</ele>
        <time>2017-10-17T14:11:02Z</time>
      </trkpt>
      <trkpt lat="49.41503" lon="1.30878">
        <ele>143</ele>
        <time>2017-10-17T14:11:02Z</time>
      </trkpt>
      <trkpt lat="49.41502" lon="1.30886">
        <ele>143</ele>
        <time>2017-10-17T14:11:02Z</time>
      </trkpt>
      <trkpt lat="49.41503" lon="1.30894">
        <ele>143</ele>
        <time>2017-10-17T14:11:18Z</time>
      </trkpt>
      <trkpt lat="49.41502" lon="1.30902">
        <ele>143</ele>
        <time>2017-10-17T14:11:18Z</time>
      </trkpt>
      <trkpt lat="49.41503" lon="1.3091">
        <ele>143</ele>
        <time>2017-10-17T14:11:18Z</time>
      </trkpt>
      <trkpt lat="49.41503" lon="1.30917">
        <ele>143</ele>
        <time>2017-10-17T14:11:18Z</time>
      </trkpt>
      <trkpt lat="49.41502" lon="1.30925">
        <ele>143</ele>
        <time>2017-10-17T14:11:34Z</time>
      </trkpt>
      <trkpt lat="49.41503" lon="1.30933">
        <ele>143</ele>
        <time>2017-10-17T14:11:34Z</time>
      </trkpt>
      <trkpt lat="49.41503" lon="1.3094">
        <ele>143</ele>
        <time>2017-10-17T14:11:34Z</time>
      </trkpt>
      <trkpt lat="49.41504" lon="1.30948">
        <ele>143</ele>
        <time>2017-10-17T14:11:34Z</time>
      </trkpt>
      <trkpt lat="49.41504" lon="1.30956">
        <ele>143</ele>
        <time>2017-10-17T14:11:50Z</time>
      </trkpt>
      <trkpt lat="49.41505" lon="1.30964">
        <ele>142</ele>
        <time>2017-10-17T14:11:50Z</time>
      </trkpt>
      <trkpt lat="49.41505" lon="1.30971">
        <ele>142</ele>
        <time>2017-10-17T14:11:50Z</time>
      </trkpt>
      <trkpt lat="49.41506" lon="1.30979">
        <ele>142</ele>
        <time>2017-10-17T14:11:50Z</time>
      </trkpt>
      <trkpt lat="49.41507" lon="1.30987">
        <ele>142</ele>
        <time>2017-10-17T14:12:06Z</time>
      </trkpt>
      <trkpt lat="49.41508" lon="1.30995">
        <ele>142</ele>
        <time>2017-10-17T14:12:06Z</time>
      </trkpt>
      <trkpt lat="49.41509" lon="1.31003">
        <ele>142</ele>
        <time>2017-10-17T14:12:06Z</time>
      </trkpt>
      <trkpt lat="49.41509" lon="1.3101">
        <ele>142</ele>
        <time>2017-10-17T14:12:06Z</time>
      </trkpt>
      <trkpt lat="49.4151" lon="1.31018">
        <ele>142</ele>
        <time>2017-10-17T14:12:22Z</time>
      </trkpt>
      <trkpt lat="49.41511" lon="1.31026">
        <ele>142</ele>
        <time>2017-10-17T14:12:22Z</time>
      </trkpt>
      <trkpt lat="49.41512" lon="1.31034">
        <ele>142</ele>
        <time>2017-10-17T14:12:22Z</time>
      </trkpt>
      <trkpt lat="49.41513" lon="1.31042">
        <ele>143</ele>
        <time>2017-10-17T14:12:22Z</time>
      </trkpt>
      <trkpt lat="49.41514" lon="1.3105">
        <ele>143</ele>
        <time>2017-10-17T14:12:38Z</time>
      </trkpt>
      <trkpt lat="49.41514" lon="1.31058">
        <ele>143</ele>
        <time>2017-10-17T14:12:38Z</time>
      </trkpt>
      <trkpt lat="49.41513" lon="1.31066">
        <ele>143</ele>
        <time>2017-10-17T14:12:38Z</time>
      </trkpt>
      <trkpt lat="49.41513" lon="1.31074">
        <ele>143</ele>
        <time>2017-10-17T14:12:38Z</time>
      </trkpt>
      <trkpt lat="49.41512" lon="1.31082">
        <ele>143</ele>
        <time>2017-10-17T14:12:54Z</time>
      </trkpt>
      <trkpt lat="49.41511" lon="1.31089">
        <ele>143</ele>
        <time>2017-10-17T14:12:54Z</time>
      </trkpt>
      <trkpt lat="49.4151" lon="1.31096">
        <ele>143</ele>
        <time>2017-10-17T14:12:54Z</time>
      </trkpt>
      <trkpt lat="49.41508" lon="1.31104">
        <ele>143</ele>
        <time>2017-10-17T14:12:54Z</time>
      </trkpt>
      <trkpt lat="49.41507" lon="1.31112">
        <ele>143</ele>
        <time>2017-10-17T14:13:10Z</time>
      </trkpt>
      <trkpt lat="49.41506" lon="1.3112">
        <ele>143</ele>
        <time>2017-10-17T14:13:10Z</time>
      </trkpt>
      <trkpt lat="49.41505" lon="1.31127">
        <ele>141</ele>
        <time>2017-10-17T14:13:10Z</time>
      </trkpt>
      <trkpt lat="49.41505" lon="1.31135">
        <ele>141</ele>
        <time>2017-10-17T14:13:10Z</time>
      </trkpt>
      <trkpt lat="49.41504" lon="1.31143">
        <ele>141</ele>
        <time>2017-10-17T14:13:26Z</time>
      </trkpt>
      <trkpt lat="49.41503" lon="1.3115">
        <ele>141</ele>
        <time>2017-10-17T14:13:26Z</time>
      </trkpt>
      <trkpt lat="49.41502" lon="1.31158">
        <ele>141</ele>
        <time>2017-10-17T14:13:26Z</time>
      </trkpt>
      <trkpt lat="49.41501" lon="1.31162">
        <ele>141</ele>
        <time>2017-10-17T14:13:26Z</time>
      </trkpt>
      <trkpt lat="49.415" lon="1.31166">
        <ele>141</ele>
        <time>2017-10-17T14:13:42Z</time>
      </trkpt>
      <trkpt lat="49.41498" lon="1.31173">
        <ele>141</ele>
        <time>2017-10-17T14:13:42Z</time>
      </trkpt>
      <trkpt lat="49.41496" lon="1.31181">
        <ele>141</ele>
        <time>2017-10-17T14:13:42Z</time>
      </trkpt>
      <trkpt lat="49.41495" lon="1.31189">
        <ele>141</ele>
        <time>2017-10-17T14:13:42Z</time>
      </trkpt>
      <trkpt lat="49.41493" lon="1.31197">
        <ele>141</ele>
        <time>2017-10-17T14:13:58Z</time>
      </trkpt>
      <trkpt lat="49.41492" lon="1.31204">
        <ele>141</ele>
        <time>2017-10-17T14:13:58Z</time>
      </trkpt>
      <trkpt lat="49.4149" lon="1.31212">
        <ele>141</ele>
        <time>2017-10-17T14:13:58Z</time>
      </trkpt>
      <trkpt lat="49.41488" lon="1.31219">
        <ele>141</ele>
        <time>2017-10-17T14:13:58Z</time>
      </trkpt>
      <trkpt lat="49.41486" lon="1.31227">
        <ele>141</ele>
        <time>2017-10-17T14:14:14Z</time>
      </trkpt>
      <trkpt lat="49.41484" lon="1.31235">
        <ele>141</ele>
        <time>2017-10-17T14:14:14Z</time>
      </trkpt>
      <trkpt lat="49.41483" lon="1.31243">
        <ele>141</ele>
        <time>2017-10-17T14:14:14Z</time>
      </trkpt>
      <trkpt lat="49.41482" lon="1.31251">
        <ele>141</ele>
        <time>2017-10-17T14:14:14Z</time>
      </trkpt>
      <trkpt lat="49.41481" lon="1.31258">
        <ele>141</ele>
        <time>2017-10-17T14:14:30Z</time>
      </trkpt>
      <trkpt lat="49.41479" lon="1.31266">
        <ele>141</ele>
        <time>2017-10-17T14:14:30Z</time>
      </trkpt>
      <trkpt lat="49.41478" lon="1.31274">
        <ele>141</ele>
        <time>2017-10-17T14:14:30Z</time>
      </trkpt>
      <trkpt lat="49.41477" lon="1.31282">
        <ele>141</ele>
        <time>2017-10-17T14:14:30Z</time>
      </trkpt>
      <trkpt lat="49.41476" lon="1.3129">
        <ele>141</ele>
        <time>2017-10-17T14:14:46Z</time>
      </trkpt>
      <trkpt lat="49.41475" lon="1.31297">
        <ele>139</ele>
        <time>2017-10-17T14:14:46Z</time>
      </trkpt>
      <trkpt lat="49.41474" lon="1.31305">
        <ele>139</ele>
        <time>2017-10-17T14:14:46Z</time>
      </trkpt>
      <trkpt lat="49.41472" lon="1.31313">
        <ele>139</ele>
        <time>2017-10-17T14:14:46Z</time>
      </trkpt>
      <trkpt lat="49.41471" lon="1.3132">
        <ele>139</ele>
        <time>2017-10-17T14:15:02Z</time>
      </trkpt>
      <trkpt lat="49.4147" lon="1.31328">
        <ele>139</ele>
        <time>2017-10-17T14:15:02Z</time>
      </trkpt>
      <trkpt lat="49.41469" lon="1.31335">
        <ele>139</ele>
        <time>2017-10-17T14:15:02Z</time>
      </trkpt>
      <trkpt lat="49.41471" lon="1.31343">
        <ele>139</ele>
        <time>2017-10-17T14:15:02Z</time>
      </trkpt>
      <trkpt lat="49.41473" lon="1.3135">
        <ele>139</ele>
        <time>2017-10-17T14:15:18Z</time>
      </trkpt>
      <trkpt lat="49.41475" lon="1.31357">
        <ele>139</ele>
        <time>2017-10-17T14:15:18Z</time>
      </trkpt>
      <trkpt lat="49.41478" lon="1.31365">
        <ele>139</ele>
        <time>2017-10-17T14:15:18Z</time>
      </trkpt>
      <trkpt lat="49.41479" lon="1.31372">
        <ele>139</ele>
        <time>2017-10-17T14:15:18Z</time>
      </trkpt>
      <trkpt lat="49.41482" lon="1.31379">
        <ele>138</ele>
        <time>2017-10-17T14:15:34Z</time>
      </trkpt>
      <trkpt lat="49.41483" lon="1.31386">
        <ele>138</ele>
        <time>2017-10-17T14:15:34Z</time>
      </trkpt>
      <trkpt lat="49.41485" lon="1.31394">
        <ele>138</ele>
        <time>2017-10-17T14:15:34Z</time>
      </trkpt>
      <trkpt lat="49.41487" lon="1.31399">
        <ele>138</ele>
        <time>2017-10-17T14:15:34Z</time>
      </trkpt>
      <trkpt lat="49.4149" lon="1.31408">
        <ele>138</ele>
        <time>2017-10-17T14:15:50Z</time>
      </trkpt>
      <trkpt lat="49.41492" lon="1.31415">
        <ele>138</ele>
        <time>2017-10-17T14:15:50Z</time>
      </trkpt>
      <trkpt lat="49.41496" lon="1.3142">
        <ele>138</ele>
        <time>2017-10-17T14:15:50Z</time>
      </trkpt>
      <trkpt lat="49.415" lon="1.31425">
        <ele>138</ele>
        <time>2017-10-17T14:15:50Z</time>
      </trkpt>
      <trkpt lat="49.41505" lon="1.31426">
        <ele>138</ele>
        <time>2017-10-17T14:16:06Z</time>
      </trkpt>
      <trkpt lat="49.4151" lon="1.31428">
        <ele>138</ele>
        <time>2017-10-17T14:16:06Z</time>
      </trkpt>
      <trkpt lat="49.41515" lon="1.31426">
        <ele>138</ele>
        <time>2017-10-17T14:16:06Z</time>
      </trkpt>
      <trkpt lat="49.4152" lon="1.31425">
        <ele>138</ele>
        <time>2017-10-17T14:16:06Z</time>
      </trkpt>
      <trkpt lat="49.41525" lon="1.31423">
        <ele>138</ele>
        <time>2017-10-17T14:16:22Z</time>
      </trkpt>
      <trkpt lat="49.4153" lon="1.31422">
        <ele>138</ele>
        <time>2017-10-17T14:16:22Z</time>
      </trkpt>
      <trkpt lat="49.41535" lon="1.31419">
        <ele>138</ele>
        <time>2017-10-17T14:16:22Z</time>
      </trkpt>
      <trkpt lat="49.41539" lon="1.31416">
        <ele>138</ele>
        <time>2017-10-17T14:16:22Z</time>
      </trkpt>
      <trkpt lat="49.41544" lon="1.31414">
        <ele>139</ele>
        <time>2017-10-17T14:16:38Z</time>
      </trkpt>
      <trkpt lat="49.41548" lon="1.31412">
        <ele>139</ele>
        <time>2017-10-17T14:16:38Z</time>
      </trkpt>
      <trkpt lat="49.41553" lon="1.31409">
        <ele>139</ele>
        <time>2017-10-17T14:16:38Z</time>
      </trkpt>
      <trkpt lat="49.41558" lon="1.31407">
        <ele>139</ele>
        <time>2017-10-17T14:16:38Z</time>
      </trkpt>
      <trkpt lat="49.41563" lon="1.31406">
        <ele>139</ele>
        <time>2017-10-17T14:16:54Z</time>
      </trkpt>
      <trkpt lat="49.41568" lon="1.31403">
        <ele>139</ele>
        <time>2017-10-17T14:16:54Z</time>
      </trkpt>
      <trkpt lat="49.41573" lon="1.31401">
        <ele>139</ele>
        <time>2017-10-17T14:16:54Z</time>
      </trkpt>
      <trkpt lat="49.41578" lon="1.31398">
        <ele>139</ele>
        <time>2017-10-17T14:16:54Z</time>
      </trkpt>
      <trkpt lat="49.41583" lon="1.31396">
        <ele>139</ele>
        <time>2017-10-17T14:17:10Z</time>
      </trkpt>
      <trkpt lat="49.41588" lon="1.31394">
        <ele>139</ele>
        <time>2017-10-17T14:17:10Z</time>
      </trkpt>
      <trkpt lat="49.41592" lon="1.31391">
        <ele>139</ele>
        <time>2017-10-17T14:17:10Z</time>
      </trkpt>
      <trkpt lat="49.41597" lon="1.31389">
        <ele>139</ele>
        <time>2017-10-17T14:17:10Z</time>
      </trkpt>
      <trkpt lat="49.41602" lon="1.31386">
        <ele>139</ele>
        <time>2017-10-17T14:17:26Z</time>
      </trkpt>
      <trkpt lat="49.41607" lon="1.31384">
        <ele>139</ele>
        <time>2017-10-17T14:17:26Z</time>
      </trkpt>
      <trkpt lat="49.41612" lon="1.31385">
        <ele>139</ele>
        <time>2017-10-17T14:17:26Z</time>
      </trkpt>
      <trkpt lat="49.41616" lon="1.31384">
        <ele>139</ele>
        <time>2017-10-17T14:17:26Z</time>
      </trkpt>
      <trkpt lat="49.4162" lon="1.31382">
        <ele>139</ele>
        <time>2017-10-17T14:17:42Z</time>
      </trkpt>
      <trkpt lat="49.41624" lon="1.3138">
        <ele>139</ele>
        <time>2017-10-17T14:17:42Z</time>
      </trkpt>
      <trkpt lat="49.41629" lon="1.31379">
        <ele>142</ele>
        <time>2017-10-17T14:17:42Z</time>
      </trkpt>
      <trkpt lat="49.41633" lon="1.31377">
        <ele>142</ele>
        <time>2017-10-17T14:17:42Z</time>
      </trkpt>
      <trkpt lat="49.41637" lon="1.31377">
        <ele>142</ele>
        <time>2017-10-17T14:17:58Z</time>
      </trkpt>
      <trkpt lat="49.41639" lon="1.31376">
        <ele>142</ele>
        <time>2017-10-17T14:17:58Z</time>
      </trkpt>
      <trkpt lat="49.41643" lon="1.31374">
        <ele>141</ele>
        <time>2017-10-17T14:17:58Z</time>
      </trkpt>
      <trkpt lat="49.41647" lon="1.31373">
        <ele>141</ele>
        <time>2017-10-17T14:17:58Z</time>
      </trkpt>
      <trkpt lat="49.41652" lon="1.31372">
        <ele>141</ele>
        <time>2017-10-17T14:18:14Z</time>
      </trkpt>
      <trkpt lat="49.41656" lon="1.31372">
        <ele>141</ele>
        <time>2017-10-17T14:18:14Z</time>
      </trkpt>
      <trkpt lat="49.41662" lon="1.31373">
        <ele>141</ele>
        <time>2017-10-17T14:18:14Z</time>
      </trkpt>
      <trkpt lat="49.41666" lon="1.31372">
        <ele>141</ele>
        <time>2017-10-17T14:18:14Z</time>
      </trkpt>
      <trkpt lat="49.41671" lon="1.31371">
        <ele>141</ele>
        <time>2017-10-17T14:18:30Z</time>
      </trkpt>
      <trkpt lat="49.41676" lon="1.3137">
        <ele>141</ele>
        <time>2017-10-17T14:18:30Z</time>
      </trkpt>
      <trkpt lat="49.41681" lon="1.31369">
        <ele>141</ele>
        <time>2017-10-17T14:18:30Z</time>
      </trkpt>
      <trkpt lat="49.41686" lon="1.31369">
        <ele>141</ele>
        <time>2017-10-17T14:18:30Z</time>
      </trkpt>
      <trkpt lat="49.41691" lon="1.31369">
        <ele>141</ele>
        <time>2017-10-17T14:18:46Z</time>
      </trkpt>
      <trkpt lat="49.41696" lon="1.31369">
        <ele>141</ele>
        <time>2017-10-17T14:18:46Z</time>
      </trkpt>
      <trkpt lat="49.41701" lon="1.31368">
        <ele>141</ele>
        <time>2017-10-17T14:18:46Z</time>
      </trkpt>
      <trkpt lat="49.41706" lon="1.31367">
        <ele>141</ele>
        <time>2017-10-17T14:18:46Z</time>
      </trkpt>
      <trkpt lat="49.41711" lon="1.31367">
        <ele>139</ele>
        <time>2017-10-17T14:19:02Z</time>
      </trkpt>
      <trkpt lat="49.41716" lon="1.31366">
        <ele>139</ele>
        <time>2017-10-17T14:19:02Z</time>
      </trkpt>
      <trkpt lat="49.41721" lon="1.31366">
        <ele>139</ele>
        <time>2017-10-17T14:19:02Z</time>
      </trkpt>
      <trkpt lat="49.41727" lon="1.31365">
        <ele>139</ele>
        <time>2017-10-17T14:19:02Z</time>
      </trkpt>
      <trkpt lat="49.41732" lon="1.31365">
        <ele>139</ele>
        <time>2017-10-17T14:19:18Z</time>
      </trkpt>
      <trkpt lat="49.41736" lon="1.31364">
        <ele>139</ele>
        <time>2017-10-17T14:19:18Z</time>
      </trkpt>
      <trkpt lat="49.41741" lon="1.31364">
        <ele>139</ele>
        <time>2017-10-17T14:19:18Z</time>
      </trkpt>
      <trkpt lat="49.41747" lon="1.31363">
        <ele>139</ele>
        <time>2017-10-17T14:19:18Z</time>
      </trkpt>
      <trkpt lat="49.41752" lon="1.31363">
        <ele>139</ele>
        <time>2017-10-17T14:19:34Z</time>
      </trkpt>
      <trkpt lat="49.41757" lon="1.31362">
        <ele>139</ele>
        <time>2017-10-17T14:19:34Z</time>
      </trkpt>
      <trkpt lat="49.41761" lon="1.31361">
        <ele>139</ele>
        <time>2017-10-17T14:19:34Z</time>
      </trkpt>
      <trkpt lat="49.41766" lon="1.31361">
        <ele>139</ele>
        <time>2017-10-17T14:19:34Z</time>
      </trkpt>
      <trkpt lat="49.41771" lon="1.3136">
        <ele>139</ele>
        <time>2017-10-17T14:19:50Z</time>
      </trkpt>
      <trkpt lat="49.41776" lon="1.3136">
        <ele>139</ele>
        <time>2017-10-17T14:19:50Z</time>
      </trkpt>
      <trkpt lat="49.41781" lon="1.31359">
        <ele>139</ele>
        <time>2017-10-17T14:19:50Z</time>
      </trkpt>
      <trkpt lat="49.41786" lon="1.31358">
        <ele>139</ele>
        <time>2017-10-17T14:19:50Z</time>
      </trkpt>
      <trkpt lat="49.4179" lon="1.31357">
        <ele>139</ele>
        <time>2017-10-17T14:20:06Z</time>
      </trkpt>
      <trkpt lat="49.41795" lon="1.31356">
        <ele>137</ele>
        <time>2017-10-17T14:20:06Z</time>
      </trkpt>
      <trkpt lat="49.418" lon="1.31356">
        <ele>137</ele>
        <time>2017-10-17T14:20:06Z</time>
      </trkpt>
      <trkpt lat="49.41804" lon="1.31355">
        <ele>137</ele>
        <time>2017-10-17T14:20:06Z</time>
      </trkpt>
      <trkpt lat="49.4181" lon="1.31357">
        <ele>137</ele>
        <time>2017-10-17T14:20:38Z</time>
      </trkpt>
      <trkpt lat="49.4181" lon="1.31357">
        <ele>137</ele>
        <time>2017-10-17T14:20:38Z</time>
      </trkpt>
      <trkpt lat="49.41808" lon="1.31361">
        <ele>137</ele>
        <time>2017-10-17T14:20:38Z</time>
      </trkpt>
      <trkpt lat="49.41806" lon="1.31366">
        <ele>137</ele>
        <time>2017-10-17T14:20:38Z</time>
      </trkpt>
      <trkpt lat="49.41807" lon="1.31371">
        <ele>137</ele>
        <time>2017-10-17T14:20:38Z</time>
      </trkpt>
      <trkpt lat="49.41808" lon="1.31377">
        <ele>137</ele>
        <time>2017-10-17T14:20:54Z</time>
      </trkpt>
      <trkpt lat="49.41809" lon="1.31383">
        <ele>137</ele>
        <time>2017-10-17T14:20:54Z</time>
      </trkpt>
      <trkpt lat="49.4181" lon="1.3139">
        <ele>137</ele>
        <time>2017-10-17T14:20:54Z</time>
      </trkpt>
      <trkpt lat="49.41812" lon="1.31396">
        <ele>137</ele>
        <time>2017-10-17T14:20:54Z</time>
      </trkpt>
      <trkpt lat="49.41814" lon="1.31403">
        <ele>137</ele>
        <time>2017-10-17T14:21:10Z</time>
      </trkpt>
      <trkpt lat="49.41816" lon="1.31411">
        <ele>137</ele>
        <time>2017-10-17T14:21:10Z</time>
      </trkpt>
      <trkpt lat="49.41817" lon="1.31418">
        <ele>137</ele>
        <time>2017-10-17T14:21:10Z</time>
      </trkpt>
      <trkpt lat="49.41819" lon="1.31425">
        <ele>137</ele>
        <time>2017-10-17T14:21:10Z</time>
      </trkpt>
      <trkpt lat="49.4182" lon="1.31431">
        <ele>137</ele>
        <time>2017-10-17T14:21:26Z</time>
      </trkpt>
      <trkpt lat="49.41822" lon="1.31438">
        <ele>137</ele>
        <time>2017-10-17T14:21:26Z</time>
      </trkpt>
      <trkpt lat="49.41824" lon="1.31445">
        <ele>137</ele>
        <time>2017-10-17T14:21:26Z</time>
      </trkpt>
      <trkpt lat="49.41825" lon="1.31452">
        <ele>137</ele>
        <time>2017-10-17T14:21:26Z</time>
      </trkpt>
      <trkpt lat="49.41827" lon="1.31459">
        <ele>134</ele>
        <time>2017-10-17T14:21:42Z</time>
      </trkpt>
      <trkpt lat="49.41829" lon="1.31466">
        <ele>134</ele>
        <time>2017-10-17T14:21:42Z</time>
      </trkpt>
      <trkpt lat="49.41831" lon="1.31473">
        <ele>134</ele>
        <time>2017-10-17T14:21:42Z</time>
      </trkpt>
      <trkpt lat="49.41832" lon="1.3148">
        <ele>134</ele>
        <time>2017-10-17T14:21:42Z</time>
      </trkpt>
      <trkpt lat="49.41833" lon="1.31487">
        <ele>134</ele>
        <time>2017-10-17T14:21:58Z</time>
      </trkpt>
      <trkpt lat="49.41835" lon="1.31494">
        <ele>134</ele>
        <time>2017-10-17T14:21:58Z</time>
      </trkpt>
      <trkpt lat="49.41837" lon="1.31502">
        <ele>134</ele>
        <time>2017-10-17T14:21:58Z</time>
      </trkpt>
      <trkpt lat="49.41839" lon="1.31509">
        <ele>134</ele>
        <time>2017-10-17T14:21:58Z</time>
      </trkpt>
      <trkpt lat="49.41841" lon="1.31516">
        <ele>134</ele>
        <time>2017-10-17T14:22:14Z</time>
      </trkpt>
      <trkpt lat="49.41842" lon="1.31523">
        <ele>134</ele>
        <time>2017-10-17T14:22:14Z</time>
      </trkpt>
      <trkpt lat="49.41844" lon="1.3153">
        <ele>134</ele>
        <time>2017-10-17T14:22:14Z</time>
      </trkpt>
      <trkpt lat="49.41845" lon="1.31538">
        <ele>134</ele>
        <time>2017-10-17T14:22:14Z</time>
      </trkpt>
      <trkpt lat="49.41847" lon="1.31545">
        <ele>132</ele>
        <time>2017-10-17T14:22:30Z</time>
      </trkpt>
      <trkpt lat="49.41849" lon="1.31552">
        <ele>132</ele>
        <time>2017-10-17T14:22:30Z</time>
      </trkpt>
      <trkpt lat="49.41851" lon="1.3156">
        <ele>132</ele>
        <time>2017-10-17T14:22:30Z</time>
      </trkpt>
      <trkpt lat="49.41853" lon="1.31567">
        <ele>132</ele>
        <time>2017-10-17T14:22:30Z</time>
      </trkpt>
      <trkpt lat="49.41854" lon="1.31574">
        <ele>132</ele>
        <time>2017-10-17T14:22:46Z</time>
      </trkpt>
      <trkpt lat="49.41856" lon="1.31581">
        <ele>132</ele>
        <time>2017-10-17T14:22:46Z</time>
      </trkpt>
      <trkpt lat="49.41857" lon="1.31588">
        <ele>132</ele>
        <time>2017-10-17T14:22:46Z</time>
      </trkpt>
      <trkpt lat="49.41858" lon="1.31595">
        <ele>132</ele>
        <time>2017-10-17T14:22:46Z</time>
      </trkpt>
      <trkpt lat="49.4186" lon="1.31601">
        <ele>132</ele>
        <time>2017-10-17T14:23:02Z</time>
      </trkpt>
      <trkpt lat="49.41862" lon="1.31608">
        <ele>132</ele>
        <time>2017-10-17T14:23:02Z</time>
      </trkpt>
      <trkpt lat="49.41863" lon="1.31616">
        <ele>132</ele>
        <time>2017-10-17T14:23:02Z</time>
      </trkpt>
      <trkpt lat="49.41865" lon="1.31623">
        <ele>132</ele>
        <time>2017-10-17T14:23:02Z</time>
      </trkpt>
      <trkpt lat="49.41866" lon="1.3163">
        <ele>132</ele>
        <time>2017-10-17T14:23:18Z</time>
      </trkpt>
      <trkpt lat="49.41866" lon="1.31637">
        <ele>132</ele>
        <time>2017-10-17T14:23:18Z</time>
      </trkpt>
      <trkpt lat="49.41866" lon="1.31645">
        <ele>132</ele>
        <time>2017-10-17T14:23:18Z</time>
      </trkpt>
      <trkpt lat="49.41866" lon="1.31653">
        <ele>132</ele>
        <time>2017-10-17T14:23:18Z</time>
      </trkpt>
      <trkpt lat="49.41867" lon="1.3166">
        <ele>132</ele>
        <time>2017-10-17T14:23:34Z</time>
      </trkpt>
      <trkpt lat="49.41867" lon="1.31668">
        <ele>132</ele>
        <time>2017-10-17T14:23:34Z</time>
      </trkpt>
      <trkpt lat="49.41866" lon="1.31676">
        <ele>132</ele>
        <time>2017-10-17T14:23:34Z</time>
      </trkpt>
      <trkpt lat="49.41866" lon="1.31684">
        <ele>132</ele>
        <time>2017-10-17T14:23:34Z</time>
      </trkpt>
      <trkpt lat="49.41866" lon="1.31692">
        <ele>132</ele>
        <time>2017-10-17T14:23:50Z</time>
      </trkpt>
      <trkpt lat="49.41866" lon="1.317">
        <ele>132</ele>
        <time>2017-10-17T14:23:50Z</time>
      </trkpt>
      <trkpt lat="49.41866" lon="1.31707">
        <ele>132</ele>
        <time>2017-10-17T14:23:50Z</time>
      </trkpt>
      <trkpt lat="49.41866" lon="1.31715">
        <ele>132</ele>
        <time>2017-10-17T14:23:50Z</time>
      </trkpt>
      <trkpt lat="49.41866" lon="1.31723">
        <ele>132</ele>
        <time>2017-10-17T14:24:06Z</time>
      </trkpt>
      <trkpt lat="49.41866" lon="1.3173">
        <ele>132</ele>
        <time>2017-10-17T14:24:06Z</time>
      </trkpt>
      <trkpt lat="49.41865" lon="1.31738">
        <ele>132</ele>
        <time>2017-10-17T14:24:06Z</time>
      </trkpt>
      <trkpt lat="49.41864" lon="1.31746">
        <ele>132</ele>
        <time>2017-10-17T14:24:06Z</time>
      </trkpt>
      <trkpt lat="49.41864" lon="1.31755">
        <ele>132</ele>
        <time>2017-10-17T14:24:22Z</time>
      </trkpt>
      <trkpt lat="49.41865" lon="1.31763">
        <ele>132</ele>
        <time>2017-10-17T14:24:22Z</time>
      </trkpt>
      <trkpt lat="49.41865" lon="1.31772">
        <ele>132</ele>
        <time>2017-10-17T14:24:22Z</time>
      </trkpt>
      <trkpt lat="49.41865" lon="1.3178">
        <ele>132</ele>
        <time>2017-10-17T14:24:22Z</time>
      </trkpt>
      <trkpt lat="49.41865" lon="1.31788">
        <ele>132</ele>
        <time>2017-10-17T14:24:38Z</time>
      </trkpt>
      <trkpt lat="49.41865" lon="1.31796">
        <ele>132</ele>
        <time>2017-10-17T14:24:38Z</time>
      </trkpt>
      <trkpt lat="49.41864" lon="1.31804">
        <ele>132</ele>
        <time>2017-10-17T14:24:38Z</time>
      </trkpt>
      <trkpt lat="49.41865" lon="1.31813">
        <ele>132</ele>
        <time>2017-10-17T14:24:38Z</time>
      </trkpt>
      <trkpt lat="49.41864" lon="1.31821">
        <ele>132</ele>
        <time>2017-10-17T14:24:54Z</time>
      </trkpt>
      <trkpt lat="49.41864" lon="1.31829">
        <ele>132</ele>
        <time>2017-10-17T14:24:54Z</time>
      </trkpt>
      <trkpt lat="49.41864" lon="1.31837">
        <ele>132</ele>
        <time>2017-10-17T14:24:54Z</time>
      </trkpt>
      <trkpt lat="49.41864" lon="1.31845">
        <ele>132</ele>
        <time>2017-10-17T14:24:54Z</time>
      </trkpt>
      <trkpt lat="49.41865" lon="1.31853">
        <ele>132</ele>
        <time>2017-10-17T14:25:10Z</time>
      </trkpt>
      <trkpt lat="49.41865" lon="1.31861">
        <ele>132</ele>
        <time>2017-10-17T14:25:10Z</time>
      </trkpt>
      <trkpt lat="49.41865" lon="1.31869">
        <ele>132</ele>
        <time>2017-10-17T14:25:10Z</time>
      </trkpt>
      <trkpt lat="49.41864" lon="1.31877">
        <ele>133</ele>
        <time>2017-10-17T14:25:10Z</time>
      </trkpt>
      <trkpt lat="49.41863" lon="1.31886">
        <ele>133</ele>
        <time>2017-10-17T14:25:26Z</time>
      </trkpt>
      <trkpt lat="49.41864" lon="1.31894">
        <ele>133</ele>
        <time>2017-10-17T14:25:26Z</time>
      </trkpt>
      <trkpt lat="49.41865" lon="1.31902">
        <ele>133</ele>
        <time>2017-10-17T14:25:26Z</time>
      </trkpt>
      <trkpt lat="49.41866" lon="1.3191">
        <ele>133</ele>
        <time>2017-10-17T14:25:26Z</time>
      </trkpt>
      <trkpt lat="49.41866" lon="1.31917">
        <ele>133</ele>
        <time>2017-10-17T14:25:42Z</time>
      </trkpt>
      <trkpt lat="49.41868" lon="1.31925">
        <ele>133</ele>
        <time>2017-10-17T14:25:42Z</time>
      </trkpt>
      <trkpt lat="49.41868" lon="1.31932">
        <ele>133</ele>
        <time>2017-10-17T14:25:42Z</time>
      </trkpt>
      <trkpt lat="49.41866" lon="1.31939">
        <ele>133</ele>
        <time>2017-10-17T14:25:42Z</time>
      </trkpt>
      <trkpt lat="49.41864" lon="1.31945">
        <ele>133</ele>
        <time>2017-10-17T14:25:58Z</time>
      </trkpt>
      <trkpt lat="49.41862" lon="1.3195">
        <ele>133</ele>
        <time>2017-10-17T14:25:58Z</time>
      </trkpt>
      <trkpt lat="49.41862" lon="1.31957">
        <ele>133</ele>
        <time>2017-10-17T14:25:58Z</time>
      </trkpt>
      <trkpt lat="49.41862" lon="1.31964">
        <ele>135</ele>
        <time>2017-10-17T14:25:58Z</time>
      </trkpt>
      <trkpt lat="49.41862" lon="1.31971">
        <ele>135</ele>
        <time>2017-10-17T14:26:14Z</time>
      </trkpt>
      <trkpt lat="49.41861" lon="1.31977">
        <ele>135</ele>
        <time>2017-10-17T14:26:14Z</time>
      </trkpt>
      <trkpt lat="49.41861" lon="1.31984">
        <ele>135</ele>
        <time>2017-10-17T14:26:14Z</time>
      </trkpt>
      <trkpt lat="49.41861" lon="1.31991">
        <ele>135</ele>
        <time>2017-10-17T14:26:14Z</time>
      </trkpt>
      <trkpt lat="49.41861" lon="1.31997">
        <ele>135</ele>
        <time>2017-10-17T14:26:30Z</time>
      </trkpt>
      <trkpt lat="49.4186" lon="1.32003">
        <ele>135</ele>
        <time>2017-10-17T14:26:30Z</time>
      </trkpt>
      <trkpt lat="49.41861" lon="1.32009">
        <ele>135</ele>
        <time>2017-10-17T14:26:30Z</time>
      </trkpt>
      <trkpt lat="49.4186" lon="1.32016">
        <ele>135</ele>
        <time>2017-10-17T14:26:30Z</time>
      </trkpt>
      <trkpt lat="49.41861" lon="1.32023">
        <ele>135</ele>
        <time>2017-10-17T14:26:46Z</time>
      </trkpt>
      <trkpt lat="49.41859" lon="1.3203">
        <ele>135</ele>
        <time>2017-10-17T14:26:46Z</time>
      </trkpt>
      <trkpt lat="49.41858" lon="1.32038">
        <ele>135</ele>
        <time>2017-10-17T14:26:46Z</time>
      </trkpt>
      <trkpt lat="49.41859" lon="1.32046">
        <ele>134</ele>
        <time>2017-10-17T14:26:46Z</time>
      </trkpt>
      <trkpt lat="49.4186" lon="1.32053">
        <ele>134</ele>
        <time>2017-10-17T14:27:02Z</time>
      </trkpt>
      <trkpt lat="49.4186" lon="1.32061">
        <ele>134</ele>
        <time>2017-10-17T14:27:02Z</time>
      </trkpt>
      <trkpt lat="49.41859" lon="1.32067">
        <ele>134</ele>
        <time>2017-10-17T14:27:02Z</time>
      </trkpt>
      <trkpt lat="49.41859" lon="1.32074">
        <ele>134</ele>
        <time>2017-10-17T14:27:02Z</time>
      </trkpt>
      <trkpt lat="49.41859" lon="1.32082">
        <ele>134</ele>
        <time>2017-10-17T14:27:18Z</time>
      </trkpt>
      <trkpt lat="49.41859" lon="1.32089">
        <ele>134</ele>
        <time>2017-10-17T14:27:18Z</time>
      </trkpt>
      <trkpt lat="49.41858" lon="1.32095">
        <ele>134</ele>
        <time>2017-10-17T14:27:18Z</time>
      </trkpt>
      <trkpt lat="49.41859" lon="1.32102">
        <ele>134</ele>
        <time>2017-10-17T14:27:18Z</time>
      </trkpt>
      <trkpt lat="49.41858" lon="1.3211">
        <ele>134</ele>
        <time>2017-10-17T14:27:34Z</time>
      </trkpt>
      <trkpt lat="49.41857" lon="1.32117">
        <ele>134</ele>
        <time>2017-10-17T14:27:34Z</time>
      </trkpt>
      <trkpt lat="49.41856" lon="1.32123">
        <ele>134</ele>
        <time>2017-10-17T14:27:34Z</time>
      </trkpt>
      <trkpt lat="49.41857" lon="1.3213">
        <ele>134</ele>
        <time>2017-10-17T14:27:34Z</time>
      </trkpt>
      <trkpt lat="49.41857" lon="1.32135">
        <ele>134</ele>
        <time>2017-10-17T14:27:50Z</time>
      </trkpt>
      <trkpt lat="49.41857" lon="1.32137">
        <ele>134</ele>
        <time>2017-10-17T14:27:50Z</time>
      </trkpt>
      <trkpt lat="49.41857" lon="1.32141">
        <ele>134</ele>
        <time>2017-10-17T14:27:50Z</time>
      </trkpt>
      <trkpt lat="49.41858" lon="1.32149">
        <ele>134</ele>
        <time>2017-10-17T14:27:50Z</time>
      </trkpt>
      <trkpt lat="49.41858" lon="1.32156">
        <ele>134</ele>
        <time>2017-10-17T14:28:06Z</time>
      </trkpt>
      <trkpt lat="49.41859" lon="1.32164">
        <ele>134</ele>
        <time>2017-10-17T14:28:06Z</time>
      </trkpt>
      <trkpt lat="49.41858" lon="1.3217">
        <ele>134</ele>
        <time>2017-10-17T14:28:06Z</time>
      </trkpt>
      <trkpt lat="49.41858" lon="1.32177">
        <ele>134</ele>
        <time>2017-10-17T14:28:06Z</time>
      </trkpt>
      <trkpt lat="49.41859" lon="1.32183">
        <ele>134</ele>
        <time>2017-10-17T14:28:22Z</time>
      </trkpt>
      <trkpt lat="49.41859" lon="1.3219">
        <ele>134</ele>
        <time>2017-10-17T14:28:22Z</time>
      </trkpt>
      <trkpt lat="49.41859" lon="1.32197">
        <ele>134</ele>
        <time>2017-10-17T14:28:22Z</time>
      </trkpt>
      <trkpt lat="49.4186" lon="1.32204">
        <ele>134</ele>
        <time>2017-10-17T14:28:22Z</time>
      </trkpt>
      <trkpt lat="49.41861" lon="1.32212">
        <ele>132</ele>
        <time>2017-10-17T14:28:38Z</time>
      </trkpt>
      <trkpt lat="49.41862" lon="1.32218">
        <ele>132</ele>
        <time>2017-10-17T14:28:38Z</time>
      </trkpt>
      <trkpt lat="49.41861" lon="1.32226">
        <ele>132</ele>
        <time>2017-10-17T14:28:38Z</time>
      </trkpt>
      <trkpt lat="49.41862" lon="1.32232">
        <ele>132</ele>
        <time>2017-10-17T14:28:38Z</time>
      </trkpt>
      <trkpt lat="49.41862" lon="1.32238">
        <ele>132</ele>
        <time>2017-10-17T14:28:54Z</time>
      </trkpt>
      <trkpt lat="49.41863" lon="1.32244">
        <ele>132</ele>
        <time>2017-10-17T14:28:54Z</time>
      </trkpt>
      <trkpt lat="49.41864" lon="1.3225">
        <ele>132</ele>
        <time>2017-10-17T14:28:54Z</time>
      </trkpt>
      <trkpt lat="49.41864" lon="1.32257">
        <ele>132</ele>
        <time>2017-10-17T14:28:54Z</time>
      </trkpt>
      <trkpt lat="49.41863" lon="1.32265">
        <ele>132</ele>
        <time>2017-10-17T14:29:10Z</time>
      </trkpt>
      <trkpt lat="49.41862" lon="1.32272">
        <ele>132</ele>
        <time>2017-10-17T14:29:10Z</time>
      </trkpt>
      <trkpt lat="49.4186" lon="1.3228">
        <ele>132</ele>
        <time>2017-10-17T14:29:10Z</time>
      </trkpt>
      <trkpt lat="49.41859" lon="1.32287">
        <ele>132</ele>
        <time>2017-10-17T14:29:10Z</time>
      </trkpt>
      <trkpt lat="49.41858" lon="1.32294">
        <ele>133</ele>
        <time>2017-10-17T14:29:26Z</time>
      </trkpt>
      <trkpt lat="49.41857" lon="1.32301">
        <ele>133</ele>
        <time>2017-10-17T14:29:26Z</time>
      </trkpt>
      <trkpt lat="49.41856" lon="1.32308">
        <ele>133</ele>
        <time>2017-10-17T14:29:26Z</time>
      </trkpt>
      <trkpt lat="49.41855" lon="1.32316">
        <ele>133</ele>
        <time>2017-10-17T14:29:26Z</time>
      </trkpt>
      <trkpt lat="49.41853" lon="1.32323">
        <ele>133</ele>
        <time>2017-10-17T14:29:42Z</time>
      </trkpt>
      <trkpt lat="49.41851" lon="1.3233">
        <ele>133</ele>
        <time>2017-10-17T14:29:42Z</time>
      </trkpt>
      <trkpt lat="49.41849" lon="1.32337">
        <ele>133</ele>
        <time>2017-10-17T14:29:42Z</time>
      </trkpt>
      <trkpt lat="49.41848" lon="1.32344">
        <ele>133</ele>
        <time>2017-10-17T14:29:42Z</time>
      </trkpt>
      <trkpt lat="49.41847" lon="1.32351">
        <ele>133</ele>
        <time>2017-10-17T14:29:58Z</time>
      </trkpt>
      <trkpt lat="49.41845" lon="1.32358">
        <ele>133</ele>
        <time>2017-10-17T14:29:58Z</time>
      </trkpt>
      <trkpt lat="49.41844" lon="1.32364">
        <ele>133</ele>
        <time>2017-10-17T14:29:58Z</time>
      </trkpt>
      <trkpt lat="49.41843" lon="1.32371">
        <ele>133</ele>
        <time>2017-10-17T14:29:58Z</time>
      </trkpt>
      <trkpt lat="49.41841" lon="1.32376">
        <ele>131</ele>
        <time>2017-10-17T14:30:14Z</time>
      </trkpt>
      <trkpt lat="49.41839" lon="1.32385">
        <ele>131</ele>
        <time>2017-10-17T14:30:14Z</time>
      </trkpt>
      <trkpt lat="49.41838" lon="1.32392">
        <ele>131</ele>
        <time>2017-10-17T14:30:14Z</time>
      </trkpt>
      <trkpt lat="49.41837" lon="1.32399">
        <ele>131</ele>
        <time>2017-10-17T14:30:14Z</time>
      </trkpt>
      <trkpt lat="49.41835" lon="1.32407">
        <ele>131</ele>
        <time>2017-10-17T14:30:30Z</time>
      </trkpt>
      <trkpt lat="49.41834" lon="1.32414">
        <ele>131</ele>
        <time>2017-10-17T14:30:30Z</time>
      </trkpt>
      <trkpt lat="49.41833" lon="1.32421">
        <ele>131</ele>
        <time>2017-10-17T14:30:30Z</time>
      </trkpt>
      <trkpt lat="49.41831" lon="1.32428">
        <ele>131</ele>
        <time>2017-10-17T14:30:30Z</time>
      </trkpt>
      <trkpt lat="49.41829" lon="1.32433">
        <ele>131</ele>
        <time>2017-10-17T14:30:46Z</time>
      </trkpt>
      <trkpt lat="49.41827" lon="1.32442">
        <ele>131</ele>
        <time>2017-10-17T14:30:46Z</time>
      </trkpt>
      <trkpt lat="49.41825" lon="1.32448">
        <ele>131</ele>
        <time>2017-10-17T14:30:46Z</time>
      </trkpt>
      <trkpt lat="49.41823" lon="1.32455">
        <ele>131</ele>
        <time>2017-10-17T14:30:46Z</time>
      </trkpt>
      <trkpt lat="49.41821" lon="1.32462">
        <ele>132</ele>
        <time>2017-10-17T14:31:02Z</time>
      </trkpt>
      <trkpt lat="49.41819" lon="1.32469">
        <ele>132</ele>
        <time>2017-10-17T14:31:02Z</time>
      </trkpt>
      <trkpt lat="49.41817" lon="1.32476">
        <ele>132</ele>
        <time>2017-10-17T14:31:02Z</time>
      </trkpt>
      <trkpt lat="49.41815" lon="1.32482">
        <ele>132</ele>
        <time>2017-10-17T14:31:02Z</time>
      </trkpt>
      <trkpt lat="49.41813" lon="1.32489">
        <ele>132</ele>
        <time>2017-10-17T14:31:18Z</time>
      </trkpt>
      <trkpt lat="49.4181" lon="1.32496">
        <ele>132</ele>
        <time>2017-10-17T14:31:18Z</time>
      </trkpt>
      <trkpt lat="49.41809" lon="1.32502">
        <ele>132</ele>
        <time>2017-10-17T14:31:18Z</time>
      </trkpt>
      <trkpt lat="49.41807" lon="1.32509">
        <ele>132</ele>
        <time>2017-10-17T14:31:18Z</time>
      </trkpt>
      <trkpt lat="49.41806" lon="1.32516">
        <ele>132</ele>
        <time>2017-10-17T14:31:34Z</time>
      </trkpt>
      <trkpt lat="49.41804" lon="1.32523">
        <ele>132</ele>
        <time>2017-10-17T14:31:34Z</time>
      </trkpt>
      <trkpt lat="49.41802" lon="1.3253">
        <ele>132</ele>
        <time>2017-10-17T14:31:34Z</time>
      </trkpt>
      <trkpt lat="49.418" lon="1.32536">
        <ele>132</ele>
        <time>2017-10-17T14:31:34Z</time>
      </trkpt>
      <trkpt lat="49.41798" lon="1.32543">
        <ele>133</ele>
        <time>2017-10-17T14:31:50Z</time>
      </trkpt>
      <trkpt lat="49.41796" lon="1.32547">
        <ele>133</ele>
        <time>2017-10-17T14:31:50Z</time>
      </trkpt>
      <trkpt lat="49.41794" lon="1.32551">
        <ele>133</ele>
        <time>2017-10-17T14:31:50Z</time>
      </trkpt>
      <trkpt lat="49.4179" lon="1.32556">
        <ele>132</ele>
        <time>2017-10-17T14:31:50Z</time>
      </trkpt>
      <trkpt lat="49.41786" lon="1.3256">
        <ele>132</ele>
        <time>2017-10-17T14:32:06Z</time>
      </trkpt>
      <trkpt lat="49.41783" lon="1.32565">
        <ele>132</ele>
        <time>2017-10-17T14:32:06Z</time>
      </trkpt>
      <trkpt lat="49.41779" lon="1.3257">
        <ele>132</ele>
        <time>2017-10-17T14:32:06Z</time>
      </trkpt>
      <trkpt lat="49.41775" lon="1.32574">
        <ele>132</ele>
        <time>2017-10-17T14:32:06Z</time>
      </trkpt>
      <trkpt lat="49.41771" lon="1.32579">
        <ele>132</ele>
        <time>2017-10-17T14:32:22Z</time>
      </trkpt>
      <trkpt lat="49.41768" lon="1.32583">
        <ele>132</ele>
        <time>2017-10-17T14:32:22Z</time>
      </trkpt>
      <trkpt lat="49.41764" lon="1.32588">
        <ele>132</ele>
        <time>2017-10-17T14:32:22Z</time>
      </trkpt>
      <trkpt lat="49.4176" lon="1.32593">
        <ele>132</ele>
        <time>2017-10-17T14:32:22Z</time>
      </trkpt>
      <trkpt lat="49.41756" lon="1.32598">
        <ele>132</ele>
        <time>2017-10-17T14:32:38Z</time>
      </trkpt>
      <trkpt lat="49.41752" lon="1.32603">
        <ele>132</ele>
        <time>2017-10-17T14:32:38Z</time>
      </trkpt>
      <trkpt lat="49.41748" lon="1.32608">
        <ele>132</ele>
        <time>2017-10-17T14:32:38Z</time>
      </trkpt>
      <trkpt lat="49.41745" lon="1.32612">
        <ele>132</ele>
        <time>2017-10-17T14:32:38Z</time>
      </trkpt>
      <trkpt lat="49.41741" lon="1.32617">
        <ele>132</ele>
        <time>2017-10-17T14:32:54Z</time>
      </trkpt>
      <trkpt lat="49.41737" lon="1.32621">
        <ele>132</ele>
        <time>2017-10-17T14:32:54Z</time>
      </trkpt>
      <trkpt lat="49.41734" lon="1.32626">
        <ele>131</ele>
        <time>2017-10-17T14:32:54Z</time>
      </trkpt>
      <trkpt lat="49.4173" lon="1.32631">
        <ele>131</ele>
        <time>2017-10-17T14:32:54Z</time>
      </trkpt>
      <trkpt lat="49.41727" lon="1.32636">
        <ele>131</ele>
        <time>2017-10-17T14:33:10Z</time>
      </trkpt>
      <trkpt lat="49.41724" lon="1.32641">
        <ele>131</ele>
        <time>2017-10-17T14:33:10Z</time>
      </trkpt>
      <trkpt lat="49.41721" lon="1.32646">
        <ele>131</ele>
        <time>2017-10-17T14:33:10Z</time>
      </trkpt>
      <trkpt lat="49.41718" lon="1.32652">
        <ele>131</ele>
        <time>2017-10-17T14:33:10Z</time>
      </trkpt>
      <trkpt lat="49.41715" lon="1.32657">
        <ele>131</ele>
        <time>2017-10-17T14:33:26Z</time>
      </trkpt>
      <trkpt lat="49.41713" lon="1.32662">
        <ele>131</ele>
        <time>2017-10-17T14:33:26Z</time>
      </trkpt>
      <trkpt lat="49.41711" lon="1.32668">
        <ele>131</ele>
        <time>2017-10-17T14:33:26Z</time>
      </trkpt>
      <trkpt lat="49.41709" lon="1.32674">
        <ele>131</ele>
        <time>2017-10-17T14:33:26Z</time>
      </trkpt>
      <trkpt lat="49.41706" lon="1.32679">
        <ele>128</ele>
        <time>2017-10-17T14:33:42Z</time>
      </trkpt>
      <trkpt lat="49.41703" lon="1.32685">
        <ele>128</ele>
        <time>2017-10-17T14:33:42Z</time>
      </trkpt>
      <trkpt lat="49.417" lon="1.3269">
        <ele>128</ele>
        <time>2017-10-17T14:33:42Z</time>
      </trkpt>
      <trkpt lat="49.41699" lon="1.32696">
        <ele>128</ele>
        <time>2017-10-17T14:33:42Z</time>
      </trkpt>
      <trkpt lat="49.41698" lon="1.32702">
        <ele>128</ele>
        <time>2017-10-17T14:33:58Z</time>
      </trkpt>
      <trkpt lat="49.41697" lon="1.32708">
        <ele>128</ele>
        <time>2017-10-17T14:33:58Z</time>
      </trkpt>
      <trkpt lat="49.41696" lon="1.32715">
        <ele>126</ele>
        <time>2017-10-17T14:33:58Z</time>
      </trkpt>
      <trkpt lat="49.41695" lon="1.32723">
        <ele>126</ele>
        <time>2017-10-17T14:33:58Z</time>
      </trkpt>
      <trkpt lat="49.41695" lon="1.32731">
        <ele>126</ele>
        <time>2017-10-17T14:34:14Z</time>
      </trkpt>
      <trkpt lat="49.41695" lon="1.32739">
        <ele>126</ele>
        <time>2017-10-17T14:34:14Z</time>
      </trkpt>
      <trkpt lat="49.41694" lon="1.32746">
        <ele>126</ele>
        <time>2017-10-17T14:34:14Z</time>
      </trkpt>
      <trkpt lat="49.41693" lon="1.32754">
        <ele>126</ele>
        <time>2017-10-17T14:34:14Z</time>
      </trkpt>
      <trkpt lat="49.41692" lon="1.32761">
        <ele>126</ele>
        <time>2017-10-17T14:34:30Z</time>
      </trkpt>
      <trkpt lat="49.41691" lon="1.32769">
        <ele>126</ele>
        <time>2017-10-17T14:34:30Z</time>
      </trkpt>
      <trkpt lat="49.4169" lon="1.32776">
        <ele>126</ele>
        <time>2017-10-17T14:34:30Z</time>
      </trkpt>
      <trkpt lat="49.41689" lon="1.32783">
        <ele>126</ele>
        <time>2017-10-17T14:34:30Z</time>
      </trkpt>
      <trkpt lat="49.41687" lon="1.3279">
        <ele>126</ele>
        <time>2017-10-17T14:34:46Z</time>
      </trkpt>
      <trkpt lat="49.41687" lon="1.32797">
        <ele>126</ele>
        <time>2017-10-17T14:34:46Z</time>
      </trkpt>
      <trkpt lat="49.41686" lon="1.32804">
        <ele>126</ele>
        <time>2017-10-17T14:34:46Z</time>
      </trkpt>
      <trkpt lat="49.41684" lon="1.32811">
        <ele>126</ele>
        <time>2017-10-17T14:34:46Z</time>
      </trkpt>
      <trkpt lat="49.41684" lon="1.32818">
        <ele>126</ele>
        <time>2017-10-17T14:35:02Z</time>
      </trkpt>
      <trkpt lat="49.41685" lon="1.32825">
        <ele>126</ele>
        <time>2017-10-17T14:35:02Z</time>
      </trkpt>
      <trkpt lat="49.41685" lon="1.32831">
        <ele>126</ele>
        <time>2017-10-17T14:35:02Z</time>
      </trkpt>
      <trkpt lat="49.41685" lon="1.32837">
        <ele>126</ele>
        <time>2017-10-17T14:35:02Z</time>
      </trkpt>
      <trkpt lat="49.41684" lon="1.32844">
        <ele>126</ele>
        <time>2017-10-17T14:35:18Z</time>
      </trkpt>
      <trkpt lat="49.41684" lon="1.3285">
        <ele>126</ele>
        <time>2017-10-17T14:35:18Z</time>
      </trkpt>
      <trkpt lat="49.41684" lon="1.32857">
        <ele>126</ele>
        <time>2017-10-17T14:35:18Z</time>
      </trkpt>
      <trkpt lat="49.41684" lon="1.32863">
        <ele>126</ele>
        <time>2017-10-17T14:35:18Z</time>
      </trkpt>
      <trkpt lat="49.41683" lon="1.32868">
        <ele>126</ele>
        <time>2017-10-17T14:35:34Z</time>
      </trkpt>
      <trkpt lat="49.41683" lon="1.32874">
        <ele>126</ele>
        <time>2017-10-17T14:35:34Z</time>
      </trkpt>
      <trkpt lat="49.41683" lon="1.3288">
        <ele>127</ele>
        <time>2017-10-17T14:35:34Z</time>
      </trkpt>
      <trkpt lat="49.41684" lon="1.32887">
        <ele>127</ele>
        <time>2017-10-17T14:35:34Z</time>
      </trkpt>
      <trkpt lat="49.41685" lon="1.32895">
        <ele>127</ele>
        <time>2017-10-17T14:35:50Z</time>
      </trkpt>
      <trkpt lat="49.41685" lon="1.32902">
        <ele>127</ele>
        <time>2017-10-17T14:35:50Z</time>
      </trkpt>
      <trkpt lat="49.41686" lon="1.3291">
        <ele>127</ele>
        <time>2017-10-17T14:35:50Z</time>
      </trkpt>
      <trkpt lat="49.41686" lon="1.32917">
        <ele>127</ele>
        <time>2017-10-17T14:35:50Z</time>
      </trkpt>
      <trkpt lat="49.41688" lon="1.32924">
        <ele>127</ele>
        <time>2017-10-17T14:36:06Z</time>
      </trkpt>
      <trkpt lat="49.41687" lon="1.32932">
        <ele>127</ele>
        <time>2017-10-17T14:36:06Z</time>
      </trkpt>
      <trkpt lat="49.41688" lon="1.32939">
        <ele>127</ele>
        <time>2017-10-17T14:36:06Z</time>
      </trkpt>
      <trkpt lat="49.41689" lon="1.32945">
        <ele>127</ele>
        <time>2017-10-17T14:36:06Z</time>
      </trkpt>
      <trkpt lat="49.4169" lon="1.32953">
        <ele>127</ele>
        <time>2017-10-17T14:36:22Z</time>
      </trkpt>
      <trkpt lat="49.4169" lon="1.32961">
        <ele>125</ele>
        <time>2017-10-17T14:36:22Z</time>
      </trkpt>
      <trkpt lat="49.4169" lon="1.32969">
        <ele>125</ele>
        <time>2017-10-17T14:36:22Z</time>
      </trkpt>
      <trkpt lat="49.4169" lon="1.32976">
        <ele>125</ele>
        <time>2017-10-17T14:36:22Z</time>
      </trkpt>
      <trkpt lat="49.41691" lon="1.32984">
        <ele>125</ele>
        <time>2017-10-17T14:36:38Z</time>
      </trkpt>
      <trkpt lat="49.41691" lon="1.32991">
        <ele>125</ele>
        <time>2017-10-17T14:36:38Z</time>
      </trkpt>
      <trkpt lat="49.41691" lon="1.32998">
        <ele>125</ele>
        <time>2017-10-17T14:36:38Z</time>
      </trkpt>
      <trkpt lat="49.41692" lon="1.33005">
        <ele>125</ele>
        <time>2017-10-17T14:36:38Z</time>
      </trkpt>
      <trkpt lat="49.41694" lon="1.33012">
        <ele>125</ele>
        <time>2017-10-17T14:36:54Z</time>
      </trkpt>
      <trkpt lat="49.41695" lon="1.3302">
        <ele>125</ele>
        <time>2017-10-17T14:36:54Z</time>
      </trkpt>
      <trkpt lat="49.41697" lon="1.33027">
        <ele>125</ele>
        <time>2017-10-17T14:36:54Z</time>
      </trkpt>
      <trkpt lat="49.41698" lon="1.33033">
        <ele>125</ele>
        <time>2017-10-17T14:36:54Z</time>
      </trkpt>
      <trkpt lat="49.41699" lon="1.3304">
        <ele>125</ele>
        <time>2017-10-17T14:37:10Z</time>
      </trkpt>
      <trkpt lat="49.417" lon="1.33047">
        <ele>128</ele>
        <time>2017-10-17T14:37:10Z</time>
      </trkpt>
      <trkpt lat="49.41701" lon="1.33053">
        <ele>128</ele>
        <time>2017-10-17T14:37:10Z</time>
      </trkpt>
      <trkpt lat="49.41702" lon="1.33059">
        <ele>128</ele>
        <time>2017-10-17T14:37:10Z</time>
      </trkpt>
      <trkpt lat="49.41703" lon="1.33066">
        <ele>128</ele>
        <time>2017-10-17T14:37:26Z</time>
      </trkpt>
      <trkpt lat="49.41703" lon="1.33072">
        <ele>128</ele>
        <time>2017-10-17T14:37:26Z</time>
      </trkpt>
      <trkpt lat="49.41704" lon="1.33078">
        <ele>128</ele>
        <time>2017-10-17T14:37:26Z</time>
      </trkpt>
      <trkpt lat="49.41705" lon="1.33085">
        <ele>128</ele>
        <time>2017-10-17T14:37:26Z</time>
      </trkpt>
      <trkpt lat="49.41705" lon="1.33091">
        <ele>128</ele>
        <time>2017-10-17T14:37:42Z</time>
      </trkpt>
      <trkpt lat="49.41706" lon="1.33097">
        <ele>128</ele>
        <time>2017-10-17T14:37:42Z</time>
      </trkpt>
      <trkpt lat="49.41707" lon="1.33104">
        <ele>128</ele>
        <time>2017-10-17T14:37:42Z</time>
      </trkpt>
      <trkpt lat="49.41708" lon="1.3311">
        <ele>128</ele>
        <time>2017-10-17T14:37:42Z</time>
      </trkpt>
      <trkpt lat="49.41709" lon="1.33112">
        <ele>132</ele>
        <time>2017-10-17T14:37:58Z</time>
      </trkpt>
      <trkpt lat="49.4171" lon="1.33118">
        <ele>132</ele>
        <time>2017-10-17T14:37:58Z</time>
      </trkpt>
      <trkpt lat="49.41709" lon="1.33123">
        <ele>132</ele>
        <time>2017-10-17T14:37:58Z</time>
      </trkpt>
      <trkpt lat="49.41711" lon="1.33129">
        <ele>135</ele>
        <time>2017-10-17T14:37:58Z</time>
      </trkpt>
      <trkpt lat="49.41712" lon="1.33135">
        <ele>135</ele>
        <time>2017-10-17T14:38:14Z</time>
      </trkpt>
      <trkpt lat="49.41713" lon="1.33141">
        <ele>135</ele>
        <time>2017-10-17T14:38:14Z</time>
      </trkpt>
      <trkpt lat="49.41716" lon="1.33149">
        <ele>135</ele>
        <time>2017-10-17T14:38:14Z</time>
      </trkpt>
      <trkpt lat="49.41717" lon="1.33156">
        <ele>135</ele>
        <time>2017-10-17T14:38:14Z</time>
      </trkpt>
      <trkpt lat="49.4172" lon="1.33162">
        <ele>135</ele>
        <time>2017-10-17T14:38:30Z</time>
      </trkpt>
      <trkpt lat="49.41722" lon="1.33168">
        <ele>135</ele>
        <time>2017-10-17T14:38:30Z</time>
      </trkpt>
      <trkpt lat="49.41724" lon="1.33176">
        <ele>135</ele>
        <time>2017-10-17T14:38:30Z</time>
      </trkpt>
      <trkpt lat="49.41725" lon="1.33183">
        <ele>135</ele>
        <time>2017-10-17T14:38:30Z</time>
      </trkpt>
      <trkpt lat="49.41726" lon="1.3319">
        <ele>135</ele>
        <time>2017-10-17T14:38:46Z</time>
      </trkpt>
      <trkpt lat="49.41728" lon="1.33196">
        <ele>135</ele>
        <time>2017-10-17T14:38:46Z</time>
      </trkpt>
      <trkpt lat="49.41729" lon="1.33202">
        <ele>135</ele>
        <time>2017-10-17T14:38:46Z</time>
      </trkpt>
      <trkpt lat="49.41731" lon="1.33208">
        <ele>135</ele>
        <time>2017-10-17T14:38:46Z</time>
      </trkpt>
      <trkpt lat="49.41732" lon="1.33215">
        <ele>132</ele>
        <time>2017-10-17T14:39:02Z</time>
      </trkpt>
      <trkpt lat="49.41735" lon="1.33221">
        <ele>132</ele>
        <time>2017-10-17T14:39:02Z</time>
      </trkpt>
      <trkpt lat="49.41736" lon="1.33229">
        <ele>132</ele>
        <time>2017-10-17T14:39:02Z</time>
      </trkpt>
      <trkpt lat="49.41737" lon="1.33236">
        <ele>132</ele>
        <time>2017-10-17T14:39:02Z</time>
      </trkpt>
      <trkpt lat="49.41738" lon="1.33243">
        <ele>132</ele>
        <time>2017-10-17T14:39:18Z</time>
      </trkpt>
      <trkpt lat="49.4174" lon="1.33251">
        <ele>132</ele>
        <time>2017-10-17T14:39:18Z</time>
      </trkpt>
      <trkpt lat="49.41741" lon="1.33259">
        <ele>132</ele>
        <time>2017-10-17T14:39:18Z</time>
      </trkpt>
      <trkpt lat="49.41742" lon="1.33266">
        <ele>132</ele>
        <time>2017-10-17T14:39:18Z</time>
      </trkpt>
      <trkpt lat="49.41746" lon="1.33286">
        <ele>132</ele>
        <time>2017-10-17T14:43:42Z</time>
      </trkpt>
      <trkpt lat="49.41746" lon="1.33287">
        <ele>132</ele>
        <time>2017-10-17T14:43:42Z</time>
      </trkpt>
      <trkpt lat="49.41746" lon="1.33287">
        <ele>132</ele>
        <time>2017-10-17T14:43:42Z</time>
      </trkpt>
      <trkpt lat="49.41746" lon="1.33287">
        <ele>132</ele>
        <time>2017-10-17T14:43:42Z</time>
      </trkpt>
      <trkpt lat="49.41746" lon="1.33287">
        <ele>132</ele>
        <time>2017-10-17T14:43:42Z</time>
      </trkpt>
      <trkpt lat="49.41746" lon="1.33288">
        <ele>132</ele>
        <time>2017-10-17T14:44:10Z</time>
      </trkpt>
      <trkpt lat="49.41746" lon="1.33289">
        <ele>132</ele>
        <time>2017-10-17T14:44:10Z</time>
      </trkpt>
      <trkpt lat="49.41748" lon="1.33293">
        <ele>128</ele>
        <time>2017-10-17T14:44:10Z</time>
      </trkpt>
      <trkpt lat="49.41749" lon="1.333">
        <ele>128</ele>
        <time>2017-10-17T14:44:10Z</time>
      </trkpt>
      <trkpt lat="49.4175" lon="1.33307">
        <ele>128</ele>
        <time>2017-10-17T14:44:10Z</time>
      </trkpt>
      <trkpt lat="49.41751" lon="1.33314">
        <ele>128</ele>
        <time>2017-10-17T14:44:26Z</time>
      </trkpt>
      <trkpt lat="49.41752" lon="1.33321">
        <ele>128</ele>
        <time>2017-10-17T14:44:26Z</time>
      </trkpt>
      <trkpt lat="49.41753" lon="1.33327">
        <ele>128</ele>
        <time>2017-10-17T14:44:26Z</time>
      </trkpt>
      <trkpt lat="49.41754" lon="1.33334">
        <ele>128</ele>
        <time>2017-10-17T14:44:26Z</time>
      </trkpt>
      <trkpt lat="49.41756" lon="1.3334">
        <ele>128</ele>
        <time>2017-10-17T14:44:42Z</time>
      </trkpt>
      <trkpt lat="49.41758" lon="1.33346">
        <ele>128</ele>
        <time>2017-10-17T14:44:42Z</time>
      </trkpt>
      <trkpt lat="49.41761" lon="1.33352">
        <ele>128</ele>
        <time>2017-10-17T14:44:42Z</time>
      </trkpt>
      <trkpt lat="49.41764" lon="1.33357">
        <ele>128</ele>
        <time>2017-10-17T14:44:42Z</time>
      </trkpt>
      <trkpt lat="49.41768" lon="1.33361">
        <ele>128</ele>
        <time>2017-10-17T14:44:58Z</time>
      </trkpt>
      <trkpt lat="49.41771" lon="1.33366">
        <ele>128</ele>
        <time>2017-10-17T14:44:58Z</time>
      </trkpt>
      <trkpt lat="49.41773" lon="1.33372">
        <ele>128</ele>
        <time>2017-10-17T14:44:58Z</time>
      </trkpt>
      <trkpt lat="49.41775" lon="1.33379">
        <ele>125</ele>
        <time>2017-10-17T14:44:58Z</time>
      </trkpt>
      <trkpt lat="49.41777" lon="1.33385">
        <ele>125</ele>
        <time>2017-10-17T14:45:14Z</time>
      </trkpt>
      <trkpt lat="49.41779" lon="1.33391">
        <ele>125</ele>
        <time>2017-10-17T14:45:14Z</time>
      </trkpt>
      <trkpt lat="49.41782" lon="1.33398">
        <ele>125</ele>
        <time>2017-10-17T14:45:14Z</time>
      </trkpt>
      <trkpt lat="49.41783" lon="1.33404">
        <ele>125</ele>
        <time>2017-10-17T14:45:14Z</time>
      </trkpt>
      <trkpt lat="49.41784" lon="1.33406">
        <ele>125</ele>
        <time>2017-10-17T14:45:30Z</time>
      </trkpt>
      <trkpt lat="49.41785" lon="1.3341">
        <ele>125</ele>
        <time>2017-10-17T14:45:30Z</time>
      </trkpt>
      <trkpt lat="49.41787" lon="1.33417">
        <ele>125</ele>
        <time>2017-10-17T14:45:30Z</time>
      </trkpt>
      <trkpt lat="49.4179" lon="1.33425">
        <ele>125</ele>
        <time>2017-10-17T14:45:30Z</time>
      </trkpt>
      <trkpt lat="49.41793" lon="1.33433">
        <ele>128</ele>
        <time>2017-10-17T14:45:46Z</time>
      </trkpt>
      <trkpt lat="49.41795" lon="1.33441">
        <ele>128</ele>
        <time>2017-10-17T14:45:46Z</time>
      </trkpt>
      <trkpt lat="49.41798" lon="1.33448">
        <ele>128</ele>
        <time>2017-10-17T14:45:46Z</time>
      </trkpt>
      <trkpt lat="49.418" lon="1.33454">
        <ele>128</ele>
        <time>2017-10-17T14:45:46Z</time>
      </trkpt>
      <trkpt lat="49.41802" lon="1.3346">
        <ele>125</ele>
        <time>2017-10-17T14:46:02Z</time>
      </trkpt>
      <trkpt lat="49.41805" lon="1.33466">
        <ele>125</ele>
        <time>2017-10-17T14:46:02Z</time>
      </trkpt>
      <trkpt lat="49.41808" lon="1.33472">
        <ele>125</ele>
        <time>2017-10-17T14:46:02Z</time>
      </trkpt>
      <trkpt lat="49.41811" lon="1.33478">
        <ele>125</ele>
        <time>2017-10-17T14:46:02Z</time>
      </trkpt>
      <trkpt lat="49.41814" lon="1.33484">
        <ele>125</ele>
        <time>2017-10-17T14:46:18Z</time>
      </trkpt>
      <trkpt lat="49.41817" lon="1.3349">
        <ele>125</ele>
        <time>2017-10-17T14:46:18Z</time>
      </trkpt>
      <trkpt lat="49.4182" lon="1.33496">
        <ele>125</ele>
        <time>2017-10-17T14:46:18Z</time>
      </trkpt>
      <trkpt lat="49.41823" lon="1.33501">
        <ele>125</ele>
        <time>2017-10-17T14:46:18Z</time>
      </trkpt>
      <trkpt lat="49.41827" lon="1.33506">
        <ele>125</ele>
        <time>2017-10-17T14:46:34Z</time>
      </trkpt>
      <trkpt lat="49.4183" lon="1.33512">
        <ele>125</ele>
        <time>2017-10-17T14:46:34Z</time>
      </trkpt>
      <trkpt lat="49.41833" lon="1.33517">
        <ele>125</ele>
        <time>2017-10-17T14:46:34Z</time>
      </trkpt>
      <trkpt lat="49.41836" lon="1.33522">
        <ele>125</ele>
        <time>2017-10-17T14:46:34Z</time>
      </trkpt>
      <trkpt lat="49.41839" lon="1.33527">
        <ele>125</ele>
        <time>2017-10-17T14:46:50Z</time>
      </trkpt>
      <trkpt lat="49.41842" lon="1.33531">
        <ele>125</ele>
        <time>2017-10-17T14:46:50Z</time>
      </trkpt>
      <trkpt lat="49.41846" lon="1.33536">
        <ele>125</ele>
        <time>2017-10-17T14:46:50Z</time>
      </trkpt>
      <trkpt lat="49.41849" lon="1.3354">
        <ele>125</ele>
        <time>2017-10-17T14:46:50Z</time>
      </trkpt>
      <trkpt lat="49.41852" lon="1.33547">
        <ele>121</ele>
        <time>2017-10-17T14:47:06Z</time>
      </trkpt>
      <trkpt lat="49.41855" lon="1.33552">
        <ele>121</ele>
        <time>2017-10-17T14:47:06Z</time>
      </trkpt>
      <trkpt lat="49.41858" lon="1.33558">
        <ele>121</ele>
        <time>2017-10-17T14:47:06Z</time>
      </trkpt>
      <trkpt lat="49.41862" lon="1.33563">
        <ele>121</ele>
        <time>2017-10-17T14:47:06Z</time>
      </trkpt>
      <trkpt lat="49.41865" lon="1.33568">
        <ele>121</ele>
        <time>2017-10-17T14:47:22Z</time>
      </trkpt>
      <trkpt lat="49.41868" lon="1.33573">
        <ele>121</ele>
        <time>2017-10-17T14:47:22Z</time>
      </trkpt>
      <trkpt lat="49.41871" lon="1.33578">
        <ele>121</ele>
        <time>2017-10-17T14:47:22Z</time>
      </trkpt>
      <trkpt lat="49.41875" lon="1.33582">
        <ele>121</ele>
        <time>2017-10-17T14:47:22Z</time>
      </trkpt>
      <trkpt lat="49.41878" lon="1.33587">
        <ele>128</ele>
        <time>2017-10-17T14:47:38Z</time>
      </trkpt>
      <trkpt lat="49.41882" lon="1.33591">
        <ele>128</ele>
        <time>2017-10-17T14:47:38Z</time>
      </trkpt>
      <trkpt lat="49.41886" lon="1.33595">
        <ele>128</ele>
        <time>2017-10-17T14:47:38Z</time>
      </trkpt>
      <trkpt lat="49.4189" lon="1.33598">
        <ele>128</ele>
        <time>2017-10-17T14:47:38Z</time>
      </trkpt>
      <trkpt lat="49.41894" lon="1.33601">
        <ele>128</ele>
        <time>2017-10-17T14:47:54Z</time>
      </trkpt>
      <trkpt lat="49.41898" lon="1.33604">
        <ele>128</ele>
        <time>2017-10-17T14:47:54Z</time>
      </trkpt>
      <trkpt lat="49.41902" lon="1.33606">
        <ele>128</ele>
        <time>2017-10-17T14:47:54Z</time>
      </trkpt>
      <trkpt lat="49.41906" lon="1.33609">
        <ele>128</ele>
        <time>2017-10-17T14:47:54Z</time>
      </trkpt>
      <trkpt lat="49.4191" lon="1.33612">
        <ele>128</ele>
        <time>2017-10-17T14:48:10Z</time>
      </trkpt>
      <trkpt lat="49.41915" lon="1.33614">
        <ele>128</ele>
        <time>2017-10-17T14:48:10Z</time>
      </trkpt>
      <trkpt lat="49.41918" lon="1.33618">
        <ele>128</ele>
        <time>2017-10-17T14:48:10Z</time>
      </trkpt>
      <trkpt lat="49.41923" lon="1.33621">
        <ele>128</ele>
        <time>2017-10-17T14:48:10Z</time>
      </trkpt>
      <trkpt lat="49.41926" lon="1.33625">
        <ele>128</ele>
        <time>2017-10-17T14:48:26Z</time>
      </trkpt>
      <trkpt lat="49.4193" lon="1.33628">
        <ele>122</ele>
        <time>2017-10-17T14:48:26Z</time>
      </trkpt>
      <trkpt lat="49.41934" lon="1.33631">
        <ele>122</ele>
        <time>2017-10-17T14:48:26Z</time>
      </trkpt>
      <trkpt lat="49.41936" lon="1.33631">
        <ele>122</ele>
        <time>2017-10-17T14:48:26Z</time>
      </trkpt>
      <trkpt lat="49.41937" lon="1.33631">
        <ele>122</ele>
        <time>2017-10-17T14:48:46Z</time>
      </trkpt>
      <trkpt lat="49.4194" lon="1.33633">
        <ele>122</ele>
        <time>2017-10-17T14:48:46Z</time>
      </trkpt>
      <trkpt lat="49.41942" lon="1.33634">
        <ele>122</ele>
        <time>2017-10-17T14:48:46Z</time>
      </trkpt>
      <trkpt lat="49.41944" lon="1.33636">
        <ele>122</ele>
        <time>2017-10-17T14:48:46Z</time>
      </trkpt>
      <trkpt lat="49.41948" lon="1.33638">
        <ele>122</ele>
        <time>2017-10-17T14:48:46Z</time>
      </trkpt>
      <trkpt lat="49.41952" lon="1.33641">
        <ele>122</ele>
        <time>2017-10-17T14:49:02Z</time>
      </trkpt>
      <trkpt lat="49.41956" lon="1.33644">
        <ele>122</ele>
        <time>2017-10-17T14:49:02Z</time>
      </trkpt>
      <trkpt lat="49.4196" lon="1.33647">
        <ele>124</ele>
        <time>2017-10-17T14:49:02Z</time>
      </trkpt>
      <trkpt lat="49.41963" lon="1.33648">
        <ele>124</ele>
        <time>2017-10-17T14:49:02Z</time>
      </trkpt>
      <trkpt lat="49.41967" lon="1.33651">
        <ele>124</ele>
        <time>2017-10-17T14:49:18Z</time>
      </trkpt>
      <trkpt lat="49.41971" lon="1.33653">
        <ele>124</ele>
        <time>2017-10-17T14:49:18Z</time>
      </trkpt>
      <trkpt lat="49.41978" lon="1.33656">
        <ele>124</ele>
        <time>2017-10-17T14:49:18Z</time>
      </trkpt>
      <trkpt lat="49.41982" lon="1.3366">
        <ele>124</ele>
        <time>2017-10-17T14:49:18Z</time>
      </trkpt>
      <trkpt lat="49.41986" lon="1.33664">
        <ele>124</ele>
        <time>2017-10-17T14:49:34Z</time>
      </trkpt>
      <trkpt lat="49.41991" lon="1.33667">
        <ele>124</ele>
        <time>2017-10-17T14:49:34Z</time>
      </trkpt>
      <trkpt lat="49.41996" lon="1.3367">
        <ele>124</ele>
        <time>2017-10-17T14:49:34Z</time>
      </trkpt>
      <trkpt lat="49.42" lon="1.33673">
        <ele>124</ele>
        <time>2017-10-17T14:49:34Z</time>
      </trkpt>
      <trkpt lat="49.42003" lon="1.33675">
        <ele>124</ele>
        <time>2017-10-17T14:49:50Z</time>
      </trkpt>
      <trkpt lat="49.42006" lon="1.33679">
        <ele>124</ele>
        <time>2017-10-17T14:49:50Z</time>
      </trkpt>
      <trkpt lat="49.4201" lon="1.3368">
        <ele>124</ele>
        <time>2017-10-17T14:49:50Z</time>
      </trkpt>
      <trkpt lat="49.42014" lon="1.33682">
        <ele>124</ele>
        <time>2017-10-17T14:49:50Z</time>
      </trkpt>
      <trkpt lat="49.42019" lon="1.33685">
        <ele>124</ele>
        <time>2017-10-17T14:50:06Z</time>
      </trkpt>
      <trkpt lat="49.42024" lon="1.33687">
        <ele>124</ele>
        <time>2017-10-17T14:50:06Z</time>
      </trkpt>
      <trkpt lat="49.42029" lon="1.33688">
        <ele>124</ele>
        <time>2017-10-17T14:50:06Z</time>
      </trkpt>
      <trkpt lat="49.42034" lon="1.3369">
        <ele>124</ele>
        <time>2017-10-17T14:50:06Z</time>
      </trkpt>
      <trkpt lat="49.42037" lon="1.33691">
        <ele>124</ele>
        <time>2017-10-17T14:50:22Z</time>
      </trkpt>
      <trkpt lat="49.42041" lon="1.33692">
        <ele>124</ele>
        <time>2017-10-17T14:50:22Z</time>
      </trkpt>
      <trkpt lat="49.42045" lon="1.33693">
        <ele>128</ele>
        <time>2017-10-17T14:50:22Z</time>
      </trkpt>
      <trkpt lat="49.42048" lon="1.33694">
        <ele>128</ele>
        <time>2017-10-17T14:50:22Z</time>
      </trkpt>
      <trkpt lat="49.42051" lon="1.33695">
        <ele>128</ele>
        <time>2017-10-17T14:50:38Z</time>
      </trkpt>
      <trkpt lat="49.42055" lon="1.33698">
        <ele>128</ele>
        <time>2017-10-17T14:50:38Z</time>
      </trkpt>
      <trkpt lat="49.42059" lon="1.33699">
        <ele>128</ele>
        <time>2017-10-17T14:50:38Z</time>
      </trkpt>
      <trkpt lat="49.42064" lon="1.33703">
        <ele>128</ele>
        <time>2017-10-17T14:50:38Z</time>
      </trkpt>
      <trkpt lat="49.42069" lon="1.33704">
        <ele>128</ele>
        <time>2017-10-17T14:50:54Z</time>
      </trkpt>
      <trkpt lat="49.42072" lon="1.33706">
        <ele>128</ele>
        <time>2017-10-17T14:50:54Z</time>
      </trkpt>
      <trkpt lat="49.42075" lon="1.3371">
        <ele>124</ele>
        <time>2017-10-17T14:50:54Z</time>
      </trkpt>
      <trkpt lat="49.42077" lon="1.33713">
        <ele>124</ele>
        <time>2017-10-17T14:50:54Z</time>
      </trkpt>
      <trkpt lat="49.42079" lon="1.33714">
        <ele>124</ele>
        <time>2017-10-17T14:51:10Z</time>
      </trkpt>
      <trkpt lat="49.42084" lon="1.33717">
        <ele>124</ele>
        <time>2017-10-17T14:51:10Z</time>
      </trkpt>
      <trkpt lat="49.42088" lon="1.33719">
        <ele>124</ele>
        <time>2017-10-17T14:51:10Z</time>
      </trkpt>
      <trkpt lat="49.42093" lon="1.33723">
        <ele>124</ele>
        <time>2017-10-17T14:51:10Z</time>
      </trkpt>
      <trkpt lat="49.42098" lon="1.33727">
        <ele>124</ele>
        <time>2017-10-17T14:51:26Z</time>
      </trkpt>
      <trkpt lat="49.42103" lon="1.3373">
        <ele>124</ele>
        <time>2017-10-17T14:51:26Z</time>
      </trkpt>
      <trkpt lat="49.42107" lon="1.33733">
        <ele>124</ele>
        <time>2017-10-17T14:51:26Z</time>
      </trkpt>
      <trkpt lat="49.4211" lon="1.33736">
        <ele>124</ele>
        <time>2017-10-17T14:51:26Z</time>
      </trkpt>
      <trkpt lat="49.42114" lon="1.3374">
        <ele>124</ele>
        <time>2017-10-17T14:51:42Z</time>
      </trkpt>
      <trkpt lat="49.42116" lon="1.33742">
        <ele>124</ele>
        <time>2017-10-17T14:51:42Z</time>
      </trkpt>
      <trkpt lat="49.42119" lon="1.33746">
        <ele>124</ele>
        <time>2017-10-17T14:51:42Z</time>
      </trkpt>
      <trkpt lat="49.42123" lon="1.33751">
        <ele>124</ele>
        <time>2017-10-17T14:51:42Z</time>
      </trkpt>
      <trkpt lat="49.42127" lon="1.33756">
        <ele>127</ele>
        <time>2017-10-17T14:51:58Z</time>
      </trkpt>
      <trkpt lat="49.4213" lon="1.33761">
        <ele>127</ele>
        <time>2017-10-17T14:51:58Z</time>
      </trkpt>
      <trkpt lat="49.42134" lon="1.33765">
        <ele>127</ele>
        <time>2017-10-17T14:51:58Z</time>
      </trkpt>
      <trkpt lat="49.42137" lon="1.3377">
        <ele>127</ele>
        <time>2017-10-17T14:51:58Z</time>
      </trkpt>
      <trkpt lat="49.42141" lon="1.33775">
        <ele>127</ele>
        <time>2017-10-17T14:52:14Z</time>
      </trkpt>
      <trkpt lat="49.42144" lon="1.33779">
        <ele>127</ele>
        <time>2017-10-17T14:52:14Z</time>
      </trkpt>
      <trkpt lat="49.42148" lon="1.33783">
        <ele>127</ele>
        <time>2017-10-17T14:52:14Z</time>
      </trkpt>
      <trkpt lat="49.42151" lon="1.33788">
        <ele>127</ele>
        <time>2017-10-17T14:52:14Z</time>
      </trkpt>
      <trkpt lat="49.42153" lon="1.33791">
        <ele>127</ele>
        <time>2017-10-17T14:52:30Z</time>
      </trkpt>
      <trkpt lat="49.42156" lon="1.33795">
        <ele>121</ele>
        <time>2017-10-17T14:52:30Z</time>
      </trkpt>
      <trkpt lat="49.42159" lon="1.338">
        <ele>121</ele>
        <time>2017-10-17T14:52:30Z</time>
      </trkpt>
      <trkpt lat="49.42162" lon="1.33805">
        <ele>121</ele>
        <time>2017-10-17T14:52:30Z</time>
      </trkpt>
      <trkpt lat="49.42167" lon="1.33808">
        <ele>121</ele>
        <time>2017-10-17T14:52:46Z</time>
      </trkpt>
      <trkpt lat="49.42172" lon="1.3381">
        <ele>121</ele>
        <time>2017-10-17T14:52:46Z</time>
      </trkpt>
      <trkpt lat="49.42175" lon="1.33814">
        <ele>121</ele>
        <time>2017-10-17T14:52:46Z</time>
      </trkpt>
      <trkpt lat="49.42179" lon="1.33816">
        <ele>121</ele>
        <time>2017-10-17T14:52:46Z</time>
      </trkpt>
      <trkpt lat="49.42185" lon="1.3382">
        <ele>121</ele>
        <time>2017-10-17T14:53:02Z</time>
      </trkpt>
      <trkpt lat="49.42191" lon="1.33823">
        <ele>121</ele>
        <time>2017-10-17T14:53:02Z</time>
      </trkpt>
      <trkpt lat="49.42196" lon="1.33827">
        <ele>121</ele>
        <time>2017-10-17T14:53:02Z</time>
      </trkpt>
      <trkpt lat="49.422" lon="1.33829">
        <ele>121</ele>
        <time>2017-10-17T14:53:02Z</time>
      </trkpt>
      <trkpt lat="49.42203" lon="1.33832">
        <ele>121</ele>
        <time>2017-10-17T14:53:18Z</time>
      </trkpt>
      <trkpt lat="49.42207" lon="1.33835">
        <ele>121</ele>
        <time>2017-10-17T14:53:18Z</time>
      </trkpt>
      <trkpt lat="49.42211" lon="1.33838">
        <ele>125</ele>
        <time>2017-10-17T14:53:18Z</time>
      </trkpt>
      <trkpt lat="49.42214" lon="1.3384">
        <ele>125</ele>
        <time>2017-10-17T14:53:18Z</time>
      </trkpt>
      <trkpt lat="49.42218" lon="1.33843">
        <ele>125</ele>
        <time>2017-10-17T14:53:34Z</time>
      </trkpt>
      <trkpt lat="49.42222" lon="1.33845">
        <ele>125</ele>
        <time>2017-10-17T14:53:34Z</time>
      </trkpt>
      <trkpt lat="49.42226" lon="1.33848">
        <ele>125</ele>
        <time>2017-10-17T14:53:34Z</time>
      </trkpt>
      <trkpt lat="49.42231" lon="1.33851">
        <ele>125</ele>
        <time>2017-10-17T14:53:34Z</time>
      </trkpt>
      <trkpt lat="49.42235" lon="1.33854">
        <ele>125</ele>
        <time>2017-10-17T14:53:50Z</time>
      </trkpt>
      <trkpt lat="49.42239" lon="1.33856">
        <ele>125</ele>
        <time>2017-10-17T14:53:50Z</time>
      </trkpt>
      <trkpt lat="49.42242" lon="1.33857">
        <ele>125</ele>
        <time>2017-10-17T14:53:50Z</time>
      </trkpt>
      <trkpt lat="49.42246" lon="1.33859">
        <ele>125</ele>
        <time>2017-10-17T14:53:50Z</time>
      </trkpt>
      <trkpt lat="49.42249" lon="1.33861">
        <ele>125</ele>
        <time>2017-10-17T14:54:06Z</time>
      </trkpt>
      <trkpt lat="49.42252" lon="1.33863">
        <ele>125</ele>
        <time>2017-10-17T14:54:06Z</time>
      </trkpt>
      <trkpt lat="49.42256" lon="1.33864">
        <ele>125</ele>
        <time>2017-10-17T14:54:06Z</time>
      </trkpt>
      <trkpt lat="49.4226" lon="1.33864">
        <ele>125</ele>
        <time>2017-10-17T14:54:06Z</time>
      </trkpt>
      <trkpt lat="49.42266" lon="1.33865">
        <ele>125</ele>
        <time>2017-10-17T14:54:22Z</time>
      </trkpt>
      <trkpt lat="49.42273" lon="1.33866">
        <ele>125</ele>
        <time>2017-10-17T14:54:22Z</time>
      </trkpt>
      <trkpt lat="49.4228" lon="1.33867">
        <ele>125</ele>
        <time>2017-10-17T14:54:22Z</time>
      </trkpt>
      <trkpt lat="49.42286" lon="1.33869">
        <ele>125</ele>
        <time>2017-10-17T14:54:22Z</time>
      </trkpt>
      <trkpt lat="49.42292" lon="1.3387">
        <ele>124</ele>
        <time>2017-10-17T14:54:38Z</time>
      </trkpt>
      <trkpt lat="49.42298" lon="1.33871">
        <ele>124</ele>
        <time>2017-10-17T14:54:38Z</time>
      </trkpt>
      <trkpt lat="49.42304" lon="1.33871">
        <ele>124</ele>
        <time>2017-10-17T14:54:38Z</time>
      </trkpt>
      <trkpt lat="49.42309" lon="1.33872">
        <ele>124</ele>
        <time>2017-10-17T14:54:38Z</time>
      </trkpt>
      <trkpt lat="49.42314" lon="1.33873">
        <ele>124</ele>
        <time>2017-10-17T14:54:54Z</time>
      </trkpt>
      <trkpt lat="49.42319" lon="1.33874">
        <ele>124</ele>
        <time>2017-10-17T14:54:54Z</time>
      </trkpt>
      <trkpt lat="49.42323" lon="1.33875">
        <ele>119</ele>
        <time>2017-10-17T14:54:54Z</time>
      </trkpt>
      <trkpt lat="49.42328" lon="1.33876">
        <ele>119</ele>
        <time>2017-10-17T14:54:54Z</time>
      </trkpt>
      <trkpt lat="49.42332" lon="1.33876">
        <ele>119</ele>
        <time>2017-10-17T14:55:10Z</time>
      </trkpt>
      <trkpt lat="49.42336" lon="1.33878">
        <ele>119</ele>
        <time>2017-10-17T14:55:10Z</time>
      </trkpt>
      <trkpt lat="49.42341" lon="1.33878">
        <ele>119</ele>
        <time>2017-10-17T14:55:10Z</time>
      </trkpt>
      <trkpt lat="49.42345" lon="1.33879">
        <ele>119</ele>
        <time>2017-10-17T14:55:10Z</time>
      </trkpt>
      <trkpt lat="49.42349" lon="1.33882">
        <ele>119</ele>
        <time>2017-10-17T14:55:26Z</time>
      </trkpt>
      <trkpt lat="49.42352" lon="1.33887">
        <ele>119</ele>
        <time>2017-10-17T14:55:26Z</time>
      </trkpt>
      <trkpt lat="49.42354" lon="1.33894">
        <ele>119</ele>
        <time>2017-10-17T14:55:26Z</time>
      </trkpt>
      <trkpt lat="49.42354" lon="1.339">
        <ele>119</ele>
        <time>2017-10-17T14:55:26Z</time>
      </trkpt>
      <trkpt lat="49.42354" lon="1.33907">
        <ele>119</ele>
        <time>2017-10-17T14:55:42Z</time>
      </trkpt>
      <trkpt lat="49.42355" lon="1.33914">
        <ele>119</ele>
        <time>2017-10-17T14:55:42Z</time>
      </trkpt>
      <trkpt lat="49.42355" lon="1.33922">
        <ele>119</ele>
        <time>2017-10-17T14:55:42Z</time>
      </trkpt>
      <trkpt lat="49.42356" lon="1.33929">
        <ele>119</ele>
        <time>2017-10-17T14:55:42Z</time>
      </trkpt>
      <trkpt lat="49.42357" lon="1.33936">
        <ele>119</ele>
        <time>2017-10-17T14:55:58Z</time>
      </trkpt>
      <trkpt lat="49.42358" lon="1.33943">
        <ele>119</ele>
        <time>2017-10-17T14:55:58Z</time>
      </trkpt>
      <trkpt lat="49.4236" lon="1.3395">
        <ele>119</ele>
        <time>2017-10-17T14:55:58Z</time>
      </trkpt>
      <trkpt lat="49.42361" lon="1.33956">
        <ele>119</ele>
        <time>2017-10-17T14:55:58Z</time>
      </trkpt>
      <trkpt lat="49.42361" lon="1.33963">
        <ele>113</ele>
        <time>2017-10-17T14:56:14Z</time>
      </trkpt>
      <trkpt lat="49.42362" lon="1.33969">
        <ele>113</ele>
        <time>2017-10-17T14:56:14Z</time>
      </trkpt>
      <trkpt lat="49.42361" lon="1.33976">
        <ele>113</ele>
        <time>2017-10-17T14:56:14Z</time>
      </trkpt>
      <trkpt lat="49.4236" lon="1.33983">
        <ele>113</ele>
        <time>2017-10-17T14:56:14Z</time>
      </trkpt>
      <trkpt lat="49.42361" lon="1.3399">
        <ele>113</ele>
        <time>2017-10-17T14:56:30Z</time>
      </trkpt>
      <trkpt lat="49.4236" lon="1.33997">
        <ele>113</ele>
        <time>2017-10-17T14:56:30Z</time>
      </trkpt>
      <trkpt lat="49.4236" lon="1.34001">
        <ele>113</ele>
        <time>2017-10-17T14:56:30Z</time>
      </trkpt>
      <trkpt lat="49.4236" lon="1.34006">
        <ele>113</ele>
        <time>2017-10-17T14:56:30Z</time>
      </trkpt>
      <trkpt lat="49.4236" lon="1.34012">
        <ele>113</ele>
        <time>2017-10-17T14:56:46Z</time>
      </trkpt>
      <trkpt lat="49.42361" lon="1.34018">
        <ele>113</ele>
        <time>2017-10-17T14:56:46Z</time>
      </trkpt>
      <trkpt lat="49.42361" lon="1.34025">
        <ele>113</ele>
        <time>2017-10-17T14:56:46Z</time>
      </trkpt>
      <trkpt lat="49.42361" lon="1.34032">
        <ele>113</ele>
        <time>2017-10-17T14:56:46Z</time>
      </trkpt>
      <trkpt lat="49.42361" lon="1.34039">
        <ele>113</ele>
        <time>2017-10-17T14:57:02Z</time>
      </trkpt>
      <trkpt lat="49.42361" lon="1.34045">
        <ele>106</ele>
        <time>2017-10-17T14:57:02Z</time>
      </trkpt>
      <trkpt lat="49.42361" lon="1.34052">
        <ele>106</ele>
        <time>2017-10-17T14:57:02Z</time>
      </trkpt>
      <trkpt lat="49.42362" lon="1.34058">
        <ele>106</ele>
        <time>2017-10-17T14:57:02Z</time>
      </trkpt>
      <trkpt lat="49.42362" lon="1.34064">
        <ele>106</ele>
        <time>2017-10-17T14:57:18Z</time>
      </trkpt>
      <trkpt lat="49.42362" lon="1.34071">
        <ele>106</ele>
        <time>2017-10-17T14:57:18Z</time>
      </trkpt>
      <trkpt lat="49.42361" lon="1.34077">
        <ele>106</ele>
        <time>2017-10-17T14:57:18Z</time>
      </trkpt>
      <trkpt lat="49.42361" lon="1.34084">
        <ele>106</ele>
        <time>2017-10-17T14:57:18Z</time>
      </trkpt>
      <trkpt lat="49.42362" lon="1.34091">
        <ele>106</ele>
        <time>2017-10-17T14:57:34Z</time>
      </trkpt>
      <trkpt lat="49.42362" lon="1.34098">
        <ele>106</ele>
        <time>2017-10-17T14:57:34Z</time>
      </trkpt>
      <trkpt lat="49.42363" lon="1.34104">
        <ele>106</ele>
        <time>2017-10-17T14:57:34Z</time>
      </trkpt>
      <trkpt lat="49.42363" lon="1.34111">
        <ele>106</ele>
        <time>2017-10-17T14:57:34Z</time>
      </trkpt>
      <trkpt lat="49.42364" lon="1.34117">
        <ele>106</ele>
        <time>2017-10-17T14:57:50Z</time>
      </trkpt>
      <trkpt lat="49.42364" lon="1.34123">
        <ele>106</ele>
        <time>2017-10-17T14:57:50Z</time>
      </trkpt>
      <trkpt lat="49.42365" lon="1.3413">
        <ele>97</ele>
        <time>2017-10-17T14:57:50Z</time>
      </trkpt>
      <trkpt lat="49.42365" lon="1.34136">
        <ele>97</ele>
        <time>2017-10-17T14:57:50Z</time>
      </trkpt>
      <trkpt lat="49.42365" lon="1.34142">
        <ele>97</ele>
        <time>2017-10-17T14:58:06Z</time>
      </trkpt>
      <trkpt lat="49.42365" lon="1.34148">
        <ele>97</ele>
        <time>2017-10-17T14:58:06Z</time>
      </trkpt>
      <trkpt lat="49.42366" lon="1.34154">
        <ele>97</ele>
        <time>2017-10-17T14:58:06Z</time>
      </trkpt>
      <trkpt lat="49.42367" lon="1.3416">
        <ele>97</ele>
        <time>2017-10-17T14:58:06Z</time>
      </trkpt>
      <trkpt lat="49.42369" lon="1.34166">
        <ele>97</ele>
        <time>2017-10-17T14:58:22Z</time>
      </trkpt>
      <trkpt lat="49.42371" lon="1.34172">
        <ele>97</ele>
        <time>2017-10-17T14:58:22Z</time>
      </trkpt>
      <trkpt lat="49.42373" lon="1.34177">
        <ele>97</ele>
        <time>2017-10-17T14:58:22Z</time>
      </trkpt>
      <trkpt lat="49.42374" lon="1.34183">
        <ele>97</ele>
        <time>2017-10-17T14:58:22Z</time>
      </trkpt>
      <trkpt lat="49.42376" lon="1.34189">
        <ele>95</ele>
        <time>2017-10-17T14:58:38Z</time>
      </trkpt>
      <trkpt lat="49.42376" lon="1.34196">
        <ele>95</ele>
        <time>2017-10-17T14:58:38Z</time>
      </trkpt>
      <trkpt lat="49.42376" lon="1.34203">
        <ele>95</ele>
        <time>2017-10-17T14:58:38Z</time>
      </trkpt>
      <trkpt lat="49.42377" lon="1.3421">
        <ele>89</ele>
        <time>2017-10-17T14:58:38Z</time>
      </trkpt>
      <trkpt lat="49.42377" lon="1.34216">
        <ele>89</ele>
        <time>2017-10-17T14:58:54Z</time>
      </trkpt>
      <trkpt lat="49.42378" lon="1.34223">
        <ele>89</ele>
        <time>2017-10-17T14:58:54Z</time>
      </trkpt>
      <trkpt lat="49.42378" lon="1.3423">
        <ele>89</ele>
        <time>2017-10-17T14:58:54Z</time>
      </trkpt>
      <trkpt lat="49.42379" lon="1.34236">
        <ele>89</ele>
        <time>2017-10-17T14:58:54Z</time>
      </trkpt>
      <trkpt lat="49.4238" lon="1.34243">
        <ele>89</ele>
        <time>2017-10-17T14:59:10Z</time>
      </trkpt>
      <trkpt lat="49.42381" lon="1.34249">
        <ele>89</ele>
        <time>2017-10-17T14:59:10Z</time>
      </trkpt>
      <trkpt lat="49.42382" lon="1.34256">
        <ele>89</ele>
        <time>2017-10-17T14:59:10Z</time>
      </trkpt>
      <trkpt lat="49.42382" lon="1.34263">
        <ele>89</ele>
        <time>2017-10-17T14:59:10Z</time>
      </trkpt>
      <trkpt lat="49.42383" lon="1.3427">
        <ele>89</ele>
        <time>2017-10-17T14:59:26Z</time>
      </trkpt>
      <trkpt lat="49.42384" lon="1.34277">
        <ele>89</ele>
        <time>2017-10-17T14:59:26Z</time>
      </trkpt>
      <trkpt lat="49.42384" lon="1.34283">
        <ele>89</ele>
        <time>2017-10-17T14:59:26Z</time>
      </trkpt>
      <trkpt lat="49.42384" lon="1.3429">
        <ele>89</ele>
        <time>2017-10-17T14:59:26Z</time>
      </trkpt>
      <trkpt lat="49.42385" lon="1.34296">
        <ele>86</ele>
        <time>2017-10-17T14:59:42Z</time>
      </trkpt>
      <trkpt lat="49.42385" lon="1.34303">
        <ele>86</ele>
        <time>2017-10-17T14:59:42Z</time>
      </trkpt>
      <trkpt lat="49.42386" lon="1.3431">
        <ele>86</ele>
        <time>2017-10-17T14:59:42Z</time>
      </trkpt>
      <trkpt lat="49.42385" lon="1.34317">
        <ele>86</ele>
        <time>2017-10-17T14:59:42Z</time>
      </trkpt>
      <trkpt lat="49.42385" lon="1.34324">
        <ele>86</ele>
        <time>2017-10-17T14:59:58Z</time>
      </trkpt>
      <trkpt lat="49.42385" lon="1.34331">
        <ele>86</ele>
        <time>2017-10-17T14:59:58Z</time>
      </trkpt>
      <trkpt lat="49.42385" lon="1.34338">
        <ele>86</ele>
        <time>2017-10-17T14:59:58Z</time>
      </trkpt>
      <trkpt lat="49.42385" lon="1.34345">
        <ele>86</ele>
        <time>2017-10-17T14:59:58Z</time>
      </trkpt>
      <trkpt lat="49.42386" lon="1.34351">
        <ele>86</ele>
        <time>2017-10-17T15:00:14Z</time>
      </trkpt>
      <trkpt lat="49.42386" lon="1.34358">
        <ele>86</ele>
        <time>2017-10-17T15:00:14Z</time>
      </trkpt>
      <trkpt lat="49.42387" lon="1.34365">
        <ele>86</ele>
        <time>2017-10-17T15:00:14Z</time>
      </trkpt>
      <trkpt lat="49.42387" lon="1.34371">
        <ele>86</ele>
        <time>2017-10-17T15:00:14Z</time>
      </trkpt>
      <trkpt lat="49.42387" lon="1.34378">
        <ele>83</ele>
        <time>2017-10-17T15:00:30Z</time>
      </trkpt>
      <trkpt lat="49.42387" lon="1.34385">
        <ele>83</ele>
        <time>2017-10-17T15:00:30Z</time>
      </trkpt>
      <trkpt lat="49.42386" lon="1.34391">
        <ele>83</ele>
        <time>2017-10-17T15:00:30Z</time>
      </trkpt>
      <trkpt lat="49.42386" lon="1.34398">
        <ele>83</ele>
        <time>2017-10-17T15:00:30Z</time>
      </trkpt>
      <trkpt lat="49.42386" lon="1.34403">
        <ele>83</ele>
        <time>2017-10-17T15:00:46Z</time>
      </trkpt>
      <trkpt lat="49.42385" lon="1.34412">
        <ele>83</ele>
        <time>2017-10-17T15:00:46Z</time>
      </trkpt>
      <trkpt lat="49.42384" lon="1.34419">
        <ele>83</ele>
        <time>2017-10-17T15:00:46Z</time>
      </trkpt>
      <trkpt lat="49.42381" lon="1.34425">
        <ele>83</ele>
        <time>2017-10-17T15:00:46Z</time>
      </trkpt>
      <trkpt lat="49.42379" lon="1.34432">
        <ele>83</ele>
        <time>2017-10-17T15:01:02Z</time>
      </trkpt>
      <trkpt lat="49.42377" lon="1.34438">
        <ele>83</ele>
        <time>2017-10-17T15:01:02Z</time>
      </trkpt>
      <trkpt lat="49.42374" lon="1.34444">
        <ele>83</ele>
        <time>2017-10-17T15:01:02Z</time>
      </trkpt>
      <trkpt lat="49.42372" lon="1.3445">
        <ele>83</ele>
        <time>2017-10-17T15:01:02Z</time>
      </trkpt>
      <trkpt lat="49.4237" lon="1.34456">
        <ele>83</ele>
        <time>2017-10-17T15:01:18Z</time>
      </trkpt>
      <trkpt lat="49.42369" lon="1.34462">
        <ele>80</ele>
        <time>2017-10-17T15:01:18Z</time>
      </trkpt>
      <trkpt lat="49.42368" lon="1.34469">
        <ele>80</ele>
        <time>2017-10-17T15:01:18Z</time>
      </trkpt>
      <trkpt lat="49.42369" lon="1.34476">
        <ele>80</ele>
        <time>2017-10-17T15:01:18Z</time>
      </trkpt>
      <trkpt lat="49.4237" lon="1.34483">
        <ele>80</ele>
        <time>2017-10-17T15:01:34Z</time>
      </trkpt>
      <trkpt lat="49.42371" lon="1.3449">
        <ele>80</ele>
        <time>2017-10-17T15:01:34Z</time>
      </trkpt>
      <trkpt lat="49.42372" lon="1.34497">
        <ele>80</ele>
        <time>2017-10-17T15:01:34Z</time>
      </trkpt>
      <trkpt lat="49.42373" lon="1.34504">
        <ele>80</ele>
        <time>2017-10-17T15:01:34Z</time>
      </trkpt>
      <trkpt lat="49.42374" lon="1.34511">
        <ele>80</ele>
        <time>2017-10-17T15:01:50Z</time>
      </trkpt>
      <trkpt lat="49.42375" lon="1.34518">
        <ele>80</ele>
        <time>2017-10-17T15:01:50Z</time>
      </trkpt>
      <trkpt lat="49.42376" lon="1.34524">
        <ele>80</ele>
        <time>2017-10-17T15:01:50Z</time>
      </trkpt>
      <trkpt lat="49.42377" lon="1.34531">
        <ele>80</ele>
        <time>2017-10-17T15:01:50Z</time>
      </trkpt>
      <trkpt lat="49.42377" lon="1.34538">
        <ele>80</ele>
        <time>2017-10-17T15:02:06Z</time>
      </trkpt>
      <trkpt lat="49.42378" lon="1.34545">
        <ele>77</ele>
        <time>2017-10-17T15:02:06Z</time>
      </trkpt>
      <trkpt lat="49.42379" lon="1.34552">
        <ele>77</ele>
        <time>2017-10-17T15:02:06Z</time>
      </trkpt>
      <trkpt lat="49.42379" lon="1.3456">
        <ele>77</ele>
        <time>2017-10-17T15:02:06Z</time>
      </trkpt>
      <trkpt lat="49.4238" lon="1.34567">
        <ele>77</ele>
        <time>2017-10-17T15:02:22Z</time>
      </trkpt>
      <trkpt lat="49.4238" lon="1.34573">
        <ele>77</ele>
        <time>2017-10-17T15:02:22Z</time>
      </trkpt>
      <trkpt lat="49.42381" lon="1.3458">
        <ele>77</ele>
        <time>2017-10-17T15:02:22Z</time>
      </trkpt>
      <trkpt lat="49.42382" lon="1.34587">
        <ele>77</ele>
        <time>2017-10-17T15:02:22Z</time>
      </trkpt>
      <trkpt lat="49.42383" lon="1.34594">
        <ele>77</ele>
        <time>2017-10-17T15:02:38Z</time>
      </trkpt>
      <trkpt lat="49.42384" lon="1.346">
        <ele>77</ele>
        <time>2017-10-17T15:02:38Z</time>
      </trkpt>
      <trkpt lat="49.42385" lon="1.34606">
        <ele>77</ele>
        <time>2017-10-17T15:02:38Z</time>
      </trkpt>
      <trkpt lat="49.42386" lon="1.34613">
        <ele>77</ele>
        <time>2017-10-17T15:02:38Z</time>
      </trkpt>
      <trkpt lat="49.42387" lon="1.3462">
        <ele>77</ele>
        <time>2017-10-17T15:02:54Z</time>
      </trkpt>
      <trkpt lat="49.42387" lon="1.34626">
        <ele>76</ele>
        <time>2017-10-17T15:02:54Z</time>
      </trkpt>
      <trkpt lat="49.42388" lon="1.34633">
        <ele>76</ele>
        <time>2017-10-17T15:02:54Z</time>
      </trkpt>
      <trkpt lat="49.4239" lon="1.3464">
        <ele>76</ele>
        <time>2017-10-17T15:02:54Z</time>
      </trkpt>
      <trkpt lat="49.4239" lon="1.34648">
        <ele>76</ele>
        <time>2017-10-17T15:03:10Z</time>
      </trkpt>
      <trkpt lat="49.4239" lon="1.34655">
        <ele>76</ele>
        <time>2017-10-17T15:03:10Z</time>
      </trkpt>
      <trkpt lat="49.42389" lon="1.34662">
        <ele>76</ele>
        <time>2017-10-17T15:03:10Z</time>
      </trkpt>
      <trkpt lat="49.42388" lon="1.34668">
        <ele>76</ele>
        <time>2017-10-17T15:03:10Z</time>
      </trkpt>
      <trkpt lat="49.42388" lon="1.3467">
        <ele>76</ele>
        <time>2017-10-17T15:10:02Z</time>
      </trkpt>
      <trkpt lat="49.42391" lon="1.34674">
        <ele>76</ele>
        <time>2017-10-17T15:10:02Z</time>
      </trkpt>
      <trkpt lat="49.42392" lon="1.34678">
        <ele>76</ele>
        <time>2017-10-17T15:10:02Z</time>
      </trkpt>
      <trkpt lat="49.42391" lon="1.34683">
        <ele>76</ele>
        <time>2017-10-17T15:10:02Z</time>
      </trkpt>
      <trkpt lat="49.4239" lon="1.34687">
        <ele>76</ele>
        <time>2017-10-17T15:10:02Z</time>
      </trkpt>
      <trkpt lat="49.42389" lon="1.34692">
        <ele>76</ele>
        <time>2017-10-17T15:10:18Z</time>
      </trkpt>
      <trkpt lat="49.42389" lon="1.34696">
        <ele>76</ele>
        <time>2017-10-17T15:10:18Z</time>
      </trkpt>
      <trkpt lat="49.42388" lon="1.34702">
        <ele>76</ele>
        <time>2017-10-17T15:10:18Z</time>
      </trkpt>
      <trkpt lat="49.42386" lon="1.34706">
        <ele>76</ele>
        <time>2017-10-17T15:10:18Z</time>
      </trkpt>
      <trkpt lat="49.42385" lon="1.34711">
        <ele>78</ele>
        <time>2017-10-17T15:10:34Z</time>
      </trkpt>
      <trkpt lat="49.42384" lon="1.34716">
        <ele>78</ele>
        <time>2017-10-17T15:10:34Z</time>
      </trkpt>
      <trkpt lat="49.42382" lon="1.3472">
        <ele>78</ele>
        <time>2017-10-17T15:10:34Z</time>
      </trkpt>
      <trkpt lat="49.4238" lon="1.34726">
        <ele>78</ele>
        <time>2017-10-17T15:10:34Z</time>
      </trkpt>
      <trkpt lat="49.42379" lon="1.34731">
        <ele>78</ele>
        <time>2017-10-17T15:10:50Z</time>
      </trkpt>
      <trkpt lat="49.42378" lon="1.34737">
        <ele>78</ele>
        <time>2017-10-17T15:10:50Z</time>
      </trkpt>
      <trkpt lat="49.42376" lon="1.34744">
        <ele>78</ele>
        <time>2017-10-17T15:10:50Z</time>
      </trkpt>
      <trkpt lat="49.42375" lon="1.3475">
        <ele>82</ele>
        <time>2017-10-17T15:10:50Z</time>
      </trkpt>
      <trkpt lat="49.42371" lon="1.34751">
        <ele>82</ele>
        <time>2017-10-17T15:11:06Z</time>
      </trkpt>
      <trkpt lat="49.42369" lon="1.34755">
        <ele>82</ele>
        <time>2017-10-17T15:11:06Z</time>
      </trkpt>
      <trkpt lat="49.42369" lon="1.3476">
        <ele>82</ele>
        <time>2017-10-17T15:11:06Z</time>
      </trkpt>
      <trkpt lat="49.42368" lon="1.34767">
        <ele>82</ele>
        <time>2017-10-17T15:11:06Z</time>
      </trkpt>
      <trkpt lat="49.42367" lon="1.34773">
        <ele>82</ele>
        <time>2017-10-17T15:11:22Z</time>
      </trkpt>
      <trkpt lat="49.42366" lon="1.34778">
        <ele>82</ele>
        <time>2017-10-17T15:11:22Z</time>
      </trkpt>
      <trkpt lat="49.42364" lon="1.34783">
        <ele>82</ele>
        <time>2017-10-17T15:11:22Z</time>
      </trkpt>
      <trkpt lat="49.42362" lon="1.34788">
        <ele>82</ele>
        <time>2017-10-17T15:11:22Z</time>
      </trkpt>
      <trkpt lat="49.4236" lon="1.34794">
        <ele>81</ele>
        <time>2017-10-17T15:11:38Z</time>
      </trkpt>
      <trkpt lat="49.42359" lon="1.348">
        <ele>81</ele>
        <time>2017-10-17T15:11:38Z</time>
      </trkpt>
      <trkpt lat="49.42358" lon="1.34806">
        <ele>81</ele>
        <time>2017-10-17T15:11:38Z</time>
      </trkpt>
      <trkpt lat="49.42359" lon="1.3481">
        <ele>81</ele>
        <time>2017-10-17T15:11:38Z</time>
      </trkpt>
      <trkpt lat="49.42361" lon="1.34811">
        <ele>81</ele>
        <time>2017-10-17T15:11:54Z</time>
      </trkpt>
      <trkpt lat="49.42365" lon="1.34811">
        <ele>81</ele>
        <time>2017-10-17T15:11:54Z</time>
      </trkpt>
      <trkpt lat="49.42368" lon="1.34808">
        <ele>81</ele>
        <time>2017-10-17T15:11:54Z</time>
      </trkpt>
      <trkpt lat="49.4237" lon="1.34804">
        <ele>81</ele>
        <time>2017-10-17T15:11:54Z</time>
      </trkpt>
      <trkpt lat="49.42374" lon="1.348">
        <ele>81</ele>
        <time>2017-10-17T15:12:10Z</time>
      </trkpt>
      <trkpt lat="49.42378" lon="1.34797">
        <ele>91</ele>
        <time>2017-10-17T15:12:10Z</time>
      </trkpt>
      <trkpt lat="49.42382" lon="1.34794">
        <ele>91</ele>
        <time>2017-10-17T15:12:10Z</time>
      </trkpt>
      <trkpt lat="49.42386" lon="1.34791">
        <ele>78</ele>
        <time>2017-10-17T15:12:10Z</time>
      </trkpt>
      <trkpt lat="49.4239" lon="1.34788">
        <ele>78</ele>
        <time>2017-10-17T15:12:26Z</time>
      </trkpt>
      <trkpt lat="49.42394" lon="1.34785">
        <ele>78</ele>
        <time>2017-10-17T15:12:26Z</time>
      </trkpt>
      <trkpt lat="49.42398" lon="1.34782">
        <ele>78</ele>
        <time>2017-10-17T15:12:26Z</time>
      </trkpt>
      <trkpt lat="49.42401" lon="1.34778">
        <ele>78</ele>
        <time>2017-10-17T15:12:26Z</time>
      </trkpt>
      <trkpt lat="49.42405" lon="1.34774">
        <ele>78</ele>
        <time>2017-10-17T15:12:42Z</time>
      </trkpt>
      <trkpt lat="49.42408" lon="1.3477">
        <ele>78</ele>
        <time>2017-10-17T15:12:42Z</time>
      </trkpt>
      <trkpt lat="49.42411" lon="1.34765">
        <ele>78</ele>
        <time>2017-10-17T15:12:42Z</time>
      </trkpt>
      <trkpt lat="49.42414" lon="1.3476">
        <ele>78</ele>
        <time>2017-10-17T15:12:42Z</time>
      </trkpt>
      <trkpt lat="49.42417" lon="1.34756">
        <ele>78</ele>
        <time>2017-10-17T15:12:58Z</time>
      </trkpt>
      <trkpt lat="49.42419" lon="1.34751">
        <ele>78</ele>
        <time>2017-10-17T15:12:58Z</time>
      </trkpt>
      <trkpt lat="49.42422" lon="1.34746">
        <ele>78</ele>
        <time>2017-10-17T15:12:58Z</time>
      </trkpt>
      <trkpt lat="49.42425" lon="1.34742">
        <ele>78</ele>
        <time>2017-10-17T15:12:58Z</time>
      </trkpt>
      <trkpt lat="49.42428" lon="1.34737">
        <ele>78</ele>
        <time>2017-10-17T15:13:14Z</time>
      </trkpt>
      <trkpt lat="49.42431" lon="1.34735">
        <ele>78</ele>
        <time>2017-10-17T15:13:14Z</time>
      </trkpt>
      <trkpt lat="49.42434" lon="1.34729">
        <ele>78</ele>
        <time>2017-10-17T15:13:14Z</time>
      </trkpt>
      <trkpt lat="49.42437" lon="1.34725">
        <ele>78</ele>
        <time>2017-10-17T15:13:14Z</time>
      </trkpt>
      <trkpt lat="49.4244" lon="1.3472">
        <ele>78</ele>
        <time>2017-10-17T15:13:30Z</time>
      </trkpt>
      <trkpt lat="49.42442" lon="1.34716">
        <ele>78</ele>
        <time>2017-10-17T15:13:30Z</time>
      </trkpt>
      <trkpt lat="49.42445" lon="1.34713">
        <ele>78</ele>
        <time>2017-10-17T15:13:30Z</time>
      </trkpt>
      <trkpt lat="49.42447" lon="1.34709">
        <ele>78</ele>
        <time>2017-10-17T15:13:30Z</time>
      </trkpt>
      <trkpt lat="49.42449" lon="1.34705">
        <ele>76</ele>
        <time>2017-10-17T15:13:46Z</time>
      </trkpt>
      <trkpt lat="49.42452" lon="1.34701">
        <ele>76</ele>
        <time>2017-10-17T15:13:46Z</time>
      </trkpt>
      <trkpt lat="49.42454" lon="1.34698">
        <ele>76</ele>
        <time>2017-10-17T15:13:46Z</time>
      </trkpt>
      <trkpt lat="49.42456" lon="1.34693">
        <ele>76</ele>
        <time>2017-10-17T15:13:46Z</time>
      </trkpt>
      <trkpt lat="49.42458" lon="1.34689">
        <ele>76</ele>
        <time>2017-10-17T15:14:02Z</time>
      </trkpt>
      <trkpt lat="49.4246" lon="1.34686">
        <ele>93</ele>
        <time>2017-10-17T15:14:02Z</time>
      </trkpt>
      <trkpt lat="49.42461" lon="1.34682">
        <ele>93</ele>
        <time>2017-10-17T15:14:02Z</time>
      </trkpt>
      <trkpt lat="49.42463" lon="1.34678">
        <ele>93</ele>
        <time>2017-10-17T15:14:02Z</time>
      </trkpt>
      <trkpt lat="49.42464" lon="1.34673">
        <ele>93</ele>
        <time>2017-10-17T15:14:18Z</time>
      </trkpt>
      <trkpt lat="49.42465" lon="1.34668">
        <ele>93</ele>
        <time>2017-10-17T15:14:18Z</time>
      </trkpt>
      <trkpt lat="49.42466" lon="1.34664">
        <ele>93</ele>
        <time>2017-10-17T15:14:18Z</time>
      </trkpt>
      <trkpt lat="49.42468" lon="1.34659">
        <ele>93</ele>
        <time>2017-10-17T15:14:18Z</time>
      </trkpt>
      <trkpt lat="49.42469" lon="1.34655">
        <ele>93</ele>
        <time>2017-10-17T15:14:34Z</time>
      </trkpt>
      <trkpt lat="49.4247" lon="1.3465">
        <ele>93</ele>
        <time>2017-10-17T15:14:34Z</time>
      </trkpt>
      <trkpt lat="49.42471" lon="1.34646">
        <ele>93</ele>
        <time>2017-10-17T15:14:34Z</time>
      </trkpt>
      <trkpt lat="49.42472" lon="1.34641">
        <ele>93</ele>
        <time>2017-10-17T15:14:34Z</time>
      </trkpt>
      <trkpt lat="49.42473" lon="1.34635">
        <ele>93</ele>
        <time>2017-10-17T15:14:50Z</time>
      </trkpt>
      <trkpt lat="49.42474" lon="1.3463">
        <ele>93</ele>
        <time>2017-10-17T15:14:50Z</time>
      </trkpt>
      <trkpt lat="49.42475" lon="1.34625">
        <ele>93</ele>
        <time>2017-10-17T15:14:50Z</time>
      </trkpt>
      <trkpt lat="49.42477" lon="1.3462">
        <ele>93</ele>
        <time>2017-10-17T15:14:50Z</time>
      </trkpt>
      <trkpt lat="49.4248" lon="1.34616">
        <ele>93</ele>
        <time>2017-10-17T15:15:06Z</time>
      </trkpt>
      <trkpt lat="49.42483" lon="1.34612">
        <ele>93</ele>
        <time>2017-10-17T15:15:06Z</time>
      </trkpt>
      <trkpt lat="49.42485" lon="1.34608">
        <ele>93</ele>
        <time>2017-10-17T15:15:06Z</time>
      </trkpt>
      <trkpt lat="49.42488" lon="1.34604">
        <ele>93</ele>
        <time>2017-10-17T15:15:06Z</time>
      </trkpt>
      <trkpt lat="49.42491" lon="1.346">
        <ele>93</ele>
        <time>2017-10-17T15:15:22Z</time>
      </trkpt>
      <trkpt lat="49.42493" lon="1.34596">
        <ele>93</ele>
        <time>2017-10-17T15:15:22Z</time>
      </trkpt>
      <trkpt lat="49.42496" lon="1.34592">
        <ele>93</ele>
        <time>2017-10-17T15:15:22Z</time>
      </trkpt>
      <trkpt lat="49.42498" lon="1.34589">
        <ele>93</ele>
        <time>2017-10-17T15:15:22Z</time>
      </trkpt>
      <trkpt lat="49.42501" lon="1.34585">
        <ele>93</ele>
        <time>2017-10-17T15:15:38Z</time>
      </trkpt>
      <trkpt lat="49.42503" lon="1.34582">
        <ele>93</ele>
        <time>2017-10-17T15:15:38Z</time>
      </trkpt>
      <trkpt lat="49.42506" lon="1.34578">
        <ele>93</ele>
        <time>2017-10-17T15:15:38Z</time>
      </trkpt>
      <trkpt lat="49.42508" lon="1.34574">
        <ele>93</ele>
        <time>2017-10-17T15:15:38Z</time>
      </trkpt>
      <trkpt lat="49.4251" lon="1.3457">
        <ele>93</ele>
        <time>2017-10-17T15:15:54Z</time>
      </trkpt>
      <trkpt lat="49.42512" lon="1.34566">
        <ele>93</ele>
        <time>2017-10-17T15:15:54Z</time>
      </trkpt>
      <trkpt lat="49.42514" lon="1.34562">
        <ele>93</ele>
        <time>2017-10-17T15:15:54Z</time>
      </trkpt>
      <trkpt lat="49.42516" lon="1.34558">
        <ele>93</ele>
        <time>2017-10-17T15:15:54Z</time>
      </trkpt>
      <trkpt lat="49.42518" lon="1.34554">
        <ele>93</ele>
        <time>2017-10-17T15:16:10Z</time>
      </trkpt>
      <trkpt lat="49.4252" lon="1.3455">
        <ele>93</ele>
        <time>2017-10-17T15:16:10Z</time>
      </trkpt>
      <trkpt lat="49.42522" lon="1.34546">
        <ele>93</ele>
        <time>2017-10-17T15:16:10Z</time>
      </trkpt>
      <trkpt lat="49.42524" lon="1.34542">
        <ele>93</ele>
        <time>2017-10-17T15:16:10Z</time>
      </trkpt>
      <trkpt lat="49.42526" lon="1.34538">
        <ele>90</ele>
        <time>2017-10-17T15:16:26Z</time>
      </trkpt>
      <trkpt lat="49.42528" lon="1.34534">
        <ele>90</ele>
        <time>2017-10-17T15:16:26Z</time>
      </trkpt>
      <trkpt lat="49.4253" lon="1.3453">
        <ele>90</ele>
        <time>2017-10-17T15:16:26Z</time>
      </trkpt>
      <trkpt lat="49.42533" lon="1.34527">
        <ele>90</ele>
        <time>2017-10-17T15:16:26Z</time>
      </trkpt>
      <trkpt lat="49.42535" lon="1.34522">
        <ele>90</ele>
        <time>2017-10-17T15:16:42Z</time>
      </trkpt>
      <trkpt lat="49.42537" lon="1.34518">
        <ele>90</ele>
        <time>2017-10-17T15:16:42Z</time>
      </trkpt>
      <trkpt lat="49.42539" lon="1.34514">
        <ele>90</ele>
        <time>2017-10-17T15:16:42Z</time>
      </trkpt>
      <trkpt lat="49.42541" lon="1.34509">
        <ele>90</ele>
        <time>2017-10-17T15:16:42Z</time>
      </trkpt>
      <trkpt lat="49.42542" lon="1.34504">
        <ele>115</ele>
        <time>2017-10-17T15:16:58Z</time>
      </trkpt>
      <trkpt lat="49.42544" lon="1.345">
        <ele>115</ele>
        <time>2017-10-17T15:16:58Z</time>
      </trkpt>
      <trkpt lat="49.42546" lon="1.34495">
        <ele>115</ele>
        <time>2017-10-17T15:16:58Z</time>
      </trkpt>
      <trkpt lat="49.42548" lon="1.34492">
        <ele>115</ele>
        <time>2017-10-17T15:16:58Z</time>
      </trkpt>
      <trkpt lat="49.4255" lon="1.34487">
        <ele>115</ele>
        <time>2017-10-17T15:17:14Z</time>
      </trkpt>
      <trkpt lat="49.42552" lon="1.34483">
        <ele>115</ele>
        <time>2017-10-17T15:17:14Z</time>
      </trkpt>
      <trkpt lat="49.42554" lon="1.34478">
        <ele>115</ele>
        <time>2017-10-17T15:17:14Z</time>
      </trkpt>
      <trkpt lat="49.42556" lon="1.34474">
        <ele>115</ele>
        <time>2017-10-17T15:17:14Z</time>
      </trkpt>
      <trkpt lat="49.42558" lon="1.34469">
        <ele>115</ele>
        <time>2017-10-17T15:17:30Z</time>
      </trkpt>
      <trkpt lat="49.4256" lon="1.34465">
        <ele>115</ele>
        <time>2017-10-17T15:17:30Z</time>
      </trkpt>
      <trkpt lat="49.42563" lon="1.3446">
        <ele>115</ele>
        <time>2017-10-17T15:17:30Z</time>
      </trkpt>
      <trkpt lat="49.42565" lon="1.34456">
        <ele>113</ele>
        <time>2017-10-17T15:17:30Z</time>
      </trkpt>
      <trkpt lat="49.42567" lon="1.34452">
        <ele>113</ele>
        <time>2017-10-17T15:17:46Z</time>
      </trkpt>
      <trkpt lat="49.42569" lon="1.34447">
        <ele>113</ele>
        <time>2017-10-17T15:17:46Z</time>
      </trkpt>
      <trkpt lat="49.42572" lon="1.34444">
        <ele>113</ele>
        <time>2017-10-17T15:17:46Z</time>
      </trkpt>
      <trkpt lat="49.42574" lon="1.3444">
        <ele>113</ele>
        <time>2017-10-17T15:17:46Z</time>
      </trkpt>
      <trkpt lat="49.42577" lon="1.34437">
        <ele>113</ele>
        <time>2017-10-17T15:18:02Z</time>
      </trkpt>
      <trkpt lat="49.4258" lon="1.34433">
        <ele>113</ele>
        <time>2017-10-17T15:18:02Z</time>
      </trkpt>
      <trkpt lat="49.42582" lon="1.3443">
        <ele>113</ele>
        <time>2017-10-17T15:18:02Z</time>
      </trkpt>
      <trkpt lat="49.42585" lon="1.34426">
        <ele>113</ele>
        <time>2017-10-17T15:18:02Z</time>
      </trkpt>
      <trkpt lat="49.42588" lon="1.34423">
        <ele>113</ele>
        <time>2017-10-17T15:18:18Z</time>
      </trkpt>
      <trkpt lat="49.4259" lon="1.34419">
        <ele>113</ele>
        <time>2017-10-17T15:18:18Z</time>
      </trkpt>
      <trkpt lat="49.42593" lon="1.34416">
        <ele>113</ele>
        <time>2017-10-17T15:18:18Z</time>
      </trkpt>
      <trkpt lat="49.42595" lon="1.34413">
        <ele>113</ele>
        <time>2017-10-17T15:18:18Z</time>
      </trkpt>
      <trkpt lat="49.42598" lon="1.3441">
        <ele>113</ele>
        <time>2017-10-17T15:18:34Z</time>
      </trkpt>
      <trkpt lat="49.42601" lon="1.34408">
        <ele>113</ele>
        <time>2017-10-17T15:18:34Z</time>
      </trkpt>
      <trkpt lat="49.42605" lon="1.34406">
        <ele>113</ele>
        <time>2017-10-17T15:18:34Z</time>
      </trkpt>
      <trkpt lat="49.42609" lon="1.34405">
        <ele>113</ele>
        <time>2017-10-17T15:18:34Z</time>
      </trkpt>
      <trkpt lat="49.42613" lon="1.34403">
        <ele>113</ele>
        <time>2017-10-17T15:18:50Z</time>
      </trkpt>
      <trkpt lat="49.42616" lon="1.34402">
        <ele>113</ele>
        <time>2017-10-17T15:18:50Z</time>
      </trkpt>
      <trkpt lat="49.4262" lon="1.34398">
        <ele>113</ele>
        <time>2017-10-17T15:18:50Z</time>
      </trkpt>
      <trkpt lat="49.42622" lon="1.34393">
        <ele>113</ele>
        <time>2017-10-17T15:18:50Z</time>
      </trkpt>
      <trkpt lat="49.42623" lon="1.34388">
        <ele>113</ele>
        <time>2017-10-17T15:19:06Z</time>
      </trkpt>
      <trkpt lat="49.42625" lon="1.34382">
        <ele>113</ele>
        <time>2017-10-17T15:19:06Z</time>
      </trkpt>
      <trkpt lat="49.42627" lon="1.34376">
        <ele>131</ele>
        <time>2017-10-17T15:19:06Z</time>
      </trkpt>
      <trkpt lat="49.42629" lon="1.34372">
        <ele>129</ele>
        <time>2017-10-17T15:19:06Z</time>
      </trkpt>
      <trkpt lat="49.42631" lon="1.34367">
        <ele>129</ele>
        <time>2017-10-17T15:19:22Z</time>
      </trkpt>
      <trkpt lat="49.42633" lon="1.34363">
        <ele>129</ele>
        <time>2017-10-17T15:19:22Z</time>
      </trkpt>
      <trkpt lat="49.42635" lon="1.34358">
        <ele>129</ele>
        <time>2017-10-17T15:19:22Z</time>
      </trkpt>
      <trkpt lat="49.42637" lon="1.34353">
        <ele>129</ele>
        <time>2017-10-17T15:19:22Z</time>
      </trkpt>
      <trkpt lat="49.4264" lon="1.34348">
        <ele>129</ele>
        <time>2017-10-17T15:19:38Z</time>
      </trkpt>
      <trkpt lat="49.42642" lon="1.34342">
        <ele>129</ele>
        <time>2017-10-17T15:19:38Z</time>
      </trkpt>
      <trkpt lat="49.42644" lon="1.34337">
        <ele>129</ele>
        <time>2017-10-17T15:19:38Z</time>
      </trkpt>
      <trkpt lat="49.42647" lon="1.34333">
        <ele>129</ele>
        <time>2017-10-17T15:19:38Z</time>
      </trkpt>
      <trkpt lat="49.4265" lon="1.34329">
        <ele>129</ele>
        <time>2017-10-17T15:19:54Z</time>
      </trkpt>
      <trkpt lat="49.42652" lon="1.34324">
        <ele>129</ele>
        <time>2017-10-17T15:19:54Z</time>
      </trkpt>
      <trkpt lat="49.42653" lon="1.34318">
        <ele>129</ele>
        <time>2017-10-17T15:19:54Z</time>
      </trkpt>
      <trkpt lat="49.42655" lon="1.34312">
        <ele>129</ele>
        <time>2017-10-17T15:19:54Z</time>
      </trkpt>
      <trkpt lat="49.42657" lon="1.34307">
        <ele>129</ele>
        <time>2017-10-17T15:20:10Z</time>
      </trkpt>
      <trkpt lat="49.4266" lon="1.34302">
        <ele>129</ele>
        <time>2017-10-17T15:20:10Z</time>
      </trkpt>
      <trkpt lat="49.42663" lon="1.34297">
        <ele>129</ele>
        <time>2017-10-17T15:20:10Z</time>
      </trkpt>
      <trkpt lat="49.42665" lon="1.34291">
        <ele>123</ele>
        <time>2017-10-17T15:20:10Z</time>
      </trkpt>
      <trkpt lat="49.42668" lon="1.34285">
        <ele>123</ele>
        <time>2017-10-17T15:20:26Z</time>
      </trkpt>
      <trkpt lat="49.42671" lon="1.3428">
        <ele>123</ele>
        <time>2017-10-17T15:20:26Z</time>
      </trkpt>
      <trkpt lat="49.42673" lon="1.34273">
        <ele>123</ele>
        <time>2017-10-17T15:20:26Z</time>
      </trkpt>
      <trkpt lat="49.42676" lon="1.34267">
        <ele>123</ele>
        <time>2017-10-17T15:20:26Z</time>
      </trkpt>
      <trkpt lat="49.42678" lon="1.34261">
        <ele>123</ele>
        <time>2017-10-17T15:20:42Z</time>
      </trkpt>
      <trkpt lat="49.42681" lon="1.34256">
        <ele>123</ele>
        <time>2017-10-17T15:20:42Z</time>
      </trkpt>
      <trkpt lat="49.42683" lon="1.3425">
        <ele>123</ele>
        <time>2017-10-17T15:20:42Z</time>
      </trkpt>
      <trkpt lat="49.42686" lon="1.34244">
        <ele>123</ele>
        <time>2017-10-17T15:20:42Z</time>
      </trkpt>
      <trkpt lat="49.42688" lon="1.34238">
        <ele>123</ele>
        <time>2017-10-17T15:20:58Z</time>
      </trkpt>
      <trkpt lat="49.42691" lon="1.34232">
        <ele>123</ele>
        <time>2017-10-17T15:20:58Z</time>
      </trkpt>
      <trkpt lat="49.42692" lon="1.34226">
        <ele>123</ele>
        <time>2017-10-17T15:20:58Z</time>
      </trkpt>
      <trkpt lat="49.42694" lon="1.34219">
        <ele>123</ele>
        <time>2017-10-17T15:20:58Z</time>
      </trkpt>
      <trkpt lat="49.42695" lon="1.34212">
        <ele>123</ele>
        <time>2017-10-17T15:21:14Z</time>
      </trkpt>
      <trkpt lat="49.42698" lon="1.34205">
        <ele>113</ele>
        <time>2017-10-17T15:21:14Z</time>
      </trkpt>
      <trkpt lat="49.427" lon="1.342">
        <ele>113</ele>
        <time>2017-10-17T15:21:14Z</time>
      </trkpt>
      <trkpt lat="49.42703" lon="1.34195">
        <ele>113</ele>
        <time>2017-10-17T15:21:14Z</time>
      </trkpt>
      <trkpt lat="49.42705" lon="1.34189">
        <ele>113</ele>
        <time>2017-10-17T15:21:30Z</time>
      </trkpt>
      <trkpt lat="49.42707" lon="1.34183">
        <ele>113</ele>
        <time>2017-10-17T15:21:30Z</time>
      </trkpt>
      <trkpt lat="49.42709" lon="1.34178">
        <ele>130</ele>
        <time>2017-10-17T15:21:30Z</time>
      </trkpt>
      <trkpt lat="49.42712" lon="1.34172">
        <ele>130</ele>
        <time>2017-10-17T15:21:30Z</time>
      </trkpt>
      <trkpt lat="49.42714" lon="1.34165">
        <ele>130</ele>
        <time>2017-10-17T15:21:46Z</time>
      </trkpt>
      <trkpt lat="49.42716" lon="1.34159">
        <ele>130</ele>
        <time>2017-10-17T15:21:46Z</time>
      </trkpt>
      <trkpt lat="49.42719" lon="1.34153">
        <ele>130</ele>
        <time>2017-10-17T15:21:46Z</time>
      </trkpt>
      <trkpt lat="49.42721" lon="1.34147">
        <ele>130</ele>
        <time>2017-10-17T15:21:46Z</time>
      </trkpt>
      <trkpt lat="49.42724" lon="1.34142">
        <ele>130</ele>
        <time>2017-10-17T15:22:02Z</time>
      </trkpt>
      <trkpt lat="49.42727" lon="1.34137">
        <ele>130</ele>
        <time>2017-10-17T15:22:02Z</time>
      </trkpt>
      <trkpt lat="49.42729" lon="1.34131">
        <ele>130</ele>
        <time>2017-10-17T15:22:02Z</time>
      </trkpt>
      <trkpt lat="49.42732" lon="1.34126">
        <ele>130</ele>
        <time>2017-10-17T15:22:02Z</time>
      </trkpt>
      <trkpt lat="49.42734" lon="1.3412">
        <ele>126</ele>
        <time>2017-10-17T15:22:18Z</time>
      </trkpt>
      <trkpt lat="49.42736" lon="1.34114">
        <ele>126</ele>
        <time>2017-10-17T15:22:18Z</time>
      </trkpt>
      <trkpt lat="49.42739" lon="1.34109">
        <ele>126</ele>
        <time>2017-10-17T15:22:18Z</time>
      </trkpt>
      <trkpt lat="49.42743" lon="1.34104">
        <ele>126</ele>
        <time>2017-10-17T15:22:18Z</time>
      </trkpt>
      <trkpt lat="49.42745" lon="1.34098">
        <ele>126</ele>
        <time>2017-10-17T15:22:34Z</time>
      </trkpt>
      <trkpt lat="49.42748" lon="1.34093">
        <ele>126</ele>
        <time>2017-10-17T15:22:34Z</time>
      </trkpt>
      <trkpt lat="49.42751" lon="1.34089">
        <ele>126</ele>
        <time>2017-10-17T15:22:34Z</time>
      </trkpt>
      <trkpt lat="49.42754" lon="1.34084">
        <ele>126</ele>
        <time>2017-10-17T15:22:34Z</time>
      </trkpt>
      <trkpt lat="49.42756" lon="1.34078">
        <ele>126</ele>
        <time>2017-10-17T15:22:50Z</time>
      </trkpt>
      <trkpt lat="49.42758" lon="1.34072">
        <ele>126</ele>
        <time>2017-10-17T15:22:50Z</time>
      </trkpt>
      <trkpt lat="49.4276" lon="1.34067">
        <ele>126</ele>
        <time>2017-10-17T15:22:50Z</time>
      </trkpt>
      <trkpt lat="49.42763" lon="1.3406">
        <ele>126</ele>
        <time>2017-10-17T15:22:50Z</time>
      </trkpt>
      <trkpt lat="49.42764" lon="1.34053">
        <ele>126</ele>
        <time>2017-10-17T15:23:06Z</time>
      </trkpt>
      <trkpt lat="49.42765" lon="1.34046">
        <ele>126</ele>
        <time>2017-10-17T15:23:06Z</time>
      </trkpt>
      <trkpt lat="49.42768" lon="1.34041">
        <ele>117</ele>
        <time>2017-10-17T15:23:06Z</time>
      </trkpt>
      <trkpt lat="49.4277" lon="1.34036">
        <ele>117</ele>
        <time>2017-10-17T15:23:06Z</time>
      </trkpt>
      <trkpt lat="49.42772" lon="1.34029">
        <ele>117</ele>
        <time>2017-10-17T15:23:22Z</time>
      </trkpt>
      <trkpt lat="49.42776" lon="1.34024">
        <ele>117</ele>
        <time>2017-10-17T15:23:22Z</time>
      </trkpt>
      <trkpt lat="49.4278" lon="1.34018">
        <ele>117</ele>
        <time>2017-10-17T15:23:22Z</time>
      </trkpt>
      <trkpt lat="49.42783" lon="1.34013">
        <ele>117</ele>
        <time>2017-10-17T15:23:22Z</time>
      </trkpt>
      <trkpt lat="49.42786" lon="1.34008">
        <ele>117</ele>
        <time>2017-10-17T15:23:38Z</time>
      </trkpt>
      <trkpt lat="49.42789" lon="1.34002">
        <ele>117</ele>
        <time>2017-10-17T15:23:38Z</time>
      </trkpt>
      <trkpt lat="49.42791" lon="1.33996">
        <ele>117</ele>
        <time>2017-10-17T15:23:38Z</time>
      </trkpt>
      <trkpt lat="49.42794" lon="1.33991">
        <ele>135</ele>
        <time>2017-10-17T15:23:38Z</time>
      </trkpt>
      <trkpt lat="49.42796" lon="1.33986">
        <ele>135</ele>
        <time>2017-10-17T15:23:54Z</time>
      </trkpt>
      <trkpt lat="49.428" lon="1.33982">
        <ele>135</ele>
        <time>2017-10-17T15:23:54Z</time>
      </trkpt>
      <trkpt lat="49.42803" lon="1.33977">
        <ele>135</ele>
        <time>2017-10-17T15:23:54Z</time>
      </trkpt>
      <trkpt lat="49.42805" lon="1.33971">
        <ele>135</ele>
        <time>2017-10-17T15:23:54Z</time>
      </trkpt>
      <trkpt lat="49.42807" lon="1.33965">
        <ele>135</ele>
        <time>2017-10-17T15:24:10Z</time>
      </trkpt>
      <trkpt lat="49.42809" lon="1.33958">
        <ele>135</ele>
        <time>2017-10-17T15:24:10Z</time>
      </trkpt>
      <trkpt lat="49.42811" lon="1.33953">
        <ele>125</ele>
        <time>2017-10-17T15:24:10Z</time>
      </trkpt>
      <trkpt lat="49.42814" lon="1.33947">
        <ele>125</ele>
        <time>2017-10-17T15:24:10Z</time>
      </trkpt>
      <trkpt lat="49.42817" lon="1.33942">
        <ele>125</ele>
        <time>2017-10-17T15:24:26Z</time>
      </trkpt>
      <trkpt lat="49.42819" lon="1.33937">
        <ele>125</ele>
        <time>2017-10-17T15:24:26Z</time>
      </trkpt>
      <trkpt lat="49.42821" lon="1.33931">
        <ele>125</ele>
        <time>2017-10-17T15:24:26Z</time>
      </trkpt>
      <trkpt lat="49.42823" lon="1.33924">
        <ele>125</ele>
        <time>2017-10-17T15:24:26Z</time>
      </trkpt>
      <trkpt lat="49.42825" lon="1.33919">
        <ele>125</ele>
        <time>2017-10-17T15:24:42Z</time>
      </trkpt>
      <trkpt lat="49.42828" lon="1.33913">
        <ele>125</ele>
        <time>2017-10-17T15:24:42Z</time>
      </trkpt>
      <trkpt lat="49.42831" lon="1.33907">
        <ele>125</ele>
        <time>2017-10-17T15:24:42Z</time>
      </trkpt>
      <trkpt lat="49.42833" lon="1.33902">
        <ele>125</ele>
        <time>2017-10-17T15:24:42Z</time>
      </trkpt>
      <trkpt lat="49.42836" lon="1.33898">
        <ele>125</ele>
        <time>2017-10-17T15:24:58Z</time>
      </trkpt>
      <trkpt lat="49.42839" lon="1.33892">
        <ele>125</ele>
        <time>2017-10-17T15:24:58Z</time>
      </trkpt>
      <trkpt lat="49.42842" lon="1.33887">
        <ele>125</ele>
        <time>2017-10-17T15:24:58Z</time>
      </trkpt>
      <trkpt lat="49.42845" lon="1.33881">
        <ele>125</ele>
        <time>2017-10-17T15:24:58Z</time>
      </trkpt>
      <trkpt lat="49.42847" lon="1.33876">
        <ele>125</ele>
        <time>2017-10-17T15:25:14Z</time>
      </trkpt>
      <trkpt lat="49.42849" lon="1.33871">
        <ele>121</ele>
        <time>2017-10-17T15:25:14Z</time>
      </trkpt>
      <trkpt lat="49.42852" lon="1.33867">
        <ele>121</ele>
        <time>2017-10-17T15:25:14Z</time>
      </trkpt>
      <trkpt lat="49.42855" lon="1.33861">
        <ele>121</ele>
        <time>2017-10-17T15:25:14Z</time>
      </trkpt>
      <trkpt lat="49.42858" lon="1.33856">
        <ele>121</ele>
        <time>2017-10-17T15:25:30Z</time>
      </trkpt>
      <trkpt lat="49.42861" lon="1.33851">
        <ele>121</ele>
        <time>2017-10-17T15:25:30Z</time>
      </trkpt>
      <trkpt lat="49.42864" lon="1.33845">
        <ele>121</ele>
        <time>2017-10-17T15:25:30Z</time>
      </trkpt>
      <trkpt lat="49.42867" lon="1.3384">
        <ele>121</ele>
        <time>2017-10-17T15:25:30Z</time>
      </trkpt>
      <trkpt lat="49.4287" lon="1.33835">
        <ele>121</ele>
        <time>2017-10-17T15:25:46Z</time>
      </trkpt>
      <trkpt lat="49.42873" lon="1.3383">
        <ele>121</ele>
        <time>2017-10-17T15:25:46Z</time>
      </trkpt>
      <trkpt lat="49.42876" lon="1.33825">
        <ele>129</ele>
        <time>2017-10-17T15:25:46Z</time>
      </trkpt>
      <trkpt lat="49.42879" lon="1.3382">
        <ele>129</ele>
        <time>2017-10-17T15:25:46Z</time>
      </trkpt>
      <trkpt lat="49.42881" lon="1.33814">
        <ele>129</ele>
        <time>2017-10-17T15:26:02Z</time>
      </trkpt>
      <trkpt lat="49.42885" lon="1.33809">
        <ele>129</ele>
        <time>2017-10-17T15:26:02Z</time>
      </trkpt>
      <trkpt lat="49.42888" lon="1.33804">
        <ele>129</ele>
        <time>2017-10-17T15:26:02Z</time>
      </trkpt>
      <trkpt lat="49.4289" lon="1.33798">
        <ele>129</ele>
        <time>2017-10-17T15:26:02Z</time>
      </trkpt>
      <trkpt lat="49.42891" lon="1.33792">
        <ele>129</ele>
        <time>2017-10-17T15:26:18Z</time>
      </trkpt>
      <trkpt lat="49.42893" lon="1.33787">
        <ele>128</ele>
        <time>2017-10-17T15:26:18Z</time>
      </trkpt>
      <trkpt lat="49.42896" lon="1.33783">
        <ele>128</ele>
        <time>2017-10-17T15:26:18Z</time>
      </trkpt>
      <trkpt lat="49.42899" lon="1.33779">
        <ele>128</ele>
        <time>2017-10-17T15:26:18Z</time>
      </trkpt>
      <trkpt lat="49.42901" lon="1.33774">
        <ele>128</ele>
        <time>2017-10-17T15:26:34Z</time>
      </trkpt>
      <trkpt lat="49.42904" lon="1.33769">
        <ele>128</ele>
        <time>2017-10-17T15:26:34Z</time>
      </trkpt>
      <trkpt lat="49.42907" lon="1.33763">
        <ele>128</ele>
        <time>2017-10-17T15:26:34Z</time>
      </trkpt>
      <trkpt lat="49.42909" lon="1.33758">
        <ele>128</ele>
        <time>2017-10-17T15:26:34Z</time>
      </trkpt>
      <trkpt lat="49.42911" lon="1.33752">
        <ele>128</ele>
        <time>2017-10-17T15:26:50Z</time>
      </trkpt>
      <trkpt lat="49.42914" lon="1.33747">
        <ele>128</ele>
        <time>2017-10-17T15:26:50Z</time>
      </trkpt>
      <trkpt lat="49.42916" lon="1.33742">
        <ele>128</ele>
        <time>2017-10-17T15:26:50Z</time>
      </trkpt>
      <trkpt lat="49.42918" lon="1.33737">
        <ele>128</ele>
        <time>2017-10-17T15:26:50Z</time>
      </trkpt>
      <trkpt lat="49.42921" lon="1.33732">
        <ele>128</ele>
        <time>2017-10-17T15:27:06Z</time>
      </trkpt>
      <trkpt lat="49.42924" lon="1.33726">
        <ele>128</ele>
        <time>2017-10-17T15:27:06Z</time>
      </trkpt>
      <trkpt lat="49.42926" lon="1.33721">
        <ele>128</ele>
        <time>2017-10-17T15:27:06Z</time>
      </trkpt>
      <trkpt lat="49.42929" lon="1.33717">
        <ele>128</ele>
        <time>2017-10-17T15:27:06Z</time>
      </trkpt>
      <trkpt lat="49.42932" lon="1.33713">
        <ele>128</ele>
        <time>2017-10-17T15:27:22Z</time>
      </trkpt>
      <trkpt lat="49.42935" lon="1.33708">
        <ele>128</ele>
        <time>2017-10-17T15:27:22Z</time>
      </trkpt>
      <trkpt lat="49.42938" lon="1.33704">
        <ele>123</ele>
        <time>2017-10-17T15:27:22Z</time>
      </trkpt>
      <trkpt lat="49.42941" lon="1.33698">
        <ele>123</ele>
        <time>2017-10-17T15:27:22Z</time>
      </trkpt>
      <trkpt lat="49.42943" lon="1.33694">
        <ele>123</ele>
        <time>2017-10-17T15:27:38Z</time>
      </trkpt>
      <trkpt lat="49.42946" lon="1.33688">
        <ele>123</ele>
        <time>2017-10-17T15:27:38Z</time>
      </trkpt>
      <trkpt lat="49.42948" lon="1.33682">
        <ele>123</ele>
        <time>2017-10-17T15:27:38Z</time>
      </trkpt>
      <trkpt lat="49.42951" lon="1.33678">
        <ele>123</ele>
        <time>2017-10-17T15:27:38Z</time>
      </trkpt>
      <trkpt lat="49.42955" lon="1.33674">
        <ele>123</ele>
        <time>2017-10-17T15:27:54Z</time>
      </trkpt>
      <trkpt lat="49.42958" lon="1.33669">
        <ele>123</ele>
        <time>2017-10-17T15:27:54Z</time>
      </trkpt>
      <trkpt lat="49.42961" lon="1.33664">
        <ele>132</ele>
        <time>2017-10-17T15:27:54Z</time>
      </trkpt>
      <trkpt lat="49.42963" lon="1.33659">
        <ele>132</ele>
        <time>2017-10-17T15:27:54Z</time>
      </trkpt>
      <trkpt lat="49.42965" lon="1.33654">
        <ele>132</ele>
        <time>2017-10-17T15:28:10Z</time>
      </trkpt>
      <trkpt lat="49.42968" lon="1.33649">
        <ele>132</ele>
        <time>2017-10-17T15:28:10Z</time>
      </trkpt>
      <trkpt lat="49.4297" lon="1.33643">
        <ele>132</ele>
        <time>2017-10-17T15:28:10Z</time>
      </trkpt>
      <trkpt lat="49.42972" lon="1.33637">
        <ele>132</ele>
        <time>2017-10-17T15:28:10Z</time>
      </trkpt>
      <trkpt lat="49.42974" lon="1.33633">
        <ele>132</ele>
        <time>2017-10-17T15:28:26Z</time>
      </trkpt>
      <trkpt lat="49.42977" lon="1.33626">
        <ele>132</ele>
        <time>2017-10-17T15:28:26Z</time>
      </trkpt>
      <trkpt lat="49.4298" lon="1.33621">
        <ele>132</ele>
        <time>2017-10-17T15:28:26Z</time>
      </trkpt>
      <trkpt lat="49.42983" lon="1.33616">
        <ele>132</ele>
        <time>2017-10-17T15:28:26Z</time>
      </trkpt>
      <trkpt lat="49.42986" lon="1.33611">
        <ele>132</ele>
        <time>2017-10-17T15:28:42Z</time>
      </trkpt>
      <trkpt lat="49.42989" lon="1.33608">
        <ele>132</ele>
        <time>2017-10-17T15:28:42Z</time>
      </trkpt>
      <trkpt lat="49.42991" lon="1.33603">
        <ele>132</ele>
        <time>2017-10-17T15:28:42Z</time>
      </trkpt>
      <trkpt lat="49.42994" lon="1.33598">
        <ele>132</ele>
        <time>2017-10-17T15:28:42Z</time>
      </trkpt>
      <trkpt lat="49.42997" lon="1.33594">
        <ele>132</ele>
        <time>2017-10-17T15:28:58Z</time>
      </trkpt>
      <trkpt lat="49.43001" lon="1.3359">
        <ele>132</ele>
        <time>2017-10-17T15:28:58Z</time>
      </trkpt>
      <trkpt lat="49.43004" lon="1.33586">
        <ele>132</ele>
        <time>2017-10-17T15:28:58Z</time>
      </trkpt>
      <trkpt lat="49.43006" lon="1.33581">
        <ele>132</ele>
        <time>2017-10-17T15:28:58Z</time>
      </trkpt>
      <trkpt lat="49.43009" lon="1.33577">
        <ele>132</ele>
        <time>2017-10-17T15:29:14Z</time>
      </trkpt>
      <trkpt lat="49.43013" lon="1.33569">
        <ele>132</ele>
        <time>2017-10-17T15:29:14Z</time>
      </trkpt>
      <trkpt lat="49.43015" lon="1.33566">
        <ele>132</ele>
        <time>2017-10-17T15:29:14Z</time>
      </trkpt>
      <trkpt lat="49.43018" lon="1.33562">
        <ele>132</ele>
        <time>2017-10-17T15:29:14Z</time>
      </trkpt>
      <trkpt lat="49.43021" lon="1.33558">
        <ele>132</ele>
        <time>2017-10-17T15:29:30Z</time>
      </trkpt>
      <trkpt lat="49.43025" lon="1.33551">
        <ele>132</ele>
        <time>2017-10-17T15:29:30Z</time>
      </trkpt>
      <trkpt lat="49.43028" lon="1.33546">
        <ele>132</ele>
        <time>2017-10-17T15:29:30Z</time>
      </trkpt>
      <trkpt lat="49.43031" lon="1.33542">
        <ele>132</ele>
        <time>2017-10-17T15:29:30Z</time>
      </trkpt>
      <trkpt lat="49.43034" lon="1.33537">
        <ele>127</ele>
        <time>2017-10-17T15:29:46Z</time>
      </trkpt>
      <trkpt lat="49.43037" lon="1.33533">
        <ele>127</ele>
        <time>2017-10-17T15:29:46Z</time>
      </trkpt>
      <trkpt lat="49.4304" lon="1.33529">
        <ele>127</ele>
        <time>2017-10-17T15:29:46Z</time>
      </trkpt>
      <trkpt lat="49.43043" lon="1.33524">
        <ele>134</ele>
        <time>2017-10-17T15:29:46Z</time>
      </trkpt>
      <trkpt lat="49.43046" lon="1.3352">
        <ele>134</ele>
        <time>2017-10-17T15:30:02Z</time>
      </trkpt>
      <trkpt lat="49.43049" lon="1.33515">
        <ele>134</ele>
        <time>2017-10-17T15:30:02Z</time>
      </trkpt>
      <trkpt lat="49.43052" lon="1.3351">
        <ele>134</ele>
        <time>2017-10-17T15:30:02Z</time>
      </trkpt>
      <trkpt lat="49.43054" lon="1.33504">
        <ele>134</ele>
        <time>2017-10-17T15:30:02Z</time>
      </trkpt>
      <trkpt lat="49.43057" lon="1.33499">
        <ele>134</ele>
        <time>2017-10-17T15:30:18Z</time>
      </trkpt>
      <trkpt lat="49.4306" lon="1.33493">
        <ele>134</ele>
        <time>2017-10-17T15:30:18Z</time>
      </trkpt>
      <trkpt lat="49.43064" lon="1.33489">
        <ele>134</ele>
        <time>2017-10-17T15:30:18Z</time>
      </trkpt>
      <trkpt lat="49.43066" lon="1.33483">
        <ele>134</ele>
        <time>2017-10-17T15:30:18Z</time>
      </trkpt>
      <trkpt lat="49.4307" lon="1.33479">
        <ele>134</ele>
        <time>2017-10-17T15:30:34Z</time>
      </trkpt>
      <trkpt lat="49.43074" lon="1.33476">
        <ele>134</ele>
        <time>2017-10-17T15:30:34Z</time>
      </trkpt>
      <trkpt lat="49.43077" lon="1.33471">
        <ele>134</ele>
        <time>2017-10-17T15:30:34Z</time>
      </trkpt>
      <trkpt lat="49.43079" lon="1.33464">
        <ele>134</ele>
        <time>2017-10-17T15:30:34Z</time>
      </trkpt>
      <trkpt lat="49.43082" lon="1.33459">
        <ele>134</ele>
        <time>2017-10-17T15:30:50Z</time>
      </trkpt>
      <trkpt lat="49.43085" lon="1.33453">
        <ele>133</ele>
        <time>2017-10-17T15:30:50Z</time>
      </trkpt>
      <trkpt lat="49.43087" lon="1.33445">
        <ele>133</ele>
        <time>2017-10-17T15:30:50Z</time>
      </trkpt>
      <trkpt lat="49.43089" lon="1.33441">
        <ele>133</ele>
        <time>2017-10-17T15:30:50Z</time>
      </trkpt>
      <trkpt lat="49.43092" lon="1.33434">
        <ele>133</ele>
        <time>2017-10-17T15:31:06Z</time>
      </trkpt>
      <trkpt lat="49.43095" lon="1.33429">
        <ele>133</ele>
        <time>2017-10-17T15:31:06Z</time>
      </trkpt>
      <trkpt lat="49.43098" lon="1.33424">
        <ele>133</ele>
        <time>2017-10-17T15:31:06Z</time>
      </trkpt>
      <trkpt lat="49.43101" lon="1.33418">
        <ele>133</ele>
        <time>2017-10-17T15:31:06Z</time>
      </trkpt>
      <trkpt lat="49.43105" lon="1.33414">
        <ele>133</ele>
        <time>2017-10-17T15:31:22Z</time>
      </trkpt>
      <trkpt lat="49.43108" lon="1.33408">
        <ele>133</ele>
        <time>2017-10-17T15:31:22Z</time>
      </trkpt>
      <trkpt lat="49.43111" lon="1.33402">
        <ele>133</ele>
        <time>2017-10-17T15:31:22Z</time>
      </trkpt>
      <trkpt lat="49.43113" lon="1.33396">
        <ele>133</ele>
        <time>2017-10-17T15:31:22Z</time>
      </trkpt>
      <trkpt lat="49.43116" lon="1.3339">
        <ele>133</ele>
        <time>2017-10-17T15:31:38Z</time>
      </trkpt>
      <trkpt lat="49.43118" lon="1.33383">
        <ele>133</ele>
        <time>2017-10-17T15:31:38Z</time>
      </trkpt>
      <trkpt lat="49.4312" lon="1.33377">
        <ele>133</ele>
        <time>2017-10-17T15:31:38Z</time>
      </trkpt>
      <trkpt lat="49.43123" lon="1.33372">
        <ele>129</ele>
        <time>2017-10-17T15:31:38Z</time>
      </trkpt>
      <trkpt lat="49.43126" lon="1.33367">
        <ele>134</ele>
        <time>2017-10-17T15:31:54Z</time>
      </trkpt>
      <trkpt lat="49.43129" lon="1.33362">
        <ele>134</ele>
        <time>2017-10-17T15:31:54Z</time>
      </trkpt>
      <trkpt lat="49.43132" lon="1.33356">
        <ele>134</ele>
        <time>2017-10-17T15:31:54Z</time>
      </trkpt>
      <trkpt lat="49.43135" lon="1.3335">
        <ele>134</ele>
        <time>2017-10-17T15:31:54Z</time>
      </trkpt>
      <trkpt lat="49.43138" lon="1.33345">
        <ele>134</ele>
        <time>2017-10-17T15:32:10Z</time>
      </trkpt>
      <trkpt lat="49.43141" lon="1.3334">
        <ele>134</ele>
        <time>2017-10-17T15:32:10Z</time>
      </trkpt>
      <trkpt lat="49.43144" lon="1.33335">
        <ele>134</ele>
        <time>2017-10-17T15:32:10Z</time>
      </trkpt>
      <trkpt lat="49.43147" lon="1.3333">
        <ele>134</ele>
        <time>2017-10-17T15:32:10Z</time>
      </trkpt>
      <trkpt lat="49.4315" lon="1.33326">
        <ele>134</ele>
        <time>2017-10-17T15:32:26Z</time>
      </trkpt>
      <trkpt lat="49.43153" lon="1.33321">
        <ele>134</ele>
        <time>2017-10-17T15:32:26Z</time>
      </trkpt>
      <trkpt lat="49.43155" lon="1.33316">
        <ele>134</ele>
        <time>2017-10-17T15:32:26Z</time>
      </trkpt>
      <trkpt lat="49.43158" lon="1.3331">
        <ele>134</ele>
        <time>2017-10-17T15:32:26Z</time>
      </trkpt>
      <trkpt lat="49.43161" lon="1.33305">
        <ele>134</ele>
        <time>2017-10-17T15:32:42Z</time>
      </trkpt>
      <trkpt lat="49.43164" lon="1.33299">
        <ele>134</ele>
        <time>2017-10-17T15:32:42Z</time>
      </trkpt>
      <trkpt lat="49.43167" lon="1.33293">
        <ele>134</ele>
        <time>2017-10-17T15:32:42Z</time>
      </trkpt>
      <trkpt lat="49.4317" lon="1.33288">
        <ele>130</ele>
        <time>2017-10-17T15:32:42Z</time>
      </trkpt>
      <trkpt lat="49.43172" lon="1.33283">
        <ele>130</ele>
        <time>2017-10-17T15:32:58Z</time>
      </trkpt>
      <trkpt lat="49.43175" lon="1.33277">
        <ele>130</ele>
        <time>2017-10-17T15:32:58Z</time>
      </trkpt>
      <trkpt lat="49.43177" lon="1.33271">
        <ele>130</ele>
        <time>2017-10-17T15:32:58Z</time>
      </trkpt>
      <trkpt lat="49.43179" lon="1.33266">
        <ele>130</ele>
        <time>2017-10-17T15:32:58Z</time>
      </trkpt>
      <trkpt lat="49.43182" lon="1.3326">
        <ele>130</ele>
        <time>2017-10-17T15:33:14Z</time>
      </trkpt>
      <trkpt lat="49.43184" lon="1.33254">
        <ele>130</ele>
        <time>2017-10-17T15:33:14Z</time>
      </trkpt>
      <trkpt lat="49.43186" lon="1.33248">
        <ele>130</ele>
        <time>2017-10-17T15:33:14Z</time>
      </trkpt>
      <trkpt lat="49.43188" lon="1.33242">
        <ele>130</ele>
        <time>2017-10-17T15:33:14Z</time>
      </trkpt>
      <trkpt lat="49.4319" lon="1.33236">
        <ele>130</ele>
        <time>2017-10-17T15:33:30Z</time>
      </trkpt>
      <trkpt lat="49.43193" lon="1.33229">
        <ele>130</ele>
        <time>2017-10-17T15:33:30Z</time>
      </trkpt>
      <trkpt lat="49.43195" lon="1.33223">
        <ele>130</ele>
        <time>2017-10-17T15:33:30Z</time>
      </trkpt>
      <trkpt lat="49.43198" lon="1.33217">
        <ele>130</ele>
        <time>2017-10-17T15:33:30Z</time>
      </trkpt>
      <trkpt lat="49.432" lon="1.3321">
        <ele>130</ele>
        <time>2017-10-17T15:33:46Z</time>
      </trkpt>
      <trkpt lat="49.43202" lon="1.33204">
        <ele>125</ele>
        <time>2017-10-17T15:33:46Z</time>
      </trkpt>
      <trkpt lat="49.43204" lon="1.33197">
        <ele>125</ele>
        <time>2017-10-17T15:33:46Z</time>
      </trkpt>
      <trkpt lat="49.43208" lon="1.33193">
        <ele>125</ele>
        <time>2017-10-17T15:33:46Z</time>
      </trkpt>
      <trkpt lat="49.4321" lon="1.33188">
        <ele>130</ele>
        <time>2017-10-17T15:34:02Z</time>
      </trkpt>
      <trkpt lat="49.43212" lon="1.33182">
        <ele>130</ele>
        <time>2017-10-17T15:34:02Z</time>
      </trkpt>
      <trkpt lat="49.43214" lon="1.33176">
        <ele>130</ele>
        <time>2017-10-17T15:34:02Z</time>
      </trkpt>
      <trkpt lat="49.43216" lon="1.3317">
        <ele>130</ele>
        <time>2017-10-17T15:34:02Z</time>
      </trkpt>
      <trkpt lat="49.43219" lon="1.33165">
        <ele>130</ele>
        <time>2017-10-17T15:34:18Z</time>
      </trkpt>
      <trkpt lat="49.43222" lon="1.33159">
        <ele>130</ele>
        <time>2017-10-17T15:34:18Z</time>
      </trkpt>
      <trkpt lat="49.43226" lon="1.33154">
        <ele>130</ele>
        <time>2017-10-17T15:34:18Z</time>
      </trkpt>
      <trkpt lat="49.43229" lon="1.33149">
        <ele>130</ele>
        <time>2017-10-17T15:34:18Z</time>
      </trkpt>
      <trkpt lat="49.43231" lon="1.33143">
        <ele>130</ele>
        <time>2017-10-17T15:34:34Z</time>
      </trkpt>
      <trkpt lat="49.43234" lon="1.33137">
        <ele>130</ele>
        <time>2017-10-17T15:34:34Z</time>
      </trkpt>
      <trkpt lat="49.43236" lon="1.33132">
        <ele>130</ele>
        <time>2017-10-17T15:34:34Z</time>
      </trkpt>
      <trkpt lat="49.43238" lon="1.33125">
        <ele>130</ele>
        <time>2017-10-17T15:34:34Z</time>
      </trkpt>
      <trkpt lat="49.43241" lon="1.3312">
        <ele>127</ele>
        <time>2017-10-17T15:34:50Z</time>
      </trkpt>
      <trkpt lat="49.43244" lon="1.33115">
        <ele>127</ele>
        <time>2017-10-17T15:34:50Z</time>
      </trkpt>
      <trkpt lat="49.43247" lon="1.33111">
        <ele>127</ele>
        <time>2017-10-17T15:34:50Z</time>
      </trkpt>
      <trkpt lat="49.43249" lon="1.33108">
        <ele>127</ele>
        <time>2017-10-17T15:34:50Z</time>
      </trkpt>
      <trkpt lat="49.43249" lon="1.33102">
        <ele>127</ele>
        <time>2017-10-17T15:38:18Z</time>
      </trkpt>
      <trkpt lat="49.43251" lon="1.33103">
        <ele>127</ele>
        <time>2017-10-17T15:38:18Z</time>
      </trkpt>
      <trkpt lat="49.43253" lon="1.33104">
        <ele>127</ele>
        <time>2017-10-17T15:38:18Z</time>
      </trkpt>
      <trkpt lat="49.43255" lon="1.33106">
        <ele>127</ele>
        <time>2017-10-17T15:38:18Z</time>
      </trkpt>
      <trkpt lat="49.43258" lon="1.33109">
        <ele>127</ele>
        <time>2017-10-17T15:38:18Z</time>
      </trkpt>
      <trkpt lat="49.43263" lon="1.3311">
        <ele>127</ele>
        <time>2017-10-17T15:38:34Z</time>
      </trkpt>
      <trkpt lat="49.43267" lon="1.33112">
        <ele>127</ele>
        <time>2017-10-17T15:38:34Z</time>
      </trkpt>
      <trkpt lat="49.43272" lon="1.33112">
        <ele>127</ele>
        <time>2017-10-17T15:38:34Z</time>
      </trkpt>
      <trkpt lat="49.43275" lon="1.33109">
        <ele>127</ele>
        <time>2017-10-17T15:38:34Z</time>
      </trkpt>
      <trkpt lat="49.43279" lon="1.33105">
        <ele>127</ele>
        <time>2017-10-17T15:38:50Z</time>
      </trkpt>
      <trkpt lat="49.43282" lon="1.331">
        <ele>127</ele>
        <time>2017-10-17T15:38:50Z</time>
      </trkpt>
      <trkpt lat="49.43284" lon="1.33094">
        <ele>127</ele>
        <time>2017-10-17T15:38:50Z</time>
      </trkpt>
      <trkpt lat="49.43287" lon="1.33088">
        <ele>127</ele>
        <time>2017-10-17T15:38:50Z</time>
      </trkpt>
      <trkpt lat="49.43289" lon="1.33082">
        <ele>127</ele>
        <time>2017-10-17T15:39:06Z</time>
      </trkpt>
      <trkpt lat="49.43291" lon="1.33075">
        <ele>127</ele>
        <time>2017-10-17T15:39:06Z</time>
      </trkpt>
      <trkpt lat="49.43292" lon="1.33069">
        <ele>134</ele>
        <time>2017-10-17T15:39:06Z</time>
      </trkpt>
      <trkpt lat="49.43295" lon="1.33063">
        <ele>134</ele>
        <time>2017-10-17T15:39:06Z</time>
      </trkpt>
      <trkpt lat="49.43297" lon="1.33057">
        <ele>134</ele>
        <time>2017-10-17T15:39:22Z</time>
      </trkpt>
      <trkpt lat="49.43299" lon="1.33051">
        <ele>134</ele>
        <time>2017-10-17T15:39:22Z</time>
      </trkpt>
      <trkpt lat="49.43302" lon="1.33045">
        <ele>134</ele>
        <time>2017-10-17T15:39:22Z</time>
      </trkpt>
      <trkpt lat="49.43304" lon="1.33039">
        <ele>131</ele>
        <time>2017-10-17T15:39:22Z</time>
      </trkpt>
      <trkpt lat="49.43306" lon="1.33033">
        <ele>131</ele>
        <time>2017-10-17T15:39:38Z</time>
      </trkpt>
      <trkpt lat="49.43309" lon="1.33026">
        <ele>131</ele>
        <time>2017-10-17T15:39:38Z</time>
      </trkpt>
      <trkpt lat="49.43312" lon="1.33019">
        <ele>131</ele>
        <time>2017-10-17T15:39:38Z</time>
      </trkpt>
      <trkpt lat="49.43314" lon="1.33012">
        <ele>131</ele>
        <time>2017-10-17T15:39:38Z</time>
      </trkpt>
      <trkpt lat="49.43316" lon="1.33006">
        <ele>131</ele>
        <time>2017-10-17T15:39:54Z</time>
      </trkpt>
      <trkpt lat="49.43318" lon="1.33">
        <ele>131</ele>
        <time>2017-10-17T15:39:54Z</time>
      </trkpt>
      <trkpt lat="49.4332" lon="1.32992">
        <ele>131</ele>
        <time>2017-10-17T15:39:54Z</time>
      </trkpt>
      <trkpt lat="49.43322" lon="1.32985">
        <ele>131</ele>
        <time>2017-10-17T15:39:54Z</time>
      </trkpt>
      <trkpt lat="49.43325" lon="1.32978">
        <ele>131</ele>
        <time>2017-10-17T15:40:10Z</time>
      </trkpt>
      <trkpt lat="49.43327" lon="1.32971">
        <ele>131</ele>
        <time>2017-10-17T15:40:10Z</time>
      </trkpt>
      <trkpt lat="49.43329" lon="1.32965">
        <ele>131</ele>
        <time>2017-10-17T15:40:10Z</time>
      </trkpt>
      <trkpt lat="49.43331" lon="1.3296">
        <ele>131</ele>
        <time>2017-10-17T15:40:10Z</time>
      </trkpt>
      <trkpt lat="49.43335" lon="1.32951">
        <ele>126</ele>
        <time>2017-10-17T15:40:26Z</time>
      </trkpt>
      <trkpt lat="49.43337" lon="1.32945">
        <ele>126</ele>
        <time>2017-10-17T15:40:26Z</time>
      </trkpt>
      <trkpt lat="49.43339" lon="1.3294">
        <ele>126</ele>
        <time>2017-10-17T15:40:26Z</time>
      </trkpt>
      <trkpt lat="49.43342" lon="1.32934">
        <ele>126</ele>
        <time>2017-10-17T15:40:26Z</time>
      </trkpt>
      <trkpt lat="49.43345" lon="1.32928">
        <ele>126</ele>
        <time>2017-10-17T15:40:42Z</time>
      </trkpt>
      <trkpt lat="49.43347" lon="1.32922">
        <ele>126</ele>
        <time>2017-10-17T15:40:42Z</time>
      </trkpt>
      <trkpt lat="49.43349" lon="1.32916">
        <ele>126</ele>
        <time>2017-10-17T15:40:42Z</time>
      </trkpt>
      <trkpt lat="49.43352" lon="1.32911">
        <ele>126</ele>
        <time>2017-10-17T15:40:42Z</time>
      </trkpt>
      <trkpt lat="49.43354" lon="1.32905">
        <ele>126</ele>
        <time>2017-10-17T15:40:58Z</time>
      </trkpt>
      <trkpt lat="49.43356" lon="1.329">
        <ele>126</ele>
        <time>2017-10-17T15:40:58Z</time>
      </trkpt>
      <trkpt lat="49.43359" lon="1.32893">
        <ele>126</ele>
        <time>2017-10-17T15:40:58Z</time>
      </trkpt>
      <trkpt lat="49.43361" lon="1.32887">
        <ele>126</ele>
        <time>2017-10-17T15:40:58Z</time>
      </trkpt>
      <trkpt lat="49.43361" lon="1.3288">
        <ele>126</ele>
        <time>2017-10-17T15:41:14Z</time>
      </trkpt>
      <trkpt lat="49.43364" lon="1.32873">
        <ele>121</ele>
        <time>2017-10-17T15:41:14Z</time>
      </trkpt>
      <trkpt lat="49.43365" lon="1.32867">
        <ele>121</ele>
        <time>2017-10-17T15:41:14Z</time>
      </trkpt>
      <trkpt lat="49.43368" lon="1.32862">
        <ele>121</ele>
        <time>2017-10-17T15:41:14Z</time>
      </trkpt>
      <trkpt lat="49.4337" lon="1.32855">
        <ele>121</ele>
        <time>2017-10-17T15:41:30Z</time>
      </trkpt>
      <trkpt lat="49.43372" lon="1.32848">
        <ele>121</ele>
        <time>2017-10-17T15:41:30Z</time>
      </trkpt>
      <trkpt lat="49.43374" lon="1.3284">
        <ele>121</ele>
        <time>2017-10-17T15:41:30Z</time>
      </trkpt>
      <trkpt lat="49.43376" lon="1.32833">
        <ele>131</ele>
        <time>2017-10-17T15:41:30Z</time>
      </trkpt>
      <trkpt lat="49.43378" lon="1.32826">
        <ele>131</ele>
        <time>2017-10-17T15:41:46Z</time>
      </trkpt>
      <trkpt lat="49.4338" lon="1.32819">
        <ele>131</ele>
        <time>2017-10-17T15:41:46Z</time>
      </trkpt>
      <trkpt lat="49.43383" lon="1.32812">
        <ele>131</ele>
        <time>2017-10-17T15:41:46Z</time>
      </trkpt>
      <trkpt lat="49.43386" lon="1.32807">
        <ele>131</ele>
        <time>2017-10-17T15:41:46Z</time>
      </trkpt>
      <trkpt lat="49.4339" lon="1.32803">
        <ele>131</ele>
        <time>2017-10-17T15:42:02Z</time>
      </trkpt>
      <trkpt lat="49.43395" lon="1.32801">
        <ele>131</ele>
        <time>2017-10-17T15:42:02Z</time>
      </trkpt>
      <trkpt lat="49.434" lon="1.32801">
        <ele>131</ele>
        <time>2017-10-17T15:42:02Z</time>
      </trkpt>
      <trkpt lat="49.43405" lon="1.32802">
        <ele>131</ele>
        <time>2017-10-17T15:42:02Z</time>
      </trkpt>
      <trkpt lat="49.43409" lon="1.32803">
        <ele>131</ele>
        <time>2017-10-17T15:42:18Z</time>
      </trkpt>
      <trkpt lat="49.43414" lon="1.32804">
        <ele>131</ele>
        <time>2017-10-17T15:42:18Z</time>
      </trkpt>
      <trkpt lat="49.43419" lon="1.32805">
        <ele>131</ele>
        <time>2017-10-17T15:42:18Z</time>
      </trkpt>
      <trkpt lat="49.43423" lon="1.32807">
        <ele>131</ele>
        <time>2017-10-17T15:42:18Z</time>
      </trkpt>
      <trkpt lat="49.43427" lon="1.32808">
        <ele>131</ele>
        <time>2017-10-17T15:42:34Z</time>
      </trkpt>
      <trkpt lat="49.43431" lon="1.32809">
        <ele>131</ele>
        <time>2017-10-17T15:42:34Z</time>
      </trkpt>
      <trkpt lat="49.43435" lon="1.3281">
        <ele>131</ele>
        <time>2017-10-17T15:42:34Z</time>
      </trkpt>
      <trkpt lat="49.43439" lon="1.32812">
        <ele>131</ele>
        <time>2017-10-17T15:42:34Z</time>
      </trkpt>
      <trkpt lat="49.43444" lon="1.32812">
        <ele>131</ele>
        <time>2017-10-17T15:42:50Z</time>
      </trkpt>
      <trkpt lat="49.43448" lon="1.32813">
        <ele>131</ele>
        <time>2017-10-17T15:42:50Z</time>
      </trkpt>
      <trkpt lat="49.43452" lon="1.32814">
        <ele>131</ele>
        <time>2017-10-17T15:42:50Z</time>
      </trkpt>
      <trkpt lat="49.43457" lon="1.32815">
        <ele>131</ele>
        <time>2017-10-17T15:42:50Z</time>
      </trkpt>
      <trkpt lat="49.43462" lon="1.32816">
        <ele>134</ele>
        <time>2017-10-17T15:43:06Z</time>
      </trkpt>
      <trkpt lat="49.43467" lon="1.32817">
        <ele>134</ele>
        <time>2017-10-17T15:43:06Z</time>
      </trkpt>
      <trkpt lat="49.4347" lon="1.32818">
        <ele>134</ele>
        <time>2017-10-17T15:43:06Z</time>
      </trkpt>
      <trkpt lat="49.43477" lon="1.32818">
        <ele>134</ele>
        <time>2017-10-17T15:43:06Z</time>
      </trkpt>
      <trkpt lat="49.43482" lon="1.32819">
        <ele>134</ele>
        <time>2017-10-17T15:43:22Z</time>
      </trkpt>
      <trkpt lat="49.43486" lon="1.32819">
        <ele>134</ele>
        <time>2017-10-17T15:43:22Z</time>
      </trkpt>
      <trkpt lat="49.4349" lon="1.32818">
        <ele>134</ele>
        <time>2017-10-17T15:43:22Z</time>
      </trkpt>
      <trkpt lat="49.43493" lon="1.32819">
        <ele>134</ele>
        <time>2017-10-17T15:43:22Z</time>
      </trkpt>
      <trkpt lat="49.43497" lon="1.32818">
        <ele>134</ele>
        <time>2017-10-17T15:43:38Z</time>
      </trkpt>
      <trkpt lat="49.43501" lon="1.32818">
        <ele>134</ele>
        <time>2017-10-17T15:43:38Z</time>
      </trkpt>
      <trkpt lat="49.43504" lon="1.32817">
        <ele>134</ele>
        <time>2017-10-17T15:43:38Z</time>
      </trkpt>
      <trkpt lat="49.43509" lon="1.32816">
        <ele>134</ele>
        <time>2017-10-17T15:43:38Z</time>
      </trkpt>
      <trkpt lat="49.43512" lon="1.32816">
        <ele>134</ele>
        <time>2017-10-17T15:43:54Z</time>
      </trkpt>
      <trkpt lat="49.43518" lon="1.32815">
        <ele>134</ele>
        <time>2017-10-17T15:43:54Z</time>
      </trkpt>
      <trkpt lat="49.43523" lon="1.32813">
        <ele>134</ele>
        <time>2017-10-17T15:43:54Z</time>
      </trkpt>
      <trkpt lat="49.43528" lon="1.32813">
        <ele>134</ele>
        <time>2017-10-17T15:43:54Z</time>
      </trkpt>
      <trkpt lat="49.43532" lon="1.32812">
        <ele>134</ele>
        <time>2017-10-17T15:44:10Z</time>
      </trkpt>
      <trkpt lat="49.43536" lon="1.32809">
        <ele>134</ele>
        <time>2017-10-17T15:44:10Z</time>
      </trkpt>
      <trkpt lat="49.4354" lon="1.32805">
        <ele>134</ele>
        <time>2017-10-17T15:44:10Z</time>
      </trkpt>
      <trkpt lat="49.43542" lon="1.32799">
        <ele>134</ele>
        <time>2017-10-17T15:44:10Z</time>
      </trkpt>
      <trkpt lat="49.43542" lon="1.32792">
        <ele>138</ele>
        <time>2017-10-17T15:44:26Z</time>
      </trkpt>
      <trkpt lat="49.43543" lon="1.32785">
        <ele>138</ele>
        <time>2017-10-17T15:44:26Z</time>
      </trkpt>
      <trkpt lat="49.43543" lon="1.3278">
        <ele>138</ele>
        <time>2017-10-17T15:44:26Z</time>
      </trkpt>
      <trkpt lat="49.43543" lon="1.3277">
        <ele>138</ele>
        <time>2017-10-17T15:44:26Z</time>
      </trkpt>
      <trkpt lat="49.43543" lon="1.32763">
        <ele>138</ele>
        <time>2017-10-17T15:44:42Z</time>
      </trkpt>
      <trkpt lat="49.43543" lon="1.32757">
        <ele>138</ele>
        <time>2017-10-17T15:44:42Z</time>
      </trkpt>
      <trkpt lat="49.43542" lon="1.3275">
        <ele>138</ele>
        <time>2017-10-17T15:44:42Z</time>
      </trkpt>
      <trkpt lat="49.43542" lon="1.32743">
        <ele>138</ele>
        <time>2017-10-17T15:44:42Z</time>
      </trkpt>
      <trkpt lat="49.43542" lon="1.32735">
        <ele>136</ele>
        <time>2017-10-17T15:44:58Z</time>
      </trkpt>
      <trkpt lat="49.43542" lon="1.32728">
        <ele>138</ele>
        <time>2017-10-17T15:44:58Z</time>
      </trkpt>
      <trkpt lat="49.43542" lon="1.3272">
        <ele>138</ele>
        <time>2017-10-17T15:44:58Z</time>
      </trkpt>
      <trkpt lat="49.43542" lon="1.32713">
        <ele>138</ele>
        <time>2017-10-17T15:44:58Z</time>
      </trkpt>
      <trkpt lat="49.43542" lon="1.32705">
        <ele>138</ele>
        <time>2017-10-17T15:45:14Z</time>
      </trkpt>
      <trkpt lat="49.43542" lon="1.32698">
        <ele>138</ele>
        <time>2017-10-17T15:45:14Z</time>
      </trkpt>
      <trkpt lat="49.43543" lon="1.3269">
        <ele>138</ele>
        <time>2017-10-17T15:45:14Z</time>
      </trkpt>
      <trkpt lat="49.43543" lon="1.32683">
        <ele>138</ele>
        <time>2017-10-17T15:45:14Z</time>
      </trkpt>
      <trkpt lat="49.43544" lon="1.32676">
        <ele>138</ele>
        <time>2017-10-17T15:45:30Z</time>
      </trkpt>
      <trkpt lat="49.43544" lon="1.32671">
        <ele>138</ele>
        <time>2017-10-17T15:45:30Z</time>
      </trkpt>
      <trkpt lat="49.43544" lon="1.32662">
        <ele>138</ele>
        <time>2017-10-17T15:45:30Z</time>
      </trkpt>
      <trkpt lat="49.43545" lon="1.32654">
        <ele>138</ele>
        <time>2017-10-17T15:45:30Z</time>
      </trkpt>
      <trkpt lat="49.43546" lon="1.32647">
        <ele>138</ele>
        <time>2017-10-17T15:45:46Z</time>
      </trkpt>
      <trkpt lat="49.43547" lon="1.3264">
        <ele>138</ele>
        <time>2017-10-17T15:45:46Z</time>
      </trkpt>
      <trkpt lat="49.43547" lon="1.32632">
        <ele>138</ele>
        <time>2017-10-17T15:45:46Z</time>
      </trkpt>
      <trkpt lat="49.43548" lon="1.32625">
        <ele>139</ele>
        <time>2017-10-17T15:45:46Z</time>
      </trkpt>
      <trkpt lat="49.43549" lon="1.32618">
        <ele>139</ele>
        <time>2017-10-17T15:46:02Z</time>
      </trkpt>
      <trkpt lat="49.43549" lon="1.3261">
        <ele>139</ele>
        <time>2017-10-17T15:46:02Z</time>
      </trkpt>
      <trkpt lat="49.4355" lon="1.32603">
        <ele>139</ele>
        <time>2017-10-17T15:46:02Z</time>
      </trkpt>
      <trkpt lat="49.43551" lon="1.32595">
        <ele>139</ele>
        <time>2017-10-17T15:46:02Z</time>
      </trkpt>
      <trkpt lat="49.43553" lon="1.32588">
        <ele>139</ele>
        <time>2017-10-17T15:46:18Z</time>
      </trkpt>
      <trkpt lat="49.43554" lon="1.3258">
        <ele>139</ele>
        <time>2017-10-17T15:46:18Z</time>
      </trkpt>
      <trkpt lat="49.43555" lon="1.32573">
        <ele>139</ele>
        <time>2017-10-17T15:46:18Z</time>
      </trkpt>
      <trkpt lat="49.43557" lon="1.32566">
        <ele>139</ele>
        <time>2017-10-17T15:46:18Z</time>
      </trkpt>
      <trkpt lat="49.43559" lon="1.32559">
        <ele>139</ele>
        <time>2017-10-17T15:46:34Z</time>
      </trkpt>
      <trkpt lat="49.43561" lon="1.32551">
        <ele>139</ele>
        <time>2017-10-17T15:46:34Z</time>
      </trkpt>
      <trkpt lat="49.43562" lon="1.32544">
        <ele>139</ele>
        <time>2017-10-17T15:46:34Z</time>
      </trkpt>
      <trkpt lat="49.43564" lon="1.32538">
        <ele>139</ele>
        <time>2017-10-17T15:46:34Z</time>
      </trkpt>
      <trkpt lat="49.43566" lon="1.32533">
        <ele>139</ele>
        <time>2017-10-17T15:46:50Z</time>
      </trkpt>
      <trkpt lat="49.43568" lon="1.32524">
        <ele>139</ele>
        <time>2017-10-17T15:46:50Z</time>
      </trkpt>
      <trkpt lat="49.4357" lon="1.32517">
        <ele>139</ele>
        <time>2017-10-17T15:46:50Z</time>
      </trkpt>
      <trkpt lat="49.43572" lon="1.32511">
        <ele>139</ele>
        <time>2017-10-17T15:46:50Z</time>
      </trkpt>
      <trkpt lat="49.43574" lon="1.32504">
        <ele>139</ele>
        <time>2017-10-17T15:47:06Z</time>
      </trkpt>
      <trkpt lat="49.43575" lon="1.32496">
        <ele>139</ele>
        <time>2017-10-17T15:47:06Z</time>
      </trkpt>
      <trkpt lat="49.43577" lon="1.3249">
        <ele>139</ele>
        <time>2017-10-17T15:47:06Z</time>
      </trkpt>
      <trkpt lat="49.43579" lon="1.32484">
        <ele>139</ele>
        <time>2017-10-17T15:47:06Z</time>
      </trkpt>
      <trkpt lat="49.43581" lon="1.32475">
        <ele>139</ele>
        <time>2017-10-17T15:47:22Z</time>
      </trkpt>
      <trkpt lat="49.43583" lon="1.32468">
        <ele>139</ele>
        <time>2017-10-17T15:47:22Z</time>
      </trkpt>
      <trkpt lat="49.43584" lon="1.32461">
        <ele>139</ele>
        <time>2017-10-17T15:47:22Z</time>
      </trkpt>
      <trkpt lat="49.43586" lon="1.32454">
        <ele>138</ele>
        <time>2017-10-17T15:47:22Z</time>
      </trkpt>
      <trkpt lat="49.43588" lon="1.32448">
        <ele>138</ele>
        <time>2017-10-17T15:47:38Z</time>
      </trkpt>
      <trkpt lat="49.4359" lon="1.32442">
        <ele>138</ele>
        <time>2017-10-17T15:47:38Z</time>
      </trkpt>
      <trkpt lat="49.43591" lon="1.32434">
        <ele>138</ele>
        <time>2017-10-17T15:47:38Z</time>
      </trkpt>
      <trkpt lat="49.43594" lon="1.32429">
        <ele>138</ele>
        <time>2017-10-17T15:47:38Z</time>
      </trkpt>
      <trkpt lat="49.43596" lon="1.32423">
        <ele>138</ele>
        <time>2017-10-17T15:47:54Z</time>
      </trkpt>
      <trkpt lat="49.43597" lon="1.32416">
        <ele>138</ele>
        <time>2017-10-17T15:47:54Z</time>
      </trkpt>
      <trkpt lat="49.43599" lon="1.32412">
        <ele>138</ele>
        <time>2017-10-17T15:47:54Z</time>
      </trkpt>
      <trkpt lat="49.43601" lon="1.32404">
        <ele>138</ele>
        <time>2017-10-17T15:47:54Z</time>
      </trkpt>
      <trkpt lat="49.43603" lon="1.32397">
        <ele>138</ele>
        <time>2017-10-17T15:48:10Z</time>
      </trkpt>
      <trkpt lat="49.43604" lon="1.32389">
        <ele>138</ele>
        <time>2017-10-17T15:48:10Z</time>
      </trkpt>
      <trkpt lat="49.43606" lon="1.32383">
        <ele>138</ele>
        <time>2017-10-17T15:48:10Z</time>
      </trkpt>
      <trkpt lat="49.43609" lon="1.32377">
        <ele>138</ele>
        <time>2017-10-17T15:48:10Z</time>
      </trkpt>
      <trkpt lat="49.4361" lon="1.32372">
        <ele>137</ele>
        <time>2017-10-17T15:48:26Z</time>
      </trkpt>
      <trkpt lat="49.43612" lon="1.32363">
        <ele>137</ele>
        <time>2017-10-17T15:48:26Z</time>
      </trkpt>
      <trkpt lat="49.43614" lon="1.32357">
        <ele>137</ele>
        <time>2017-10-17T15:48:26Z</time>
      </trkpt>
      <trkpt lat="49.43615" lon="1.32352">
        <ele>137</ele>
        <time>2017-10-17T15:48:26Z</time>
      </trkpt>
      <trkpt lat="49.43617" lon="1.32343">
        <ele>137</ele>
        <time>2017-10-17T15:48:42Z</time>
      </trkpt>
      <trkpt lat="49.43619" lon="1.32336">
        <ele>137</ele>
        <time>2017-10-17T15:48:42Z</time>
      </trkpt>
      <trkpt lat="49.43621" lon="1.3233">
        <ele>137</ele>
        <time>2017-10-17T15:48:42Z</time>
      </trkpt>
      <trkpt lat="49.43623" lon="1.32325">
        <ele>137</ele>
        <time>2017-10-17T15:48:42Z</time>
      </trkpt>
      <trkpt lat="49.43624" lon="1.32318">
        <ele>137</ele>
        <time>2017-10-17T15:48:58Z</time>
      </trkpt>
      <trkpt lat="49.43626" lon="1.3231">
        <ele>140</ele>
        <time>2017-10-17T15:48:58Z</time>
      </trkpt>
      <trkpt lat="49.43628" lon="1.32304">
        <ele>140</ele>
        <time>2017-10-17T15:48:58Z</time>
      </trkpt>
      <trkpt lat="49.4363" lon="1.32299">
        <ele>140</ele>
        <time>2017-10-17T15:48:58Z</time>
      </trkpt>
      <trkpt lat="49.43633" lon="1.32292">
        <ele>140</ele>
        <time>2017-10-17T15:49:14Z</time>
      </trkpt>
      <trkpt lat="49.43635" lon="1.32287">
        <ele>140</ele>
        <time>2017-10-17T15:49:14Z</time>
      </trkpt>
      <trkpt lat="49.43637" lon="1.3228">
        <ele>140</ele>
        <time>2017-10-17T15:49:14Z</time>
      </trkpt>
      <trkpt lat="49.43639" lon="1.32273">
        <ele>140</ele>
        <time>2017-10-17T15:49:14Z</time>
      </trkpt>
      <trkpt lat="49.43641" lon="1.32269">
        <ele>140</ele>
        <time>2017-10-17T15:49:30Z</time>
      </trkpt>
      <trkpt lat="49.43644" lon="1.32263">
        <ele>140</ele>
        <time>2017-10-17T15:49:30Z</time>
      </trkpt>
      <trkpt lat="49.43646" lon="1.32257">
        <ele>140</ele>
        <time>2017-10-17T15:49:30Z</time>
      </trkpt>
      <trkpt lat="49.43648" lon="1.3225">
        <ele>140</ele>
        <time>2017-10-17T15:49:30Z</time>
      </trkpt>
      <trkpt lat="49.43651" lon="1.32244">
        <ele>140</ele>
        <time>2017-10-17T15:49:46Z</time>
      </trkpt>
      <trkpt lat="49.43653" lon="1.32237">
        <ele>140</ele>
        <time>2017-10-17T15:49:46Z</time>
      </trkpt>
      <trkpt lat="49.43655" lon="1.32231">
        <ele>140</ele>
        <time>2017-10-17T15:49:46Z</time>
      </trkpt>
      <trkpt lat="49.43657" lon="1.32224">
        <ele>140</ele>
        <time>2017-10-17T15:49:46Z</time>
      </trkpt>
      <trkpt lat="49.43659" lon="1.32217">
        <ele>140</ele>
        <time>2017-10-17T15:50:02Z</time>
      </trkpt>
      <trkpt lat="49.43661" lon="1.3221">
        <ele>140</ele>
        <time>2017-10-17T15:50:02Z</time>
      </trkpt>
      <trkpt lat="49.43663" lon="1.32204">
        <ele>141</ele>
        <time>2017-10-17T15:50:02Z</time>
      </trkpt>
      <trkpt lat="49.43665" lon="1.32197">
        <ele>141</ele>
        <time>2017-10-17T15:50:02Z</time>
      </trkpt>
      <trkpt lat="49.43665" lon="1.32189">
        <ele>141</ele>
        <time>2017-10-17T15:50:18Z</time>
      </trkpt>
      <trkpt lat="49.43664" lon="1.32182">
        <ele>141</ele>
        <time>2017-10-17T15:50:18Z</time>
      </trkpt>
      <trkpt lat="49.43665" lon="1.32176">
        <ele>141</ele>
        <time>2017-10-17T15:50:18Z</time>
      </trkpt>
      <trkpt lat="49.43666" lon="1.32167">
        <ele>141</ele>
        <time>2017-10-17T15:50:18Z</time>
      </trkpt>
      <trkpt lat="49.43666" lon="1.32159">
        <ele>141</ele>
        <time>2017-10-17T15:50:34Z</time>
      </trkpt>
      <trkpt lat="49.43666" lon="1.32151">
        <ele>141</ele>
        <time>2017-10-17T15:50:34Z</time>
      </trkpt>
      <trkpt lat="49.43666" lon="1.32145">
        <ele>141</ele>
        <time>2017-10-17T15:50:34Z</time>
      </trkpt>
      <trkpt lat="49.43666" lon="1.32136">
        <ele>141</ele>
        <time>2017-10-17T15:50:34Z</time>
      </trkpt>
      <trkpt lat="49.43667" lon="1.32128">
        <ele>141</ele>
        <time>2017-10-17T15:50:50Z</time>
      </trkpt>
      <trkpt lat="49.43669" lon="1.32121">
        <ele>139</ele>
        <time>2017-10-17T15:50:50Z</time>
      </trkpt>
      <trkpt lat="49.43671" lon="1.32114">
        <ele>139</ele>
        <time>2017-10-17T15:50:50Z</time>
      </trkpt>
      <trkpt lat="49.43673" lon="1.32107">
        <ele>139</ele>
        <time>2017-10-17T15:50:50Z</time>
      </trkpt>
      <trkpt lat="49.43675" lon="1.32101">
        <ele>139</ele>
        <time>2017-10-17T15:51:06Z</time>
      </trkpt>
      <trkpt lat="49.43678" lon="1.32095">
        <ele>139</ele>
        <time>2017-10-17T15:51:06Z</time>
      </trkpt>
      <trkpt lat="49.43676" lon="1.32091">
        <ele>139</ele>
        <time>2017-10-17T15:51:06Z</time>
      </trkpt>
      <trkpt lat="49.43674" lon="1.32086">
        <ele>139</ele>
        <time>2017-10-17T15:51:06Z</time>
      </trkpt>
      <trkpt lat="49.43672" lon="1.32081">
        <ele>139</ele>
        <time>2017-10-17T15:51:22Z</time>
      </trkpt>
      <trkpt lat="49.4367" lon="1.32077">
        <ele>139</ele>
        <time>2017-10-17T15:51:22Z</time>
      </trkpt>
      <trkpt lat="49.43668" lon="1.32075">
        <ele>139</ele>
        <time>2017-10-17T15:51:22Z</time>
      </trkpt>
      <trkpt lat="49.43664" lon="1.32071">
        <ele>139</ele>
        <time>2017-10-17T15:51:22Z</time>
      </trkpt>
      <trkpt lat="49.43661" lon="1.32069">
        <ele>139</ele>
        <time>2017-10-17T15:51:38Z</time>
      </trkpt>
      <trkpt lat="49.43657" lon="1.32067">
        <ele>139</ele>
        <time>2017-10-17T15:51:38Z</time>
      </trkpt>
      <trkpt lat="49.43654" lon="1.32066">
        <ele>139</ele>
        <time>2017-10-17T15:51:38Z</time>
      </trkpt>
      <trkpt lat="49.43648" lon="1.32066">
        <ele>139</ele>
        <time>2017-10-17T15:51:38Z</time>
      </trkpt>
      <trkpt lat="49.43644" lon="1.32066">
        <ele>139</ele>
        <time>2017-10-17T15:51:54Z</time>
      </trkpt>
      <trkpt lat="49.43639" lon="1.32065">
        <ele>139</ele>
        <time>2017-10-17T15:51:54Z</time>
      </trkpt>
      <trkpt lat="49.43635" lon="1.32065">
        <ele>139</ele>
        <time>2017-10-17T15:51:54Z</time>
      </trkpt>
      <trkpt lat="49.43631" lon="1.32066">
        <ele>139</ele>
        <time>2017-10-17T15:51:54Z</time>
      </trkpt>
      <trkpt lat="49.43626" lon="1.32065">
        <ele>139</ele>
        <time>2017-10-17T15:52:10Z</time>
      </trkpt>
      <trkpt lat="49.43621" lon="1.32065">
        <ele>135</ele>
        <time>2017-10-17T15:52:10Z</time>
      </trkpt>
      <trkpt lat="49.43617" lon="1.32065">
        <ele>135</ele>
        <time>2017-10-17T15:52:10Z</time>
      </trkpt>
      <trkpt lat="49.43612" lon="1.32065">
        <ele>135</ele>
        <time>2017-10-17T15:52:10Z</time>
      </trkpt>
      <trkpt lat="49.43607" lon="1.32064">
        <ele>135</ele>
        <time>2017-10-17T15:52:26Z</time>
      </trkpt>
      <trkpt lat="49.43603" lon="1.32065">
        <ele>135</ele>
        <time>2017-10-17T15:52:26Z</time>
      </trkpt>
      <trkpt lat="49.43598" lon="1.32064">
        <ele>135</ele>
        <time>2017-10-17T15:52:26Z</time>
      </trkpt>
      <trkpt lat="49.43594" lon="1.32064">
        <ele>135</ele>
        <time>2017-10-17T15:52:26Z</time>
      </trkpt>
      <trkpt lat="49.43589" lon="1.32063">
        <ele>135</ele>
        <time>2017-10-17T15:52:42Z</time>
      </trkpt>
      <trkpt lat="49.43584" lon="1.32062">
        <ele>135</ele>
        <time>2017-10-17T15:52:42Z</time>
      </trkpt>
      <trkpt lat="49.43579" lon="1.32061">
        <ele>135</ele>
        <time>2017-10-17T15:52:42Z</time>
      </trkpt>
      <trkpt lat="49.43574" lon="1.3206">
        <ele>135</ele>
        <time>2017-10-17T15:52:42Z</time>
      </trkpt>
      <trkpt lat="49.4357" lon="1.3206">
        <ele>135</ele>
        <time>2017-10-17T15:52:58Z</time>
      </trkpt>
      <trkpt lat="49.43565" lon="1.32059">
        <ele>135</ele>
        <time>2017-10-17T15:52:58Z</time>
      </trkpt>
      <trkpt lat="49.43561" lon="1.32059">
        <ele>135</ele>
        <time>2017-10-17T15:52:58Z</time>
      </trkpt>
      <trkpt lat="49.43557" lon="1.32058">
        <ele>135</ele>
        <time>2017-10-17T15:52:58Z</time>
      </trkpt>
      <trkpt lat="49.43552" lon="1.32058">
        <ele>135</ele>
        <time>2017-10-17T15:53:14Z</time>
      </trkpt>
      <trkpt lat="49.43547" lon="1.32058">
        <ele>135</ele>
        <time>2017-10-17T15:53:14Z</time>
      </trkpt>
      <trkpt lat="49.43544" lon="1.32057">
        <ele>135</ele>
        <time>2017-10-17T15:53:14Z</time>
      </trkpt>
      <trkpt lat="49.43539" lon="1.32056">
        <ele>132</ele>
        <time>2017-10-17T15:53:14Z</time>
      </trkpt>
      <trkpt lat="49.43534" lon="1.32055">
        <ele>132</ele>
        <time>2017-10-17T15:53:30Z</time>
      </trkpt>
      <trkpt lat="49.4353" lon="1.32055">
        <ele>132</ele>
        <time>2017-10-17T15:53:30Z</time>
      </trkpt>
      <trkpt lat="49.43526" lon="1.32052">
        <ele>132</ele>
        <time>2017-10-17T15:53:30Z</time>
      </trkpt>
      <trkpt lat="49.43524" lon="1.32048">
        <ele>132</ele>
        <time>2017-10-17T15:53:30Z</time>
      </trkpt>
      <trkpt lat="49.43523" lon="1.32038">
        <ele>129</ele>
        <time>2017-10-17T15:53:46Z</time>
      </trkpt>
      <trkpt lat="49.43524" lon="1.32031">
        <ele>129</ele>
        <time>2017-10-17T15:53:46Z</time>
      </trkpt>
      <trkpt lat="49.43524" lon="1.32024">
        <ele>129</ele>
        <time>2017-10-17T15:53:46Z</time>
      </trkpt>
      <trkpt lat="49.43526" lon="1.32017">
        <ele>129</ele>
        <time>2017-10-17T15:53:46Z</time>
      </trkpt>
      <trkpt lat="49.43527" lon="1.3201">
        <ele>129</ele>
        <time>2017-10-17T15:54:02Z</time>
      </trkpt>
      <trkpt lat="49.43528" lon="1.32003">
        <ele>129</ele>
        <time>2017-10-17T15:54:02Z</time>
      </trkpt>
      <trkpt lat="49.43529" lon="1.31996">
        <ele>129</ele>
        <time>2017-10-17T15:54:02Z</time>
      </trkpt>
      <trkpt lat="49.4353" lon="1.31988">
        <ele>129</ele>
        <time>2017-10-17T15:54:02Z</time>
      </trkpt>
      <trkpt lat="49.43531" lon="1.31981">
        <ele>129</ele>
        <time>2017-10-17T15:54:18Z</time>
      </trkpt>
      <trkpt lat="49.43533" lon="1.31974">
        <ele>129</ele>
        <time>2017-10-17T15:54:18Z</time>
      </trkpt>
      <trkpt lat="49.43534" lon="1.31966">
        <ele>129</ele>
        <time>2017-10-17T15:54:18Z</time>
      </trkpt>
      <trkpt lat="49.43536" lon="1.31959">
        <ele>129</ele>
        <time>2017-10-17T15:54:18Z</time>
      </trkpt>
      <trkpt lat="49.43537" lon="1.31952">
        <ele>130</ele>
        <time>2017-10-17T15:54:34Z</time>
      </trkpt>
      <trkpt lat="49.43539" lon="1.31946">
        <ele>130</ele>
        <time>2017-10-17T15:54:34Z</time>
      </trkpt>
      <trkpt lat="49.43541" lon="1.31939">
        <ele>130</ele>
        <time>2017-10-17T15:54:34Z</time>
      </trkpt>
      <trkpt lat="49.43543" lon="1.31933">
        <ele>135</ele>
        <time>2017-10-17T15:54:34Z</time>
      </trkpt>
      <trkpt lat="49.43546" lon="1.31926">
        <ele>135</ele>
        <time>2017-10-17T15:54:50Z</time>
      </trkpt>
      <trkpt lat="49.43548" lon="1.3192">
        <ele>135</ele>
        <time>2017-10-17T15:54:50Z</time>
      </trkpt>
      <trkpt lat="49.43551" lon="1.31914">
        <ele>135</ele>
        <time>2017-10-17T15:54:50Z</time>
      </trkpt>
      <trkpt lat="49.43553" lon="1.31907">
        <ele>135</ele>
        <time>2017-10-17T15:54:50Z</time>
      </trkpt>
      <trkpt lat="49.43555" lon="1.31901">
        <ele>135</ele>
        <time>2017-10-17T15:55:06Z</time>
      </trkpt>
      <trkpt lat="49.43557" lon="1.31895">
        <ele>135</ele>
        <time>2017-10-17T15:55:06Z</time>
      </trkpt>
      <trkpt lat="49.43559" lon="1.31888">
        <ele>135</ele>
        <time>2017-10-17T15:55:06Z</time>
      </trkpt>
      <trkpt lat="49.4356" lon="1.31881">
        <ele>135</ele>
        <time>2017-10-17T15:55:06Z</time>
      </trkpt>
      <trkpt lat="49.43562" lon="1.31875">
        <ele>134</ele>
        <time>2017-10-17T15:55:22Z</time>
      </trkpt>
      <trkpt lat="49.43564" lon="1.31868">
        <ele>134</ele>
        <time>2017-10-17T15:55:22Z</time>
      </trkpt>
      <trkpt lat="49.43565" lon="1.31861">
        <ele>134</ele>
        <time>2017-10-17T15:55:22Z</time>
      </trkpt>
      <trkpt lat="49.43566" lon="1.31854">
        <ele>134</ele>
        <time>2017-10-17T15:55:22Z</time>
      </trkpt>
      <trkpt lat="49.43567" lon="1.31846">
        <ele>134</ele>
        <time>2017-10-17T15:55:38Z</time>
      </trkpt>
      <trkpt lat="49.43568" lon="1.31839">
        <ele>134</ele>
        <time>2017-10-17T15:55:38Z</time>
      </trkpt>
      <trkpt lat="49.43569" lon="1.31832">
        <ele>134</ele>
        <time>2017-10-17T15:55:38Z</time>
      </trkpt>
      <trkpt lat="49.43569" lon="1.31824">
        <ele>134</ele>
        <time>2017-10-17T15:55:38Z</time>
      </trkpt>
      <trkpt lat="49.43569" lon="1.31817">
        <ele>134</ele>
        <time>2017-10-17T15:55:54Z</time>
      </trkpt>
      <trkpt lat="49.43569" lon="1.31809">
        <ele>134</ele>
        <time>2017-10-17T15:55:54Z</time>
      </trkpt>
      <trkpt lat="49.43568" lon="1.31802">
        <ele>134</ele>
        <time>2017-10-17T15:55:54Z</time>
      </trkpt>
      <trkpt lat="49.43568" lon="1.31794">
        <ele>134</ele>
        <time>2017-10-17T15:55:54Z</time>
      </trkpt>
      <trkpt lat="49.43567" lon="1.31787">
        <ele>133</ele>
        <time>2017-10-17T15:56:10Z</time>
      </trkpt>
      <trkpt lat="49.43567" lon="1.3178">
        <ele>133</ele>
        <time>2017-10-17T15:56:10Z</time>
      </trkpt>
      <trkpt lat="49.43567" lon="1.31773">
        <ele>133</ele>
        <time>2017-10-17T15:56:10Z</time>
      </trkpt>
      <trkpt lat="49.43567" lon="1.31766">
        <ele>133</ele>
        <time>2017-10-17T15:56:10Z</time>
      </trkpt>
      <trkpt lat="49.43567" lon="1.31759">
        <ele>133</ele>
        <time>2017-10-17T15:56:26Z</time>
      </trkpt>
      <trkpt lat="49.43567" lon="1.31751">
        <ele>133</ele>
        <time>2017-10-17T15:56:26Z</time>
      </trkpt>
      <trkpt lat="49.43567" lon="1.31746">
        <ele>133</ele>
        <time>2017-10-17T15:56:26Z</time>
      </trkpt>
      <trkpt lat="49.43568" lon="1.31737">
        <ele>133</ele>
        <time>2017-10-17T15:56:26Z</time>
      </trkpt>
      <trkpt lat="49.43569" lon="1.31729">
        <ele>133</ele>
        <time>2017-10-17T15:56:42Z</time>
      </trkpt>
      <trkpt lat="49.4357" lon="1.31722">
        <ele>133</ele>
        <time>2017-10-17T15:56:42Z</time>
      </trkpt>
      <trkpt lat="49.4357" lon="1.31715">
        <ele>133</ele>
        <time>2017-10-17T15:56:42Z</time>
      </trkpt>
      <trkpt lat="49.43569" lon="1.31708">
        <ele>133</ele>
        <time>2017-10-17T15:56:42Z</time>
      </trkpt>
      <trkpt lat="49.43568" lon="1.317">
        <ele>133</ele>
        <time>2017-10-17T15:56:58Z</time>
      </trkpt>
      <trkpt lat="49.43567" lon="1.31693">
        <ele>133</ele>
        <time>2017-10-17T15:56:58Z</time>
      </trkpt>
      <trkpt lat="49.43567" lon="1.31685">
        <ele>133</ele>
        <time>2017-10-17T15:56:58Z</time>
      </trkpt>
      <trkpt lat="49.43567" lon="1.31678">
        <ele>133</ele>
        <time>2017-10-17T15:56:58Z</time>
      </trkpt>
      <trkpt lat="49.43566" lon="1.31671">
        <ele>133</ele>
        <time>2017-10-17T15:57:14Z</time>
      </trkpt>
      <trkpt lat="49.43566" lon="1.31664">
        <ele>133</ele>
        <time>2017-10-17T15:57:14Z</time>
      </trkpt>
      <trkpt lat="49.43565" lon="1.31656">
        <ele>133</ele>
        <time>2017-10-17T15:57:14Z</time>
      </trkpt>
      <trkpt lat="49.43564" lon="1.31649">
        <ele>133</ele>
        <time>2017-10-17T15:57:14Z</time>
      </trkpt>
      <trkpt lat="49.43564" lon="1.31642">
        <ele>133</ele>
        <time>2017-10-17T15:57:30Z</time>
      </trkpt>
      <trkpt lat="49.43564" lon="1.31634">
        <ele>133</ele>
        <time>2017-10-17T15:57:30Z</time>
      </trkpt>
      <trkpt lat="49.43563" lon="1.31627">
        <ele>133</ele>
        <time>2017-10-17T15:57:30Z</time>
      </trkpt>
      <trkpt lat="49.43563" lon="1.3162">
        <ele>135</ele>
        <time>2017-10-17T15:57:30Z</time>
      </trkpt>
      <trkpt lat="49.43562" lon="1.31612">
        <ele>135</ele>
        <time>2017-10-17T15:57:46Z</time>
      </trkpt>
      <trkpt lat="49.43562" lon="1.31605">
        <ele>135</ele>
        <time>2017-10-17T15:57:46Z</time>
      </trkpt>
      <trkpt lat="49.43561" lon="1.316">
        <ele>135</ele>
        <time>2017-10-17T15:57:46Z</time>
      </trkpt>
      <trkpt lat="49.43561" lon="1.31591">
        <ele>135</ele>
        <time>2017-10-17T15:57:46Z</time>
      </trkpt>
      <trkpt lat="49.43561" lon="1.31585">
        <ele>135</ele>
        <time>2017-10-17T15:58:02Z</time>
      </trkpt>
      <trkpt lat="49.43561" lon="1.31576">
        <ele>135</ele>
        <time>2017-10-17T15:58:02Z</time>
      </trkpt>
      <trkpt lat="49.43561" lon="1.3157">
        <ele>135</ele>
        <time>2017-10-17T15:58:02Z</time>
      </trkpt>
      <trkpt lat="49.43562" lon="1.31561">
        <ele>135</ele>
        <time>2017-10-17T15:58:02Z</time>
      </trkpt>
      <trkpt lat="49.43562" lon="1.31554">
        <ele>135</ele>
        <time>2017-10-17T15:58:18Z</time>
      </trkpt>
      <trkpt lat="49.43562" lon="1.31546">
        <ele>135</ele>
        <time>2017-10-17T15:58:18Z</time>
      </trkpt>
      <trkpt lat="49.43563" lon="1.31539">
        <ele>137</ele>
        <time>2017-10-17T15:58:18Z</time>
      </trkpt>
      <trkpt lat="49.43564" lon="1.31532">
        <ele>137</ele>
        <time>2017-10-17T15:58:18Z</time>
      </trkpt>
      <trkpt lat="49.43565" lon="1.31525">
        <ele>137</ele>
        <time>2017-10-17T15:58:34Z</time>
      </trkpt>
      <trkpt lat="49.43566" lon="1.31518">
        <ele>137</ele>
        <time>2017-10-17T15:58:34Z</time>
      </trkpt>
      <trkpt lat="49.43566" lon="1.31511">
        <ele>137</ele>
        <time>2017-10-17T15:58:34Z</time>
      </trkpt>
      <trkpt lat="49.43567" lon="1.31504">
        <ele>137</ele>
        <time>2017-10-17T15:58:34Z</time>
      </trkpt>
      <trkpt lat="49.43567" lon="1.31497">
        <ele>137</ele>
        <time>2017-10-17T15:58:50Z</time>
      </trkpt>
      <trkpt lat="49.43568" lon="1.31491">
        <ele>137</ele>
        <time>2017-10-17T15:58:50Z</time>
      </trkpt>
      <trkpt lat="49.43569" lon="1.31483">
        <ele>137</ele>
        <time>2017-10-17T15:58:50Z</time>
      </trkpt>
      <trkpt lat="49.43569" lon="1.31476">
        <ele>137</ele>
        <time>2017-10-17T15:58:50Z</time>
      </trkpt>
      <trkpt lat="49.4357" lon="1.31469">
        <ele>137</ele>
        <time>2017-10-17T15:59:06Z</time>
      </trkpt>
      <trkpt lat="49.43571" lon="1.31462">
        <ele>137</ele>
        <time>2017-10-17T15:59:06Z</time>
      </trkpt>
      <trkpt lat="49.43571" lon="1.31455">
        <ele>138</ele>
        <time>2017-10-17T15:59:06Z</time>
      </trkpt>
      <trkpt lat="49.43572" lon="1.31448">
        <ele>138</ele>
        <time>2017-10-17T15:59:06Z</time>
      </trkpt>
      <trkpt lat="49.43572" lon="1.31441">
        <ele>138</ele>
        <time>2017-10-17T15:59:22Z</time>
      </trkpt>
      <trkpt lat="49.43573" lon="1.31434">
        <ele>138</ele>
        <time>2017-10-17T15:59:22Z</time>
      </trkpt>
      <trkpt lat="49.43574" lon="1.31426">
        <ele>138</ele>
        <time>2017-10-17T15:59:22Z</time>
      </trkpt>
      <trkpt lat="49.43574" lon="1.31419">
        <ele>138</ele>
        <time>2017-10-17T15:59:22Z</time>
      </trkpt>
      <trkpt lat="49.43575" lon="1.31412">
        <ele>138</ele>
        <time>2017-10-17T15:59:38Z</time>
      </trkpt>
      <trkpt lat="49.43576" lon="1.31404">
        <ele>138</ele>
        <time>2017-10-17T15:59:38Z</time>
      </trkpt>
      <trkpt lat="49.43576" lon="1.31397">
        <ele>138</ele>
        <time>2017-10-17T15:59:38Z</time>
      </trkpt>
      <trkpt lat="49.43577" lon="1.3139">
        <ele>138</ele>
        <time>2017-10-17T15:59:38Z</time>
      </trkpt>
      <trkpt lat="49.43578" lon="1.31383">
        <ele>138</ele>
        <time>2017-10-17T15:59:54Z</time>
      </trkpt>
      <trkpt lat="49.43578" lon="1.31376">
        <ele>138</ele>
        <time>2017-10-17T15:59:54Z</time>
      </trkpt>
      <trkpt lat="49.43579" lon="1.31368">
        <ele>138</ele>
        <time>2017-10-17T15:59:54Z</time>
      </trkpt>
      <trkpt lat="49.43579" lon="1.31361">
        <ele>138</ele>
        <time>2017-10-17T15:59:54Z</time>
      </trkpt>
      <trkpt lat="49.4358" lon="1.31354">
        <ele>138</ele>
        <time>2017-10-17T16:00:10Z</time>
      </trkpt>
      <trkpt lat="49.4358" lon="1.31347">
        <ele>138</ele>
        <time>2017-10-17T16:00:10Z</time>
      </trkpt>
      <trkpt lat="49.4358" lon="1.31339">
        <ele>138</ele>
        <time>2017-10-17T16:00:10Z</time>
      </trkpt>
      <trkpt lat="49.43581" lon="1.31332">
        <ele>138</ele>
        <time>2017-10-17T16:00:10Z</time>
      </trkpt>
      <trkpt lat="49.43581" lon="1.31325">
        <ele>138</ele>
        <time>2017-10-17T16:00:26Z</time>
      </trkpt>
      <trkpt lat="49.43581" lon="1.31317">
        <ele>138</ele>
        <time>2017-10-17T16:00:26Z</time>
      </trkpt>
      <trkpt lat="49.43581" lon="1.3131">
        <ele>138</ele>
        <time>2017-10-17T16:00:26Z</time>
      </trkpt>
      <trkpt lat="49.43581" lon="1.31303">
        <ele>138</ele>
        <time>2017-10-17T16:00:26Z</time>
      </trkpt>
      <trkpt lat="49.43581" lon="1.31295">
        <ele>138</ele>
        <time>2017-10-17T16:00:42Z</time>
      </trkpt>
      <trkpt lat="49.43581" lon="1.3129">
        <ele>140</ele>
        <time>2017-10-17T16:00:42Z</time>
      </trkpt>
      <trkpt lat="49.43581" lon="1.31281">
        <ele>140</ele>
        <time>2017-10-17T16:00:42Z</time>
      </trkpt>
      <trkpt lat="49.4358" lon="1.31273">
        <ele>140</ele>
        <time>2017-10-17T16:00:42Z</time>
      </trkpt>
      <trkpt lat="49.43581" lon="1.31266">
        <ele>140</ele>
        <time>2017-10-17T16:00:58Z</time>
      </trkpt>
      <trkpt lat="49.43581" lon="1.31259">
        <ele>140</ele>
        <time>2017-10-17T16:00:58Z</time>
      </trkpt>
      <trkpt lat="49.43581" lon="1.31252">
        <ele>140</ele>
        <time>2017-10-17T16:00:58Z</time>
      </trkpt>
      <trkpt lat="49.43581" lon="1.31244">
        <ele>140</ele>
        <time>2017-10-17T16:00:58Z</time>
      </trkpt>
      <trkpt lat="49.43581" lon="1.31236">
        <ele>140</ele>
        <time>2017-10-17T16:01:14Z</time>
      </trkpt>
      <trkpt lat="49.43581" lon="1.31229">
        <ele>140</ele>
        <time>2017-10-17T16:01:14Z</time>
      </trkpt>
      <trkpt lat="49.43581" lon="1.31222">
        <ele>140</ele>
        <time>2017-10-17T16:01:14Z</time>
      </trkpt>
      <trkpt lat="49.43581" lon="1.31214">
        <ele>140</ele>
        <time>2017-10-17T16:01:14Z</time>
      </trkpt>
      <trkpt lat="49.43581" lon="1.31207">
        <ele>142</ele>
        <time>2017-10-17T16:01:30Z</time>
      </trkpt>
      <trkpt lat="49.43581" lon="1.312">
        <ele>142</ele>
        <time>2017-10-17T16:01:30Z</time>
      </trkpt>
      <trkpt lat="49.43581" lon="1.31192">
        <ele>142</ele>
        <time>2017-10-17T16:01:30Z</time>
      </trkpt>
      <trkpt lat="49.4358" lon="1.31185">
        <ele>142</ele>
        <time>2017-10-17T16:01:30Z</time>
      </trkpt>
      <trkpt lat="49.4358" lon="1.31177">
        <ele>142</ele>
        <time>2017-10-17T16:01:46Z</time>
      </trkpt>
      <trkpt lat="49.4358" lon="1.31169">
        <ele>142</ele>
        <time>2017-10-17T16:01:46Z</time>
      </trkpt>
      <trkpt lat="49.4358" lon="1.31162">
        <ele>142</ele>
        <time>2017-10-17T16:01:46Z</time>
      </trkpt>
      <trkpt lat="49.4358" lon="1.31155">
        <ele>142</ele>
        <time>2017-10-17T16:01:46Z</time>
      </trkpt>
      <trkpt lat="49.43579" lon="1.31147">
        <ele>142</ele>
        <time>2017-10-17T16:02:02Z</time>
      </trkpt>
      <trkpt lat="49.43579" lon="1.3114">
        <ele>142</ele>
        <time>2017-10-17T16:02:02Z</time>
      </trkpt>
      <trkpt lat="49.43579" lon="1.31133">
        <ele>142</ele>
        <time>2017-10-17T16:02:02Z</time>
      </trkpt>
      <trkpt lat="49.43579" lon="1.31126">
        <ele>142</ele>
        <time>2017-10-17T16:02:02Z</time>
      </trkpt>
      <trkpt lat="49.43579" lon="1.31119">
        <ele>143</ele>
        <time>2017-10-17T16:02:18Z</time>
      </trkpt>
      <trkpt lat="49.43579" lon="1.31113">
        <ele>143</ele>
        <time>2017-10-17T16:02:18Z</time>
      </trkpt>
      <trkpt lat="49.43578" lon="1.31106">
        <ele>143</ele>
        <time>2017-10-17T16:02:18Z</time>
      </trkpt>
      <trkpt lat="49.43578" lon="1.31098">
        <ele>143</ele>
        <time>2017-10-17T16:02:18Z</time>
      </trkpt>
      <trkpt lat="49.43579" lon="1.31092">
        <ele>143</ele>
        <time>2017-10-17T16:02:34Z</time>
      </trkpt>
      <trkpt lat="49.43579" lon="1.31084">
        <ele>143</ele>
        <time>2017-10-17T16:02:34Z</time>
      </trkpt>
      <trkpt lat="49.43579" lon="1.31077">
        <ele>143</ele>
        <time>2017-10-17T16:02:34Z</time>
      </trkpt>
      <trkpt lat="49.43579" lon="1.3107">
        <ele>143</ele>
        <time>2017-10-17T16:02:34Z</time>
      </trkpt>
      <trkpt lat="49.43579" lon="1.31062">
        <ele>143</ele>
        <time>2017-10-17T16:02:50Z</time>
      </trkpt>
      <trkpt lat="49.43578" lon="1.31055">
        <ele>143</ele>
        <time>2017-10-17T16:02:50Z</time>
      </trkpt>
      <trkpt lat="49.43578" lon="1.31048">
        <ele>143</ele>
        <time>2017-10-17T16:02:50Z</time>
      </trkpt>
      <trkpt lat="49.43577" lon="1.31041">
        <ele>144</ele>
        <time>2017-10-17T16:02:50Z</time>
      </trkpt>
      <trkpt lat="49.43575" lon="1.31029">
        <ele>144</ele>
        <time>2017-10-17T16:07:22Z</time>
      </trkpt>
      <trkpt lat="49.43575" lon="1.31029">
        <ele>144</ele>
        <time>2017-10-17T16:07:22Z</time>
      </trkpt>
      <trkpt lat="49.43575" lon="1.31027">
        <ele>144</ele>
        <time>2017-10-17T16:07:22Z</time>
      </trkpt>
      <trkpt lat="49.43574" lon="1.31021">
        <ele>144</ele>
        <time>2017-10-17T16:07:22Z</time>
      </trkpt>
      <trkpt lat="49.43573" lon="1.31014">
        <ele>144</ele>
        <time>2017-10-17T16:07:22Z</time>
      </trkpt>
      <trkpt lat="49.43572" lon="1.31007">
        <ele>144</ele>
        <time>2017-10-17T16:07:38Z</time>
      </trkpt>
      <trkpt lat="49.43571" lon="1.31001">
        <ele>144</ele>
        <time>2017-10-17T16:07:38Z</time>
      </trkpt>
      <trkpt lat="49.4357" lon="1.30995">
        <ele>144</ele>
        <time>2017-10-17T16:07:38Z</time>
      </trkpt>
      <trkpt lat="49.43569" lon="1.3099">
        <ele>144</ele>
        <time>2017-10-17T16:07:38Z</time>
      </trkpt>
      <trkpt lat="49.43567" lon="1.3098">
        <ele>144</ele>
        <time>2017-10-17T16:08:06Z</time>
      </trkpt>
      <trkpt lat="49.43567" lon="1.3098">
        <ele>144</ele>
        <time>2017-10-17T16:08:06Z</time>
      </trkpt>
      <trkpt lat="49.43569" lon="1.30977">
        <ele>144</ele>
        <time>2017-10-17T16:08:06Z</time>
      </trkpt>
      <trkpt lat="49.4357" lon="1.30972">
        <ele>144</ele>
        <time>2017-10-17T16:08:06Z</time>
      </trkpt>
      <trkpt lat="49.43571" lon="1.30967">
        <ele>144</ele>
        <time>2017-10-17T16:08:06Z</time>
      </trkpt>
      <trkpt lat="49.43571" lon="1.30961">
        <ele>144</ele>
        <time>2017-10-17T16:08:22Z</time>
      </trkpt>
      <trkpt lat="49.43571" lon="1.30955">
        <ele>144</ele>
        <time>2017-10-17T16:08:22Z</time>
      </trkpt>
      <trkpt lat="49.43572" lon="1.3095">
        <ele>144</ele>
        <time>2017-10-17T16:08:22Z</time>
      </trkpt>
      <trkpt lat="49.43571" lon="1.30945">
        <ele>144</ele>
        <time>2017-10-17T16:08:22Z</time>
      </trkpt>
      <trkpt lat="49.43572" lon="1.30939">
        <ele>144</ele>
        <time>2017-10-17T16:18:54Z</time>
      </trkpt>
      <trkpt lat="49.43573" lon="1.30938">
        <ele>144</ele>
        <time>2017-10-17T16:18:54Z</time>
      </trkpt>
      <trkpt lat="49.43573" lon="1.30937">
        <ele>144</ele>
        <time>2017-10-17T16:18:54Z</time>
      </trkpt>
      <trkpt lat="49.43573" lon="1.30932">
        <ele>144</ele>
        <time>2017-10-17T16:18:54Z</time>
      </trkpt>
      <trkpt lat="49.43573" lon="1.30929">
        <ele>144</ele>
        <time>2017-10-17T16:18:54Z</time>
      </trkpt>
      <trkpt lat="49.43574" lon="1.3092">
        <ele>144</ele>
        <time>2017-10-17T16:19:10Z</time>
      </trkpt>
      <trkpt lat="49.43574" lon="1.30914">
        <ele>144</ele>
        <time>2017-10-17T16:19:10Z</time>
      </trkpt>
      <trkpt lat="49.43574" lon="1.30908">
        <ele>144</ele>
        <time>2017-10-17T16:19:10Z</time>
      </trkpt>
      <trkpt lat="49.43575" lon="1.30902">
        <ele>144</ele>
        <time>2017-10-17T16:19:10Z</time>
      </trkpt>
      <trkpt lat="49.43575" lon="1.30895">
        <ele>144</ele>
        <time>2017-10-17T16:19:26Z</time>
      </trkpt>
      <trkpt lat="49.43576" lon="1.3089">
        <ele>144</ele>
        <time>2017-10-17T16:19:26Z</time>
      </trkpt>
      <trkpt lat="49.43576" lon="1.30883">
        <ele>144</ele>
        <time>2017-10-17T16:19:26Z</time>
      </trkpt>
      <trkpt lat="49.43577" lon="1.30877">
        <ele>144</ele>
        <time>2017-10-17T16:19:26Z</time>
      </trkpt>
      <trkpt lat="49.43577" lon="1.30871">
        <ele>145</ele>
        <time>2017-10-17T16:19:42Z</time>
      </trkpt>
      <trkpt lat="49.43577" lon="1.30865">
        <ele>145</ele>
        <time>2017-10-17T16:19:42Z</time>
      </trkpt>
      <trkpt lat="49.43577" lon="1.30858">
        <ele>145</ele>
        <time>2017-10-17T16:19:42Z</time>
      </trkpt>
      <trkpt lat="49.43578" lon="1.30852">
        <ele>145</ele>
        <time>2017-10-17T16:19:42Z</time>
      </trkpt>
      <trkpt lat="49.43578" lon="1.30846">
        <ele>145</ele>
        <time>2017-10-17T16:19:58Z</time>
      </trkpt>
      <trkpt lat="49.43578" lon="1.3084">
        <ele>145</ele>
        <time>2017-10-17T16:19:58Z</time>
      </trkpt>
      <trkpt lat="49.43579" lon="1.30833">
        <ele>145</ele>
        <time>2017-10-17T16:19:58Z</time>
      </trkpt>
      <trkpt lat="49.43579" lon="1.30826">
        <ele>145</ele>
        <time>2017-10-17T16:19:58Z</time>
      </trkpt>
      <trkpt lat="49.4358" lon="1.30819">
        <ele>145</ele>
        <time>2017-10-17T16:20:14Z</time>
      </trkpt>
      <trkpt lat="49.4358" lon="1.30812">
        <ele>145</ele>
        <time>2017-10-17T16:20:14Z</time>
      </trkpt>
      <trkpt lat="49.43581" lon="1.30805">
        <ele>145</ele>
        <time>2017-10-17T16:20:14Z</time>
      </trkpt>
      <trkpt lat="49.43581" lon="1.30798">
        <ele>145</ele>
        <time>2017-10-17T16:20:14Z</time>
      </trkpt>
      <trkpt lat="49.43582" lon="1.3079">
        <ele>146</ele>
        <time>2017-10-17T16:20:30Z</time>
      </trkpt>
      <trkpt lat="49.43582" lon="1.30783">
        <ele>146</ele>
        <time>2017-10-17T16:20:30Z</time>
      </trkpt>
      <trkpt lat="49.43583" lon="1.30776">
        <ele>146</ele>
        <time>2017-10-17T16:20:30Z</time>
      </trkpt>
      <trkpt lat="49.43583" lon="1.30768">
        <ele>146</ele>
        <time>2017-10-17T16:20:30Z</time>
      </trkpt>
      <trkpt lat="49.43584" lon="1.30761">
        <ele>146</ele>
        <time>2017-10-17T16:20:46Z</time>
      </trkpt>
      <trkpt lat="49.43584" lon="1.30754">
        <ele>146</ele>
        <time>2017-10-17T16:20:46Z</time>
      </trkpt>
      <trkpt lat="49.43584" lon="1.30747">
        <ele>146</ele>
        <time>2017-10-17T16:20:46Z</time>
      </trkpt>
      <trkpt lat="49.43584" lon="1.3074">
        <ele>146</ele>
        <time>2017-10-17T16:20:46Z</time>
      </trkpt>
      <trkpt lat="49.43585" lon="1.30733">
        <ele>146</ele>
        <time>2017-10-17T16:21:02Z</time>
      </trkpt>
      <trkpt lat="49.43585" lon="1.30725">
        <ele>146</ele>
        <time>2017-10-17T16:21:02Z</time>
      </trkpt>
      <trkpt lat="49.43585" lon="1.30719">
        <ele>146</ele>
        <time>2017-10-17T16:21:02Z</time>
      </trkpt>
      <trkpt lat="49.43586" lon="1.30712">
        <ele>146</ele>
        <time>2017-10-17T16:21:02Z</time>
      </trkpt>
      <trkpt lat="49.43586" lon="1.30705">
        <ele>146</ele>
        <time>2017-10-17T16:21:18Z</time>
      </trkpt>
      <trkpt lat="49.43587" lon="1.30698">
        <ele>146</ele>
        <time>2017-10-17T16:21:18Z</time>
      </trkpt>
      <trkpt lat="49.43587" lon="1.30691">
        <ele>146</ele>
        <time>2017-10-17T16:21:18Z</time>
      </trkpt>
      <trkpt lat="49.43587" lon="1.30683">
        <ele>146</ele>
        <time>2017-10-17T16:21:18Z</time>
      </trkpt>
      <trkpt lat="49.43587" lon="1.30675">
        <ele>146</ele>
        <time>2017-10-17T16:21:34Z</time>
      </trkpt>
      <trkpt lat="49.43587" lon="1.30668">
        <ele>146</ele>
        <time>2017-10-17T16:21:34Z</time>
      </trkpt>
      <trkpt lat="49.43587" lon="1.30661">
        <ele>146</ele>
        <time>2017-10-17T16:21:34Z</time>
      </trkpt>
      <trkpt lat="49.43588" lon="1.30653">
        <ele>146</ele>
        <time>2017-10-17T16:21:34Z</time>
      </trkpt>
      <trkpt lat="49.43588" lon="1.30646">
        <ele>146</ele>
        <time>2017-10-17T16:21:50Z</time>
      </trkpt>
      <trkpt lat="49.43588" lon="1.30639">
        <ele>146</ele>
        <time>2017-10-17T16:21:50Z</time>
      </trkpt>
      <trkpt lat="49.43589" lon="1.30632">
        <ele>146</ele>
        <time>2017-10-17T16:21:50Z</time>
      </trkpt>
      <trkpt lat="49.43589" lon="1.30624">
        <ele>145</ele>
        <time>2017-10-17T16:21:50Z</time>
      </trkpt>
      <trkpt lat="49.43589" lon="1.30617">
        <ele>145</ele>
        <time>2017-10-17T16:22:06Z</time>
      </trkpt>
      <trkpt lat="49.4359" lon="1.30611">
        <ele>145</ele>
        <time>2017-10-17T16:22:06Z</time>
      </trkpt>
      <trkpt lat="49.4359" lon="1.30604">
        <ele>145</ele>
        <time>2017-10-17T16:22:06Z</time>
      </trkpt>
      <trkpt lat="49.4359" lon="1.30597">
        <ele>145</ele>
        <time>2017-10-17T16:22:06Z</time>
      </trkpt>
      <trkpt lat="49.43591" lon="1.30591">
        <ele>145</ele>
        <time>2017-10-17T16:22:22Z</time>
      </trkpt>
      <trkpt lat="49.43591" lon="1.30586">
        <ele>145</ele>
        <time>2017-10-17T16:22:22Z</time>
      </trkpt>
      <trkpt lat="49.43592" lon="1.30579">
        <ele>145</ele>
        <time>2017-10-17T16:22:22Z</time>
      </trkpt>
      <trkpt lat="49.43592" lon="1.3057">
        <ele>145</ele>
        <time>2017-10-17T16:22:22Z</time>
      </trkpt>
      <trkpt lat="49.43593" lon="1.30563">
        <ele>145</ele>
        <time>2017-10-17T16:22:38Z</time>
      </trkpt>
      <trkpt lat="49.43594" lon="1.30557">
        <ele>145</ele>
        <time>2017-10-17T16:22:38Z</time>
      </trkpt>
      <trkpt lat="49.43595" lon="1.30549">
        <ele>145</ele>
        <time>2017-10-17T16:22:38Z</time>
      </trkpt>
      <trkpt lat="49.43596" lon="1.30541">
        <ele>144</ele>
        <time>2017-10-17T16:22:38Z</time>
      </trkpt>
      <trkpt lat="49.43597" lon="1.30533">
        <ele>144</ele>
        <time>2017-10-17T16:22:54Z</time>
      </trkpt>
      <trkpt lat="49.43598" lon="1.30526">
        <ele>144</ele>
        <time>2017-10-17T16:22:54Z</time>
      </trkpt>
      <trkpt lat="49.43599" lon="1.30518">
        <ele>144</ele>
        <time>2017-10-17T16:22:54Z</time>
      </trkpt>
      <trkpt lat="49.43599" lon="1.30512">
        <ele>144</ele>
        <time>2017-10-17T16:22:54Z</time>
      </trkpt>
      <trkpt lat="49.436" lon="1.30505">
        <ele>144</ele>
        <time>2017-10-17T16:23:10Z</time>
      </trkpt>
      <trkpt lat="49.43601" lon="1.30498">
        <ele>144</ele>
        <time>2017-10-17T16:23:10Z</time>
      </trkpt>
      <trkpt lat="49.43601" lon="1.30491">
        <ele>144</ele>
        <time>2017-10-17T16:23:10Z</time>
      </trkpt>
      <trkpt lat="49.43602" lon="1.30483">
        <ele>144</ele>
        <time>2017-10-17T16:23:10Z</time>
      </trkpt>
      <trkpt lat="49.43602" lon="1.30476">
        <ele>144</ele>
        <time>2017-10-17T16:23:26Z</time>
      </trkpt>
      <trkpt lat="49.43603" lon="1.30468">
        <ele>144</ele>
        <time>2017-10-17T16:23:26Z</time>
      </trkpt>
      <trkpt lat="49.43603" lon="1.30461">
        <ele>144</ele>
        <time>2017-10-17T16:23:26Z</time>
      </trkpt>
      <trkpt lat="49.43604" lon="1.30454">
        <ele>145</ele>
        <time>2017-10-17T16:23:26Z</time>
      </trkpt>
      <trkpt lat="49.43603" lon="1.30447">
        <ele>145</ele>
        <time>2017-10-17T16:23:42Z</time>
      </trkpt>
      <trkpt lat="49.43603" lon="1.30439">
        <ele>145</ele>
        <time>2017-10-17T16:23:42Z</time>
      </trkpt>
      <trkpt lat="49.43603" lon="1.30432">
        <ele>145</ele>
        <time>2017-10-17T16:23:42Z</time>
      </trkpt>
      <trkpt lat="49.43603" lon="1.30425">
        <ele>145</ele>
        <time>2017-10-17T16:23:42Z</time>
      </trkpt>
      <trkpt lat="49.43603" lon="1.30417">
        <ele>145</ele>
        <time>2017-10-17T16:23:58Z</time>
      </trkpt>
      <trkpt lat="49.43602" lon="1.30409">
        <ele>145</ele>
        <time>2017-10-17T16:23:58Z</time>
      </trkpt>
      <trkpt lat="49.43602" lon="1.30402">
        <ele>145</ele>
        <time>2017-10-17T16:23:58Z</time>
      </trkpt>
      <trkpt lat="49.43602" lon="1.30394">
        <ele>145</ele>
        <time>2017-10-17T16:23:58Z</time>
      </trkpt>
      <trkpt lat="49.43601" lon="1.30387">
        <ele>145</ele>
        <time>2017-10-17T16:24:14Z</time>
      </trkpt>
      <trkpt lat="49.436" lon="1.3038">
        <ele>145</ele>
        <time>2017-10-17T16:24:14Z</time>
      </trkpt>
      <trkpt lat="49.43599" lon="1.30374">
        <ele>144</ele>
        <time>2017-10-17T16:24:14Z</time>
      </trkpt>
      <trkpt lat="49.43598" lon="1.30367">
        <ele>144</ele>
        <time>2017-10-17T16:24:14Z</time>
      </trkpt>
      <trkpt lat="49.43597" lon="1.3036">
        <ele>144</ele>
        <time>2017-10-17T16:24:30Z</time>
      </trkpt>
      <trkpt lat="49.43597" lon="1.30353">
        <ele>144</ele>
        <time>2017-10-17T16:24:30Z</time>
      </trkpt>
      <trkpt lat="49.43596" lon="1.30346">
        <ele>144</ele>
        <time>2017-10-17T16:24:30Z</time>
      </trkpt>
      <trkpt lat="49.43594" lon="1.30339">
        <ele>144</ele>
        <time>2017-10-17T16:24:30Z</time>
      </trkpt>
      <trkpt lat="49.43593" lon="1.30332">
        <ele>144</ele>
        <time>2017-10-17T16:24:46Z</time>
      </trkpt>
      <trkpt lat="49.43592" lon="1.30325">
        <ele>144</ele>
        <time>2017-10-17T16:24:46Z</time>
      </trkpt>
      <trkpt lat="49.43591" lon="1.30318">
        <ele>144</ele>
        <time>2017-10-17T16:24:46Z</time>
      </trkpt>
      <trkpt lat="49.4359" lon="1.3031">
        <ele>144</ele>
        <time>2017-10-17T16:24:46Z</time>
      </trkpt>
      <trkpt lat="49.43589" lon="1.30304">
        <ele>144</ele>
        <time>2017-10-17T16:25:02Z</time>
      </trkpt>
      <trkpt lat="49.43587" lon="1.30296">
        <ele>144</ele>
        <time>2017-10-17T16:25:02Z</time>
      </trkpt>
      <trkpt lat="49.43586" lon="1.30289">
        <ele>142</ele>
        <time>2017-10-17T16:25:02Z</time>
      </trkpt>
      <trkpt lat="49.43584" lon="1.30282">
        <ele>142</ele>
        <time>2017-10-17T16:25:02Z</time>
      </trkpt>
      <trkpt lat="49.43582" lon="1.30275">
        <ele>142</ele>
        <time>2017-10-17T16:25:18Z</time>
      </trkpt>
      <trkpt lat="49.43581" lon="1.3027">
        <ele>142</ele>
        <time>2017-10-17T16:25:18Z</time>
      </trkpt>
      <trkpt lat="49.43579" lon="1.30261">
        <ele>142</ele>
        <time>2017-10-17T16:25:18Z</time>
      </trkpt>
      <trkpt lat="49.43578" lon="1.30254">
        <ele>142</ele>
        <time>2017-10-17T16:25:18Z</time>
      </trkpt>
      <trkpt lat="49.43576" lon="1.30247">
        <ele>142</ele>
        <time>2017-10-17T16:25:34Z</time>
      </trkpt>
      <trkpt lat="49.43574" lon="1.30242">
        <ele>142</ele>
        <time>2017-10-17T16:25:34Z</time>
      </trkpt>
      <trkpt lat="49.43572" lon="1.30233">
        <ele>142</ele>
        <time>2017-10-17T16:25:34Z</time>
      </trkpt>
      <trkpt lat="49.43571" lon="1.30227">
        <ele>142</ele>
        <time>2017-10-17T16:25:34Z</time>
      </trkpt>
      <trkpt lat="49.43569" lon="1.3022">
        <ele>142</ele>
        <time>2017-10-17T16:25:50Z</time>
      </trkpt>
      <trkpt lat="49.43567" lon="1.30213">
        <ele>142</ele>
        <time>2017-10-17T16:25:50Z</time>
      </trkpt>
      <trkpt lat="49.43566" lon="1.30206">
        <ele>141</ele>
        <time>2017-10-17T16:25:50Z</time>
      </trkpt>
      <trkpt lat="49.43565" lon="1.30199">
        <ele>141</ele>
        <time>2017-10-17T16:25:50Z</time>
      </trkpt>
      <trkpt lat="49.43563" lon="1.30192">
        <ele>141</ele>
        <time>2017-10-17T16:26:06Z</time>
      </trkpt>
      <trkpt lat="49.43561" lon="1.30185">
        <ele>141</ele>
        <time>2017-10-17T16:26:06Z</time>
      </trkpt>
      <trkpt lat="49.4356" lon="1.30178">
        <ele>141</ele>
        <time>2017-10-17T16:26:06Z</time>
      </trkpt>
      <trkpt lat="49.43558" lon="1.30171">
        <ele>141</ele>
        <time>2017-10-17T16:26:06Z</time>
      </trkpt>
      <trkpt lat="49.43557" lon="1.30164">
        <ele>141</ele>
        <time>2017-10-17T16:26:22Z</time>
      </trkpt>
      <trkpt lat="49.43556" lon="1.30157">
        <ele>141</ele>
        <time>2017-10-17T16:26:22Z</time>
      </trkpt>
      <trkpt lat="49.43554" lon="1.3015">
        <ele>141</ele>
        <time>2017-10-17T16:26:22Z</time>
      </trkpt>
      <trkpt lat="49.43553" lon="1.30143">
        <ele>141</ele>
        <time>2017-10-17T16:26:22Z</time>
      </trkpt>
      <trkpt lat="49.43551" lon="1.30137">
        <ele>141</ele>
        <time>2017-10-17T16:26:38Z</time>
      </trkpt>
      <trkpt lat="49.4355" lon="1.30129">
        <ele>141</ele>
        <time>2017-10-17T16:26:38Z</time>
      </trkpt>
      <trkpt lat="49.43549" lon="1.30123">
        <ele>141</ele>
        <time>2017-10-17T16:26:38Z</time>
      </trkpt>
      <trkpt lat="49.43547" lon="1.30116">
        <ele>141</ele>
        <time>2017-10-17T16:26:38Z</time>
      </trkpt>
      <trkpt lat="49.43546" lon="1.3011">
        <ele>141</ele>
        <time>2017-10-17T16:26:54Z</time>
      </trkpt>
      <trkpt lat="49.43545" lon="1.30102">
        <ele>141</ele>
        <time>2017-10-17T16:26:54Z</time>
      </trkpt>
      <trkpt lat="49.43543" lon="1.30095">
        <ele>141</ele>
        <time>2017-10-17T16:26:54Z</time>
      </trkpt>
      <trkpt lat="49.43542" lon="1.3009">
        <ele>141</ele>
        <time>2017-10-17T16:26:54Z</time>
      </trkpt>
      <trkpt lat="49.43541" lon="1.30081">
        <ele>142</ele>
        <time>2017-10-17T16:27:10Z</time>
      </trkpt>
      <trkpt lat="49.4354" lon="1.30076">
        <ele>142</ele>
        <time>2017-10-17T16:27:10Z</time>
      </trkpt>
      <trkpt lat="49.43539" lon="1.30067">
        <ele>142</ele>
        <time>2017-10-17T16:27:10Z</time>
      </trkpt>
      <trkpt lat="49.43537" lon="1.30061">
        <ele>142</ele>
        <time>2017-10-17T16:27:10Z</time>
      </trkpt>
      <trkpt lat="49.43536" lon="1.30054">
        <ele>142</ele>
        <time>2017-10-17T16:27:26Z</time>
      </trkpt>
      <trkpt lat="49.43535" lon="1.30047">
        <ele>142</ele>
        <time>2017-10-17T16:27:26Z</time>
      </trkpt>
      <trkpt lat="49.43534" lon="1.3004">
        <ele>143</ele>
        <time>2017-10-17T16:27:26Z</time>
      </trkpt>
      <trkpt lat="49.43532" lon="1.30033">
        <ele>143</ele>
        <time>2017-10-17T16:27:26Z</time>
      </trkpt>
      <trkpt lat="49.43531" lon="1.30026">
        <ele>143</ele>
        <time>2017-10-17T16:27:42Z</time>
      </trkpt>
      <trkpt lat="49.4353" lon="1.3002">
        <ele>143</ele>
        <time>2017-10-17T16:27:42Z</time>
      </trkpt>
      <trkpt lat="49.43528" lon="1.30012">
        <ele>143</ele>
        <time>2017-10-17T16:27:42Z</time>
      </trkpt>
      <trkpt lat="49.43527" lon="1.30006">
        <ele>143</ele>
        <time>2017-10-17T16:27:42Z</time>
      </trkpt>
      <trkpt lat="49.43526" lon="1.29998">
        <ele>143</ele>
        <time>2017-10-17T16:27:58Z</time>
      </trkpt>
      <trkpt lat="49.43524" lon="1.29991">
        <ele>143</ele>
        <time>2017-10-17T16:27:58Z</time>
      </trkpt>
      <trkpt lat="49.43523" lon="1.29984">
        <ele>143</ele>
        <time>2017-10-17T16:27:58Z</time>
      </trkpt>
      <trkpt lat="49.43521" lon="1.29977">
        <ele>143</ele>
        <time>2017-10-17T16:27:58Z</time>
      </trkpt>
      <trkpt lat="49.4352" lon="1.29972">
        <ele>143</ele>
        <time>2017-10-17T16:28:14Z</time>
      </trkpt>
      <trkpt lat="49.43518" lon="1.29963">
        <ele>143</ele>
        <time>2017-10-17T16:28:14Z</time>
      </trkpt>
      <trkpt lat="49.43517" lon="1.29956">
        <ele>143</ele>
        <time>2017-10-17T16:28:14Z</time>
      </trkpt>
      <trkpt lat="49.43515" lon="1.29949">
        <ele>143</ele>
        <time>2017-10-17T16:28:14Z</time>
      </trkpt>
      <trkpt lat="49.43514" lon="1.29943">
        <ele>143</ele>
        <time>2017-10-17T16:28:30Z</time>
      </trkpt>
      <trkpt lat="49.43512" lon="1.29935">
        <ele>143</ele>
        <time>2017-10-17T16:28:30Z</time>
      </trkpt>
      <trkpt lat="49.43511" lon="1.29928">
        <ele>143</ele>
        <time>2017-10-17T16:28:30Z</time>
      </trkpt>
      <trkpt lat="49.4351" lon="1.29921">
        <ele>143</ele>
        <time>2017-10-17T16:28:30Z</time>
      </trkpt>
      <trkpt lat="49.43509" lon="1.29914">
        <ele>143</ele>
        <time>2017-10-17T16:28:46Z</time>
      </trkpt>
      <trkpt lat="49.43508" lon="1.29909">
        <ele>143</ele>
        <time>2017-10-17T16:28:46Z</time>
      </trkpt>
      <trkpt lat="49.43506" lon="1.299">
        <ele>143</ele>
        <time>2017-10-17T16:28:46Z</time>
      </trkpt>
      <trkpt lat="49.43504" lon="1.29893">
        <ele>143</ele>
        <time>2017-10-17T16:28:46Z</time>
      </trkpt>
      <trkpt lat="49.43503" lon="1.29886">
        <ele>143</ele>
        <time>2017-10-17T16:29:02Z</time>
      </trkpt>
      <trkpt lat="49.43501" lon="1.29879">
        <ele>143</ele>
        <time>2017-10-17T16:29:02Z</time>
      </trkpt>
      <trkpt lat="49.435" lon="1.29872">
        <ele>144</ele>
        <time>2017-10-17T16:29:02Z</time>
      </trkpt>
      <trkpt lat="49.43499" lon="1.29867">
        <ele>144</ele>
        <time>2017-10-17T16:29:02Z</time>
      </trkpt>
      <trkpt lat="49.43499" lon="1.29861">
        <ele>144</ele>
        <time>2017-10-17T16:29:18Z</time>
      </trkpt>
      <trkpt lat="49.43498" lon="1.29857">
        <ele>144</ele>
        <time>2017-10-17T16:29:18Z</time>
      </trkpt>
      <trkpt lat="49.43497" lon="1.29849">
        <ele>144</ele>
        <time>2017-10-17T16:29:18Z</time>
      </trkpt>
      <trkpt lat="49.43496" lon="1.29843">
        <ele>144</ele>
        <time>2017-10-17T16:29:18Z</time>
      </trkpt>
      <trkpt lat="49.43495" lon="1.29836">
        <ele>144</ele>
        <time>2017-10-17T16:29:34Z</time>
      </trkpt>
      <trkpt lat="49.43493" lon="1.2983">
        <ele>144</ele>
        <time>2017-10-17T16:29:34Z</time>
      </trkpt>
      <trkpt lat="49.43492" lon="1.29823">
        <ele>144</ele>
        <time>2017-10-17T16:29:34Z</time>
      </trkpt>
      <trkpt lat="49.43491" lon="1.29816">
        <ele>144</ele>
        <time>2017-10-17T16:29:34Z</time>
      </trkpt>
      <trkpt lat="49.4349" lon="1.29809">
        <ele>144</ele>
        <time>2017-10-17T16:29:50Z</time>
      </trkpt>
      <trkpt lat="49.43489" lon="1.29803">
        <ele>144</ele>
        <time>2017-10-17T16:29:50Z</time>
      </trkpt>
      <trkpt lat="49.43488" lon="1.29796">
        <ele>144</ele>
        <time>2017-10-17T16:29:50Z</time>
      </trkpt>
      <trkpt lat="49.43487" lon="1.29789">
        <ele>145</ele>
        <time>2017-10-17T16:29:50Z</time>
      </trkpt>
      <trkpt lat="49.43486" lon="1.29782">
        <ele>145</ele>
        <time>2017-10-17T16:30:06Z</time>
      </trkpt>
      <trkpt lat="49.43484" lon="1.29776">
        <ele>145</ele>
        <time>2017-10-17T16:30:06Z</time>
      </trkpt>
      <trkpt lat="49.43483" lon="1.29769">
        <ele>145</ele>
        <time>2017-10-17T16:30:06Z</time>
      </trkpt>
      <trkpt lat="49.43482" lon="1.29763">
        <ele>145</ele>
        <time>2017-10-17T16:30:06Z</time>
      </trkpt>
      <trkpt lat="49.43481" lon="1.29756">
        <ele>145</ele>
        <time>2017-10-17T16:30:22Z</time>
      </trkpt>
      <trkpt lat="49.4348" lon="1.29749">
        <ele>145</ele>
        <time>2017-10-17T16:30:22Z</time>
      </trkpt>
      <trkpt lat="49.43479" lon="1.29744">
        <ele>145</ele>
        <time>2017-10-17T16:30:22Z</time>
      </trkpt>
      <trkpt lat="49.43477" lon="1.29735">
        <ele>145</ele>
        <time>2017-10-17T16:30:22Z</time>
      </trkpt>
      <trkpt lat="49.43476" lon="1.29728">
        <ele>145</ele>
        <time>2017-10-17T16:30:38Z</time>
      </trkpt>
      <trkpt lat="49.43475" lon="1.29722">
        <ele>145</ele>
        <time>2017-10-17T16:30:38Z</time>
      </trkpt>
      <trkpt lat="49.43474" lon="1.29716">
        <ele>145</ele>
        <time>2017-10-17T16:30:38Z</time>
      </trkpt>
      <trkpt lat="49.43473" lon="1.29708">
        <ele>147</ele>
        <time>2017-10-17T16:30:38Z</time>
      </trkpt>
      <trkpt lat="49.43472" lon="1.29701">
        <ele>147</ele>
        <time>2017-10-17T16:30:54Z</time>
      </trkpt>
      <trkpt lat="49.43471" lon="1.29694">
        <ele>147</ele>
        <time>2017-10-17T16:30:54Z</time>
      </trkpt>
      <trkpt lat="49.4347" lon="1.29689">
        <ele>147</ele>
        <time>2017-10-17T16:30:54Z</time>
      </trkpt>
      <trkpt lat="49.43469" lon="1.29682">
        <ele>147</ele>
        <time>2017-10-17T16:30:54Z</time>
      </trkpt>
      <trkpt lat="49.43467" lon="1.29673">
        <ele>147</ele>
        <time>2017-10-17T16:31:10Z</time>
      </trkpt>
      <trkpt lat="49.43466" lon="1.29666">
        <ele>147</ele>
        <time>2017-10-17T16:31:10Z</time>
      </trkpt>
      <trkpt lat="49.43465" lon="1.29659">
        <ele>147</ele>
        <time>2017-10-17T16:31:10Z</time>
      </trkpt>
      <trkpt lat="49.43464" lon="1.29652">
        <ele>147</ele>
        <time>2017-10-17T16:31:10Z</time>
      </trkpt>
      <trkpt lat="49.43463" lon="1.29645">
        <ele>147</ele>
        <time>2017-10-17T16:31:26Z</time>
      </trkpt>
      <trkpt lat="49.43462" lon="1.29638">
        <ele>147</ele>
        <time>2017-10-17T16:31:26Z</time>
      </trkpt>
      <trkpt lat="49.43461" lon="1.29631">
        <ele>147</ele>
        <time>2017-10-17T16:31:26Z</time>
      </trkpt>
      <trkpt lat="49.43461" lon="1.29624">
        <ele>148</ele>
        <time>2017-10-17T16:31:26Z</time>
      </trkpt>
      <trkpt lat="49.4346" lon="1.29617">
        <ele>148</ele>
        <time>2017-10-17T16:31:42Z</time>
      </trkpt>
      <trkpt lat="49.4346" lon="1.2961">
        <ele>148</ele>
        <time>2017-10-17T16:31:42Z</time>
      </trkpt>
      <trkpt lat="49.43459" lon="1.29603">
        <ele>148</ele>
        <time>2017-10-17T16:31:42Z</time>
      </trkpt>
      <trkpt lat="49.43458" lon="1.29596">
        <ele>148</ele>
        <time>2017-10-17T16:31:42Z</time>
      </trkpt>
      <trkpt lat="49.43458" lon="1.29589">
        <ele>148</ele>
        <time>2017-10-17T16:31:58Z</time>
      </trkpt>
      <trkpt lat="49.43458" lon="1.29582">
        <ele>148</ele>
        <time>2017-10-17T16:31:58Z</time>
      </trkpt>
      <trkpt lat="49.43458" lon="1.29575">
        <ele>148</ele>
        <time>2017-10-17T16:31:58Z</time>
      </trkpt>
      <trkpt lat="49.43458" lon="1.29568">
        <ele>148</ele>
        <time>2017-10-17T16:31:58Z</time>
      </trkpt>
      <trkpt lat="49.43457" lon="1.29561">
        <ele>148</ele>
        <time>2017-10-17T16:32:14Z</time>
      </trkpt>
      <trkpt lat="49.43457" lon="1.29554">
        <ele>148</ele>
        <time>2017-10-17T16:32:14Z</time>
      </trkpt>
      <trkpt lat="49.43456" lon="1.29547">
        <ele>148</ele>
        <time>2017-10-17T16:32:14Z</time>
      </trkpt>
      <trkpt lat="49.43455" lon="1.29541">
        <ele>150</ele>
        <time>2017-10-17T16:32:14Z</time>
      </trkpt>
      <trkpt lat="49.43455" lon="1.29534">
        <ele>150</ele>
        <time>2017-10-17T16:32:30Z</time>
      </trkpt>
      <trkpt lat="49.43455" lon="1.29527">
        <ele>150</ele>
        <time>2017-10-17T16:32:30Z</time>
      </trkpt>
      <trkpt lat="49.43454" lon="1.2952">
        <ele>150</ele>
        <time>2017-10-17T16:32:30Z</time>
      </trkpt>
      <trkpt lat="49.43453" lon="1.29513">
        <ele>150</ele>
        <time>2017-10-17T16:32:30Z</time>
      </trkpt>
      <trkpt lat="49.43453" lon="1.29507">
        <ele>150</ele>
        <time>2017-10-17T16:32:46Z</time>
      </trkpt>
      <trkpt lat="49.43453" lon="1.295">
        <ele>150</ele>
        <time>2017-10-17T16:32:46Z</time>
      </trkpt>
      <trkpt lat="49.43452" lon="1.29494">
        <ele>150</ele>
        <time>2017-10-17T16:32:46Z</time>
      </trkpt>
      <trkpt lat="49.43451" lon="1.29487">
        <ele>150</ele>
        <time>2017-10-17T16:32:46Z</time>
      </trkpt>
      <trkpt lat="49.4345" lon="1.29481">
        <ele>150</ele>
        <time>2017-10-17T16:33:02Z</time>
      </trkpt>
      <trkpt lat="49.43449" lon="1.29475">
        <ele>150</ele>
        <time>2017-10-17T16:33:02Z</time>
      </trkpt>
      <trkpt lat="49.43448" lon="1.2947">
        <ele>150</ele>
        <time>2017-10-17T16:33:02Z</time>
      </trkpt>
      <trkpt lat="49.43448" lon="1.29464">
        <ele>150</ele>
        <time>2017-10-17T16:33:02Z</time>
      </trkpt>
      <trkpt lat="49.43448" lon="1.29456">
        <ele>150</ele>
        <time>2017-10-17T16:33:18Z</time>
      </trkpt>
      <trkpt lat="49.43447" lon="1.29452">
        <ele>150</ele>
        <time>2017-10-17T16:33:18Z</time>
      </trkpt>
      <trkpt lat="49.43447" lon="1.29445">
        <ele>150</ele>
        <time>2017-10-17T16:33:18Z</time>
      </trkpt>
      <trkpt lat="49.43445" lon="1.29438">
        <ele>150</ele>
        <time>2017-10-17T16:33:18Z</time>
      </trkpt>
      <trkpt lat="49.43444" lon="1.29433">
        <ele>150</ele>
        <time>2017-10-17T16:33:34Z</time>
      </trkpt>
      <trkpt lat="49.43442" lon="1.29426">
        <ele>150</ele>
        <time>2017-10-17T16:33:34Z</time>
      </trkpt>
      <trkpt lat="49.43441" lon="1.2942">
        <ele>150</ele>
        <time>2017-10-17T16:33:34Z</time>
      </trkpt>
      <trkpt lat="49.4344" lon="1.29414">
        <ele>150</ele>
        <time>2017-10-17T16:33:34Z</time>
      </trkpt>
      <trkpt lat="49.43438" lon="1.29407">
        <ele>150</ele>
        <time>2017-10-17T16:38:02Z</time>
      </trkpt>
      <trkpt lat="49.43437" lon="1.29406">
        <ele>150</ele>
        <time>2017-10-17T16:38:02Z</time>
      </trkpt>
      <trkpt lat="49.43437" lon="1.29405">
        <ele>150</ele>
        <time>2017-10-17T16:38:02Z</time>
      </trkpt>
      <trkpt lat="49.43437" lon="1.29398">
        <ele>150</ele>
        <time>2017-10-17T16:38:02Z</time>
      </trkpt>
      <trkpt lat="49.43435" lon="1.29395">
        <ele>150</ele>
        <time>2017-10-17T16:38:02Z</time>
      </trkpt>
      <trkpt lat="49.43431" lon="1.29392">
        <ele>150</ele>
        <time>2017-10-17T16:38:18Z</time>
      </trkpt>
      <trkpt lat="49.43428" lon="1.29389">
        <ele>150</ele>
        <time>2017-10-17T16:38:18Z</time>
      </trkpt>
      <trkpt lat="49.43424" lon="1.29386">
        <ele>150</ele>
        <time>2017-10-17T16:38:18Z</time>
      </trkpt>
      <trkpt lat="49.43421" lon="1.29386">
        <ele>150</ele>
        <time>2017-10-17T16:38:18Z</time>
      </trkpt>
      <trkpt lat="49.43416" lon="1.29385">
        <ele>150</ele>
        <time>2017-10-17T16:38:34Z</time>
      </trkpt>
      <trkpt lat="49.43412" lon="1.29382">
        <ele>150</ele>
        <time>2017-10-17T16:38:34Z</time>
      </trkpt>
      <trkpt lat="49.43412" lon="1.29375">
        <ele>150</ele>
        <time>2017-10-17T16:38:34Z</time>
      </trkpt>
      <trkpt lat="49.43412" lon="1.29368">
        <ele>150</ele>
        <time>2017-10-17T16:38:34Z</time>
      </trkpt>
      <trkpt lat="49.43413" lon="1.29361">
        <ele>150</ele>
        <time>2017-10-17T16:38:50Z</time>
      </trkpt>
      <trkpt lat="49.43412" lon="1.29355">
        <ele>150</ele>
        <time>2017-10-17T16:38:50Z</time>
      </trkpt>
      <trkpt lat="49.43412" lon="1.29349">
        <ele>150</ele>
        <time>2017-10-17T16:38:50Z</time>
      </trkpt>
      <trkpt lat="49.43413" lon="1.29344">
        <ele>150</ele>
        <time>2017-10-17T16:38:50Z</time>
      </trkpt>
      <trkpt lat="49.43412" lon="1.29339">
        <ele>150</ele>
        <time>2017-10-17T16:39:06Z</time>
      </trkpt>
      <trkpt lat="49.43411" lon="1.29333">
        <ele>150</ele>
        <time>2017-10-17T16:39:06Z</time>
      </trkpt>
      <trkpt lat="49.4341" lon="1.29329">
        <ele>150</ele>
        <time>2017-10-17T16:39:06Z</time>
      </trkpt>
      <trkpt lat="49.43408" lon="1.29323">
        <ele>150</ele>
        <time>2017-10-17T16:39:06Z</time>
      </trkpt>
      <trkpt lat="49.43407" lon="1.29316">
        <ele>150</ele>
        <time>2017-10-17T16:39:22Z</time>
      </trkpt>
      <trkpt lat="49.43407" lon="1.29309">
        <ele>150</ele>
        <time>2017-10-17T16:39:22Z</time>
      </trkpt>
      <trkpt lat="49.43406" lon="1.29303">
        <ele>150</ele>
        <time>2017-10-17T16:39:22Z</time>
      </trkpt>
      <trkpt lat="49.43406" lon="1.29296">
        <ele>150</ele>
        <time>2017-10-17T16:39:22Z</time>
      </trkpt>
      <trkpt lat="49.43405" lon="1.29288">
        <ele>151</ele>
        <time>2017-10-17T16:39:38Z</time>
      </trkpt>
      <trkpt lat="49.43405" lon="1.29281">
        <ele>151</ele>
        <time>2017-10-17T16:39:38Z</time>
      </trkpt>
      <trkpt lat="49.43403" lon="1.29274">
        <ele>151</ele>
        <time>2017-10-17T16:39:38Z</time>
      </trkpt>
      <trkpt lat="49.43403" lon="1.29267">
        <ele>151</ele>
        <time>2017-10-17T16:39:38Z</time>
      </trkpt>
      <trkpt lat="49.43404" lon="1.2926">
        <ele>151</ele>
        <time>2017-10-17T16:39:54Z</time>
      </trkpt>
      <trkpt lat="49.43403" lon="1.29254">
        <ele>151</ele>
        <time>2017-10-17T16:39:54Z</time>
      </trkpt>
      <trkpt lat="49.43398" lon="1.29253">
        <ele>151</ele>
        <time>2017-10-17T16:39:54Z</time>
      </trkpt>
      <trkpt lat="49.43394" lon="1.29253">
        <ele>151</ele>
        <time>2017-10-17T16:39:54Z</time>
      </trkpt>
      <trkpt lat="49.43391" lon="1.29247">
        <ele>151</ele>
        <time>2017-10-17T16:40:10Z</time>
      </trkpt>
      <trkpt lat="49.4339" lon="1.2924">
        <ele>151</ele>
        <time>2017-10-17T16:40:10Z</time>
      </trkpt>
      <trkpt lat="49.43389" lon="1.29233">
        <ele>151</ele>
        <time>2017-10-17T16:40:10Z</time>
      </trkpt>
      <trkpt lat="49.43389" lon="1.29226">
        <ele>151</ele>
        <time>2017-10-17T16:40:10Z</time>
      </trkpt>
      <trkpt lat="49.43389" lon="1.2922">
        <ele>151</ele>
        <time>2017-10-17T16:40:26Z</time>
      </trkpt>
      <trkpt lat="49.43389" lon="1.29214">
        <ele>151</ele>
        <time>2017-10-17T16:40:26Z</time>
      </trkpt>
      <trkpt lat="49.43388" lon="1.29207">
        <ele>150</ele>
        <time>2017-10-17T16:40:26Z</time>
      </trkpt>
      <trkpt lat="49.43388" lon="1.29201">
        <ele>150</ele>
        <time>2017-10-17T16:40:26Z</time>
      </trkpt>
      <trkpt lat="49.43392" lon="1.29187">
        <ele>150</ele>
        <time>2017-10-17T16:40:54Z</time>
      </trkpt>
      <trkpt lat="49.43392" lon="1.29186">
        <ele>150</ele>
        <time>2017-10-17T16:40:54Z</time>
      </trkpt>
      <trkpt lat="49.43392" lon="1.29185">
        <ele>150</ele>
        <time>2017-10-17T16:40:54Z</time>
      </trkpt>
      <trkpt lat="49.43393" lon="1.29184">
        <ele>150</ele>
        <time>2017-10-17T16:40:54Z</time>
      </trkpt>
      <trkpt lat="49.43393" lon="1.29181">
        <ele>150</ele>
        <time>2017-10-17T16:40:54Z</time>
      </trkpt>
      <trkpt lat="49.43396" lon="1.29173">
        <ele>150</ele>
        <time>2017-10-17T16:41:54Z</time>
      </trkpt>
      <trkpt lat="49.43396" lon="1.29172">
        <ele>150</ele>
        <time>2017-10-17T16:41:54Z</time>
      </trkpt>
      <trkpt lat="49.43394" lon="1.29165">
        <ele>150</ele>
        <time>2017-10-17T16:41:54Z</time>
      </trkpt>
      <trkpt lat="49.43394" lon="1.29159">
        <ele>150</ele>
        <time>2017-10-17T16:41:54Z</time>
      </trkpt>
      <trkpt lat="49.43395" lon="1.29153">
        <ele>150</ele>
        <time>2017-10-17T16:41:54Z</time>
      </trkpt>
      <trkpt lat="49.43395" lon="1.29146">
        <ele>150</ele>
        <time>2017-10-17T16:42:10Z</time>
      </trkpt>
      <trkpt lat="49.43396" lon="1.2914">
        <ele>150</ele>
        <time>2017-10-17T16:42:10Z</time>
      </trkpt>
      <trkpt lat="49.43396" lon="1.29134">
        <ele>150</ele>
        <time>2017-10-17T16:42:10Z</time>
      </trkpt>
      <trkpt lat="49.43396" lon="1.29129">
        <ele>150</ele>
        <time>2017-10-17T16:42:10Z</time>
      </trkpt>
      <trkpt lat="49.43397" lon="1.29123">
        <ele>147</ele>
        <time>2017-10-17T16:42:26Z</time>
      </trkpt>
      <trkpt lat="49.43397" lon="1.29117">
        <ele>147</ele>
        <time>2017-10-17T16:42:26Z</time>
      </trkpt>
      <trkpt lat="49.43398" lon="1.2911">
        <ele>147</ele>
        <time>2017-10-17T16:42:26Z</time>
      </trkpt>
      <trkpt lat="49.43399" lon="1.29103">
        <ele>147</ele>
        <time>2017-10-17T16:42:26Z</time>
      </trkpt>
      <trkpt lat="49.434" lon="1.29097">
        <ele>147</ele>
        <time>2017-10-17T16:42:42Z</time>
      </trkpt>
      <trkpt lat="49.43401" lon="1.2909">
        <ele>147</ele>
        <time>2017-10-17T16:42:42Z</time>
      </trkpt>
      <trkpt lat="49.43402" lon="1.29083">
        <ele>147</ele>
        <time>2017-10-17T16:42:42Z</time>
      </trkpt>
      <trkpt lat="49.43403" lon="1.29076">
        <ele>147</ele>
        <time>2017-10-17T16:42:42Z</time>
      </trkpt>
      <trkpt lat="49.43403" lon="1.29069">
        <ele>147</ele>
        <time>2017-10-17T16:42:58Z</time>
      </trkpt>
      <trkpt lat="49.43404" lon="1.29062">
        <ele>147</ele>
        <time>2017-10-17T16:42:58Z</time>
      </trkpt>
      <trkpt lat="49.43405" lon="1.29055">
        <ele>147</ele>
        <time>2017-10-17T16:42:58Z</time>
      </trkpt>
      <trkpt lat="49.43405" lon="1.29048">
        <ele>147</ele>
        <time>2017-10-17T16:42:58Z</time>
      </trkpt>
      <trkpt lat="49.43406" lon="1.29041">
        <ele>146</ele>
        <time>2017-10-17T16:43:14Z</time>
      </trkpt>
      <trkpt lat="49.43407" lon="1.29034">
        <ele>146</ele>
        <time>2017-10-17T16:43:14Z</time>
      </trkpt>
      <trkpt lat="49.43408" lon="1.29027">
        <ele>146</ele>
        <time>2017-10-17T16:43:14Z</time>
      </trkpt>
      <trkpt lat="49.43409" lon="1.2902">
        <ele>146</ele>
        <time>2017-10-17T16:43:14Z</time>
      </trkpt>
      <trkpt lat="49.4341" lon="1.29013">
        <ele>146</ele>
        <time>2017-10-17T16:43:30Z</time>
      </trkpt>
      <trkpt lat="49.4341" lon="1.29006">
        <ele>146</ele>
        <time>2017-10-17T16:43:30Z</time>
      </trkpt>
      <trkpt lat="49.43411" lon="1.28999">
        <ele>146</ele>
        <time>2017-10-17T16:43:30Z</time>
      </trkpt>
      <trkpt lat="49.43412" lon="1.28992">
        <ele>146</ele>
        <time>2017-10-17T16:43:30Z</time>
      </trkpt>
      <trkpt lat="49.43413" lon="1.28987">
        <ele>146</ele>
        <time>2017-10-17T16:43:46Z</time>
      </trkpt>
      <trkpt lat="49.43414" lon="1.28978">
        <ele>146</ele>
        <time>2017-10-17T16:43:46Z</time>
      </trkpt>
      <trkpt lat="49.43414" lon="1.28973">
        <ele>146</ele>
        <time>2017-10-17T16:43:46Z</time>
      </trkpt>
      <trkpt lat="49.43416" lon="1.28965">
        <ele>146</ele>
        <time>2017-10-17T16:43:46Z</time>
      </trkpt>
      <trkpt lat="49.43418" lon="1.28959">
        <ele>146</ele>
        <time>2017-10-17T16:44:02Z</time>
      </trkpt>
      <trkpt lat="49.43419" lon="1.28953">
        <ele>145</ele>
        <time>2017-10-17T16:44:02Z</time>
      </trkpt>
      <trkpt lat="49.4342" lon="1.28947">
        <ele>145</ele>
        <time>2017-10-17T16:44:02Z</time>
      </trkpt>
      <trkpt lat="49.43421" lon="1.2894">
        <ele>145</ele>
        <time>2017-10-17T16:44:02Z</time>
      </trkpt>
      <trkpt lat="49.43423" lon="1.28934">
        <ele>145</ele>
        <time>2017-10-17T16:44:18Z</time>
      </trkpt>
      <trkpt lat="49.43424" lon="1.28927">
        <ele>145</ele>
        <time>2017-10-17T16:44:18Z</time>
      </trkpt>
      <trkpt lat="49.43425" lon="1.28921">
        <ele>145</ele>
        <time>2017-10-17T16:44:18Z</time>
      </trkpt>
      <trkpt lat="49.43427" lon="1.28914">
        <ele>145</ele>
        <time>2017-10-17T16:44:18Z</time>
      </trkpt>
      <trkpt lat="49.43428" lon="1.28908">
        <ele>145</ele>
        <time>2017-10-17T16:44:34Z</time>
      </trkpt>
      <trkpt lat="49.4343" lon="1.28901">
        <ele>145</ele>
        <time>2017-10-17T16:44:34Z</time>
      </trkpt>
      <trkpt lat="49.43431" lon="1.28896">
        <ele>145</ele>
        <time>2017-10-17T16:44:34Z</time>
      </trkpt>
      <trkpt lat="49.43432" lon="1.28887">
        <ele>145</ele>
        <time>2017-10-17T16:44:34Z</time>
      </trkpt>
      <trkpt lat="49.43434" lon="1.28881">
        <ele>145</ele>
        <time>2017-10-17T16:44:50Z</time>
      </trkpt>
      <trkpt lat="49.43435" lon="1.28874">
        <ele>144</ele>
        <time>2017-10-17T16:44:50Z</time>
      </trkpt>
      <trkpt lat="49.43437" lon="1.28868">
        <ele>144</ele>
        <time>2017-10-17T16:44:50Z</time>
      </trkpt>
      <trkpt lat="49.43439" lon="1.28861">
        <ele>144</ele>
        <time>2017-10-17T16:44:50Z</time>
      </trkpt>
      <trkpt lat="49.4344" lon="1.28854">
        <ele>144</ele>
        <time>2017-10-17T16:45:06Z</time>
      </trkpt>
      <trkpt lat="49.43442" lon="1.28848">
        <ele>144</ele>
        <time>2017-10-17T16:45:06Z</time>
      </trkpt>
      <trkpt lat="49.43443" lon="1.28841">
        <ele>144</ele>
        <time>2017-10-17T16:45:06Z</time>
      </trkpt>
      <trkpt lat="49.43445" lon="1.28834">
        <ele>144</ele>
        <time>2017-10-17T16:45:06Z</time>
      </trkpt>
      <trkpt lat="49.43446" lon="1.28828">
        <ele>144</ele>
        <time>2017-10-17T16:45:22Z</time>
      </trkpt>
      <trkpt lat="49.43448" lon="1.28821">
        <ele>144</ele>
        <time>2017-10-17T16:45:22Z</time>
      </trkpt>
      <trkpt lat="49.43449" lon="1.28814">
        <ele>144</ele>
        <time>2017-10-17T16:45:22Z</time>
      </trkpt>
      <trkpt lat="49.43451" lon="1.28808">
        <ele>144</ele>
        <time>2017-10-17T16:45:22Z</time>
      </trkpt>
      <trkpt lat="49.43452" lon="1.28801">
        <ele>144</ele>
        <time>2017-10-17T16:45:38Z</time>
      </trkpt>
      <trkpt lat="49.43454" lon="1.28793">
        <ele>144</ele>
        <time>2017-10-17T16:45:38Z</time>
      </trkpt>
      <trkpt lat="49.43455" lon="1.28788">
        <ele>145</ele>
        <time>2017-10-17T16:45:38Z</time>
      </trkpt>
      <trkpt lat="49.43457" lon="1.28778">
        <ele>145</ele>
        <time>2017-10-17T16:45:38Z</time>
      </trkpt>
      <trkpt lat="49.43458" lon="1.28771">
        <ele>145</ele>
        <time>2017-10-17T16:45:54Z</time>
      </trkpt>
      <trkpt lat="49.4346" lon="1.28765">
        <ele>146</ele>
        <time>2017-10-17T16:45:54Z</time>
      </trkpt>
      <trkpt lat="49.43462" lon="1.28759">
        <ele>146</ele>
        <time>2017-10-17T16:45:54Z</time>
      </trkpt>
      <trkpt lat="49.43464" lon="1.28752">
        <ele>146</ele>
        <time>2017-10-17T16:45:54Z</time>
      </trkpt>
      <trkpt lat="49.43465" lon="1.28745">
        <ele>146</ele>
        <time>2017-10-17T16:46:10Z</time>
      </trkpt>
      <trkpt lat="49.43467" lon="1.28738">
        <ele>146</ele>
        <time>2017-10-17T16:46:10Z</time>
      </trkpt>
      <trkpt lat="49.43468" lon="1.28732">
        <ele>146</ele>
        <time>2017-10-17T16:46:10Z</time>
      </trkpt>
      <trkpt lat="49.4347" lon="1.28725">
        <ele>146</ele>
        <time>2017-10-17T16:46:10Z</time>
      </trkpt>
      <trkpt lat="49.43471" lon="1.28718">
        <ele>146</ele>
        <time>2017-10-17T16:46:26Z</time>
      </trkpt>
      <trkpt lat="49.43473" lon="1.28711">
        <ele>146</ele>
        <time>2017-10-17T16:46:26Z</time>
      </trkpt>
      <trkpt lat="49.43474" lon="1.28705">
        <ele>145</ele>
        <time>2017-10-17T16:46:26Z</time>
      </trkpt>
      <trkpt lat="49.43476" lon="1.28698">
        <ele>145</ele>
        <time>2017-10-17T16:46:26Z</time>
      </trkpt>
      <trkpt lat="49.43477" lon="1.28693">
        <ele>145</ele>
        <time>2017-10-17T16:46:42Z</time>
      </trkpt>
      <trkpt lat="49.43479" lon="1.28687">
        <ele>145</ele>
        <time>2017-10-17T16:46:42Z</time>
      </trkpt>
      <trkpt lat="49.43481" lon="1.28678">
        <ele>145</ele>
        <time>2017-10-17T16:46:42Z</time>
      </trkpt>
      <trkpt lat="49.43483" lon="1.28671">
        <ele>145</ele>
        <time>2017-10-17T16:46:42Z</time>
      </trkpt>
      <trkpt lat="49.43485" lon="1.28665">
        <ele>145</ele>
        <time>2017-10-17T16:46:58Z</time>
      </trkpt>
      <trkpt lat="49.43486" lon="1.28659">
        <ele>145</ele>
        <time>2017-10-17T16:46:58Z</time>
      </trkpt>
      <trkpt lat="49.43488" lon="1.28652">
        <ele>145</ele>
        <time>2017-10-17T16:46:58Z</time>
      </trkpt>
      <trkpt lat="49.43489" lon="1.28646">
        <ele>145</ele>
        <time>2017-10-17T16:46:58Z</time>
      </trkpt>
      <trkpt lat="49.4349" lon="1.28639">
        <ele>145</ele>
        <time>2017-10-17T16:47:14Z</time>
      </trkpt>
      <trkpt lat="49.43489" lon="1.28634">
        <ele>145</ele>
        <time>2017-10-17T16:47:14Z</time>
      </trkpt>
      <trkpt lat="49.43487" lon="1.28628">
        <ele>145</ele>
        <time>2017-10-17T16:47:14Z</time>
      </trkpt>
      <trkpt lat="49.43483" lon="1.28624">
        <ele>147</ele>
        <time>2017-10-17T16:47:14Z</time>
      </trkpt>
      <trkpt lat="49.4348" lon="1.28621">
        <ele>147</ele>
        <time>2017-10-17T16:47:30Z</time>
      </trkpt>
      <trkpt lat="49.43476" lon="1.28617">
        <ele>147</ele>
        <time>2017-10-17T16:47:30Z</time>
      </trkpt>
      <trkpt lat="49.43473" lon="1.28614">
        <ele>147</ele>
        <time>2017-10-17T16:47:30Z</time>
      </trkpt>
      <trkpt lat="49.4347" lon="1.28611">
        <ele>147</ele>
        <time>2017-10-17T16:47:30Z</time>
      </trkpt>
      <trkpt lat="49.43467" lon="1.28608">
        <ele>147</ele>
        <time>2017-10-17T16:47:46Z</time>
      </trkpt>
      <trkpt lat="49.43463" lon="1.28604">
        <ele>147</ele>
        <time>2017-10-17T16:47:46Z</time>
      </trkpt>
      <trkpt lat="49.43459" lon="1.28601">
        <ele>147</ele>
        <time>2017-10-17T16:47:46Z</time>
      </trkpt>
      <trkpt lat="49.43455" lon="1.28598">
        <ele>146</ele>
        <time>2017-10-17T16:47:46Z</time>
      </trkpt>
      <trkpt lat="49.43451" lon="1.28594">
        <ele>146</ele>
        <time>2017-10-17T16:48:02Z</time>
      </trkpt>
      <trkpt lat="49.43447" lon="1.28591">
        <ele>146</ele>
        <time>2017-10-17T16:48:02Z</time>
      </trkpt>
      <trkpt lat="49.43443" lon="1.28588">
        <ele>146</ele>
        <time>2017-10-17T16:48:02Z</time>
      </trkpt>
      <trkpt lat="49.43439" lon="1.28584">
        <ele>146</ele>
        <time>2017-10-17T16:48:02Z</time>
      </trkpt>
      <trkpt lat="49.43435" lon="1.28581">
        <ele>146</ele>
        <time>2017-10-17T16:48:18Z</time>
      </trkpt>
      <trkpt lat="49.43431" lon="1.28578">
        <ele>146</ele>
        <time>2017-10-17T16:48:18Z</time>
      </trkpt>
      <trkpt lat="49.43427" lon="1.28574">
        <ele>146</ele>
        <time>2017-10-17T16:48:18Z</time>
      </trkpt>
      <trkpt lat="49.43424" lon="1.28571">
        <ele>146</ele>
        <time>2017-10-17T16:48:18Z</time>
      </trkpt>
      <trkpt lat="49.43419" lon="1.28567">
        <ele>146</ele>
        <time>2017-10-17T16:48:34Z</time>
      </trkpt>
      <trkpt lat="49.43416" lon="1.28565">
        <ele>146</ele>
        <time>2017-10-17T16:48:34Z</time>
      </trkpt>
      <trkpt lat="49.43411" lon="1.28561">
        <ele>146</ele>
        <time>2017-10-17T16:48:34Z</time>
      </trkpt>
      <trkpt lat="49.43407" lon="1.28557">
        <ele>146</ele>
        <time>2017-10-17T16:48:34Z</time>
      </trkpt>
      <trkpt lat="49.43402" lon="1.28553">
        <ele>146</ele>
        <time>2017-10-17T16:48:50Z</time>
      </trkpt>
      <trkpt lat="49.43398" lon="1.2855">
        <ele>146</ele>
        <time>2017-10-17T16:48:50Z</time>
      </trkpt>
      <trkpt lat="49.43394" lon="1.28546">
        <ele>146</ele>
        <time>2017-10-17T16:48:50Z</time>
      </trkpt>
      <trkpt lat="49.4339" lon="1.28543">
        <ele>146</ele>
        <time>2017-10-17T16:48:50Z</time>
      </trkpt>
      <trkpt lat="49.43386" lon="1.2854">
        <ele>146</ele>
        <time>2017-10-17T16:49:06Z</time>
      </trkpt>
      <trkpt lat="49.43382" lon="1.28537">
        <ele>146</ele>
        <time>2017-10-17T16:49:06Z</time>
      </trkpt>
      <trkpt lat="49.43378" lon="1.28533">
        <ele>146</ele>
        <time>2017-10-17T16:49:06Z</time>
      </trkpt>
      <trkpt lat="49.43374" lon="1.28529">
        <ele>146</ele>
        <time>2017-10-17T16:49:06Z</time>
      </trkpt>
      <trkpt lat="49.43371" lon="1.28527">
        <ele>146</ele>
        <time>2017-10-17T16:49:22Z</time>
      </trkpt>
      <trkpt lat="49.43367" lon="1.28523">
        <ele>146</ele>
        <time>2017-10-17T16:49:22Z</time>
      </trkpt>
      <trkpt lat="49.43362" lon="1.28519">
        <ele>146</ele>
        <time>2017-10-17T16:49:22Z</time>
      </trkpt>
      <trkpt lat="49.43358" lon="1.28516">
        <ele>146</ele>
        <time>2017-10-17T16:49:22Z</time>
      </trkpt>
      <trkpt lat="49.43354" lon="1.28512">
        <ele>146</ele>
        <time>2017-10-17T16:49:38Z</time>
      </trkpt>
      <trkpt lat="49.43351" lon="1.2851">
        <ele>146</ele>
        <time>2017-10-17T16:49:38Z</time>
      </trkpt>
      <trkpt lat="49.43346" lon="1.28505">
        <ele>146</ele>
        <time>2017-10-17T16:49:38Z</time>
      </trkpt>
      <trkpt lat="49.43341" lon="1.28502">
        <ele>146</ele>
        <time>2017-10-17T16:49:38Z</time>
      </trkpt>
      <trkpt lat="49.43337" lon="1.28499">
        <ele>146</ele>
        <time>2017-10-17T16:49:54Z</time>
      </trkpt>
      <trkpt lat="49.43333" lon="1.28496">
        <ele>146</ele>
        <time>2017-10-17T16:49:54Z</time>
      </trkpt>
      <trkpt lat="49.43329" lon="1.28493">
        <ele>146</ele>
        <time>2017-10-17T16:49:54Z</time>
      </trkpt>
      <trkpt lat="49.43325" lon="1.28489">
        <ele>146</ele>
        <time>2017-10-17T16:49:54Z</time>
      </trkpt>
      <trkpt lat="49.43322" lon="1.28486">
        <ele>146</ele>
        <time>2017-10-17T16:50:10Z</time>
      </trkpt>
      <trkpt lat="49.43317" lon="1.28482">
        <ele>146</ele>
        <time>2017-10-17T16:50:10Z</time>
      </trkpt>
      <trkpt lat="49.43314" lon="1.28479">
        <ele>146</ele>
        <time>2017-10-17T16:50:10Z</time>
      </trkpt>
      <trkpt lat="49.4331" lon="1.28476">
        <ele>146</ele>
        <time>2017-10-17T16:50:10Z</time>
      </trkpt>
      <trkpt lat="49.43305" lon="1.28472">
        <ele>146</ele>
        <time>2017-10-17T16:50:26Z</time>
      </trkpt>
      <trkpt lat="49.433" lon="1.28467">
        <ele>146</ele>
        <time>2017-10-17T16:50:26Z</time>
      </trkpt>
      <trkpt lat="49.43296" lon="1.28464">
        <ele>146</ele>
        <time>2017-10-17T16:50:26Z</time>
      </trkpt>
      <trkpt lat="49.43292" lon="1.2846">
        <ele>146</ele>
        <time>2017-10-17T16:50:26Z</time>
      </trkpt>
      <trkpt lat="49.43289" lon="1.28457">
        <ele>146</ele>
        <time>2017-10-17T16:50:42Z</time>
      </trkpt>
      <trkpt lat="49.43285" lon="1.28454">
        <ele>146</ele>
        <time>2017-10-17T16:50:42Z</time>
      </trkpt>
      <trkpt lat="49.4328" lon="1.2845">
        <ele>146</ele>
        <time>2017-10-17T16:50:42Z</time>
      </trkpt>
      <trkpt lat="49.43276" lon="1.28446">
        <ele>146</ele>
        <time>2017-10-17T16:50:42Z</time>
      </trkpt>
      <trkpt lat="49.43272" lon="1.28443">
        <ele>146</ele>
        <time>2017-10-17T16:50:58Z</time>
      </trkpt>
      <trkpt lat="49.43269" lon="1.2844">
        <ele>146</ele>
        <time>2017-10-17T16:50:58Z</time>
      </trkpt>
      <trkpt lat="49.43264" lon="1.28436">
        <ele>146</ele>
        <time>2017-10-17T16:50:58Z</time>
      </trkpt>
      <trkpt lat="49.43259" lon="1.28432">
        <ele>146</ele>
        <time>2017-10-17T16:50:58Z</time>
      </trkpt>
      <trkpt lat="49.43255" lon="1.28429">
        <ele>146</ele>
        <time>2017-10-17T16:51:14Z</time>
      </trkpt>
      <trkpt lat="49.43251" lon="1.28425">
        <ele>146</ele>
        <time>2017-10-17T16:51:14Z</time>
      </trkpt>
      <trkpt lat="49.43247" lon="1.28422">
        <ele>146</ele>
        <time>2017-10-17T16:51:14Z</time>
      </trkpt>
      <trkpt lat="49.43244" lon="1.28419">
        <ele>146</ele>
        <time>2017-10-17T16:51:14Z</time>
      </trkpt>
      <trkpt lat="49.43239" lon="1.28415">
        <ele>146</ele>
        <time>2017-10-17T16:51:30Z</time>
      </trkpt>
      <trkpt lat="49.43235" lon="1.28412">
        <ele>146</ele>
        <time>2017-10-17T16:51:30Z</time>
      </trkpt>
      <trkpt lat="49.43232" lon="1.28409">
        <ele>146</ele>
        <time>2017-10-17T16:51:30Z</time>
      </trkpt>
      <trkpt lat="49.43227" lon="1.28404">
        <ele>146</ele>
        <time>2017-10-17T16:51:30Z</time>
      </trkpt>
      <trkpt lat="49.43222" lon="1.284">
        <ele>146</ele>
        <time>2017-10-17T16:51:46Z</time>
      </trkpt>
      <trkpt lat="49.43218" lon="1.28397">
        <ele>146</ele>
        <time>2017-10-17T16:51:46Z</time>
      </trkpt>
      <trkpt lat="49.43214" lon="1.28394">
        <ele>146</ele>
        <time>2017-10-17T16:51:46Z</time>
      </trkpt>
      <trkpt lat="49.4321" lon="1.2839">
        <ele>146</ele>
        <time>2017-10-17T16:51:46Z</time>
      </trkpt>
      <trkpt lat="49.43206" lon="1.28387">
        <ele>148</ele>
        <time>2017-10-17T16:52:02Z</time>
      </trkpt>
      <trkpt lat="49.43202" lon="1.28383">
        <ele>148</ele>
        <time>2017-10-17T16:52:02Z</time>
      </trkpt>
      <trkpt lat="49.43199" lon="1.28381">
        <ele>148</ele>
        <time>2017-10-17T16:52:02Z</time>
      </trkpt>
      <trkpt lat="49.43194" lon="1.28377">
        <ele>148</ele>
        <time>2017-10-17T16:52:02Z</time>
      </trkpt>
      <trkpt lat="49.43191" lon="1.28374">
        <ele>148</ele>
        <time>2017-10-17T16:52:18Z</time>
      </trkpt>
      <trkpt lat="49.43186" lon="1.28371">
        <ele>148</ele>
        <time>2017-10-17T16:52:18Z</time>
      </trkpt>
      <trkpt lat="49.43181" lon="1.28366">
        <ele>148</ele>
        <time>2017-10-17T16:52:18Z</time>
      </trkpt>
      <trkpt lat="49.43177" lon="1.28363">
        <ele>148</ele>
        <time>2017-10-17T16:52:18Z</time>
      </trkpt>
      <trkpt lat="49.43174" lon="1.2836">
        <ele>148</ele>
        <time>2017-10-17T16:52:34Z</time>
      </trkpt>
      <trkpt lat="49.43169" lon="1.28355">
        <ele>148</ele>
        <time>2017-10-17T16:52:34Z</time>
      </trkpt>
      <trkpt lat="49.43165" lon="1.28352">
        <ele>148</ele>
        <time>2017-10-17T16:52:34Z</time>
      </trkpt>
      <trkpt lat="49.43161" lon="1.28348">
        <ele>148</ele>
        <time>2017-10-17T16:52:34Z</time>
      </trkpt>
      <trkpt lat="49.43157" lon="1.28345">
        <ele>148</ele>
        <time>2017-10-17T16:52:50Z</time>
      </trkpt>
      <trkpt lat="49.43153" lon="1.28341">
        <ele>148</ele>
        <time>2017-10-17T16:52:50Z</time>
      </trkpt>
      <trkpt lat="49.43148" lon="1.28338">
        <ele>148</ele>
        <time>2017-10-17T16:52:50Z</time>
      </trkpt>
      <trkpt lat="49.43144" lon="1.28335">
        <ele>148</ele>
        <time>2017-10-17T16:52:50Z</time>
      </trkpt>
      <trkpt lat="49.43141" lon="1.28332">
        <ele>148</ele>
        <time>2017-10-17T16:53:06Z</time>
      </trkpt>
      <trkpt lat="49.43137" lon="1.28328">
        <ele>148</ele>
        <time>2017-10-17T16:53:06Z</time>
      </trkpt>
      <trkpt lat="49.43132" lon="1.28325">
        <ele>148</ele>
        <time>2017-10-17T16:53:06Z</time>
      </trkpt>
      <trkpt lat="49.43128" lon="1.28322">
        <ele>148</ele>
        <time>2017-10-17T16:53:06Z</time>
      </trkpt>
      <trkpt lat="49.43123" lon="1.28318">
        <ele>149</ele>
        <time>2017-10-17T16:53:22Z</time>
      </trkpt>
      <trkpt lat="49.4312" lon="1.28315">
        <ele>149</ele>
        <time>2017-10-17T16:53:22Z</time>
      </trkpt>
      <trkpt lat="49.43114" lon="1.28311">
        <ele>149</ele>
        <time>2017-10-17T16:53:22Z</time>
      </trkpt>
      <trkpt lat="49.43112" lon="1.28308">
        <ele>149</ele>
        <time>2017-10-17T16:53:22Z</time>
      </trkpt>
      <trkpt lat="49.43108" lon="1.28305">
        <ele>149</ele>
        <time>2017-10-17T16:53:38Z</time>
      </trkpt>
      <trkpt lat="49.43104" lon="1.28301">
        <ele>149</ele>
        <time>2017-10-17T16:53:38Z</time>
      </trkpt>
      <trkpt lat="49.43099" lon="1.28297">
        <ele>149</ele>
        <time>2017-10-17T16:53:38Z</time>
      </trkpt>
      <trkpt lat="49.43095" lon="1.28294">
        <ele>149</ele>
        <time>2017-10-17T16:53:38Z</time>
      </trkpt>
      <trkpt lat="49.4309" lon="1.2829">
        <ele>150</ele>
        <time>2017-10-17T16:53:54Z</time>
      </trkpt>
      <trkpt lat="49.43086" lon="1.28286">
        <ele>150</ele>
        <time>2017-10-17T16:53:54Z</time>
      </trkpt>
      <trkpt lat="49.43083" lon="1.28283">
        <ele>150</ele>
        <time>2017-10-17T16:53:54Z</time>
      </trkpt>
      <trkpt lat="49.43079" lon="1.2828">
        <ele>150</ele>
        <time>2017-10-17T16:53:54Z</time>
      </trkpt>
      <trkpt lat="49.43074" lon="1.28276">
        <ele>150</ele>
        <time>2017-10-17T16:54:10Z</time>
      </trkpt>
      <trkpt lat="49.4307" lon="1.28272">
        <ele>150</ele>
        <time>2017-10-17T16:54:10Z</time>
      </trkpt>
      <trkpt lat="49.43066" lon="1.28268">
        <ele>150</ele>
        <time>2017-10-17T16:54:10Z</time>
      </trkpt>
      <trkpt lat="49.43062" lon="1.28265">
        <ele>150</ele>
        <time>2017-10-17T16:54:10Z</time>
      </trkpt>
      <trkpt lat="49.43058" lon="1.28262">
        <ele>150</ele>
        <time>2017-10-17T16:54:26Z</time>
      </trkpt>
      <trkpt lat="49.43055" lon="1.2826">
        <ele>150</ele>
        <time>2017-10-17T16:54:26Z</time>
      </trkpt>
      <trkpt lat="49.4305" lon="1.28257">
        <ele>150</ele>
        <time>2017-10-17T16:54:26Z</time>
      </trkpt>
      <trkpt lat="49.43046" lon="1.28254">
        <ele>150</ele>
        <time>2017-10-17T16:54:26Z</time>
      </trkpt>
      <trkpt lat="49.43041" lon="1.28249">
        <ele>149</ele>
        <time>2017-10-17T16:54:42Z</time>
      </trkpt>
      <trkpt lat="49.43037" lon="1.28246">
        <ele>149</ele>
        <time>2017-10-17T16:54:42Z</time>
      </trkpt>
      <trkpt lat="49.43033" lon="1.28242">
        <ele>149</ele>
        <time>2017-10-17T16:54:42Z</time>
      </trkpt>
      <trkpt lat="49.43031" lon="1.2824">
        <ele>149</ele>
        <time>2017-10-17T16:54:42Z</time>
      </trkpt>
      <trkpt lat="49.43027" lon="1.28241">
        <ele>149</ele>
        <time>2017-10-17T16:54:58Z</time>
      </trkpt>
      <trkpt lat="49.43023" lon="1.28238">
        <ele>149</ele>
        <time>2017-10-17T16:54:58Z</time>
      </trkpt>
      <trkpt lat="49.43019" lon="1.28235">
        <ele>149</ele>
        <time>2017-10-17T16:54:58Z</time>
      </trkpt>
      <trkpt lat="49.43015" lon="1.2823">
        <ele>149</ele>
        <time>2017-10-17T16:54:58Z</time>
      </trkpt>
      <trkpt lat="49.43011" lon="1.28227">
        <ele>149</ele>
        <time>2017-10-17T16:55:14Z</time>
      </trkpt>
      <trkpt lat="49.43008" lon="1.28224">
        <ele>149</ele>
        <time>2017-10-17T16:55:14Z</time>
      </trkpt>
      <trkpt lat="49.43004" lon="1.2822">
        <ele>149</ele>
        <time>2017-10-17T16:55:14Z</time>
      </trkpt>
      <trkpt lat="49.43001" lon="1.28218">
        <ele>149</ele>
        <time>2017-10-17T16:55:14Z</time>
      </trkpt>
      <trkpt lat="49.42997" lon="1.28214">
        <ele>149</ele>
        <time>2017-10-17T16:55:30Z</time>
      </trkpt>
      <trkpt lat="49.42992" lon="1.28211">
        <ele>149</ele>
        <time>2017-10-17T16:55:30Z</time>
      </trkpt>
      <trkpt lat="49.42989" lon="1.28209">
        <ele>149</ele>
        <time>2017-10-17T16:55:30Z</time>
      </trkpt>
      <trkpt lat="49.42986" lon="1.28205">
        <ele>150</ele>
        <time>2017-10-17T16:55:30Z</time>
      </trkpt>
      <trkpt lat="49.42982" lon="1.28202">
        <ele>150</ele>
        <time>2017-10-17T16:55:46Z</time>
      </trkpt>
      <trkpt lat="49.42977" lon="1.28197">
        <ele>150</ele>
        <time>2017-10-17T16:55:46Z</time>
      </trkpt>
      <trkpt lat="49.42973" lon="1.28193">
        <ele>150</ele>
        <time>2017-10-17T16:55:46Z</time>
      </trkpt>
      <trkpt lat="49.42969" lon="1.28191">
        <ele>150</ele>
        <time>2017-10-17T16:55:46Z</time>
      </trkpt>
      <trkpt lat="49.42964" lon="1.28187">
        <ele>150</ele>
        <time>2017-10-17T16:56:02Z</time>
      </trkpt>
      <trkpt lat="49.4296" lon="1.28183">
        <ele>150</ele>
        <time>2017-10-17T16:56:02Z</time>
      </trkpt>
      <trkpt lat="49.42955" lon="1.2818">
        <ele>150</ele>
        <time>2017-10-17T16:56:02Z</time>
      </trkpt>
      <trkpt lat="49.42952" lon="1.28178">
        <ele>150</ele>
        <time>2017-10-17T16:56:02Z</time>
      </trkpt>
      <trkpt lat="49.42948" lon="1.28175">
        <ele>150</ele>
        <time>2017-10-17T16:56:18Z</time>
      </trkpt>
      <trkpt lat="49.42943" lon="1.28171">
        <ele>150</ele>
        <time>2017-10-17T16:56:18Z</time>
      </trkpt>
      <trkpt lat="49.42938" lon="1.28167">
        <ele>150</ele>
        <time>2017-10-17T16:56:18Z</time>
      </trkpt>
      <trkpt lat="49.42935" lon="1.28165">
        <ele>150</ele>
        <time>2017-10-17T16:56:18Z</time>
      </trkpt>
      <trkpt lat="49.4293" lon="1.28161">
        <ele>150</ele>
        <time>2017-10-17T16:56:34Z</time>
      </trkpt>
      <trkpt lat="49.42926" lon="1.28158">
        <ele>150</ele>
        <time>2017-10-17T16:56:34Z</time>
      </trkpt>
      <trkpt lat="49.42922" lon="1.28153">
        <ele>150</ele>
        <time>2017-10-17T16:56:34Z</time>
      </trkpt>
      <trkpt lat="49.42918" lon="1.2815">
        <ele>150</ele>
        <time>2017-10-17T16:56:34Z</time>
      </trkpt>
      <trkpt lat="49.42913" lon="1.28146">
        <ele>150</ele>
        <time>2017-10-17T16:56:50Z</time>
      </trkpt>
      <trkpt lat="49.42909" lon="1.28143">
        <ele>150</ele>
        <time>2017-10-17T16:56:50Z</time>
      </trkpt>
      <trkpt lat="49.42905" lon="1.28139">
        <ele>150</ele>
        <time>2017-10-17T16:56:50Z</time>
      </trkpt>
      <trkpt lat="49.42901" lon="1.28135">
        <ele>150</ele>
        <time>2017-10-17T16:56:50Z</time>
      </trkpt>
      <trkpt lat="49.42896" lon="1.28131">
        <ele>150</ele>
        <time>2017-10-17T16:57:06Z</time>
      </trkpt>
      <trkpt lat="49.42893" lon="1.28129">
        <ele>150</ele>
        <time>2017-10-17T16:57:06Z</time>
      </trkpt>
      <trkpt lat="49.42887" lon="1.28125">
        <ele>149</ele>
        <time>2017-10-17T16:57:06Z</time>
      </trkpt>
      <trkpt lat="49.42883" lon="1.28121">
        <ele>149</ele>
        <time>2017-10-17T16:57:06Z</time>
      </trkpt>
      <trkpt lat="49.42879" lon="1.28117">
        <ele>149</ele>
        <time>2017-10-17T16:57:22Z</time>
      </trkpt>
      <trkpt lat="49.42876" lon="1.28115">
        <ele>149</ele>
        <time>2017-10-17T16:57:22Z</time>
      </trkpt>
      <trkpt lat="49.42871" lon="1.2811">
        <ele>151</ele>
        <time>2017-10-17T16:57:22Z</time>
      </trkpt>
      <trkpt lat="49.42866" lon="1.28107">
        <ele>151</ele>
        <time>2017-10-17T16:57:22Z</time>
      </trkpt>
      <trkpt lat="49.42863" lon="1.28104">
        <ele>151</ele>
        <time>2017-10-17T16:57:38Z</time>
      </trkpt>
      <trkpt lat="49.42858" lon="1.281">
        <ele>151</ele>
        <time>2017-10-17T16:57:38Z</time>
      </trkpt>
      <trkpt lat="49.42854" lon="1.28097">
        <ele>151</ele>
        <time>2017-10-17T16:57:38Z</time>
      </trkpt>
      <trkpt lat="49.4285" lon="1.28093">
        <ele>151</ele>
        <time>2017-10-17T16:57:38Z</time>
      </trkpt>
      <trkpt lat="49.42846" lon="1.28091">
        <ele>151</ele>
        <time>2017-10-17T16:57:54Z</time>
      </trkpt>
      <trkpt lat="49.42841" lon="1.28086">
        <ele>151</ele>
        <time>2017-10-17T16:57:54Z</time>
      </trkpt>
      <trkpt lat="49.42838" lon="1.28084">
        <ele>151</ele>
        <time>2017-10-17T16:57:54Z</time>
      </trkpt>
      <trkpt lat="49.42833" lon="1.28079">
        <ele>151</ele>
        <time>2017-10-17T16:57:54Z</time>
      </trkpt>
      <trkpt lat="49.42828" lon="1.28075">
        <ele>151</ele>
        <time>2017-10-17T16:58:10Z</time>
      </trkpt>
      <trkpt lat="49.42824" lon="1.28071">
        <ele>151</ele>
        <time>2017-10-17T16:58:10Z</time>
      </trkpt>
      <trkpt lat="49.42821" lon="1.28069">
        <ele>151</ele>
        <time>2017-10-17T16:58:10Z</time>
      </trkpt>
      <trkpt lat="49.42816" lon="1.28064">
        <ele>151</ele>
        <time>2017-10-17T16:58:10Z</time>
      </trkpt>
      <trkpt lat="49.42813" lon="1.28062">
        <ele>151</ele>
        <time>2017-10-17T16:58:26Z</time>
      </trkpt>
      <trkpt lat="49.42808" lon="1.28057">
        <ele>151</ele>
        <time>2017-10-17T16:58:26Z</time>
      </trkpt>
      <trkpt lat="49.42803" lon="1.28053">
        <ele>151</ele>
        <time>2017-10-17T16:58:26Z</time>
      </trkpt>
      <trkpt lat="49.42799" lon="1.2805">
        <ele>151</ele>
        <time>2017-10-17T16:58:26Z</time>
      </trkpt>
      <trkpt lat="49.42796" lon="1.28046">
        <ele>151</ele>
        <time>2017-10-17T16:58:42Z</time>
      </trkpt>
      <trkpt lat="49.42792" lon="1.28043">
        <ele>150</ele>
        <time>2017-10-17T16:58:42Z</time>
      </trkpt>
      <trkpt lat="49.42788" lon="1.28039">
        <ele>151</ele>
        <time>2017-10-17T16:58:42Z</time>
      </trkpt>
      <trkpt lat="49.42785" lon="1.28036">
        <ele>151</ele>
        <time>2017-10-17T16:58:42Z</time>
      </trkpt>
      <trkpt lat="49.4278" lon="1.28032">
        <ele>151</ele>
        <time>2017-10-17T16:58:58Z</time>
      </trkpt>
      <trkpt lat="49.42775" lon="1.28029">
        <ele>151</ele>
        <time>2017-10-17T16:58:58Z</time>
      </trkpt>
      <trkpt lat="49.42772" lon="1.28026">
        <ele>151</ele>
        <time>2017-10-17T16:58:58Z</time>
      </trkpt>
      <trkpt lat="49.42769" lon="1.28024">
        <ele>151</ele>
        <time>2017-10-17T16:58:58Z</time>
      </trkpt>
      <trkpt lat="49.42764" lon="1.28019">
        <ele>151</ele>
        <time>2017-10-17T16:59:14Z</time>
      </trkpt>
      <trkpt lat="49.4276" lon="1.28017">
        <ele>151</ele>
        <time>2017-10-17T16:59:14Z</time>
      </trkpt>
      <trkpt lat="49.42757" lon="1.28013">
        <ele>151</ele>
        <time>2017-10-17T16:59:14Z</time>
      </trkpt>
      <trkpt lat="49.42754" lon="1.28011">
        <ele>151</ele>
        <time>2017-10-17T16:59:14Z</time>
      </trkpt>
      <trkpt lat="49.42748" lon="1.28006">
        <ele>151</ele>
        <time>2017-10-17T16:59:30Z</time>
      </trkpt>
      <trkpt lat="49.42744" lon="1.28003">
        <ele>151</ele>
        <time>2017-10-17T16:59:30Z</time>
      </trkpt>
      <trkpt lat="49.42739" lon="1.27999">
        <ele>151</ele>
        <time>2017-10-17T16:59:30Z</time>
      </trkpt>
      <trkpt lat="49.42735" lon="1.27995">
        <ele>151</ele>
        <time>2017-10-17T16:59:30Z</time>
      </trkpt>
      <trkpt lat="49.42732" lon="1.27993">
        <ele>151</ele>
        <time>2017-10-17T16:59:46Z</time>
      </trkpt>
      <trkpt lat="49.42728" lon="1.27989">
        <ele>151</ele>
        <time>2017-10-17T16:59:46Z</time>
      </trkpt>
      <trkpt lat="49.42724" lon="1.27986">
        <ele>151</ele>
        <time>2017-10-17T16:59:46Z</time>
      </trkpt>
      <trkpt lat="49.4272" lon="1.27982">
        <ele>151</ele>
        <time>2017-10-17T16:59:46Z</time>
      </trkpt>
      <trkpt lat="49.42715" lon="1.27977">
        <ele>151</ele>
        <time>2017-10-17T17:00:02Z</time>
      </trkpt>
      <trkpt lat="49.42711" lon="1.27974">
        <ele>151</ele>
        <time>2017-10-17T17:00:02Z</time>
      </trkpt>
      <trkpt lat="49.42708" lon="1.27972">
        <ele>151</ele>
        <time>2017-10-17T17:00:02Z</time>
      </trkpt>
      <trkpt lat="49.42704" lon="1.27968">
        <ele>151</ele>
        <time>2017-10-17T17:00:02Z</time>
      </trkpt>
      <trkpt lat="49.427" lon="1.27965">
        <ele>151</ele>
        <time>2017-10-17T17:00:18Z</time>
      </trkpt>
      <trkpt lat="49.42696" lon="1.27961">
        <ele>151</ele>
        <time>2017-10-17T17:00:18Z</time>
      </trkpt>
      <trkpt lat="49.42691" lon="1.27957">
        <ele>151</ele>
        <time>2017-10-17T17:00:18Z</time>
      </trkpt>
      <trkpt lat="49.42688" lon="1.27954">
        <ele>151</ele>
        <time>2017-10-17T17:00:18Z</time>
      </trkpt>
      <trkpt lat="49.42684" lon="1.27951">
        <ele>151</ele>
        <time>2017-10-17T17:00:34Z</time>
      </trkpt>
      <trkpt lat="49.4268" lon="1.27948">
        <ele>151</ele>
        <time>2017-10-17T17:00:34Z</time>
      </trkpt>
      <trkpt lat="49.42676" lon="1.27945">
        <ele>151</ele>
        <time>2017-10-17T17:00:34Z</time>
      </trkpt>
      <trkpt lat="49.42672" lon="1.27942">
        <ele>151</ele>
        <time>2017-10-17T17:00:34Z</time>
      </trkpt>
      <trkpt lat="49.42668" lon="1.27938">
        <ele>151</ele>
        <time>2017-10-17T17:00:50Z</time>
      </trkpt>
      <trkpt lat="49.42663" lon="1.27934">
        <ele>151</ele>
        <time>2017-10-17T17:00:50Z</time>
      </trkpt>
      <trkpt lat="49.42659" lon="1.27931">
        <ele>151</ele>
        <time>2017-10-17T17:00:50Z</time>
      </trkpt>
      <trkpt lat="49.42657" lon="1.27928">
        <ele>151</ele>
        <time>2017-10-17T17:00:50Z</time>
      </trkpt>
      <trkpt lat="49.42652" lon="1.27923">
        <ele>151</ele>
        <time>2017-10-17T17:01:06Z</time>
      </trkpt>
      <trkpt lat="49.42649" lon="1.27921">
        <ele>151</ele>
        <time>2017-10-17T17:01:06Z</time>
      </trkpt>
      <trkpt lat="49.42645" lon="1.27918">
        <ele>151</ele>
        <time>2017-10-17T17:01:06Z</time>
      </trkpt>
      <trkpt lat="49.42642" lon="1.27915">
        <ele>151</ele>
        <time>2017-10-17T17:01:06Z</time>
      </trkpt>
      <trkpt lat="49.42639" lon="1.27913">
        <ele>151</ele>
        <time>2017-10-17T17:01:22Z</time>
      </trkpt>
      <trkpt lat="49.42636" lon="1.2791">
        <ele>151</ele>
        <time>2017-10-17T17:01:22Z</time>
      </trkpt>
      <trkpt lat="49.42632" lon="1.27907">
        <ele>151</ele>
        <time>2017-10-17T17:01:22Z</time>
      </trkpt>
      <trkpt lat="49.42629" lon="1.27904">
        <ele>151</ele>
        <time>2017-10-17T17:01:22Z</time>
      </trkpt>
      <trkpt lat="49.42626" lon="1.27901">
        <ele>151</ele>
        <time>2017-10-17T17:01:38Z</time>
      </trkpt>
      <trkpt lat="49.42622" lon="1.27898">
        <ele>152</ele>
        <time>2017-10-17T17:01:38Z</time>
      </trkpt>
      <trkpt lat="49.42618" lon="1.27894">
        <ele>152</ele>
        <time>2017-10-17T17:01:38Z</time>
      </trkpt>
      <trkpt lat="49.42615" lon="1.27891">
        <ele>152</ele>
        <time>2017-10-17T17:01:38Z</time>
      </trkpt>
      <trkpt lat="49.42611" lon="1.27888">
        <ele>152</ele>
        <time>2017-10-17T17:01:54Z</time>
      </trkpt>
      <trkpt lat="49.42606" lon="1.27885">
        <ele>152</ele>
        <time>2017-10-17T17:01:54Z</time>
      </trkpt>
      <trkpt lat="49.42602" lon="1.27882">
        <ele>152</ele>
        <time>2017-10-17T17:01:54Z</time>
      </trkpt>
      <trkpt lat="49.426" lon="1.27879">
        <ele>152</ele>
        <time>2017-10-17T17:01:54Z</time>
      </trkpt>
      <trkpt lat="49.42595" lon="1.27877">
        <ele>152</ele>
        <time>2017-10-17T17:02:10Z</time>
      </trkpt>
      <trkpt lat="49.4259" lon="1.27876">
        <ele>152</ele>
        <time>2017-10-17T17:02:10Z</time>
      </trkpt>
      <trkpt lat="49.42586" lon="1.27877">
        <ele>152</ele>
        <time>2017-10-17T17:02:10Z</time>
      </trkpt>
      <trkpt lat="49.42582" lon="1.27878">
        <ele>152</ele>
        <time>2017-10-17T17:02:10Z</time>
      </trkpt>
      <trkpt lat="49.42578" lon="1.27879">
        <ele>152</ele>
        <time>2017-10-17T17:02:26Z</time>
      </trkpt>
      <trkpt lat="49.42574" lon="1.2788">
        <ele>152</ele>
        <time>2017-10-17T17:02:26Z</time>
      </trkpt>
      <trkpt lat="49.42568" lon="1.27882">
        <ele>152</ele>
        <time>2017-10-17T17:02:26Z</time>
      </trkpt>
      <trkpt lat="49.42565" lon="1.27882">
        <ele>152</ele>
        <time>2017-10-17T17:02:26Z</time>
      </trkpt>
      <trkpt lat="49.42561" lon="1.27884">
        <ele>152</ele>
        <time>2017-10-17T17:02:42Z</time>
      </trkpt>
      <trkpt lat="49.42556" lon="1.27887">
        <ele>152</ele>
        <time>2017-10-17T17:02:42Z</time>
      </trkpt>
      <trkpt lat="49.42553" lon="1.27888">
        <ele>152</ele>
        <time>2017-10-17T17:02:42Z</time>
      </trkpt>
      <trkpt lat="49.42548" lon="1.2789">
        <ele>152</ele>
        <time>2017-10-17T17:02:42Z</time>
      </trkpt>
      <trkpt lat="49.42545" lon="1.27892">
        <ele>152</ele>
        <time>2017-10-17T17:02:58Z</time>
      </trkpt>
      <trkpt lat="49.42541" lon="1.27894">
        <ele>154</ele>
        <time>2017-10-17T17:02:58Z</time>
      </trkpt>
      <trkpt lat="49.42536" lon="1.27895">
        <ele>154</ele>
        <time>2017-10-17T17:02:58Z</time>
      </trkpt>
      <trkpt lat="49.42534" lon="1.27896">
        <ele>154</ele>
        <time>2017-10-17T17:02:58Z</time>
      </trkpt>
      <trkpt lat="49.42534" lon="1.27895">
        <ele>154</ele>
        <time>2017-10-17T17:03:30Z</time>
      </trkpt>
      <trkpt lat="49.42533" lon="1.27896">
        <ele>154</ele>
        <time>2017-10-17T17:03:30Z</time>
      </trkpt>
      <trkpt lat="49.4253" lon="1.27897">
        <ele>154</ele>
        <time>2017-10-17T17:03:30Z</time>
      </trkpt>
      <trkpt lat="49.42526" lon="1.27899">
        <ele>154</ele>
        <time>2017-10-17T17:03:30Z</time>
      </trkpt>
      <trkpt lat="49.42523" lon="1.27901">
        <ele>154</ele>
        <time>2017-10-17T17:03:30Z</time>
      </trkpt>
      <trkpt lat="49.42519" lon="1.279">
        <ele>154</ele>
        <time>2017-10-17T17:04:30Z</time>
      </trkpt>
      <trkpt lat="49.42518" lon="1.27901">
        <ele>154</ele>
        <time>2017-10-17T17:04:30Z</time>
      </trkpt>
      <trkpt lat="49.42514" lon="1.27905">
        <ele>154</ele>
        <time>2017-10-17T17:04:30Z</time>
      </trkpt>
      <trkpt lat="49.42509" lon="1.27907">
        <ele>154</ele>
        <time>2017-10-17T17:04:30Z</time>
      </trkpt>
      <trkpt lat="49.42504" lon="1.27908">
        <ele>154</ele>
        <time>2017-10-17T17:04:30Z</time>
      </trkpt>
      <trkpt lat="49.42501" lon="1.2791">
        <ele>154</ele>
        <time>2017-10-17T17:04:46Z</time>
      </trkpt>
      <trkpt lat="49.42496" lon="1.27912">
        <ele>154</ele>
        <time>2017-10-17T17:04:46Z</time>
      </trkpt>
      <trkpt lat="49.42493" lon="1.27913">
        <ele>154</ele>
        <time>2017-10-17T17:04:46Z</time>
      </trkpt>
      <trkpt lat="49.42488" lon="1.27915">
        <ele>154</ele>
        <time>2017-10-17T17:04:46Z</time>
      </trkpt>
      <trkpt lat="49.42484" lon="1.27916">
        <ele>154</ele>
        <time>2017-10-17T17:05:02Z</time>
      </trkpt>
      <trkpt lat="49.4248" lon="1.27918">
        <ele>154</ele>
        <time>2017-10-17T17:05:02Z</time>
      </trkpt>
      <trkpt lat="49.42474" lon="1.2792">
        <ele>154</ele>
        <time>2017-10-17T17:05:02Z</time>
      </trkpt>
      <trkpt lat="49.4247" lon="1.27921">
        <ele>154</ele>
        <time>2017-10-17T17:05:02Z</time>
      </trkpt>
      <trkpt lat="49.42466" lon="1.27923">
        <ele>154</ele>
        <time>2017-10-17T17:05:18Z</time>
      </trkpt>
      <trkpt lat="49.42461" lon="1.27924">
        <ele>154</ele>
        <time>2017-10-17T17:05:18Z</time>
      </trkpt>
      <trkpt lat="49.42457" lon="1.27926">
        <ele>154</ele>
        <time>2017-10-17T17:05:18Z</time>
      </trkpt>
      <trkpt lat="49.42453" lon="1.27927">
        <ele>154</ele>
        <time>2017-10-17T17:05:18Z</time>
      </trkpt>
      <trkpt lat="49.4245" lon="1.27928">
        <ele>154</ele>
        <time>2017-10-17T17:05:34Z</time>
      </trkpt>
      <trkpt lat="49.42444" lon="1.27931">
        <ele>154</ele>
        <time>2017-10-17T17:05:34Z</time>
      </trkpt>
      <trkpt lat="49.42441" lon="1.27933">
        <ele>154</ele>
        <time>2017-10-17T17:05:34Z</time>
      </trkpt>
      <trkpt lat="49.42436" lon="1.27935">
        <ele>154</ele>
        <time>2017-10-17T17:05:34Z</time>
      </trkpt>
      <trkpt lat="49.42433" lon="1.27935">
        <ele>154</ele>
        <time>2017-10-17T17:05:50Z</time>
      </trkpt>
      <trkpt lat="49.42427" lon="1.27936">
        <ele>154</ele>
        <time>2017-10-17T17:05:50Z</time>
      </trkpt>
      <trkpt lat="49.42424" lon="1.27937">
        <ele>154</ele>
        <time>2017-10-17T17:05:50Z</time>
      </trkpt>
      <trkpt lat="49.4242" lon="1.2794">
        <ele>154</ele>
        <time>2017-10-17T17:05:50Z</time>
      </trkpt>
      <trkpt lat="49.42416" lon="1.27942">
        <ele>154</ele>
        <time>2017-10-17T17:06:06Z</time>
      </trkpt>
      <trkpt lat="49.4241" lon="1.27944">
        <ele>154</ele>
        <time>2017-10-17T17:06:06Z</time>
      </trkpt>
      <trkpt lat="49.42407" lon="1.27945">
        <ele>154</ele>
        <time>2017-10-17T17:06:06Z</time>
      </trkpt>
      <trkpt lat="49.42402" lon="1.27946">
        <ele>154</ele>
        <time>2017-10-17T17:06:06Z</time>
      </trkpt>
      <trkpt lat="49.42398" lon="1.27947">
        <ele>154</ele>
        <time>2017-10-17T17:06:22Z</time>
      </trkpt>
      <trkpt lat="49.42394" lon="1.27949">
        <ele>154</ele>
        <time>2017-10-17T17:06:22Z</time>
      </trkpt>
      <trkpt lat="49.42388" lon="1.27951">
        <ele>154</ele>
        <time>2017-10-17T17:06:22Z</time>
      </trkpt>
      <trkpt lat="49.42385" lon="1.27951">
        <ele>154</ele>
        <time>2017-10-17T17:06:22Z</time>
      </trkpt>
      <trkpt lat="49.4238" lon="1.27952">
        <ele>154</ele>
        <time>2017-10-17T17:06:38Z</time>
      </trkpt>
      <trkpt lat="49.42376" lon="1.27954">
        <ele>154</ele>
        <time>2017-10-17T17:06:38Z</time>
      </trkpt>
      <trkpt lat="49.42371" lon="1.27957">
        <ele>155</ele>
        <time>2017-10-17T17:06:38Z</time>
      </trkpt>
      <trkpt lat="49.42368" lon="1.27958">
        <ele>155</ele>
        <time>2017-10-17T17:06:38Z</time>
      </trkpt>
      <trkpt lat="49.42364" lon="1.2796">
        <ele>155</ele>
        <time>2017-10-17T17:06:54Z</time>
      </trkpt>
      <trkpt lat="49.42361" lon="1.27964">
        <ele>155</ele>
        <time>2017-10-17T17:06:54Z</time>
      </trkpt>
      <trkpt lat="49.42357" lon="1.27967">
        <ele>155</ele>
        <time>2017-10-17T17:06:54Z</time>
      </trkpt>
      <trkpt lat="49.42354" lon="1.27974">
        <ele>155</ele>
        <time>2017-10-17T17:06:54Z</time>
      </trkpt>
      <trkpt lat="49.42352" lon="1.27978">
        <ele>155</ele>
        <time>2017-10-17T17:07:10Z</time>
      </trkpt>
      <trkpt lat="49.42349" lon="1.27984">
        <ele>155</ele>
        <time>2017-10-17T17:07:10Z</time>
      </trkpt>
      <trkpt lat="49.42346" lon="1.2799">
        <ele>155</ele>
        <time>2017-10-17T17:07:10Z</time>
      </trkpt>
      <trkpt lat="49.42344" lon="1.27995">
        <ele>155</ele>
        <time>2017-10-17T17:07:10Z</time>
      </trkpt>
      <trkpt lat="49.42342" lon="1.27998">
        <ele>155</ele>
        <time>2017-10-17T17:08:30Z</time>
      </trkpt>
      <trkpt lat="49.42342" lon="1.28001">
        <ele>155</ele>
        <time>2017-10-17T17:08:30Z</time>
      </trkpt>
      <trkpt lat="49.42341" lon="1.28004">
        <ele>155</ele>
        <time>2017-10-17T17:08:30Z</time>
      </trkpt>
      <trkpt lat="49.42339" lon="1.28008">
        <ele>155</ele>
        <time>2017-10-17T17:08:30Z</time>
      </trkpt>
      <trkpt lat="49.42337" lon="1.28013">
        <ele>155</ele>
        <time>2017-10-17T17:08:30Z</time>
      </trkpt>
      <trkpt lat="49.42335" lon="1.28016">
        <ele>155</ele>
        <time>2017-10-17T17:08:46Z</time>
      </trkpt>
      <trkpt lat="49.42333" lon="1.28021">
        <ele>155</ele>
        <time>2017-10-17T17:08:46Z</time>
      </trkpt>
      <trkpt lat="49.4233" lon="1.28028">
        <ele>155</ele>
        <time>2017-10-17T17:08:46Z</time>
      </trkpt>
      <trkpt lat="49.42327" lon="1.28034">
        <ele>155</ele>
        <time>2017-10-17T17:08:46Z</time>
      </trkpt>
      <trkpt lat="49.42325" lon="1.28039">
        <ele>155</ele>
        <time>2017-10-17T17:09:02Z</time>
      </trkpt>
      <trkpt lat="49.42321" lon="1.28047">
        <ele>154</ele>
        <time>2017-10-17T17:09:02Z</time>
      </trkpt>
      <trkpt lat="49.42319" lon="1.28051">
        <ele>154</ele>
        <time>2017-10-17T17:09:02Z</time>
      </trkpt>
      <trkpt lat="49.42317" lon="1.28057">
        <ele>154</ele>
        <time>2017-10-17T17:09:02Z</time>
      </trkpt>
      <trkpt lat="49.42315" lon="1.28063">
        <ele>154</ele>
        <time>2017-10-17T17:09:18Z</time>
      </trkpt>
      <trkpt lat="49.42311" lon="1.2807">
        <ele>154</ele>
        <time>2017-10-17T17:09:18Z</time>
      </trkpt>
      <trkpt lat="49.4231" lon="1.28075">
        <ele>154</ele>
        <time>2017-10-17T17:09:18Z</time>
      </trkpt>
      <trkpt lat="49.42306" lon="1.28083">
        <ele>154</ele>
        <time>2017-10-17T17:09:18Z</time>
      </trkpt>
      <trkpt lat="49.42304" lon="1.28087">
        <ele>154</ele>
        <time>2017-10-17T17:09:34Z</time>
      </trkpt>
      <trkpt lat="49.42301" lon="1.28093">
        <ele>154</ele>
        <time>2017-10-17T17:09:34Z</time>
      </trkpt>
      <trkpt lat="49.42299" lon="1.28099">
        <ele>154</ele>
        <time>2017-10-17T17:09:34Z</time>
      </trkpt>
      <trkpt lat="49.42296" lon="1.28105">
        <ele>154</ele>
        <time>2017-10-17T17:09:34Z</time>
      </trkpt>
      <trkpt lat="49.42293" lon="1.28111">
        <ele>154</ele>
        <time>2017-10-17T17:09:50Z</time>
      </trkpt>
      <trkpt lat="49.42291" lon="1.28117">
        <ele>154</ele>
        <time>2017-10-17T17:09:50Z</time>
      </trkpt>
      <trkpt lat="49.42288" lon="1.28122">
        <ele>154</ele>
        <time>2017-10-17T17:09:50Z</time>
      </trkpt>
      <trkpt lat="49.42286" lon="1.28128">
        <ele>154</ele>
        <time>2017-10-17T17:09:50Z</time>
      </trkpt>
      <trkpt lat="49.42283" lon="1.28135">
        <ele>154</ele>
        <time>2017-10-17T17:10:06Z</time>
      </trkpt>
      <trkpt lat="49.4228" lon="1.2814">
        <ele>154</ele>
        <time>2017-10-17T17:10:06Z</time>
      </trkpt>
      <trkpt lat="49.42278" lon="1.28146">
        <ele>154</ele>
        <time>2017-10-17T17:10:06Z</time>
      </trkpt>
      <trkpt lat="49.42275" lon="1.28153">
        <ele>154</ele>
        <time>2017-10-17T17:10:06Z</time>
      </trkpt>
      <trkpt lat="49.42272" lon="1.28161">
        <ele>154</ele>
        <time>2017-10-17T17:10:22Z</time>
      </trkpt>
      <trkpt lat="49.42269" lon="1.28167">
        <ele>154</ele>
        <time>2017-10-17T17:10:22Z</time>
      </trkpt>
      <trkpt lat="49.42266" lon="1.28174">
        <ele>154</ele>
        <time>2017-10-17T17:10:22Z</time>
      </trkpt>
      <trkpt lat="49.42264" lon="1.28179">
        <ele>154</ele>
        <time>2017-10-17T17:10:22Z</time>
      </trkpt>
      <trkpt lat="49.42262" lon="1.28184">
        <ele>154</ele>
        <time>2017-10-17T17:10:38Z</time>
      </trkpt>
      <trkpt lat="49.42259" lon="1.2819">
        <ele>154</ele>
        <time>2017-10-17T17:10:38Z</time>
      </trkpt>
      <trkpt lat="49.42256" lon="1.28196">
        <ele>154</ele>
        <time>2017-10-17T17:10:38Z</time>
      </trkpt>
      <trkpt lat="49.42253" lon="1.28202">
        <ele>154</ele>
        <time>2017-10-17T17:10:38Z</time>
      </trkpt>
      <trkpt lat="49.4225" lon="1.28207">
        <ele>154</ele>
        <time>2017-10-17T17:10:54Z</time>
      </trkpt>
      <trkpt lat="49.42247" lon="1.28214">
        <ele>154</ele>
        <time>2017-10-17T17:10:54Z</time>
      </trkpt>
      <trkpt lat="49.42245" lon="1.2822">
        <ele>154</ele>
        <time>2017-10-17T17:10:54Z</time>
      </trkpt>
      <trkpt lat="49.42242" lon="1.28226">
        <ele>154</ele>
        <time>2017-10-17T17:10:54Z</time>
      </trkpt>
      <trkpt lat="49.42239" lon="1.28232">
        <ele>154</ele>
        <time>2017-10-17T17:11:10Z</time>
      </trkpt>
      <trkpt lat="49.42237" lon="1.28238">
        <ele>154</ele>
        <time>2017-10-17T17:11:10Z</time>
      </trkpt>
      <trkpt lat="49.42234" lon="1.28243">
        <ele>154</ele>
        <time>2017-10-17T17:11:10Z</time>
      </trkpt>
      <trkpt lat="49.42232" lon="1.2825">
        <ele>154</ele>
        <time>2017-10-17T17:11:10Z</time>
      </trkpt>
      <trkpt lat="49.42229" lon="1.28256">
        <ele>154</ele>
        <time>2017-10-17T17:11:26Z</time>
      </trkpt>
      <trkpt lat="49.42226" lon="1.28262">
        <ele>154</ele>
        <time>2017-10-17T17:11:26Z</time>
      </trkpt>
      <trkpt lat="49.42223" lon="1.28268">
        <ele>154</ele>
        <time>2017-10-17T17:11:26Z</time>
      </trkpt>
      <trkpt lat="49.4222" lon="1.28275">
        <ele>154</ele>
        <time>2017-10-17T17:11:26Z</time>
      </trkpt>
      <trkpt lat="49.42218" lon="1.28281">
        <ele>154</ele>
        <time>2017-10-17T17:11:42Z</time>
      </trkpt>
      <trkpt lat="49.42215" lon="1.28287">
        <ele>154</ele>
        <time>2017-10-17T17:11:42Z</time>
      </trkpt>
      <trkpt lat="49.42212" lon="1.28294">
        <ele>153</ele>
        <time>2017-10-17T17:11:42Z</time>
      </trkpt>
      <trkpt lat="49.4221" lon="1.28301">
        <ele>153</ele>
        <time>2017-10-17T17:11:42Z</time>
      </trkpt>
      <trkpt lat="49.42207" lon="1.28307">
        <ele>154</ele>
        <time>2017-10-17T17:11:58Z</time>
      </trkpt>
      <trkpt lat="49.42204" lon="1.28313">
        <ele>154</ele>
        <time>2017-10-17T17:11:58Z</time>
      </trkpt>
      <trkpt lat="49.42201" lon="1.28319">
        <ele>154</ele>
        <time>2017-10-17T17:11:58Z</time>
      </trkpt>
      <trkpt lat="49.42198" lon="1.28325">
        <ele>154</ele>
        <time>2017-10-17T17:11:58Z</time>
      </trkpt>
      <trkpt lat="49.42195" lon="1.28332">
        <ele>154</ele>
        <time>2017-10-17T17:12:14Z</time>
      </trkpt>
      <trkpt lat="49.42191" lon="1.28339">
        <ele>154</ele>
        <time>2017-10-17T17:12:14Z</time>
      </trkpt>
      <trkpt lat="49.42189" lon="1.28344">
        <ele>154</ele>
        <time>2017-10-17T17:12:14Z</time>
      </trkpt>
      <trkpt lat="49.42186" lon="1.2835">
        <ele>154</ele>
        <time>2017-10-17T17:12:14Z</time>
      </trkpt>
      <trkpt lat="49.42183" lon="1.28357">
        <ele>154</ele>
        <time>2017-10-17T17:12:30Z</time>
      </trkpt>
      <trkpt lat="49.4218" lon="1.28363">
        <ele>154</ele>
        <time>2017-10-17T17:12:30Z</time>
      </trkpt>
      <trkpt lat="49.42176" lon="1.28368">
        <ele>154</ele>
        <time>2017-10-17T17:12:30Z</time>
      </trkpt>
      <trkpt lat="49.42173" lon="1.28374">
        <ele>154</ele>
        <time>2017-10-17T17:12:30Z</time>
      </trkpt>
      <trkpt lat="49.4217" lon="1.2838">
        <ele>154</ele>
        <time>2017-10-17T17:12:46Z</time>
      </trkpt>
      <trkpt lat="49.42168" lon="1.28387">
        <ele>154</ele>
        <time>2017-10-17T17:12:46Z</time>
      </trkpt>
      <trkpt lat="49.42166" lon="1.28396">
        <ele>154</ele>
        <time>2017-10-17T17:12:46Z</time>
      </trkpt>
      <trkpt lat="49.42164" lon="1.284">
        <ele>154</ele>
        <time>2017-10-17T17:12:46Z</time>
      </trkpt>
      <trkpt lat="49.42162" lon="1.28406">
        <ele>154</ele>
        <time>2017-10-17T17:13:02Z</time>
      </trkpt>
      <trkpt lat="49.42159" lon="1.28412">
        <ele>154</ele>
        <time>2017-10-17T17:13:02Z</time>
      </trkpt>
      <trkpt lat="49.42156" lon="1.28418">
        <ele>154</ele>
        <time>2017-10-17T17:13:02Z</time>
      </trkpt>
      <trkpt lat="49.42154" lon="1.28423">
        <ele>154</ele>
        <time>2017-10-17T17:13:02Z</time>
      </trkpt>
      <trkpt lat="49.42151" lon="1.28429">
        <ele>154</ele>
        <time>2017-10-17T17:13:18Z</time>
      </trkpt>
      <trkpt lat="49.42149" lon="1.28436">
        <ele>154</ele>
        <time>2017-10-17T17:13:18Z</time>
      </trkpt>
      <trkpt lat="49.42146" lon="1.28443">
        <ele>154</ele>
        <time>2017-10-17T17:13:18Z</time>
      </trkpt>
      <trkpt lat="49.42143" lon="1.28449">
        <ele>154</ele>
        <time>2017-10-17T17:13:18Z</time>
      </trkpt>
      <trkpt lat="49.4214" lon="1.28455">
        <ele>154</ele>
        <time>2017-10-17T17:13:34Z</time>
      </trkpt>
      <trkpt lat="49.42137" lon="1.28461">
        <ele>153</ele>
        <time>2017-10-17T17:13:34Z</time>
      </trkpt>
      <trkpt lat="49.42135" lon="1.28467">
        <ele>153</ele>
        <time>2017-10-17T17:13:34Z</time>
      </trkpt>
      <trkpt lat="49.42132" lon="1.28473">
        <ele>153</ele>
        <time>2017-10-17T17:13:34Z</time>
      </trkpt>
      <trkpt lat="49.42129" lon="1.2848">
        <ele>153</ele>
        <time>2017-10-17T17:13:50Z</time>
      </trkpt>
      <trkpt lat="49.42126" lon="1.28486">
        <ele>153</ele>
        <time>2017-10-17T17:13:50Z</time>
      </trkpt>
      <trkpt lat="49.42123" lon="1.28492">
        <ele>155</ele>
        <time>2017-10-17T17:13:50Z</time>
      </trkpt>
      <trkpt lat="49.4212" lon="1.28499">
        <ele>155</ele>
        <time>2017-10-17T17:13:50Z</time>
      </trkpt>
      <trkpt lat="49.42117" lon="1.28506">
        <ele>155</ele>
        <time>2017-10-17T17:14:06Z</time>
      </trkpt>
      <trkpt lat="49.42114" lon="1.28512">
        <ele>155</ele>
        <time>2017-10-17T17:14:06Z</time>
      </trkpt>
      <trkpt lat="49.42111" lon="1.28518">
        <ele>155</ele>
        <time>2017-10-17T17:14:06Z</time>
      </trkpt>
      <trkpt lat="49.42109" lon="1.28525">
        <ele>155</ele>
        <time>2017-10-17T17:14:06Z</time>
      </trkpt>
      <trkpt lat="49.42106" lon="1.28532">
        <ele>155</ele>
        <time>2017-10-17T17:14:22Z</time>
      </trkpt>
      <trkpt lat="49.42105" lon="1.28539">
        <ele>155</ele>
        <time>2017-10-17T17:14:22Z</time>
      </trkpt>
      <trkpt lat="49.42104" lon="1.28546">
        <ele>154</ele>
        <time>2017-10-17T17:14:22Z</time>
      </trkpt>
      <trkpt lat="49.42103" lon="1.28553">
        <ele>154</ele>
        <time>2017-10-17T17:14:22Z</time>
      </trkpt>
      <trkpt lat="49.42102" lon="1.28561">
        <ele>154</ele>
        <time>2017-10-17T17:14:38Z</time>
      </trkpt>
      <trkpt lat="49.42102" lon="1.28568">
        <ele>154</ele>
        <time>2017-10-17T17:14:38Z</time>
      </trkpt>
      <trkpt lat="49.42102" lon="1.28575">
        <ele>154</ele>
        <time>2017-10-17T17:14:38Z</time>
      </trkpt>
      <trkpt lat="49.42102" lon="1.28583">
        <ele>154</ele>
        <time>2017-10-17T17:14:38Z</time>
      </trkpt>
      <trkpt lat="49.42103" lon="1.2859">
        <ele>154</ele>
        <time>2017-10-17T17:14:54Z</time>
      </trkpt>
      <trkpt lat="49.42104" lon="1.28598">
        <ele>154</ele>
        <time>2017-10-17T17:14:54Z</time>
      </trkpt>
      <trkpt lat="49.42105" lon="1.28606">
        <ele>154</ele>
        <time>2017-10-17T17:14:54Z</time>
      </trkpt>
      <trkpt lat="49.42106" lon="1.28613">
        <ele>154</ele>
        <time>2017-10-17T17:14:54Z</time>
      </trkpt>
      <trkpt lat="49.42107" lon="1.2862">
        <ele>154</ele>
        <time>2017-10-17T17:15:10Z</time>
      </trkpt>
      <trkpt lat="49.42108" lon="1.28627">
        <ele>154</ele>
        <time>2017-10-17T17:15:10Z</time>
      </trkpt>
      <trkpt lat="49.42109" lon="1.28634">
        <ele>154</ele>
        <time>2017-10-17T17:15:10Z</time>
      </trkpt>
      <trkpt lat="49.42109" lon="1.28642">
        <ele>154</ele>
        <time>2017-10-17T17:15:10Z</time>
      </trkpt>
      <trkpt lat="49.4211" lon="1.2865">
        <ele>154</ele>
        <time>2017-10-17T17:15:26Z</time>
      </trkpt>
      <trkpt lat="49.42111" lon="1.28658">
        <ele>154</ele>
        <time>2017-10-17T17:15:26Z</time>
      </trkpt>
      <trkpt lat="49.42112" lon="1.28666">
        <ele>154</ele>
        <time>2017-10-17T17:15:26Z</time>
      </trkpt>
      <trkpt lat="49.42112" lon="1.28674">
        <ele>154</ele>
        <time>2017-10-17T17:15:26Z</time>
      </trkpt>
      <trkpt lat="49.42113" lon="1.28681">
        <ele>154</ele>
        <time>2017-10-17T17:15:42Z</time>
      </trkpt>
      <trkpt lat="49.42113" lon="1.28688">
        <ele>154</ele>
        <time>2017-10-17T17:15:42Z</time>
      </trkpt>
      <trkpt lat="49.42113" lon="1.28695">
        <ele>154</ele>
        <time>2017-10-17T17:15:42Z</time>
      </trkpt>
      <trkpt lat="49.42114" lon="1.28701">
        <ele>154</ele>
        <time>2017-10-17T17:15:42Z</time>
      </trkpt>
      <trkpt lat="49.42116" lon="1.28708">
        <ele>154</ele>
        <time>2017-10-17T17:15:58Z</time>
      </trkpt>
      <trkpt lat="49.42117" lon="1.28715">
        <ele>153</ele>
        <time>2017-10-17T17:15:58Z</time>
      </trkpt>
      <trkpt lat="49.42118" lon="1.28722">
        <ele>153</ele>
        <time>2017-10-17T17:15:58Z</time>
      </trkpt>
      <trkpt lat="49.42118" lon="1.28729">
        <ele>153</ele>
        <time>2017-10-17T17:15:58Z</time>
      </trkpt>
      <trkpt lat="49.42118" lon="1.28737">
        <ele>153</ele>
        <time>2017-10-17T17:16:14Z</time>
      </trkpt>
      <trkpt lat="49.42119" lon="1.28744">
        <ele>153</ele>
        <time>2017-10-17T17:16:14Z</time>
      </trkpt>
      <trkpt lat="49.42121" lon="1.28751">
        <ele>153</ele>
        <time>2017-10-17T17:16:14Z</time>
      </trkpt>
      <trkpt lat="49.42121" lon="1.28759">
        <ele>153</ele>
        <time>2017-10-17T17:16:14Z</time>
      </trkpt>
      <trkpt lat="49.42121" lon="1.28766">
        <ele>153</ele>
        <time>2017-10-17T17:16:30Z</time>
      </trkpt>
      <trkpt lat="49.4212" lon="1.28771">
        <ele>153</ele>
        <time>2017-10-17T17:16:30Z</time>
      </trkpt>
      <trkpt lat="49.4212" lon="1.28778">
        <ele>153</ele>
        <time>2017-10-17T17:16:30Z</time>
      </trkpt>
      <trkpt lat="49.42121" lon="1.28785">
        <ele>153</ele>
        <time>2017-10-17T17:16:30Z</time>
      </trkpt>
      <trkpt lat="49.42121" lon="1.28792">
        <ele>153</ele>
        <time>2017-10-17T17:16:46Z</time>
      </trkpt>
      <trkpt lat="49.42122" lon="1.28799">
        <ele>153</ele>
        <time>2017-10-17T17:16:46Z</time>
      </trkpt>
      <trkpt lat="49.42122" lon="1.28806">
        <ele>153</ele>
        <time>2017-10-17T17:16:46Z</time>
      </trkpt>
      <trkpt lat="49.42121" lon="1.28813">
        <ele>153</ele>
        <time>2017-10-17T17:16:46Z</time>
      </trkpt>
      <trkpt lat="49.42122" lon="1.2882">
        <ele>153</ele>
        <time>2017-10-17T17:17:02Z</time>
      </trkpt>
      <trkpt lat="49.42122" lon="1.28827">
        <ele>153</ele>
        <time>2017-10-17T17:17:02Z</time>
      </trkpt>
      <trkpt lat="49.42121" lon="1.28835">
        <ele>153</ele>
        <time>2017-10-17T17:17:02Z</time>
      </trkpt>
      <trkpt lat="49.42121" lon="1.28843">
        <ele>153</ele>
        <time>2017-10-17T17:17:02Z</time>
      </trkpt>
      <trkpt lat="49.42121" lon="1.28851">
        <ele>153</ele>
        <time>2017-10-17T17:17:18Z</time>
      </trkpt>
      <trkpt lat="49.4212" lon="1.28859">
        <ele>153</ele>
        <time>2017-10-17T17:17:18Z</time>
      </trkpt>
      <trkpt lat="49.4212" lon="1.28867">
        <ele>153</ele>
        <time>2017-10-17T17:17:18Z</time>
      </trkpt>
      <trkpt lat="49.4212" lon="1.28874">
        <ele>153</ele>
        <time>2017-10-17T17:17:18Z</time>
      </trkpt>
      <trkpt lat="49.42119" lon="1.28882">
        <ele>150</ele>
        <time>2017-10-17T17:17:34Z</time>
      </trkpt>
      <trkpt lat="49.42118" lon="1.28889">
        <ele>150</ele>
        <time>2017-10-17T17:17:34Z</time>
      </trkpt>
      <trkpt lat="49.42118" lon="1.28896">
        <ele>150</ele>
        <time>2017-10-17T17:17:34Z</time>
      </trkpt>
      <trkpt lat="49.42116" lon="1.28903">
        <ele>150</ele>
        <time>2017-10-17T17:17:34Z</time>
      </trkpt>
      <trkpt lat="49.42115" lon="1.28911">
        <ele>150</ele>
        <time>2017-10-17T17:17:50Z</time>
      </trkpt>
      <trkpt lat="49.42115" lon="1.28918">
        <ele>150</ele>
        <time>2017-10-17T17:17:50Z</time>
      </trkpt>
      <trkpt lat="49.42114" lon="1.28926">
        <ele>150</ele>
        <time>2017-10-17T17:17:50Z</time>
      </trkpt>
      <trkpt lat="49.42114" lon="1.28933">
        <ele>150</ele>
        <time>2017-10-17T17:17:50Z</time>
      </trkpt>
      <trkpt lat="49.42113" lon="1.2894">
        <ele>150</ele>
        <time>2017-10-17T17:18:06Z</time>
      </trkpt>
      <trkpt lat="49.42112" lon="1.28948">
        <ele>150</ele>
        <time>2017-10-17T17:18:06Z</time>
      </trkpt>
      <trkpt lat="49.42111" lon="1.28955">
        <ele>150</ele>
        <time>2017-10-17T17:18:06Z</time>
      </trkpt>
      <trkpt lat="49.4211" lon="1.28962">
        <ele>149</ele>
        <time>2017-10-17T17:18:06Z</time>
      </trkpt>
      <trkpt lat="49.42108" lon="1.28969">
        <ele>149</ele>
        <time>2017-10-17T17:18:22Z</time>
      </trkpt>
      <trkpt lat="49.42106" lon="1.28976">
        <ele>149</ele>
        <time>2017-10-17T17:18:22Z</time>
      </trkpt>
      <trkpt lat="49.42103" lon="1.28982">
        <ele>149</ele>
        <time>2017-10-17T17:18:22Z</time>
      </trkpt>
      <trkpt lat="49.421" lon="1.28989">
        <ele>149</ele>
        <time>2017-10-17T17:18:22Z</time>
      </trkpt>
      <trkpt lat="49.42098" lon="1.28995">
        <ele>149</ele>
        <time>2017-10-17T17:18:38Z</time>
      </trkpt>
      <trkpt lat="49.42095" lon="1.29001">
        <ele>149</ele>
        <time>2017-10-17T17:18:38Z</time>
      </trkpt>
      <trkpt lat="49.42092" lon="1.29007">
        <ele>149</ele>
        <time>2017-10-17T17:18:38Z</time>
      </trkpt>
      <trkpt lat="49.4209" lon="1.29014">
        <ele>149</ele>
        <time>2017-10-17T17:18:38Z</time>
      </trkpt>
      <trkpt lat="49.42088" lon="1.29021">
        <ele>149</ele>
        <time>2017-10-17T17:18:54Z</time>
      </trkpt>
      <trkpt lat="49.42086" lon="1.29028">
        <ele>149</ele>
        <time>2017-10-17T17:18:54Z</time>
      </trkpt>
      <trkpt lat="49.42084" lon="1.29035">
        <ele>149</ele>
        <time>2017-10-17T17:18:54Z</time>
      </trkpt>
      <trkpt lat="49.42083" lon="1.29042">
        <ele>149</ele>
        <time>2017-10-17T17:18:54Z</time>
      </trkpt>
      <trkpt lat="49.42082" lon="1.29049">
        <ele>148</ele>
        <time>2017-10-17T17:19:10Z</time>
      </trkpt>
      <trkpt lat="49.42081" lon="1.29056">
        <ele>148</ele>
        <time>2017-10-17T17:19:10Z</time>
      </trkpt>
      <trkpt lat="49.4208" lon="1.29063">
        <ele>148</ele>
        <time>2017-10-17T17:19:10Z</time>
      </trkpt>
      <trkpt lat="49.4208" lon="1.29071">
        <ele>148</ele>
        <time>2017-10-17T17:19:10Z</time>
      </trkpt>
      <trkpt lat="49.42078" lon="1.29078">
        <ele>148</ele>
        <time>2017-10-17T17:19:26Z</time>
      </trkpt>
      <trkpt lat="49.42078" lon="1.29085">
        <ele>148</ele>
        <time>2017-10-17T17:19:26Z</time>
      </trkpt>
      <trkpt lat="49.42078" lon="1.29092">
        <ele>148</ele>
        <time>2017-10-17T17:19:26Z</time>
      </trkpt>
      <trkpt lat="49.42079" lon="1.291">
        <ele>148</ele>
        <time>2017-10-17T17:19:26Z</time>
      </trkpt>
      <trkpt lat="49.4208" lon="1.29108">
        <ele>148</ele>
        <time>2017-10-17T17:19:42Z</time>
      </trkpt>
      <trkpt lat="49.42081" lon="1.29116">
        <ele>148</ele>
        <time>2017-10-17T17:19:42Z</time>
      </trkpt>
      <trkpt lat="49.42082" lon="1.29123">
        <ele>148</ele>
        <time>2017-10-17T17:19:42Z</time>
      </trkpt>
      <trkpt lat="49.42082" lon="1.2913">
        <ele>148</ele>
        <time>2017-10-17T17:19:42Z</time>
      </trkpt>
      <trkpt lat="49.42082" lon="1.29137">
        <ele>148</ele>
        <time>2017-10-17T17:19:58Z</time>
      </trkpt>
      <trkpt lat="49.42083" lon="1.29144">
        <ele>148</ele>
        <time>2017-10-17T17:19:58Z</time>
      </trkpt>
      <trkpt lat="49.42083" lon="1.29151">
        <ele>148</ele>
        <time>2017-10-17T17:19:58Z</time>
      </trkpt>
      <trkpt lat="49.42084" lon="1.29158">
        <ele>148</ele>
        <time>2017-10-17T17:19:58Z</time>
      </trkpt>
      <trkpt lat="49.42085" lon="1.29166">
        <ele>148</ele>
        <time>2017-10-17T17:20:14Z</time>
      </trkpt>
      <trkpt lat="49.42085" lon="1.29173">
        <ele>148</ele>
        <time>2017-10-17T17:20:14Z</time>
      </trkpt>
      <trkpt lat="49.42085" lon="1.2918">
        <ele>148</ele>
        <time>2017-10-17T17:20:14Z</time>
      </trkpt>
      <trkpt lat="49.42086" lon="1.29187">
        <ele>148</ele>
        <time>2017-10-17T17:20:14Z</time>
      </trkpt>
      <trkpt lat="49.42087" lon="1.29195">
        <ele>148</ele>
        <time>2017-10-17T17:20:30Z</time>
      </trkpt>
      <trkpt lat="49.42088" lon="1.29202">
        <ele>148</ele>
        <time>2017-10-17T17:20:30Z</time>
      </trkpt>
      <trkpt lat="49.42089" lon="1.2921">
        <ele>147</ele>
        <time>2017-10-17T17:20:30Z</time>
      </trkpt>
      <trkpt lat="49.42089" lon="1.29218">
        <ele>147</ele>
        <time>2017-10-17T17:20:30Z</time>
      </trkpt>
      <trkpt lat="49.42089" lon="1.29226">
        <ele>147</ele>
        <time>2017-10-17T17:20:46Z</time>
      </trkpt>
      <trkpt lat="49.42089" lon="1.29233">
        <ele>147</ele>
        <time>2017-10-17T17:20:46Z</time>
      </trkpt>
      <trkpt lat="49.4209" lon="1.29241">
        <ele>147</ele>
        <time>2017-10-17T17:20:46Z</time>
      </trkpt>
      <trkpt lat="49.42089" lon="1.29248">
        <ele>147</ele>
        <time>2017-10-17T17:20:46Z</time>
      </trkpt>
      <trkpt lat="49.42089" lon="1.29255">
        <ele>147</ele>
        <time>2017-10-17T17:21:02Z</time>
      </trkpt>
      <trkpt lat="49.42088" lon="1.29262">
        <ele>147</ele>
        <time>2017-10-17T17:21:02Z</time>
      </trkpt>
      <trkpt lat="49.42087" lon="1.29269">
        <ele>147</ele>
        <time>2017-10-17T17:21:02Z</time>
      </trkpt>
      <trkpt lat="49.42086" lon="1.29277">
        <ele>147</ele>
        <time>2017-10-17T17:21:02Z</time>
      </trkpt>
      <trkpt lat="49.42084" lon="1.29283">
        <ele>147</ele>
        <time>2017-10-17T17:21:18Z</time>
      </trkpt>
      <trkpt lat="49.42082" lon="1.2929">
        <ele>147</ele>
        <time>2017-10-17T17:21:18Z</time>
      </trkpt>
      <trkpt lat="49.4208" lon="1.29296">
        <ele>146</ele>
        <time>2017-10-17T17:21:18Z</time>
      </trkpt>
      <trkpt lat="49.42078" lon="1.29302">
        <ele>146</ele>
        <time>2017-10-17T17:21:18Z</time>
      </trkpt>
      <trkpt lat="49.42076" lon="1.29309">
        <ele>146</ele>
        <time>2017-10-17T17:21:34Z</time>
      </trkpt>
      <trkpt lat="49.42074" lon="1.29314">
        <ele>146</ele>
        <time>2017-10-17T17:21:34Z</time>
      </trkpt>
      <trkpt lat="49.42072" lon="1.29321">
        <ele>146</ele>
        <time>2017-10-17T17:21:34Z</time>
      </trkpt>
      <trkpt lat="49.4207" lon="1.29327">
        <ele>146</ele>
        <time>2017-10-17T17:21:34Z</time>
      </trkpt>
      <trkpt lat="49.42068" lon="1.29333">
        <ele>146</ele>
        <time>2017-10-17T17:21:50Z</time>
      </trkpt>
      <trkpt lat="49.42065" lon="1.29339">
        <ele>146</ele>
        <time>2017-10-17T17:21:50Z</time>
      </trkpt>
      <trkpt lat="49.42063" lon="1.29346">
        <ele>146</ele>
        <time>2017-10-17T17:21:50Z</time>
      </trkpt>
      <trkpt lat="49.42061" lon="1.29354">
        <ele>146</ele>
        <time>2017-10-17T17:21:50Z</time>
      </trkpt>
      <trkpt lat="49.4206" lon="1.29361">
        <ele>146</ele>
        <time>2017-10-17T17:22:06Z</time>
      </trkpt>
      <trkpt lat="49.42057" lon="1.29368">
        <ele>146</ele>
        <time>2017-10-17T17:22:06Z</time>
      </trkpt>
      <trkpt lat="49.42055" lon="1.29375">
        <ele>146</ele>
        <time>2017-10-17T17:22:06Z</time>
      </trkpt>
      <trkpt lat="49.42053" lon="1.29381">
        <ele>146</ele>
        <time>2017-10-17T17:22:06Z</time>
      </trkpt>
      <trkpt lat="49.42052" lon="1.29388">
        <ele>146</ele>
        <time>2017-10-17T17:22:22Z</time>
      </trkpt>
      <trkpt lat="49.4205" lon="1.29395">
        <ele>146</ele>
        <time>2017-10-17T17:22:22Z</time>
      </trkpt>
      <trkpt lat="49.42048" lon="1.29402">
        <ele>146</ele>
        <time>2017-10-17T17:22:22Z</time>
      </trkpt>
      <trkpt lat="49.42047" lon="1.29408">
        <ele>146</ele>
        <time>2017-10-17T17:22:22Z</time>
      </trkpt>
      <trkpt lat="49.42047" lon="1.29416">
        <ele>146</ele>
        <time>2017-10-17T17:22:38Z</time>
      </trkpt>
      <trkpt lat="49.42046" lon="1.29423">
        <ele>146</ele>
        <time>2017-10-17T17:22:38Z</time>
      </trkpt>
      <trkpt lat="49.42046" lon="1.29429">
        <ele>146</ele>
        <time>2017-10-17T17:22:38Z</time>
      </trkpt>
      <trkpt lat="49.42045" lon="1.29436">
        <ele>146</ele>
        <time>2017-10-17T17:22:38Z</time>
      </trkpt>
      <trkpt lat="49.42043" lon="1.29441">
        <ele>146</ele>
        <time>2017-10-17T17:22:54Z</time>
      </trkpt>
      <trkpt lat="49.42041" lon="1.29442">
        <ele>146</ele>
        <time>2017-10-17T17:22:54Z</time>
      </trkpt>
      <trkpt lat="49.42037" lon="1.29446">
        <ele>146</ele>
        <time>2017-10-17T17:22:54Z</time>
      </trkpt>
      <trkpt lat="49.42033" lon="1.2945">
        <ele>146</ele>
        <time>2017-10-17T17:22:54Z</time>
      </trkpt>
      <trkpt lat="49.42026" lon="1.2945">
        <ele>146</ele>
        <time>2017-10-17T17:23:46Z</time>
      </trkpt>
      <trkpt lat="49.42026" lon="1.2945">
        <ele>146</ele>
        <time>2017-10-17T17:23:46Z</time>
      </trkpt>
      <trkpt lat="49.42026" lon="1.2945">
        <ele>146</ele>
        <time>2017-10-17T17:23:46Z</time>
      </trkpt>
      <trkpt lat="49.42022" lon="1.29449">
        <ele>146</ele>
        <time>2017-10-17T17:23:46Z</time>
      </trkpt>
      <trkpt lat="49.42019" lon="1.29448">
        <ele>146</ele>
        <time>2017-10-17T17:23:46Z</time>
      </trkpt>
      <trkpt lat="49.42015" lon="1.29447">
        <ele>146</ele>
        <time>2017-10-17T17:24:02Z</time>
      </trkpt>
      <trkpt lat="49.4201" lon="1.29446">
        <ele>146</ele>
        <time>2017-10-17T17:24:02Z</time>
      </trkpt>
      <trkpt lat="49.42005" lon="1.29447">
        <ele>146</ele>
        <time>2017-10-17T17:24:02Z</time>
      </trkpt>
      <trkpt lat="49.42001" lon="1.29448">
        <ele>146</ele>
        <time>2017-10-17T17:24:02Z</time>
      </trkpt>
      <trkpt lat="49.41998" lon="1.29448">
        <ele>146</ele>
        <time>2017-10-17T17:24:18Z</time>
      </trkpt>
      <trkpt lat="49.41995" lon="1.29448">
        <ele>146</ele>
        <time>2017-10-17T17:24:18Z</time>
      </trkpt>
      <trkpt lat="49.41991" lon="1.29447">
        <ele>146</ele>
        <time>2017-10-17T17:24:18Z</time>
      </trkpt>
      <trkpt lat="49.41986" lon="1.29446">
        <ele>146</ele>
        <time>2017-10-17T17:24:18Z</time>
      </trkpt>
      <trkpt lat="49.41982" lon="1.29447">
        <ele>146</ele>
        <time>2017-10-17T17:24:34Z</time>
      </trkpt>
      <trkpt lat="49.41977" lon="1.29447">
        <ele>146</ele>
        <time>2017-10-17T17:24:34Z</time>
      </trkpt>
      <trkpt lat="49.41972" lon="1.29448">
        <ele>146</ele>
        <time>2017-10-17T17:24:34Z</time>
      </trkpt>
      <trkpt lat="49.41967" lon="1.29449">
        <ele>146</ele>
        <time>2017-10-17T17:24:34Z</time>
      </trkpt>
      <trkpt lat="49.41962" lon="1.29449">
        <ele>146</ele>
        <time>2017-10-17T17:24:50Z</time>
      </trkpt>
      <trkpt lat="49.41958" lon="1.2945">
        <ele>147</ele>
        <time>2017-10-17T17:24:50Z</time>
      </trkpt>
      <trkpt lat="49.41953" lon="1.29451">
        <ele>147</ele>
        <time>2017-10-17T17:24:50Z</time>
      </trkpt>
      <trkpt lat="49.41948" lon="1.29451">
        <ele>147</ele>
        <time>2017-10-17T17:24:50Z</time>
      </trkpt>
      <trkpt lat="49.41944" lon="1.29451">
        <ele>147</ele>
        <time>2017-10-17T17:25:06Z</time>
      </trkpt>
      <trkpt lat="49.41939" lon="1.29452">
        <ele>147</ele>
        <time>2017-10-17T17:25:06Z</time>
      </trkpt>
      <trkpt lat="49.41934" lon="1.29452">
        <ele>147</ele>
        <time>2017-10-17T17:25:06Z</time>
      </trkpt>
      <trkpt lat="49.4193" lon="1.29453">
        <ele>147</ele>
        <time>2017-10-17T17:25:06Z</time>
      </trkpt>
      <trkpt lat="49.41925" lon="1.29453">
        <ele>147</ele>
        <time>2017-10-17T17:25:22Z</time>
      </trkpt>
      <trkpt lat="49.41921" lon="1.29454">
        <ele>147</ele>
        <time>2017-10-17T17:25:22Z</time>
      </trkpt>
      <trkpt lat="49.41916" lon="1.29454">
        <ele>147</ele>
        <time>2017-10-17T17:25:22Z</time>
      </trkpt>
      <trkpt lat="49.41911" lon="1.29454">
        <ele>147</ele>
        <time>2017-10-17T17:25:22Z</time>
      </trkpt>
      <trkpt lat="49.41906" lon="1.29454">
        <ele>147</ele>
        <time>2017-10-17T17:25:38Z</time>
      </trkpt>
      <trkpt lat="49.41901" lon="1.29455">
        <ele>147</ele>
        <time>2017-10-17T17:25:38Z</time>
      </trkpt>
      <trkpt lat="49.41896" lon="1.29454">
        <ele>147</ele>
        <time>2017-10-17T17:25:38Z</time>
      </trkpt>
      <trkpt lat="49.41891" lon="1.29454">
        <ele>147</ele>
        <time>2017-10-17T17:25:38Z</time>
      </trkpt>
      <trkpt lat="49.41886" lon="1.29453">
        <ele>147</ele>
        <time>2017-10-17T17:25:54Z</time>
      </trkpt>
      <trkpt lat="49.41881" lon="1.29452">
        <ele>147</ele>
        <time>2017-10-17T17:25:54Z</time>
      </trkpt>
      <trkpt lat="49.41876" lon="1.29452">
        <ele>147</ele>
        <time>2017-10-17T17:25:54Z</time>
      </trkpt>
      <trkpt lat="49.41871" lon="1.29451">
        <ele>148</ele>
        <time>2017-10-17T17:25:54Z</time>
      </trkpt>
      <trkpt lat="49.41866" lon="1.29451">
        <ele>148</ele>
        <time>2017-10-17T17:26:10Z</time>
      </trkpt>
      <trkpt lat="49.41861" lon="1.2945">
        <ele>148</ele>
        <time>2017-10-17T17:26:10Z</time>
      </trkpt>
      <trkpt lat="49.41856" lon="1.29449">
        <ele>148</ele>
        <time>2017-10-17T17:26:10Z</time>
      </trkpt>
      <trkpt lat="49.41851" lon="1.29449">
        <ele>148</ele>
        <time>2017-10-17T17:26:10Z</time>
      </trkpt>
      <trkpt lat="49.41847" lon="1.29448">
        <ele>148</ele>
        <time>2017-10-17T17:26:26Z</time>
      </trkpt>
      <trkpt lat="49.41843" lon="1.29447">
        <ele>148</ele>
        <time>2017-10-17T17:26:26Z</time>
      </trkpt>
      <trkpt lat="49.41838" lon="1.29446">
        <ele>148</ele>
        <time>2017-10-17T17:26:26Z</time>
      </trkpt>
      <trkpt lat="49.41833" lon="1.29446">
        <ele>148</ele>
        <time>2017-10-17T17:26:26Z</time>
      </trkpt>
      <trkpt lat="49.41829" lon="1.29445">
        <ele>148</ele>
        <time>2017-10-17T17:26:42Z</time>
      </trkpt>
      <trkpt lat="49.41824" lon="1.29444">
        <ele>148</ele>
        <time>2017-10-17T17:26:42Z</time>
      </trkpt>
      <trkpt lat="49.4182" lon="1.29442">
        <ele>148</ele>
        <time>2017-10-17T17:26:42Z</time>
      </trkpt>
      <trkpt lat="49.41816" lon="1.29441">
        <ele>148</ele>
        <time>2017-10-17T17:26:42Z</time>
      </trkpt>
      <trkpt lat="49.41811" lon="1.29441">
        <ele>148</ele>
        <time>2017-10-17T17:26:58Z</time>
      </trkpt>
      <trkpt lat="49.41806" lon="1.2944">
        <ele>148</ele>
        <time>2017-10-17T17:26:58Z</time>
      </trkpt>
      <trkpt lat="49.41801" lon="1.2944">
        <ele>148</ele>
        <time>2017-10-17T17:26:58Z</time>
      </trkpt>
      <trkpt lat="49.41796" lon="1.2944">
        <ele>148</ele>
        <time>2017-10-17T17:26:58Z</time>
      </trkpt>
      <trkpt lat="49.41791" lon="1.29439">
        <ele>148</ele>
        <time>2017-10-17T17:27:14Z</time>
      </trkpt>
      <trkpt lat="49.41787" lon="1.29439">
        <ele>148</ele>
        <time>2017-10-17T17:27:14Z</time>
      </trkpt>
      <trkpt lat="49.41782" lon="1.29438">
        <ele>148</ele>
        <time>2017-10-17T17:27:14Z</time>
      </trkpt>
      <trkpt lat="49.41778" lon="1.29438">
        <ele>148</ele>
        <time>2017-10-17T17:27:14Z</time>
      </trkpt>
      <trkpt lat="49.41773" lon="1.29438">
        <ele>148</ele>
        <time>2017-10-17T17:27:30Z</time>
      </trkpt>
      <trkpt lat="49.41768" lon="1.29439">
        <ele>148</ele>
        <time>2017-10-17T17:27:30Z</time>
      </trkpt>
      <trkpt lat="49.41764" lon="1.29439">
        <ele>148</ele>
        <time>2017-10-17T17:27:30Z</time>
      </trkpt>
      <trkpt lat="49.41759" lon="1.29439">
        <ele>148</ele>
        <time>2017-10-17T17:27:30Z</time>
      </trkpt>
      <trkpt lat="49.41754" lon="1.29439">
        <ele>148</ele>
        <time>2017-10-17T17:27:46Z</time>
      </trkpt>
      <trkpt lat="49.41749" lon="1.29439">
        <ele>148</ele>
        <time>2017-10-17T17:27:46Z</time>
      </trkpt>
      <trkpt lat="49.41744" lon="1.29439">
        <ele>148</ele>
        <time>2017-10-17T17:27:46Z</time>
      </trkpt>
      <trkpt lat="49.41739" lon="1.29439">
        <ele>148</ele>
        <time>2017-10-17T17:27:46Z</time>
      </trkpt>
      <trkpt lat="49.41734" lon="1.29439">
        <ele>148</ele>
        <time>2017-10-17T17:28:02Z</time>
      </trkpt>
      <trkpt lat="49.41729" lon="1.29439">
        <ele>148</ele>
        <time>2017-10-17T17:28:02Z</time>
      </trkpt>
      <trkpt lat="49.41724" lon="1.29439">
        <ele>148</ele>
        <time>2017-10-17T17:28:02Z</time>
      </trkpt>
      <trkpt lat="49.41719" lon="1.2944">
        <ele>148</ele>
        <time>2017-10-17T17:28:02Z</time>
      </trkpt>
      <trkpt lat="49.41714" lon="1.29438">
        <ele>148</ele>
        <time>2017-10-17T17:28:18Z</time>
      </trkpt>
      <trkpt lat="49.41709" lon="1.29435">
        <ele>148</ele>
        <time>2017-10-17T17:28:18Z</time>
      </trkpt>
      <trkpt lat="49.41704" lon="1.29433">
        <ele>148</ele>
        <time>2017-10-17T17:28:18Z</time>
      </trkpt>
      <trkpt lat="49.417" lon="1.2943">
        <ele>148</ele>
        <time>2017-10-17T17:28:18Z</time>
      </trkpt>
      <trkpt lat="49.41696" lon="1.29428">
        <ele>148</ele>
        <time>2017-10-17T17:28:34Z</time>
      </trkpt>
      <trkpt lat="49.41691" lon="1.29425">
        <ele>148</ele>
        <time>2017-10-17T17:28:34Z</time>
      </trkpt>
      <trkpt lat="49.41687" lon="1.29422">
        <ele>148</ele>
        <time>2017-10-17T17:28:34Z</time>
      </trkpt>
      <trkpt lat="49.41683" lon="1.29418">
        <ele>148</ele>
        <time>2017-10-17T17:28:34Z</time>
      </trkpt>
      <trkpt lat="49.41679" lon="1.29414">
        <ele>148</ele>
        <time>2017-10-17T17:28:50Z</time>
      </trkpt>
      <trkpt lat="49.41675" lon="1.2941">
        <ele>148</ele>
        <time>2017-10-17T17:28:50Z</time>
      </trkpt>
      <trkpt lat="49.41671" lon="1.29407">
        <ele>148</ele>
        <time>2017-10-17T17:28:50Z</time>
      </trkpt>
      <trkpt lat="49.41667" lon="1.29402">
        <ele>148</ele>
        <time>2017-10-17T17:28:50Z</time>
      </trkpt>
      <trkpt lat="49.41663" lon="1.29398">
        <ele>148</ele>
        <time>2017-10-17T17:29:06Z</time>
      </trkpt>
      <trkpt lat="49.4166" lon="1.29394">
        <ele>148</ele>
        <time>2017-10-17T17:29:06Z</time>
      </trkpt>
      <trkpt lat="49.41656" lon="1.29391">
        <ele>148</ele>
        <time>2017-10-17T17:29:06Z</time>
      </trkpt>
      <trkpt lat="49.41652" lon="1.29387">
        <ele>148</ele>
        <time>2017-10-17T17:29:06Z</time>
      </trkpt>
      <trkpt lat="49.41648" lon="1.29383">
        <ele>148</ele>
        <time>2017-10-17T17:29:22Z</time>
      </trkpt>
      <trkpt lat="49.41644" lon="1.2938">
        <ele>148</ele>
        <time>2017-10-17T17:29:22Z</time>
      </trkpt>
      <trkpt lat="49.4164" lon="1.29377">
        <ele>148</ele>
        <time>2017-10-17T17:29:22Z</time>
      </trkpt>
      <trkpt lat="49.41635" lon="1.29375">
        <ele>148</ele>
        <time>2017-10-17T17:29:22Z</time>
      </trkpt>
      <trkpt lat="49.4163" lon="1.29373">
        <ele>148</ele>
        <time>2017-10-17T17:29:38Z</time>
      </trkpt>
      <trkpt lat="49.41626" lon="1.2937">
        <ele>148</ele>
        <time>2017-10-17T17:29:38Z</time>
      </trkpt>
      <trkpt lat="49.41622" lon="1.29369">
        <ele>148</ele>
        <time>2017-10-17T17:29:38Z</time>
      </trkpt>
      <trkpt lat="49.41617" lon="1.29372">
        <ele>148</ele>
        <time>2017-10-17T17:29:38Z</time>
      </trkpt>
      <trkpt lat="49.41614" lon="1.29374">
        <ele>148</ele>
        <time>2017-10-17T17:30:06Z</time>
      </trkpt>
      <trkpt lat="49.41613" lon="1.29381">
        <ele>148</ele>
        <time>2017-10-17T17:30:06Z</time>
      </trkpt>
      <trkpt lat="49.41612" lon="1.29387">
        <ele>148</ele>
        <time>2017-10-17T17:30:06Z</time>
      </trkpt>
      <trkpt lat="49.41611" lon="1.29394">
        <ele>148</ele>
        <time>2017-10-17T17:30:06Z</time>
      </trkpt>
      <trkpt lat="49.4161" lon="1.29401">
        <ele>148</ele>
        <time>2017-10-17T17:30:06Z</time>
      </trkpt>
      <trkpt lat="49.41608" lon="1.29408">
        <ele>148</ele>
        <time>2017-10-17T17:30:22Z</time>
      </trkpt>
      <trkpt lat="49.41607" lon="1.29414">
        <ele>148</ele>
        <time>2017-10-17T17:30:22Z</time>
      </trkpt>
      <trkpt lat="49.41604" lon="1.2942">
        <ele>148</ele>
        <time>2017-10-17T17:30:22Z</time>
      </trkpt>
      <trkpt lat="49.41603" lon="1.29428">
        <ele>148</ele>
        <time>2017-10-17T17:30:22Z</time>
      </trkpt>
      <trkpt lat="49.41602" lon="1.29435">
        <ele>148</ele>
        <time>2017-10-17T17:30:38Z</time>
      </trkpt>
      <trkpt lat="49.416" lon="1.29442">
        <ele>148</ele>
        <time>2017-10-17T17:30:38Z</time>
      </trkpt>
      <trkpt lat="49.41598" lon="1.29448">
        <ele>148</ele>
        <time>2017-10-17T17:30:38Z</time>
      </trkpt>
      <trkpt lat="49.41596" lon="1.29455">
        <ele>148</ele>
        <time>2017-10-17T17:30:38Z</time>
      </trkpt>
      <trkpt lat="49.41594" lon="1.29462">
        <ele>150</ele>
        <time>2017-10-17T17:30:54Z</time>
      </trkpt>
      <trkpt lat="49.41592" lon="1.29469">
        <ele>150</ele>
        <time>2017-10-17T17:30:54Z</time>
      </trkpt>
      <trkpt lat="49.4159" lon="1.29477">
        <ele>150</ele>
        <time>2017-10-17T17:30:54Z</time>
      </trkpt>
      <trkpt lat="49.41588" lon="1.29484">
        <ele>150</ele>
        <time>2017-10-17T17:30:54Z</time>
      </trkpt>
      <trkpt lat="49.41586" lon="1.2949">
        <ele>150</ele>
        <time>2017-10-17T17:31:10Z</time>
      </trkpt>
      <trkpt lat="49.41585" lon="1.29494">
        <ele>150</ele>
        <time>2017-10-17T17:31:10Z</time>
      </trkpt>
      <trkpt lat="49.41584" lon="1.29499">
        <ele>150</ele>
        <time>2017-10-17T17:31:10Z</time>
      </trkpt>
      <trkpt lat="49.41581" lon="1.29504">
        <ele>150</ele>
        <time>2017-10-17T17:31:10Z</time>
      </trkpt>
      <trkpt lat="49.41579" lon="1.29511">
        <ele>150</ele>
        <time>2017-10-17T17:31:26Z</time>
      </trkpt>
      <trkpt lat="49.41576" lon="1.29517">
        <ele>150</ele>
        <time>2017-10-17T17:31:26Z</time>
      </trkpt>
      <trkpt lat="49.41574" lon="1.29524">
        <ele>150</ele>
        <time>2017-10-17T17:31:26Z</time>
      </trkpt>
      <trkpt lat="49.41571" lon="1.2953">
        <ele>150</ele>
        <time>2017-10-17T17:31:26Z</time>
      </trkpt>
      <trkpt lat="49.41568" lon="1.29536">
        <ele>150</ele>
        <time>2017-10-17T17:31:42Z</time>
      </trkpt>
      <trkpt lat="49.41565" lon="1.29542">
        <ele>150</ele>
        <time>2017-10-17T17:31:42Z</time>
      </trkpt>
      <trkpt lat="49.4156" lon="1.29546">
        <ele>150</ele>
        <time>2017-10-17T17:31:42Z</time>
      </trkpt>
      <trkpt lat="49.41555" lon="1.29548">
        <ele>150</ele>
        <time>2017-10-17T17:31:42Z</time>
      </trkpt>
      <trkpt lat="49.4155" lon="1.29549">
        <ele>150</ele>
        <time>2017-10-17T17:31:58Z</time>
      </trkpt>
      <trkpt lat="49.41545" lon="1.29549">
        <ele>150</ele>
        <time>2017-10-17T17:31:58Z</time>
      </trkpt>
      <trkpt lat="49.41539" lon="1.2955">
        <ele>151</ele>
        <time>2017-10-17T17:31:58Z</time>
      </trkpt>
      <trkpt lat="49.41535" lon="1.29551">
        <ele>151</ele>
        <time>2017-10-17T17:31:58Z</time>
      </trkpt>
      <trkpt lat="49.41531" lon="1.29552">
        <ele>151</ele>
        <time>2017-10-17T17:32:14Z</time>
      </trkpt>
      <trkpt lat="49.41526" lon="1.29553">
        <ele>151</ele>
        <time>2017-10-17T17:32:14Z</time>
      </trkpt>
      <trkpt lat="49.41522" lon="1.29554">
        <ele>151</ele>
        <time>2017-10-17T17:32:14Z</time>
      </trkpt>
      <trkpt lat="49.41517" lon="1.29555">
        <ele>151</ele>
        <time>2017-10-17T17:32:14Z</time>
      </trkpt>
      <trkpt lat="49.41512" lon="1.29556">
        <ele>151</ele>
        <time>2017-10-17T17:32:30Z</time>
      </trkpt>
      <trkpt lat="49.41508" lon="1.29557">
        <ele>151</ele>
        <time>2017-10-17T17:32:30Z</time>
      </trkpt>
      <trkpt lat="49.41503" lon="1.29559">
        <ele>151</ele>
        <time>2017-10-17T17:32:30Z</time>
      </trkpt>
      <trkpt lat="49.41498" lon="1.2956">
        <ele>151</ele>
        <time>2017-10-17T17:32:30Z</time>
      </trkpt>
      <trkpt lat="49.41494" lon="1.29561">
        <ele>151</ele>
        <time>2017-10-17T17:32:46Z</time>
      </trkpt>
      <trkpt lat="49.41489" lon="1.29563">
        <ele>151</ele>
        <time>2017-10-17T17:32:46Z</time>
      </trkpt>
      <trkpt lat="49.41484" lon="1.29564">
        <ele>151</ele>
        <time>2017-10-17T17:32:46Z</time>
      </trkpt>
      <trkpt lat="49.41479" lon="1.29566">
        <ele>151</ele>
        <time>2017-10-17T17:32:46Z</time>
      </trkpt>
      <trkpt lat="49.41474" lon="1.29567">
        <ele>151</ele>
        <time>2017-10-17T17:33:02Z</time>
      </trkpt>
      <trkpt lat="49.4147" lon="1.29568">
        <ele>151</ele>
        <time>2017-10-17T17:33:02Z</time>
      </trkpt>
      <trkpt lat="49.41466" lon="1.29569">
        <ele>151</ele>
        <time>2017-10-17T17:33:02Z</time>
      </trkpt>
      <trkpt lat="49.41462" lon="1.29569">
        <ele>151</ele>
        <time>2017-10-17T17:33:02Z</time>
      </trkpt>
      <trkpt lat="49.41457" lon="1.29569">
        <ele>152</ele>
        <time>2017-10-17T17:33:18Z</time>
      </trkpt>
      <trkpt lat="49.41453" lon="1.29569">
        <ele>152</ele>
        <time>2017-10-17T17:33:18Z</time>
      </trkpt>
      <trkpt lat="49.41449" lon="1.29569">
        <ele>152</ele>
        <time>2017-10-17T17:33:18Z</time>
      </trkpt>
      <trkpt lat="49.41444" lon="1.29569">
        <ele>152</ele>
        <time>2017-10-17T17:33:18Z</time>
      </trkpt>
      <trkpt lat="49.41439" lon="1.29569">
        <ele>152</ele>
        <time>2017-10-17T17:33:34Z</time>
      </trkpt>
      <trkpt lat="49.41435" lon="1.29569">
        <ele>152</ele>
        <time>2017-10-17T17:33:34Z</time>
      </trkpt>
      <trkpt lat="49.4143" lon="1.29568">
        <ele>152</ele>
        <time>2017-10-17T17:33:34Z</time>
      </trkpt>
      <trkpt lat="49.41426" lon="1.29567">
        <ele>152</ele>
        <time>2017-10-17T17:33:34Z</time>
      </trkpt>
      <trkpt lat="49.41421" lon="1.29567">
        <ele>152</ele>
        <time>2017-10-17T17:33:54Z</time>
      </trkpt>
      <trkpt lat="49.41418" lon="1.29565">
        <ele>152</ele>
        <time>2017-10-17T17:33:54Z</time>
      </trkpt>
      <trkpt lat="49.41416" lon="1.29563">
        <ele>152</ele>
        <time>2017-10-17T17:33:54Z</time>
      </trkpt>
      <trkpt lat="49.41413" lon="1.29561">
        <ele>152</ele>
        <time>2017-10-17T17:33:54Z</time>
      </trkpt>
      <trkpt lat="49.41409" lon="1.29561">
        <ele>152</ele>
        <time>2017-10-17T17:33:54Z</time>
      </trkpt>
      <trkpt lat="49.41403" lon="1.29561">
        <ele>152</ele>
        <time>2017-10-17T17:34:10Z</time>
      </trkpt>
      <trkpt lat="49.41397" lon="1.29561">
        <ele>152</ele>
        <time>2017-10-17T17:34:10Z</time>
      </trkpt>
      <trkpt lat="49.41392" lon="1.29561">
        <ele>152</ele>
        <time>2017-10-17T17:34:10Z</time>
      </trkpt>
      <trkpt lat="49.41386" lon="1.29562">
        <ele>152</ele>
        <time>2017-10-17T17:34:10Z</time>
      </trkpt>
      <trkpt lat="49.4138" lon="1.29564">
        <ele>152</ele>
        <time>2017-10-17T17:34:26Z</time>
      </trkpt>
      <trkpt lat="49.41374" lon="1.29567">
        <ele>151</ele>
        <time>2017-10-17T17:34:26Z</time>
      </trkpt>
      <trkpt lat="49.41369" lon="1.29569">
        <ele>151</ele>
        <time>2017-10-17T17:34:26Z</time>
      </trkpt>
      <trkpt lat="49.41364" lon="1.2957">
        <ele>151</ele>
        <time>2017-10-17T17:34:26Z</time>
      </trkpt>
      <trkpt lat="49.41359" lon="1.29572">
        <ele>151</ele>
        <time>2017-10-17T17:34:42Z</time>
      </trkpt>
      <trkpt lat="49.41353" lon="1.29575">
        <ele>151</ele>
        <time>2017-10-17T17:34:42Z</time>
      </trkpt>
      <trkpt lat="49.41349" lon="1.29577">
        <ele>151</ele>
        <time>2017-10-17T17:34:42Z</time>
      </trkpt>
      <trkpt lat="49.41344" lon="1.29578">
        <ele>151</ele>
        <time>2017-10-17T17:34:42Z</time>
      </trkpt>
      <trkpt lat="49.41339" lon="1.2958">
        <ele>151</ele>
        <time>2017-10-17T17:34:58Z</time>
      </trkpt>
      <trkpt lat="49.41335" lon="1.29581">
        <ele>151</ele>
        <time>2017-10-17T17:34:58Z</time>
      </trkpt>
      <trkpt lat="49.4133" lon="1.29581">
        <ele>151</ele>
        <time>2017-10-17T17:34:58Z</time>
      </trkpt>
      <trkpt lat="49.41326" lon="1.29581">
        <ele>151</ele>
        <time>2017-10-17T17:34:58Z</time>
      </trkpt>
      <trkpt lat="49.41321" lon="1.29581">
        <ele>151</ele>
        <time>2017-10-17T17:35:14Z</time>
      </trkpt>
      <trkpt lat="49.41317" lon="1.29581">
        <ele>151</ele>
        <time>2017-10-17T17:35:14Z</time>
      </trkpt>
      <trkpt lat="49.41313" lon="1.29581">
        <ele>151</ele>
        <time>2017-10-17T17:35:14Z</time>
      </trkpt>
      <trkpt lat="49.41308" lon="1.2958">
        <ele>151</ele>
        <time>2017-10-17T17:35:14Z</time>
      </trkpt>
      <trkpt lat="49.41304" lon="1.2958">
        <ele>151</ele>
        <time>2017-10-17T17:35:30Z</time>
      </trkpt>
      <trkpt lat="49.41299" lon="1.29579">
        <ele>151</ele>
        <time>2017-10-17T17:35:30Z</time>
      </trkpt>
      <trkpt lat="49.41295" lon="1.29575">
        <ele>151</ele>
        <time>2017-10-17T17:35:30Z</time>
      </trkpt>
      <trkpt lat="49.41291" lon="1.29571">
        <ele>152</ele>
        <time>2017-10-17T17:35:30Z</time>
      </trkpt>
      <trkpt lat="49.41288" lon="1.29569">
        <ele>152</ele>
        <time>2017-10-17T17:35:46Z</time>
      </trkpt>
      <trkpt lat="49.41284" lon="1.2957">
        <ele>152</ele>
        <time>2017-10-17T17:35:46Z</time>
      </trkpt>
      <trkpt lat="49.4128" lon="1.2957">
        <ele>152</ele>
        <time>2017-10-17T17:35:46Z</time>
      </trkpt>
      <trkpt lat="49.41277" lon="1.29573">
        <ele>152</ele>
        <time>2017-10-17T17:35:46Z</time>
      </trkpt>
      <trkpt lat="49.41275" lon="1.29578">
        <ele>152</ele>
        <time>2017-10-17T17:36:02Z</time>
      </trkpt>
      <trkpt lat="49.41274" lon="1.29584">
        <ele>152</ele>
        <time>2017-10-17T17:36:02Z</time>
      </trkpt>
      <trkpt lat="49.41272" lon="1.2959">
        <ele>152</ele>
        <time>2017-10-17T17:36:02Z</time>
      </trkpt>
      <trkpt lat="49.41271" lon="1.29597">
        <ele>152</ele>
        <time>2017-10-17T17:36:02Z</time>
      </trkpt>
      <trkpt lat="49.4127" lon="1.29604">
        <ele>152</ele>
        <time>2017-10-17T17:36:18Z</time>
      </trkpt>
      <trkpt lat="49.4127" lon="1.29611">
        <ele>152</ele>
        <time>2017-10-17T17:36:18Z</time>
      </trkpt>
      <trkpt lat="49.4127" lon="1.29618">
        <ele>152</ele>
        <time>2017-10-17T17:36:18Z</time>
      </trkpt>
      <trkpt lat="49.41268" lon="1.29623">
        <ele>152</ele>
        <time>2017-10-17T17:36:18Z</time>
      </trkpt>
    </trkseg>
  </trk>
</gpx>